<?xml version="1.0" encoding="UTF-8" standalone="no" ?>
<gpx xmlns="http://www.topografix.com/GPX/1/1" xmlns:xsi="http://www.w3.org/2001/XMLSchema-instance" xsi:schemaLocation="http://www.topografix.com/GPX/1/1 http://www.topografix.com/GPX/1/1/gpx.xsd" version="1.1" creator="VisuGPX - https://www.visugpx.com">
  <metadata>
    <name>Carapateira V1</name>
    <desc><![CDATA[De Lagos jusqu'a la cote ouest en passant par les villages de Bario Sao Joao et Pedralva. De la piste roulante trés vallonnée. Arret au village de Pedralva niché dans un vallon (Slow village) où l'on trouve un bon resto trés sympa. A carapateira on peut faire une pause baignade dur la plage de Bordeira assez typique.]]></desc>
  </metadata>
  <trk>
    <name><![CDATA[Carapateira V1]]></name>
    <trkseg>
      <trkpt lat="37.13734" lon="-8.69091">
        <ele>36.19</ele>
        <time>2020-09-05T08:03:37Z</time>
      </trkpt>
      <trkpt lat="37.13734" lon="-8.69091">
        <ele>36.19</ele>
        <time>2020-09-05T08:03:39Z</time>
      </trkpt>
      <trkpt lat="37.13734" lon="-8.69091">
        <ele>34.74</ele>
        <time>2020-09-05T08:03:41Z</time>
      </trkpt>
      <trkpt lat="37.13736" lon="-8.69091">
        <ele>34.74</ele>
        <time>2020-09-05T08:03:50Z</time>
      </trkpt>
      <trkpt lat="37.13742" lon="-8.69096">
        <ele>34.74</ele>
        <time>2020-09-05T08:03:54Z</time>
      </trkpt>
      <trkpt lat="37.13764" lon="-8.69109">
        <ele>34.74</ele>
        <time>2020-09-05T08:04:02Z</time>
      </trkpt>
      <trkpt lat="37.13779" lon="-8.69123">
        <ele>36.19</ele>
        <time>2020-09-05T08:04:09Z</time>
      </trkpt>
      <trkpt lat="37.13781" lon="-8.69146">
        <ele>36.19</ele>
        <time>2020-09-05T08:04:14Z</time>
      </trkpt>
      <trkpt lat="37.13786" lon="-8.69205">
        <ele>36.19</ele>
        <time>2020-09-05T08:04:25Z</time>
      </trkpt>
      <trkpt lat="37.13788" lon="-8.69209">
        <ele>36.19</ele>
        <time>2020-09-05T08:04:26Z</time>
      </trkpt>
      <trkpt lat="37.13791" lon="-8.69213">
        <ele>36.19</ele>
        <time>2020-09-05T08:04:27Z</time>
      </trkpt>
      <trkpt lat="37.13794" lon="-8.69217">
        <ele>36.19</ele>
        <time>2020-09-05T08:04:28Z</time>
      </trkpt>
      <trkpt lat="37.13798" lon="-8.6922">
        <ele>36.19</ele>
        <time>2020-09-05T08:04:29Z</time>
      </trkpt>
      <trkpt lat="37.13801" lon="-8.69223">
        <ele>36.19</ele>
        <time>2020-09-05T08:04:30Z</time>
      </trkpt>
      <trkpt lat="37.13806" lon="-8.69225">
        <ele>36.19</ele>
        <time>2020-09-05T08:04:31Z</time>
      </trkpt>
      <trkpt lat="37.1381" lon="-8.69226">
        <ele>36.19</ele>
        <time>2020-09-05T08:04:32Z</time>
      </trkpt>
      <trkpt lat="37.13815" lon="-8.69227">
        <ele>36.19</ele>
        <time>2020-09-05T08:04:33Z</time>
      </trkpt>
      <trkpt lat="37.13819" lon="-8.69228">
        <ele>36.19</ele>
        <time>2020-09-05T08:04:34Z</time>
      </trkpt>
      <trkpt lat="37.13824" lon="-8.69229">
        <ele>36.19</ele>
        <time>2020-09-05T08:04:35Z</time>
      </trkpt>
      <trkpt lat="37.1387" lon="-8.69232">
        <ele>36.19</ele>
        <time>2020-09-05T08:04:45Z</time>
      </trkpt>
      <trkpt lat="37.13921" lon="-8.69243">
        <ele>37.63</ele>
        <time>2020-09-05T08:04:57Z</time>
      </trkpt>
      <trkpt lat="37.13941" lon="-8.69248">
        <ele>38.59</ele>
        <time>2020-09-05T08:05:02Z</time>
      </trkpt>
      <trkpt lat="37.13988" lon="-8.69255">
        <ele>40.03</ele>
        <time>2020-09-05T08:05:13Z</time>
      </trkpt>
      <trkpt lat="37.14038" lon="-8.69267">
        <ele>40.99</ele>
        <time>2020-09-05T08:05:24Z</time>
      </trkpt>
      <trkpt lat="37.14074" lon="-8.69278">
        <ele>43.4</ele>
        <time>2020-09-05T08:05:34Z</time>
      </trkpt>
      <trkpt lat="37.141" lon="-8.69283">
        <ele>46.28</ele>
        <time>2020-09-05T08:05:42Z</time>
      </trkpt>
      <trkpt lat="37.14125" lon="-8.69285">
        <ele>49.16</ele>
        <time>2020-09-05T08:05:51Z</time>
      </trkpt>
      <trkpt lat="37.14156" lon="-8.69273">
        <ele>50.61</ele>
        <time>2020-09-05T08:06:02Z</time>
      </trkpt>
      <trkpt lat="37.14188" lon="-8.69256">
        <ele>52.05</ele>
        <time>2020-09-05T08:06:13Z</time>
      </trkpt>
      <trkpt lat="37.14218" lon="-8.69256">
        <ele>53.49</ele>
        <time>2020-09-05T08:06:22Z</time>
      </trkpt>
      <trkpt lat="37.14252" lon="-8.69254">
        <ele>54.45</ele>
        <time>2020-09-05T08:06:32Z</time>
      </trkpt>
      <trkpt lat="37.14283" lon="-8.69234">
        <ele>55.41</ele>
        <time>2020-09-05T08:06:42Z</time>
      </trkpt>
      <trkpt lat="37.14317" lon="-8.69211">
        <ele>55.89</ele>
        <time>2020-09-05T08:06:52Z</time>
      </trkpt>
      <trkpt lat="37.14358" lon="-8.69187">
        <ele>54.45</ele>
        <time>2020-09-05T08:07:03Z</time>
      </trkpt>
      <trkpt lat="37.14403" lon="-8.69166">
        <ele>51.57</ele>
        <time>2020-09-05T08:07:12Z</time>
      </trkpt>
      <trkpt lat="37.14439" lon="-8.69147">
        <ele>49.65</ele>
        <time>2020-09-05T08:07:18Z</time>
      </trkpt>
      <trkpt lat="37.14446" lon="-8.69145">
        <ele>49.65</ele>
        <time>2020-09-05T08:07:19Z</time>
      </trkpt>
      <trkpt lat="37.14454" lon="-8.69144">
        <ele>49.16</ele>
        <time>2020-09-05T08:07:20Z</time>
      </trkpt>
      <trkpt lat="37.14521" lon="-8.69126">
        <ele>46.76</ele>
        <time>2020-09-05T08:07:29Z</time>
      </trkpt>
      <trkpt lat="37.14528" lon="-8.69122">
        <ele>46.28</ele>
        <time>2020-09-05T08:07:30Z</time>
      </trkpt>
      <trkpt lat="37.14534" lon="-8.69117">
        <ele>46.28</ele>
        <time>2020-09-05T08:07:31Z</time>
      </trkpt>
      <trkpt lat="37.14566" lon="-8.69083">
        <ele>46.28</ele>
        <time>2020-09-05T08:07:38Z</time>
      </trkpt>
      <trkpt lat="37.14581" lon="-8.69065">
        <ele>47.72</ele>
        <time>2020-09-05T08:07:43Z</time>
      </trkpt>
      <trkpt lat="37.14599" lon="-8.69044">
        <ele>50.13</ele>
        <time>2020-09-05T08:07:51Z</time>
      </trkpt>
      <trkpt lat="37.1462" lon="-8.6902">
        <ele>53.01</ele>
        <time>2020-09-05T08:08:00Z</time>
      </trkpt>
      <trkpt lat="37.14648" lon="-8.68989">
        <ele>54.93</ele>
        <time>2020-09-05T08:08:11Z</time>
      </trkpt>
      <trkpt lat="37.14675" lon="-8.68957">
        <ele>55.41</ele>
        <time>2020-09-05T08:08:21Z</time>
      </trkpt>
      <trkpt lat="37.1471" lon="-8.68915">
        <ele>55.41</ele>
        <time>2020-09-05T08:08:32Z</time>
      </trkpt>
      <trkpt lat="37.14714" lon="-8.68913">
        <ele>55.41</ele>
        <time>2020-09-05T08:08:33Z</time>
      </trkpt>
      <trkpt lat="37.14719" lon="-8.68912">
        <ele>53.97</ele>
        <time>2020-09-05T08:08:34Z</time>
      </trkpt>
      <trkpt lat="37.14723" lon="-8.68911">
        <ele>53.97</ele>
        <time>2020-09-05T08:08:35Z</time>
      </trkpt>
      <trkpt lat="37.14728" lon="-8.68912">
        <ele>53.97</ele>
        <time>2020-09-05T08:08:36Z</time>
      </trkpt>
      <trkpt lat="37.14733" lon="-8.68913">
        <ele>53.97</ele>
        <time>2020-09-05T08:08:37Z</time>
      </trkpt>
      <trkpt lat="37.14737" lon="-8.68914">
        <ele>53.97</ele>
        <time>2020-09-05T08:08:38Z</time>
      </trkpt>
      <trkpt lat="37.14742" lon="-8.68916">
        <ele>53.49</ele>
        <time>2020-09-05T08:08:39Z</time>
      </trkpt>
      <trkpt lat="37.14746" lon="-8.68918">
        <ele>53.97</ele>
        <time>2020-09-05T08:08:40Z</time>
      </trkpt>
      <trkpt lat="37.14759" lon="-8.68925">
        <ele>53.97</ele>
        <time>2020-09-05T08:08:43Z</time>
      </trkpt>
      <trkpt lat="37.14785" lon="-8.68936">
        <ele>54.93</ele>
        <time>2020-09-05T08:08:50Z</time>
      </trkpt>
      <trkpt lat="37.14816" lon="-8.68962">
        <ele>54.93</ele>
        <time>2020-09-05T08:08:58Z</time>
      </trkpt>
      <trkpt lat="37.14847" lon="-8.68999">
        <ele>54.93</ele>
        <time>2020-09-05T08:09:08Z</time>
      </trkpt>
      <trkpt lat="37.1485" lon="-8.69002">
        <ele>54.93</ele>
        <time>2020-09-05T08:09:09Z</time>
      </trkpt>
      <trkpt lat="37.1488" lon="-8.6903">
        <ele>54.93</ele>
        <time>2020-09-05T08:09:18Z</time>
      </trkpt>
      <trkpt lat="37.14892" lon="-8.69044">
        <ele>54.93</ele>
        <time>2020-09-05T08:09:22Z</time>
      </trkpt>
      <trkpt lat="37.14895" lon="-8.69047">
        <ele>55.41</ele>
        <time>2020-09-05T08:09:23Z</time>
      </trkpt>
      <trkpt lat="37.14899" lon="-8.6905">
        <ele>55.41</ele>
        <time>2020-09-05T08:09:24Z</time>
      </trkpt>
      <trkpt lat="37.1492" lon="-8.69064">
        <ele>58.3</ele>
        <time>2020-09-05T08:09:31Z</time>
      </trkpt>
      <trkpt lat="37.14936" lon="-8.6906">
        <ele>58.78</ele>
        <time>2020-09-05T08:09:36Z</time>
      </trkpt>
      <trkpt lat="37.14944" lon="-8.69039">
        <ele>59.26</ele>
        <time>2020-09-05T08:09:41Z</time>
      </trkpt>
      <trkpt lat="37.14945" lon="-8.68998">
        <ele>60.7</ele>
        <time>2020-09-05T08:09:50Z</time>
      </trkpt>
      <trkpt lat="37.14953" lon="-8.68958">
        <ele>57.34</ele>
        <time>2020-09-05T08:09:56Z</time>
      </trkpt>
      <trkpt lat="37.14959" lon="-8.68922">
        <ele>54.93</ele>
        <time>2020-09-05T08:10:03Z</time>
      </trkpt>
      <trkpt lat="37.1496" lon="-8.6892">
        <ele>54.93</ele>
        <time>2020-09-05T08:10:04Z</time>
      </trkpt>
      <trkpt lat="37.14963" lon="-8.68918">
        <ele>54.93</ele>
        <time>2020-09-05T08:10:05Z</time>
      </trkpt>
      <trkpt lat="37.14966" lon="-8.68919">
        <ele>53.97</ele>
        <time>2020-09-05T08:10:06Z</time>
      </trkpt>
      <trkpt lat="37.14968" lon="-8.68921">
        <ele>53.97</ele>
        <time>2020-09-05T08:10:07Z</time>
      </trkpt>
      <trkpt lat="37.14971" lon="-8.68923">
        <ele>53.49</ele>
        <time>2020-09-05T08:10:08Z</time>
      </trkpt>
      <trkpt lat="37.14973" lon="-8.68927">
        <ele>52.53</ele>
        <time>2020-09-05T08:10:09Z</time>
      </trkpt>
      <trkpt lat="37.14993" lon="-8.68948">
        <ele>49.65</ele>
        <time>2020-09-05T08:10:15Z</time>
      </trkpt>
      <trkpt lat="37.15014" lon="-8.68971">
        <ele>45.8</ele>
        <time>2020-09-05T08:10:20Z</time>
      </trkpt>
      <trkpt lat="37.15033" lon="-8.68995">
        <ele>42.44</ele>
        <time>2020-09-05T08:10:24Z</time>
      </trkpt>
      <trkpt lat="37.15064" lon="-8.69037">
        <ele>41.47</ele>
        <time>2020-09-05T08:10:31Z</time>
      </trkpt>
      <trkpt lat="37.15094" lon="-8.69063">
        <ele>40.99</ele>
        <time>2020-09-05T08:10:38Z</time>
      </trkpt>
      <trkpt lat="37.15097" lon="-8.69066">
        <ele>40.99</ele>
        <time>2020-09-05T08:10:39Z</time>
      </trkpt>
      <trkpt lat="37.15101" lon="-8.6907">
        <ele>40.99</ele>
        <time>2020-09-05T08:10:40Z</time>
      </trkpt>
      <trkpt lat="37.15104" lon="-8.69074">
        <ele>40.99</ele>
        <time>2020-09-05T08:10:41Z</time>
      </trkpt>
      <trkpt lat="37.15108" lon="-8.69077">
        <ele>40.99</ele>
        <time>2020-09-05T08:10:42Z</time>
      </trkpt>
      <trkpt lat="37.15112" lon="-8.69081">
        <ele>40.99</ele>
        <time>2020-09-05T08:10:43Z</time>
      </trkpt>
      <trkpt lat="37.15147" lon="-8.69113">
        <ele>40.51</ele>
        <time>2020-09-05T08:10:52Z</time>
      </trkpt>
      <trkpt lat="37.15154" lon="-8.69121">
        <ele>40.51</ele>
        <time>2020-09-05T08:10:54Z</time>
      </trkpt>
      <trkpt lat="37.15156" lon="-8.69125">
        <ele>40.51</ele>
        <time>2020-09-05T08:10:55Z</time>
      </trkpt>
      <trkpt lat="37.15159" lon="-8.6913">
        <ele>40.51</ele>
        <time>2020-09-05T08:10:56Z</time>
      </trkpt>
      <trkpt lat="37.15161" lon="-8.69134">
        <ele>40.51</ele>
        <time>2020-09-05T08:10:57Z</time>
      </trkpt>
      <trkpt lat="37.15164" lon="-8.69139">
        <ele>40.51</ele>
        <time>2020-09-05T08:10:58Z</time>
      </trkpt>
      <trkpt lat="37.1517" lon="-8.69147">
        <ele>40.51</ele>
        <time>2020-09-05T08:11:00Z</time>
      </trkpt>
      <trkpt lat="37.15194" lon="-8.69167">
        <ele>40.51</ele>
        <time>2020-09-05T08:11:06Z</time>
      </trkpt>
      <trkpt lat="37.15207" lon="-8.69173">
        <ele>40.51</ele>
        <time>2020-09-05T08:11:09Z</time>
      </trkpt>
      <trkpt lat="37.15225" lon="-8.69179">
        <ele>40.51</ele>
        <time>2020-09-05T08:11:13Z</time>
      </trkpt>
      <trkpt lat="37.15248" lon="-8.69196">
        <ele>40.51</ele>
        <time>2020-09-05T08:11:19Z</time>
      </trkpt>
      <trkpt lat="37.15281" lon="-8.69226">
        <ele>41.47</ele>
        <time>2020-09-05T08:11:28Z</time>
      </trkpt>
      <trkpt lat="37.15284" lon="-8.69229">
        <ele>41.47</ele>
        <time>2020-09-05T08:11:29Z</time>
      </trkpt>
      <trkpt lat="37.15326" lon="-8.69263">
        <ele>42.44</ele>
        <time>2020-09-05T08:11:41Z</time>
      </trkpt>
      <trkpt lat="37.15361" lon="-8.69291">
        <ele>42.92</ele>
        <time>2020-09-05T08:11:51Z</time>
      </trkpt>
      <trkpt lat="37.15373" lon="-8.69303">
        <ele>43.4</ele>
        <time>2020-09-05T08:11:55Z</time>
      </trkpt>
      <trkpt lat="37.15377" lon="-8.69306">
        <ele>43.4</ele>
        <time>2020-09-05T08:11:56Z</time>
      </trkpt>
      <trkpt lat="37.15409" lon="-8.6933">
        <ele>44.36</ele>
        <time>2020-09-05T08:12:05Z</time>
      </trkpt>
      <trkpt lat="37.15447" lon="-8.69339">
        <ele>46.28</ele>
        <time>2020-09-05T08:12:15Z</time>
      </trkpt>
      <trkpt lat="37.1547" lon="-8.69351">
        <ele>47.72</ele>
        <time>2020-09-05T08:12:22Z</time>
      </trkpt>
      <trkpt lat="37.15507" lon="-8.69377">
        <ele>48.2</ele>
        <time>2020-09-05T08:12:34Z</time>
      </trkpt>
      <trkpt lat="37.15512" lon="-8.69376">
        <ele>48.2</ele>
        <time>2020-09-05T08:12:35Z</time>
      </trkpt>
      <trkpt lat="37.15556" lon="-8.69374">
        <ele>48.2</ele>
        <time>2020-09-05T08:12:45Z</time>
      </trkpt>
      <trkpt lat="37.15594" lon="-8.69388">
        <ele>48.2</ele>
        <time>2020-09-05T08:12:55Z</time>
      </trkpt>
      <trkpt lat="37.15627" lon="-8.69398">
        <ele>48.68</ele>
        <time>2020-09-05T08:13:04Z</time>
      </trkpt>
      <trkpt lat="37.15672" lon="-8.69408">
        <ele>49.16</ele>
        <time>2020-09-05T08:13:16Z</time>
      </trkpt>
      <trkpt lat="37.15705" lon="-8.69418">
        <ele>49.65</ele>
        <time>2020-09-05T08:13:25Z</time>
      </trkpt>
      <trkpt lat="37.15734" lon="-8.6942">
        <ele>50.13</ele>
        <time>2020-09-05T08:13:33Z</time>
      </trkpt>
      <trkpt lat="37.15756" lon="-8.6943">
        <ele>50.61</ele>
        <time>2020-09-05T08:13:39Z</time>
      </trkpt>
      <trkpt lat="37.1576" lon="-8.6943">
        <ele>50.61</ele>
        <time>2020-09-05T08:13:40Z</time>
      </trkpt>
      <trkpt lat="37.15764" lon="-8.69432">
        <ele>51.09</ele>
        <time>2020-09-05T08:13:41Z</time>
      </trkpt>
      <trkpt lat="37.15767" lon="-8.69434">
        <ele>51.09</ele>
        <time>2020-09-05T08:13:42Z</time>
      </trkpt>
      <trkpt lat="37.1577" lon="-8.69437">
        <ele>51.09</ele>
        <time>2020-09-05T08:13:43Z</time>
      </trkpt>
      <trkpt lat="37.15773" lon="-8.69441">
        <ele>51.09</ele>
        <time>2020-09-05T08:13:44Z</time>
      </trkpt>
      <trkpt lat="37.15775" lon="-8.69445">
        <ele>51.09</ele>
        <time>2020-09-05T08:13:45Z</time>
      </trkpt>
      <trkpt lat="37.15778" lon="-8.69448">
        <ele>51.57</ele>
        <time>2020-09-05T08:13:46Z</time>
      </trkpt>
      <trkpt lat="37.15782" lon="-8.69452">
        <ele>51.57</ele>
        <time>2020-09-05T08:13:47Z</time>
      </trkpt>
      <trkpt lat="37.15812" lon="-8.6948">
        <ele>53.01</ele>
        <time>2020-09-05T08:13:57Z</time>
      </trkpt>
      <trkpt lat="37.15832" lon="-8.69493">
        <ele>53.01</ele>
        <time>2020-09-05T08:14:03Z</time>
      </trkpt>
      <trkpt lat="37.15853" lon="-8.69521">
        <ele>53.97</ele>
        <time>2020-09-05T08:14:11Z</time>
      </trkpt>
      <trkpt lat="37.15884" lon="-8.69551">
        <ele>54.93</ele>
        <time>2020-09-05T08:14:21Z</time>
      </trkpt>
      <trkpt lat="37.15922" lon="-8.69586">
        <ele>55.41</ele>
        <time>2020-09-05T08:14:33Z</time>
      </trkpt>
      <trkpt lat="37.15949" lon="-8.69615">
        <ele>55.89</ele>
        <time>2020-09-05T08:14:42Z</time>
      </trkpt>
      <trkpt lat="37.15966" lon="-8.69645">
        <ele>56.86</ele>
        <time>2020-09-05T08:14:50Z</time>
      </trkpt>
      <trkpt lat="37.15974" lon="-8.69672">
        <ele>57.34</ele>
        <time>2020-09-05T08:14:56Z</time>
      </trkpt>
      <trkpt lat="37.1598" lon="-8.69714">
        <ele>57.82</ele>
        <time>2020-09-05T08:15:05Z</time>
      </trkpt>
      <trkpt lat="37.15979" lon="-8.69755">
        <ele>58.78</ele>
        <time>2020-09-05T08:15:14Z</time>
      </trkpt>
      <trkpt lat="37.15968" lon="-8.69794">
        <ele>60.7</ele>
        <time>2020-09-05T08:15:23Z</time>
      </trkpt>
      <trkpt lat="37.15955" lon="-8.69826">
        <ele>61.18</ele>
        <time>2020-09-05T08:15:31Z</time>
      </trkpt>
      <trkpt lat="37.15952" lon="-8.69866">
        <ele>61.66</ele>
        <time>2020-09-05T08:15:39Z</time>
      </trkpt>
      <trkpt lat="37.15952" lon="-8.69914">
        <ele>62.14</ele>
        <time>2020-09-05T08:15:49Z</time>
      </trkpt>
      <trkpt lat="37.15962" lon="-8.69946">
        <ele>62.62</ele>
        <time>2020-09-05T08:15:56Z</time>
      </trkpt>
      <trkpt lat="37.1598" lon="-8.69975">
        <ele>63.1</ele>
        <time>2020-09-05T08:16:04Z</time>
      </trkpt>
      <trkpt lat="37.16003" lon="-8.70011">
        <ele>65.03</ele>
        <time>2020-09-05T08:16:14Z</time>
      </trkpt>
      <trkpt lat="37.16017" lon="-8.70035">
        <ele>65.99</ele>
        <time>2020-09-05T08:16:21Z</time>
      </trkpt>
      <trkpt lat="37.16023" lon="-8.70058">
        <ele>68.39</ele>
        <time>2020-09-05T08:16:27Z</time>
      </trkpt>
      <trkpt lat="37.16027" lon="-8.70067">
        <ele>69.35</ele>
        <time>2020-09-05T08:16:30Z</time>
      </trkpt>
      <trkpt lat="37.16027" lon="-8.7007">
        <ele>69.83</ele>
        <time>2020-09-05T08:16:31Z</time>
      </trkpt>
      <trkpt lat="37.16025" lon="-8.70073">
        <ele>69.83</ele>
        <time>2020-09-05T08:16:32Z</time>
      </trkpt>
      <trkpt lat="37.16017" lon="-8.70093">
        <ele>73.2</ele>
        <time>2020-09-05T08:16:39Z</time>
      </trkpt>
      <trkpt lat="37.16019" lon="-8.70112">
        <ele>74.64</ele>
        <time>2020-09-05T08:16:45Z</time>
      </trkpt>
      <trkpt lat="37.16028" lon="-8.70143">
        <ele>75.12</ele>
        <time>2020-09-05T08:16:54Z</time>
      </trkpt>
      <trkpt lat="37.16051" lon="-8.70169">
        <ele>75.12</ele>
        <time>2020-09-05T08:17:02Z</time>
      </trkpt>
      <trkpt lat="37.16075" lon="-8.70196">
        <ele>75.6</ele>
        <time>2020-09-05T08:17:11Z</time>
      </trkpt>
      <trkpt lat="37.16116" lon="-8.70244">
        <ele>77.52</ele>
        <time>2020-09-05T08:17:26Z</time>
      </trkpt>
      <trkpt lat="37.16148" lon="-8.70287">
        <ele>78</ele>
        <time>2020-09-05T08:17:37Z</time>
      </trkpt>
      <trkpt lat="37.16171" lon="-8.70333">
        <ele>76.56</ele>
        <time>2020-09-05T08:17:46Z</time>
      </trkpt>
      <trkpt lat="37.16186" lon="-8.70386">
        <ele>75.6</ele>
        <time>2020-09-05T08:17:55Z</time>
      </trkpt>
      <trkpt lat="37.16196" lon="-8.70428">
        <ele>74.64</ele>
        <time>2020-09-05T08:18:01Z</time>
      </trkpt>
      <trkpt lat="37.16199" lon="-8.70435">
        <ele>74.64</ele>
        <time>2020-09-05T08:18:02Z</time>
      </trkpt>
      <trkpt lat="37.16202" lon="-8.70442">
        <ele>74.16</ele>
        <time>2020-09-05T08:18:03Z</time>
      </trkpt>
      <trkpt lat="37.16206" lon="-8.70448">
        <ele>74.16</ele>
        <time>2020-09-05T08:18:04Z</time>
      </trkpt>
      <trkpt lat="37.16211" lon="-8.70454">
        <ele>74.16</ele>
        <time>2020-09-05T08:18:05Z</time>
      </trkpt>
      <trkpt lat="37.16215" lon="-8.70457">
        <ele>74.16</ele>
        <time>2020-09-05T08:18:06Z</time>
      </trkpt>
      <trkpt lat="37.16242" lon="-8.70481">
        <ele>75.6</ele>
        <time>2020-09-05T08:18:13Z</time>
      </trkpt>
      <trkpt lat="37.16273" lon="-8.70509">
        <ele>78.97</ele>
        <time>2020-09-05T08:18:23Z</time>
      </trkpt>
      <trkpt lat="37.16304" lon="-8.70538">
        <ele>80.41</ele>
        <time>2020-09-05T08:18:34Z</time>
      </trkpt>
      <trkpt lat="37.16334" lon="-8.70567">
        <ele>80.41</ele>
        <time>2020-09-05T08:18:44Z</time>
      </trkpt>
      <trkpt lat="37.16362" lon="-8.70594">
        <ele>79.45</ele>
        <time>2020-09-05T08:18:51Z</time>
      </trkpt>
      <trkpt lat="37.16367" lon="-8.70599">
        <ele>79.45</ele>
        <time>2020-09-05T08:18:52Z</time>
      </trkpt>
      <trkpt lat="37.16393" lon="-8.70623">
        <ele>75.6</ele>
        <time>2020-09-05T08:18:56Z</time>
      </trkpt>
      <trkpt lat="37.16401" lon="-8.70628">
        <ele>74.64</ele>
        <time>2020-09-05T08:18:57Z</time>
      </trkpt>
      <trkpt lat="37.1641" lon="-8.70632">
        <ele>73.2</ele>
        <time>2020-09-05T08:18:58Z</time>
      </trkpt>
      <trkpt lat="37.16421" lon="-8.70633">
        <ele>72.24</ele>
        <time>2020-09-05T08:18:59Z</time>
      </trkpt>
      <trkpt lat="37.16431" lon="-8.70633">
        <ele>71.27</ele>
        <time>2020-09-05T08:19:00Z</time>
      </trkpt>
      <trkpt lat="37.16442" lon="-8.70633">
        <ele>69.35</ele>
        <time>2020-09-05T08:19:01Z</time>
      </trkpt>
      <trkpt lat="37.16475" lon="-8.7063">
        <ele>65.51</ele>
        <time>2020-09-05T08:19:04Z</time>
      </trkpt>
      <trkpt lat="37.16506" lon="-8.70633">
        <ele>61.66</ele>
        <time>2020-09-05T08:19:07Z</time>
      </trkpt>
      <trkpt lat="37.16515" lon="-8.70636">
        <ele>60.7</ele>
        <time>2020-09-05T08:19:08Z</time>
      </trkpt>
      <trkpt lat="37.1654" lon="-8.70645">
        <ele>57.34</ele>
        <time>2020-09-05T08:19:12Z</time>
      </trkpt>
      <trkpt lat="37.16549" lon="-8.70651">
        <ele>56.37</ele>
        <time>2020-09-05T08:19:15Z</time>
      </trkpt>
      <trkpt lat="37.16551" lon="-8.70657">
        <ele>55.89</ele>
        <time>2020-09-05T08:19:16Z</time>
      </trkpt>
      <trkpt lat="37.16551" lon="-8.7066">
        <ele>56.37</ele>
        <time>2020-09-05T08:19:17Z</time>
      </trkpt>
      <trkpt lat="37.1655" lon="-8.70664">
        <ele>55.89</ele>
        <time>2020-09-05T08:19:18Z</time>
      </trkpt>
      <trkpt lat="37.16548" lon="-8.70669">
        <ele>55.89</ele>
        <time>2020-09-05T08:19:19Z</time>
      </trkpt>
      <trkpt lat="37.16544" lon="-8.70673">
        <ele>56.37</ele>
        <time>2020-09-05T08:19:20Z</time>
      </trkpt>
      <trkpt lat="37.16541" lon="-8.70676">
        <ele>55.89</ele>
        <time>2020-09-05T08:19:21Z</time>
      </trkpt>
      <trkpt lat="37.16537" lon="-8.7068">
        <ele>55.89</ele>
        <time>2020-09-05T08:19:22Z</time>
      </trkpt>
      <trkpt lat="37.16504" lon="-8.70715">
        <ele>53.97</ele>
        <time>2020-09-05T08:19:30Z</time>
      </trkpt>
      <trkpt lat="37.165" lon="-8.70721">
        <ele>53.97</ele>
        <time>2020-09-05T08:19:31Z</time>
      </trkpt>
      <trkpt lat="37.16497" lon="-8.70728">
        <ele>53.97</ele>
        <time>2020-09-05T08:19:32Z</time>
      </trkpt>
      <trkpt lat="37.16494" lon="-8.70736">
        <ele>53.01</ele>
        <time>2020-09-05T08:19:33Z</time>
      </trkpt>
      <trkpt lat="37.16491" lon="-8.70744">
        <ele>52.53</ele>
        <time>2020-09-05T08:19:34Z</time>
      </trkpt>
      <trkpt lat="37.16487" lon="-8.70753">
        <ele>51.57</ele>
        <time>2020-09-05T08:19:35Z</time>
      </trkpt>
      <trkpt lat="37.16483" lon="-8.70763">
        <ele>50.61</ele>
        <time>2020-09-05T08:19:36Z</time>
      </trkpt>
      <trkpt lat="37.16478" lon="-8.70771">
        <ele>50.13</ele>
        <time>2020-09-05T08:19:37Z</time>
      </trkpt>
      <trkpt lat="37.16472" lon="-8.70779">
        <ele>49.65</ele>
        <time>2020-09-05T08:19:38Z</time>
      </trkpt>
      <trkpt lat="37.16465" lon="-8.70786">
        <ele>49.16</ele>
        <time>2020-09-05T08:19:39Z</time>
      </trkpt>
      <trkpt lat="37.16435" lon="-8.70828">
        <ele>46.76</ele>
        <time>2020-09-05T08:19:44Z</time>
      </trkpt>
      <trkpt lat="37.16412" lon="-8.70863">
        <ele>44.84</ele>
        <time>2020-09-05T08:19:48Z</time>
      </trkpt>
      <trkpt lat="37.1637" lon="-8.70916">
        <ele>42.44</ele>
        <time>2020-09-05T08:19:55Z</time>
      </trkpt>
      <trkpt lat="37.16345" lon="-8.70959">
        <ele>40.03</ele>
        <time>2020-09-05T08:20:00Z</time>
      </trkpt>
      <trkpt lat="37.16338" lon="-8.70967">
        <ele>40.03</ele>
        <time>2020-09-05T08:20:01Z</time>
      </trkpt>
      <trkpt lat="37.16304" lon="-8.71003">
        <ele>37.15</ele>
        <time>2020-09-05T08:20:06Z</time>
      </trkpt>
      <trkpt lat="37.16272" lon="-8.71044">
        <ele>34.26</ele>
        <time>2020-09-05T08:20:11Z</time>
      </trkpt>
      <trkpt lat="37.16267" lon="-8.71053">
        <ele>34.26</ele>
        <time>2020-09-05T08:20:12Z</time>
      </trkpt>
      <trkpt lat="37.16241" lon="-8.71125">
        <ele>31.86</ele>
        <time>2020-09-05T08:20:19Z</time>
      </trkpt>
      <trkpt lat="37.16229" lon="-8.71157">
        <ele>30.42</ele>
        <time>2020-09-05T08:20:22Z</time>
      </trkpt>
      <trkpt lat="37.16204" lon="-8.71206">
        <ele>28.02</ele>
        <time>2020-09-05T08:20:27Z</time>
      </trkpt>
      <trkpt lat="37.162" lon="-8.71216">
        <ele>28.02</ele>
        <time>2020-09-05T08:20:28Z</time>
      </trkpt>
      <trkpt lat="37.16174" lon="-8.71267">
        <ele>27.53</ele>
        <time>2020-09-05T08:20:34Z</time>
      </trkpt>
      <trkpt lat="37.16168" lon="-8.71273">
        <ele>27.53</ele>
        <time>2020-09-05T08:20:35Z</time>
      </trkpt>
      <trkpt lat="37.16128" lon="-8.71308">
        <ele>26.57</ele>
        <time>2020-09-05T08:20:42Z</time>
      </trkpt>
      <trkpt lat="37.16076" lon="-8.71348">
        <ele>26.09</ele>
        <time>2020-09-05T08:20:52Z</time>
      </trkpt>
      <trkpt lat="37.16066" lon="-8.71357">
        <ele>26.09</ele>
        <time>2020-09-05T08:20:54Z</time>
      </trkpt>
      <trkpt lat="37.16062" lon="-8.71362">
        <ele>25.13</ele>
        <time>2020-09-05T08:20:55Z</time>
      </trkpt>
      <trkpt lat="37.16032" lon="-8.71399">
        <ele>23.21</ele>
        <time>2020-09-05T08:21:01Z</time>
      </trkpt>
      <trkpt lat="37.16024" lon="-8.71408">
        <ele>23.21</ele>
        <time>2020-09-05T08:21:03Z</time>
      </trkpt>
      <trkpt lat="37.16022" lon="-8.71412">
        <ele>23.21</ele>
        <time>2020-09-05T08:21:04Z</time>
      </trkpt>
      <trkpt lat="37.1602" lon="-8.71417">
        <ele>23.69</ele>
        <time>2020-09-05T08:21:05Z</time>
      </trkpt>
      <trkpt lat="37.16017" lon="-8.71422">
        <ele>24.65</ele>
        <time>2020-09-05T08:21:06Z</time>
      </trkpt>
      <trkpt lat="37.16015" lon="-8.71427">
        <ele>24.65</ele>
        <time>2020-09-05T08:21:07Z</time>
      </trkpt>
      <trkpt lat="37.16012" lon="-8.71431">
        <ele>24.65</ele>
        <time>2020-09-05T08:21:08Z</time>
      </trkpt>
      <trkpt lat="37.16009" lon="-8.71435">
        <ele>25.13</ele>
        <time>2020-09-05T08:21:09Z</time>
      </trkpt>
      <trkpt lat="37.15999" lon="-8.7145">
        <ele>25.13</ele>
        <time>2020-09-05T08:21:12Z</time>
      </trkpt>
      <trkpt lat="37.15997" lon="-8.71456">
        <ele>25.13</ele>
        <time>2020-09-05T08:21:13Z</time>
      </trkpt>
      <trkpt lat="37.15994" lon="-8.71462">
        <ele>25.13</ele>
        <time>2020-09-05T08:21:14Z</time>
      </trkpt>
      <trkpt lat="37.15992" lon="-8.71468">
        <ele>25.13</ele>
        <time>2020-09-05T08:21:15Z</time>
      </trkpt>
      <trkpt lat="37.15991" lon="-8.71475">
        <ele>25.13</ele>
        <time>2020-09-05T08:21:16Z</time>
      </trkpt>
      <trkpt lat="37.15989" lon="-8.71482">
        <ele>25.13</ele>
        <time>2020-09-05T08:21:17Z</time>
      </trkpt>
      <trkpt lat="37.15988" lon="-8.71489">
        <ele>25.13</ele>
        <time>2020-09-05T08:21:18Z</time>
      </trkpt>
      <trkpt lat="37.15967" lon="-8.71548">
        <ele>25.13</ele>
        <time>2020-09-05T08:21:27Z</time>
      </trkpt>
      <trkpt lat="37.15948" lon="-8.716">
        <ele>25.13</ele>
        <time>2020-09-05T08:21:35Z</time>
      </trkpt>
      <trkpt lat="37.15943" lon="-8.71614">
        <ele>25.13</ele>
        <time>2020-09-05T08:21:37Z</time>
      </trkpt>
      <trkpt lat="37.15941" lon="-8.71621">
        <ele>25.13</ele>
        <time>2020-09-05T08:21:38Z</time>
      </trkpt>
      <trkpt lat="37.15934" lon="-8.71649">
        <ele>25.13</ele>
        <time>2020-09-05T08:21:42Z</time>
      </trkpt>
      <trkpt lat="37.15933" lon="-8.71656">
        <ele>25.13</ele>
        <time>2020-09-05T08:21:43Z</time>
      </trkpt>
      <trkpt lat="37.15932" lon="-8.71671">
        <ele>25.13</ele>
        <time>2020-09-05T08:21:45Z</time>
      </trkpt>
      <trkpt lat="37.15931" lon="-8.71677">
        <ele>25.13</ele>
        <time>2020-09-05T08:21:46Z</time>
      </trkpt>
      <trkpt lat="37.15917" lon="-8.71731">
        <ele>25.61</ele>
        <time>2020-09-05T08:21:55Z</time>
      </trkpt>
      <trkpt lat="37.15913" lon="-8.71768">
        <ele>26.09</ele>
        <time>2020-09-05T08:22:01Z</time>
      </trkpt>
      <trkpt lat="37.15909" lon="-8.71818">
        <ele>28.02</ele>
        <time>2020-09-05T08:22:10Z</time>
      </trkpt>
      <trkpt lat="37.15895" lon="-8.71863">
        <ele>28.98</ele>
        <time>2020-09-05T08:22:19Z</time>
      </trkpt>
      <trkpt lat="37.15882" lon="-8.71911">
        <ele>29.94</ele>
        <time>2020-09-05T08:22:28Z</time>
      </trkpt>
      <trkpt lat="37.15878" lon="-8.71932">
        <ele>30.9</ele>
        <time>2020-09-05T08:22:32Z</time>
      </trkpt>
      <trkpt lat="37.15876" lon="-8.71937">
        <ele>30.9</ele>
        <time>2020-09-05T08:22:33Z</time>
      </trkpt>
      <trkpt lat="37.15854" lon="-8.71971">
        <ele>31.86</ele>
        <time>2020-09-05T08:22:41Z</time>
      </trkpt>
      <trkpt lat="37.15824" lon="-8.71999">
        <ele>32.34</ele>
        <time>2020-09-05T08:22:50Z</time>
      </trkpt>
      <trkpt lat="37.15804" lon="-8.72025">
        <ele>32.82</ele>
        <time>2020-09-05T08:22:57Z</time>
      </trkpt>
      <trkpt lat="37.15801" lon="-8.7203">
        <ele>32.82</ele>
        <time>2020-09-05T08:22:58Z</time>
      </trkpt>
      <trkpt lat="37.15782" lon="-8.72072">
        <ele>32.82</ele>
        <time>2020-09-05T08:23:07Z</time>
      </trkpt>
      <trkpt lat="37.15768" lon="-8.7211">
        <ele>29.46</ele>
        <time>2020-09-05T08:23:13Z</time>
      </trkpt>
      <trkpt lat="37.15746" lon="-8.7216">
        <ele>27.05</ele>
        <time>2020-09-05T08:23:22Z</time>
      </trkpt>
      <trkpt lat="37.15744" lon="-8.72165">
        <ele>27.05</ele>
        <time>2020-09-05T08:23:26Z</time>
      </trkpt>
      <trkpt lat="37.15744" lon="-8.72164">
        <ele>27.05</ele>
        <time>2020-09-05T08:23:40Z</time>
      </trkpt>
      <trkpt lat="37.15744" lon="-8.72163">
        <ele>27.05</ele>
        <time>2020-09-05T08:23:57Z</time>
      </trkpt>
      <trkpt lat="37.15745" lon="-8.72163">
        <ele>27.05</ele>
        <time>2020-09-05T08:24:21Z</time>
      </trkpt>
      <trkpt lat="37.15744" lon="-8.72163">
        <ele>27.05</ele>
        <time>2020-09-05T08:24:39Z</time>
      </trkpt>
      <trkpt lat="37.15744" lon="-8.72164">
        <ele>27.05</ele>
        <time>2020-09-05T08:24:55Z</time>
      </trkpt>
      <trkpt lat="37.15743" lon="-8.72166">
        <ele>27.05</ele>
        <time>2020-09-05T08:24:56Z</time>
      </trkpt>
      <trkpt lat="37.15743" lon="-8.72168">
        <ele>27.05</ele>
        <time>2020-09-05T08:24:57Z</time>
      </trkpt>
      <trkpt lat="37.15742" lon="-8.72171">
        <ele>27.05</ele>
        <time>2020-09-05T08:24:58Z</time>
      </trkpt>
      <trkpt lat="37.15742" lon="-8.72175">
        <ele>27.05</ele>
        <time>2020-09-05T08:24:59Z</time>
      </trkpt>
      <trkpt lat="37.15743" lon="-8.7218">
        <ele>27.05</ele>
        <time>2020-09-05T08:25:00Z</time>
      </trkpt>
      <trkpt lat="37.15743" lon="-8.72184">
        <ele>27.05</ele>
        <time>2020-09-05T08:25:01Z</time>
      </trkpt>
      <trkpt lat="37.1575" lon="-8.72224">
        <ele>27.05</ele>
        <time>2020-09-05T08:25:09Z</time>
      </trkpt>
      <trkpt lat="37.15751" lon="-8.72229">
        <ele>27.05</ele>
        <time>2020-09-05T08:25:10Z</time>
      </trkpt>
      <trkpt lat="37.1575" lon="-8.72279">
        <ele>28.98</ele>
        <time>2020-09-05T08:25:20Z</time>
      </trkpt>
      <trkpt lat="37.15738" lon="-8.72328">
        <ele>29.94</ele>
        <time>2020-09-05T08:25:30Z</time>
      </trkpt>
      <trkpt lat="37.15729" lon="-8.72388">
        <ele>29.94</ele>
        <time>2020-09-05T08:25:40Z</time>
      </trkpt>
      <trkpt lat="37.15731" lon="-8.72447">
        <ele>29.94</ele>
        <time>2020-09-05T08:25:49Z</time>
      </trkpt>
      <trkpt lat="37.15731" lon="-8.7246">
        <ele>28.5</ele>
        <time>2020-09-05T08:25:51Z</time>
      </trkpt>
      <trkpt lat="37.15727" lon="-8.72513">
        <ele>28.02</ele>
        <time>2020-09-05T08:25:59Z</time>
      </trkpt>
      <trkpt lat="37.15722" lon="-8.72581">
        <ele>27.53</ele>
        <time>2020-09-05T08:26:09Z</time>
      </trkpt>
      <trkpt lat="37.15717" lon="-8.72639">
        <ele>26.57</ele>
        <time>2020-09-05T08:26:17Z</time>
      </trkpt>
      <trkpt lat="37.15708" lon="-8.72701">
        <ele>26.09</ele>
        <time>2020-09-05T08:26:26Z</time>
      </trkpt>
      <trkpt lat="37.1571" lon="-8.72752">
        <ele>27.53</ele>
        <time>2020-09-05T08:26:34Z</time>
      </trkpt>
      <trkpt lat="37.15705" lon="-8.72781">
        <ele>28.02</ele>
        <time>2020-09-05T08:26:39Z</time>
      </trkpt>
      <trkpt lat="37.15694" lon="-8.7283">
        <ele>29.46</ele>
        <time>2020-09-05T08:26:48Z</time>
      </trkpt>
      <trkpt lat="37.15691" lon="-8.72871">
        <ele>30.42</ele>
        <time>2020-09-05T08:26:55Z</time>
      </trkpt>
      <trkpt lat="37.15689" lon="-8.72877">
        <ele>30.42</ele>
        <time>2020-09-05T08:26:56Z</time>
      </trkpt>
      <trkpt lat="37.15687" lon="-8.72882">
        <ele>30.42</ele>
        <time>2020-09-05T08:26:57Z</time>
      </trkpt>
      <trkpt lat="37.15684" lon="-8.72887">
        <ele>30.42</ele>
        <time>2020-09-05T08:26:58Z</time>
      </trkpt>
      <trkpt lat="37.15681" lon="-8.72891">
        <ele>30.42</ele>
        <time>2020-09-05T08:26:59Z</time>
      </trkpt>
      <trkpt lat="37.15649" lon="-8.72943">
        <ele>30.42</ele>
        <time>2020-09-05T08:27:09Z</time>
      </trkpt>
      <trkpt lat="37.15626" lon="-8.72982">
        <ele>29.46</ele>
        <time>2020-09-05T08:27:16Z</time>
      </trkpt>
      <trkpt lat="37.15622" lon="-8.72987">
        <ele>29.46</ele>
        <time>2020-09-05T08:27:17Z</time>
      </trkpt>
      <trkpt lat="37.15617" lon="-8.72991">
        <ele>28.98</ele>
        <time>2020-09-05T08:27:18Z</time>
      </trkpt>
      <trkpt lat="37.15596" lon="-8.73004">
        <ele>28.5</ele>
        <time>2020-09-05T08:27:22Z</time>
      </trkpt>
      <trkpt lat="37.15591" lon="-8.73009">
        <ele>28.02</ele>
        <time>2020-09-05T08:27:23Z</time>
      </trkpt>
      <trkpt lat="37.15587" lon="-8.73014">
        <ele>28.02</ele>
        <time>2020-09-05T08:27:24Z</time>
      </trkpt>
      <trkpt lat="37.15584" lon="-8.73021">
        <ele>27.53</ele>
        <time>2020-09-05T08:27:25Z</time>
      </trkpt>
      <trkpt lat="37.15583" lon="-8.73028">
        <ele>27.53</ele>
        <time>2020-09-05T08:27:26Z</time>
      </trkpt>
      <trkpt lat="37.15583" lon="-8.73035">
        <ele>27.53</ele>
        <time>2020-09-05T08:27:27Z</time>
      </trkpt>
      <trkpt lat="37.15584" lon="-8.73043">
        <ele>27.53</ele>
        <time>2020-09-05T08:27:28Z</time>
      </trkpt>
      <trkpt lat="37.1559" lon="-8.73091">
        <ele>27.05</ele>
        <time>2020-09-05T08:27:35Z</time>
      </trkpt>
      <trkpt lat="37.15589" lon="-8.73097">
        <ele>27.05</ele>
        <time>2020-09-05T08:27:36Z</time>
      </trkpt>
      <trkpt lat="37.15588" lon="-8.73105">
        <ele>27.05</ele>
        <time>2020-09-05T08:27:37Z</time>
      </trkpt>
      <trkpt lat="37.15579" lon="-8.73148">
        <ele>28.5</ele>
        <time>2020-09-05T08:27:45Z</time>
      </trkpt>
      <trkpt lat="37.1558" lon="-8.73177">
        <ele>31.38</ele>
        <time>2020-09-05T08:27:52Z</time>
      </trkpt>
      <trkpt lat="37.15586" lon="-8.7322">
        <ele>32.82</ele>
        <time>2020-09-05T08:28:02Z</time>
      </trkpt>
      <trkpt lat="37.15597" lon="-8.73262">
        <ele>33.3</ele>
        <time>2020-09-05T08:28:12Z</time>
      </trkpt>
      <trkpt lat="37.15599" lon="-8.73264">
        <ele>33.3</ele>
        <time>2020-09-05T08:28:13Z</time>
      </trkpt>
      <trkpt lat="37.15602" lon="-8.73263">
        <ele>33.3</ele>
        <time>2020-09-05T08:28:14Z</time>
      </trkpt>
      <trkpt lat="37.1561" lon="-8.7326">
        <ele>33.78</ele>
        <time>2020-09-05T08:28:16Z</time>
      </trkpt>
      <trkpt lat="37.15613" lon="-8.7326">
        <ele>33.3</ele>
        <time>2020-09-05T08:28:17Z</time>
      </trkpt>
      <trkpt lat="37.15618" lon="-8.73261">
        <ele>33.3</ele>
        <time>2020-09-05T08:28:18Z</time>
      </trkpt>
      <trkpt lat="37.15623" lon="-8.73263">
        <ele>31.86</ele>
        <time>2020-09-05T08:28:19Z</time>
      </trkpt>
      <trkpt lat="37.15628" lon="-8.73266">
        <ele>31.86</ele>
        <time>2020-09-05T08:28:20Z</time>
      </trkpt>
      <trkpt lat="37.15633" lon="-8.73269">
        <ele>31.86</ele>
        <time>2020-09-05T08:28:21Z</time>
      </trkpt>
      <trkpt lat="37.15638" lon="-8.73272">
        <ele>31.38</ele>
        <time>2020-09-05T08:28:22Z</time>
      </trkpt>
      <trkpt lat="37.15642" lon="-8.73278">
        <ele>31.38</ele>
        <time>2020-09-05T08:28:23Z</time>
      </trkpt>
      <trkpt lat="37.15645" lon="-8.73284">
        <ele>30.9</ele>
        <time>2020-09-05T08:28:24Z</time>
      </trkpt>
      <trkpt lat="37.15648" lon="-8.73291">
        <ele>30.9</ele>
        <time>2020-09-05T08:28:25Z</time>
      </trkpt>
      <trkpt lat="37.15649" lon="-8.73299">
        <ele>30.42</ele>
        <time>2020-09-05T08:28:26Z</time>
      </trkpt>
      <trkpt lat="37.1565" lon="-8.73307">
        <ele>30.42</ele>
        <time>2020-09-05T08:28:27Z</time>
      </trkpt>
      <trkpt lat="37.15651" lon="-8.73315">
        <ele>29.94</ele>
        <time>2020-09-05T08:28:28Z</time>
      </trkpt>
      <trkpt lat="37.15652" lon="-8.73323">
        <ele>29.94</ele>
        <time>2020-09-05T08:28:29Z</time>
      </trkpt>
      <trkpt lat="37.15655" lon="-8.73331">
        <ele>29.46</ele>
        <time>2020-09-05T08:28:30Z</time>
      </trkpt>
      <trkpt lat="37.15659" lon="-8.73337">
        <ele>29.46</ele>
        <time>2020-09-05T08:28:31Z</time>
      </trkpt>
      <trkpt lat="37.15664" lon="-8.73342">
        <ele>29.46</ele>
        <time>2020-09-05T08:28:32Z</time>
      </trkpt>
      <trkpt lat="37.1567" lon="-8.73346">
        <ele>29.46</ele>
        <time>2020-09-05T08:28:33Z</time>
      </trkpt>
      <trkpt lat="37.15676" lon="-8.7335">
        <ele>29.46</ele>
        <time>2020-09-05T08:28:34Z</time>
      </trkpt>
      <trkpt lat="37.15682" lon="-8.73353">
        <ele>29.46</ele>
        <time>2020-09-05T08:28:35Z</time>
      </trkpt>
      <trkpt lat="37.15697" lon="-8.73361">
        <ele>28.98</ele>
        <time>2020-09-05T08:28:38Z</time>
      </trkpt>
      <trkpt lat="37.157" lon="-8.73366">
        <ele>29.46</ele>
        <time>2020-09-05T08:28:39Z</time>
      </trkpt>
      <trkpt lat="37.15699" lon="-8.73378">
        <ele>28.98</ele>
        <time>2020-09-05T08:28:41Z</time>
      </trkpt>
      <trkpt lat="37.15699" lon="-8.73382">
        <ele>29.46</ele>
        <time>2020-09-05T08:28:42Z</time>
      </trkpt>
      <trkpt lat="37.15694" lon="-8.73428">
        <ele>29.46</ele>
        <time>2020-09-05T08:28:50Z</time>
      </trkpt>
      <trkpt lat="37.15693" lon="-8.73483">
        <ele>28.98</ele>
        <time>2020-09-05T08:29:00Z</time>
      </trkpt>
      <trkpt lat="37.15694" lon="-8.73539">
        <ele>28.98</ele>
        <time>2020-09-05T08:29:11Z</time>
      </trkpt>
      <trkpt lat="37.15693" lon="-8.73578">
        <ele>30.42</ele>
        <time>2020-09-05T08:29:20Z</time>
      </trkpt>
      <trkpt lat="37.15699" lon="-8.73589">
        <ele>30.9</ele>
        <time>2020-09-05T08:29:24Z</time>
      </trkpt>
      <trkpt lat="37.15723" lon="-8.73607">
        <ele>31.38</ele>
        <time>2020-09-05T08:29:32Z</time>
      </trkpt>
      <trkpt lat="37.15731" lon="-8.73619">
        <ele>31.86</ele>
        <time>2020-09-05T08:29:35Z</time>
      </trkpt>
      <trkpt lat="37.15733" lon="-8.73624">
        <ele>31.86</ele>
        <time>2020-09-05T08:29:36Z</time>
      </trkpt>
      <trkpt lat="37.15751" lon="-8.73662">
        <ele>32.34</ele>
        <time>2020-09-05T08:29:45Z</time>
      </trkpt>
      <trkpt lat="37.15773" lon="-8.73695">
        <ele>32.82</ele>
        <time>2020-09-05T08:29:53Z</time>
      </trkpt>
      <trkpt lat="37.15789" lon="-8.73747">
        <ele>33.3</ele>
        <time>2020-09-05T08:30:03Z</time>
      </trkpt>
      <trkpt lat="37.15793" lon="-8.73809">
        <ele>33.78</ele>
        <time>2020-09-05T08:30:14Z</time>
      </trkpt>
      <trkpt lat="37.15796" lon="-8.7383">
        <ele>33.78</ele>
        <time>2020-09-05T08:30:18Z</time>
      </trkpt>
      <trkpt lat="37.15809" lon="-8.73885">
        <ele>33.78</ele>
        <time>2020-09-05T08:30:28Z</time>
      </trkpt>
      <trkpt lat="37.15822" lon="-8.7394">
        <ele>35.71</ele>
        <time>2020-09-05T08:30:39Z</time>
      </trkpt>
      <trkpt lat="37.15837" lon="-8.73978">
        <ele>38.59</ele>
        <time>2020-09-05T08:30:49Z</time>
      </trkpt>
      <trkpt lat="37.15865" lon="-8.74014">
        <ele>40.03</ele>
        <time>2020-09-05T08:31:00Z</time>
      </trkpt>
      <trkpt lat="37.15898" lon="-8.74059">
        <ele>40.03</ele>
        <time>2020-09-05T08:31:12Z</time>
      </trkpt>
      <trkpt lat="37.1593" lon="-8.74094">
        <ele>40.51</ele>
        <time>2020-09-05T08:31:22Z</time>
      </trkpt>
      <trkpt lat="37.15964" lon="-8.74126">
        <ele>40.51</ele>
        <time>2020-09-05T08:31:32Z</time>
      </trkpt>
      <trkpt lat="37.16001" lon="-8.74161">
        <ele>40.51</ele>
        <time>2020-09-05T08:31:42Z</time>
      </trkpt>
      <trkpt lat="37.16038" lon="-8.74187">
        <ele>39.07</ele>
        <time>2020-09-05T08:31:51Z</time>
      </trkpt>
      <trkpt lat="37.16081" lon="-8.74193">
        <ele>37.15</ele>
        <time>2020-09-05T08:31:59Z</time>
      </trkpt>
      <trkpt lat="37.1613" lon="-8.74192">
        <ele>36.67</ele>
        <time>2020-09-05T08:32:08Z</time>
      </trkpt>
      <trkpt lat="37.16171" lon="-8.74186">
        <ele>36.67</ele>
        <time>2020-09-05T08:32:18Z</time>
      </trkpt>
      <trkpt lat="37.16201" lon="-8.7419">
        <ele>38.11</ele>
        <time>2020-09-05T08:32:25Z</time>
      </trkpt>
      <trkpt lat="37.16239" lon="-8.74195">
        <ele>38.59</ele>
        <time>2020-09-05T08:32:34Z</time>
      </trkpt>
      <trkpt lat="37.16252" lon="-8.74195">
        <ele>38.59</ele>
        <time>2020-09-05T08:32:37Z</time>
      </trkpt>
      <trkpt lat="37.16256" lon="-8.74194">
        <ele>39.07</ele>
        <time>2020-09-05T08:32:38Z</time>
      </trkpt>
      <trkpt lat="37.16289" lon="-8.74185">
        <ele>39.55</ele>
        <time>2020-09-05T08:32:46Z</time>
      </trkpt>
      <trkpt lat="37.16293" lon="-8.74186">
        <ele>39.55</ele>
        <time>2020-09-05T08:32:47Z</time>
      </trkpt>
      <trkpt lat="37.16298" lon="-8.74187">
        <ele>39.55</ele>
        <time>2020-09-05T08:32:48Z</time>
      </trkpt>
      <trkpt lat="37.16301" lon="-8.7419">
        <ele>39.55</ele>
        <time>2020-09-05T08:32:49Z</time>
      </trkpt>
      <trkpt lat="37.16305" lon="-8.74193">
        <ele>39.55</ele>
        <time>2020-09-05T08:32:50Z</time>
      </trkpt>
      <trkpt lat="37.16336" lon="-8.74226">
        <ele>39.55</ele>
        <time>2020-09-05T08:32:59Z</time>
      </trkpt>
      <trkpt lat="37.16377" lon="-8.74276">
        <ele>40.51</ele>
        <time>2020-09-05T08:33:12Z</time>
      </trkpt>
      <trkpt lat="37.16409" lon="-8.74316">
        <ele>41.47</ele>
        <time>2020-09-05T08:33:23Z</time>
      </trkpt>
      <trkpt lat="37.16434" lon="-8.7435">
        <ele>41.95</ele>
        <time>2020-09-05T08:33:31Z</time>
      </trkpt>
      <trkpt lat="37.16437" lon="-8.74355">
        <ele>41.95</ele>
        <time>2020-09-05T08:33:32Z</time>
      </trkpt>
      <trkpt lat="37.16462" lon="-8.74403">
        <ele>42.92</ele>
        <time>2020-09-05T08:33:43Z</time>
      </trkpt>
      <trkpt lat="37.16479" lon="-8.74448">
        <ele>43.88</ele>
        <time>2020-09-05T08:33:54Z</time>
      </trkpt>
      <trkpt lat="37.1648" lon="-8.74453">
        <ele>43.88</ele>
        <time>2020-09-05T08:33:55Z</time>
      </trkpt>
      <trkpt lat="37.16482" lon="-8.74458">
        <ele>43.88</ele>
        <time>2020-09-05T08:33:56Z</time>
      </trkpt>
      <trkpt lat="37.16484" lon="-8.74464">
        <ele>43.88</ele>
        <time>2020-09-05T08:33:57Z</time>
      </trkpt>
      <trkpt lat="37.16486" lon="-8.74468">
        <ele>43.88</ele>
        <time>2020-09-05T08:33:58Z</time>
      </trkpt>
      <trkpt lat="37.16489" lon="-8.74472">
        <ele>43.88</ele>
        <time>2020-09-05T08:33:59Z</time>
      </trkpt>
      <trkpt lat="37.16492" lon="-8.74476">
        <ele>43.88</ele>
        <time>2020-09-05T08:34:00Z</time>
      </trkpt>
      <trkpt lat="37.16529" lon="-8.74524">
        <ele>44.84</ele>
        <time>2020-09-05T08:34:12Z</time>
      </trkpt>
      <trkpt lat="37.1654" lon="-8.74548">
        <ele>45.32</ele>
        <time>2020-09-05T08:34:17Z</time>
      </trkpt>
      <trkpt lat="37.16542" lon="-8.74552">
        <ele>45.32</ele>
        <time>2020-09-05T08:34:18Z</time>
      </trkpt>
      <trkpt lat="37.16568" lon="-8.74589">
        <ele>45.8</ele>
        <time>2020-09-05T08:34:27Z</time>
      </trkpt>
      <trkpt lat="37.16602" lon="-8.74633">
        <ele>46.76</ele>
        <time>2020-09-05T08:34:38Z</time>
      </trkpt>
      <trkpt lat="37.16605" lon="-8.74637">
        <ele>46.76</ele>
        <time>2020-09-05T08:34:39Z</time>
      </trkpt>
      <trkpt lat="37.16616" lon="-8.7466">
        <ele>44.84</ele>
        <time>2020-09-05T08:34:43Z</time>
      </trkpt>
      <trkpt lat="37.1662" lon="-8.74666">
        <ele>44.84</ele>
        <time>2020-09-05T08:34:44Z</time>
      </trkpt>
      <trkpt lat="37.16624" lon="-8.7467">
        <ele>44.84</ele>
        <time>2020-09-05T08:34:45Z</time>
      </trkpt>
      <trkpt lat="37.16634" lon="-8.74684">
        <ele>46.28</ele>
        <time>2020-09-05T08:34:49Z</time>
      </trkpt>
      <trkpt lat="37.16634" lon="-8.74687">
        <ele>46.28</ele>
        <time>2020-09-05T08:34:50Z</time>
      </trkpt>
      <trkpt lat="37.16633" lon="-8.74693">
        <ele>46.28</ele>
        <time>2020-09-05T08:34:51Z</time>
      </trkpt>
      <trkpt lat="37.16632" lon="-8.74699">
        <ele>46.28</ele>
        <time>2020-09-05T08:34:52Z</time>
      </trkpt>
      <trkpt lat="37.1663" lon="-8.74705">
        <ele>46.28</ele>
        <time>2020-09-05T08:34:53Z</time>
      </trkpt>
      <trkpt lat="37.16627" lon="-8.74711">
        <ele>44.84</ele>
        <time>2020-09-05T08:34:54Z</time>
      </trkpt>
      <trkpt lat="37.16624" lon="-8.74716">
        <ele>44.84</ele>
        <time>2020-09-05T08:34:55Z</time>
      </trkpt>
      <trkpt lat="37.16621" lon="-8.74721">
        <ele>44.84</ele>
        <time>2020-09-05T08:34:56Z</time>
      </trkpt>
      <trkpt lat="37.16615" lon="-8.74731">
        <ele>44.36</ele>
        <time>2020-09-05T08:34:58Z</time>
      </trkpt>
      <trkpt lat="37.16614" lon="-8.74736">
        <ele>44.36</ele>
        <time>2020-09-05T08:34:59Z</time>
      </trkpt>
      <trkpt lat="37.16613" lon="-8.74742">
        <ele>44.36</ele>
        <time>2020-09-05T08:35:00Z</time>
      </trkpt>
      <trkpt lat="37.16615" lon="-8.74796">
        <ele>45.8</ele>
        <time>2020-09-05T08:35:10Z</time>
      </trkpt>
      <trkpt lat="37.16615" lon="-8.74801">
        <ele>45.8</ele>
        <time>2020-09-05T08:35:11Z</time>
      </trkpt>
      <trkpt lat="37.16614" lon="-8.74835">
        <ele>47.24</ele>
        <time>2020-09-05T08:35:19Z</time>
      </trkpt>
      <trkpt lat="37.1662" lon="-8.74884">
        <ele>48.2</ele>
        <time>2020-09-05T08:35:29Z</time>
      </trkpt>
      <trkpt lat="37.16627" lon="-8.74917">
        <ele>48.2</ele>
        <time>2020-09-05T08:35:35Z</time>
      </trkpt>
      <trkpt lat="37.16627" lon="-8.74923">
        <ele>48.2</ele>
        <time>2020-09-05T08:35:36Z</time>
      </trkpt>
      <trkpt lat="37.16638" lon="-8.74975">
        <ele>48.2</ele>
        <time>2020-09-05T08:35:46Z</time>
      </trkpt>
      <trkpt lat="37.16645" lon="-8.74994">
        <ele>48.2</ele>
        <time>2020-09-05T08:35:50Z</time>
      </trkpt>
      <trkpt lat="37.16646" lon="-8.75">
        <ele>48.2</ele>
        <time>2020-09-05T08:35:51Z</time>
      </trkpt>
      <trkpt lat="37.16646" lon="-8.75005">
        <ele>48.2</ele>
        <time>2020-09-05T08:35:52Z</time>
      </trkpt>
      <trkpt lat="37.16646" lon="-8.75011">
        <ele>47.72</ele>
        <time>2020-09-05T08:35:53Z</time>
      </trkpt>
      <trkpt lat="37.16645" lon="-8.75016">
        <ele>47.72</ele>
        <time>2020-09-05T08:35:54Z</time>
      </trkpt>
      <trkpt lat="37.16643" lon="-8.75021">
        <ele>48.2</ele>
        <time>2020-09-05T08:35:55Z</time>
      </trkpt>
      <trkpt lat="37.16641" lon="-8.75026">
        <ele>48.2</ele>
        <time>2020-09-05T08:35:56Z</time>
      </trkpt>
      <trkpt lat="37.16636" lon="-8.75058">
        <ele>48.68</ele>
        <time>2020-09-05T08:36:02Z</time>
      </trkpt>
      <trkpt lat="37.16636" lon="-8.75063">
        <ele>48.68</ele>
        <time>2020-09-05T08:36:03Z</time>
      </trkpt>
      <trkpt lat="37.16638" lon="-8.75102">
        <ele>50.13</ele>
        <time>2020-09-05T08:36:11Z</time>
      </trkpt>
      <trkpt lat="37.16632" lon="-8.7515">
        <ele>52.05</ele>
        <time>2020-09-05T08:36:22Z</time>
      </trkpt>
      <trkpt lat="37.16624" lon="-8.75203">
        <ele>53.97</ele>
        <time>2020-09-05T08:36:34Z</time>
      </trkpt>
      <trkpt lat="37.16615" lon="-8.75237">
        <ele>56.37</ele>
        <time>2020-09-05T08:36:43Z</time>
      </trkpt>
      <trkpt lat="37.16609" lon="-8.75275">
        <ele>59.26</ele>
        <time>2020-09-05T08:36:54Z</time>
      </trkpt>
      <trkpt lat="37.16607" lon="-8.75312">
        <ele>61.66</ele>
        <time>2020-09-05T08:37:04Z</time>
      </trkpt>
      <trkpt lat="37.16605" lon="-8.75338">
        <ele>64.07</ele>
        <time>2020-09-05T08:37:12Z</time>
      </trkpt>
      <trkpt lat="37.16605" lon="-8.75347">
        <ele>65.03</ele>
        <time>2020-09-05T08:37:15Z</time>
      </trkpt>
      <trkpt lat="37.16611" lon="-8.75374">
        <ele>67.43</ele>
        <time>2020-09-05T08:37:24Z</time>
      </trkpt>
      <trkpt lat="37.16624" lon="-8.7541">
        <ele>69.83</ele>
        <time>2020-09-05T08:37:35Z</time>
      </trkpt>
      <trkpt lat="37.16637" lon="-8.75447">
        <ele>72.72</ele>
        <time>2020-09-05T08:37:47Z</time>
      </trkpt>
      <trkpt lat="37.16653" lon="-8.75472">
        <ele>73.2</ele>
        <time>2020-09-05T08:37:56Z</time>
      </trkpt>
      <trkpt lat="37.16665" lon="-8.75497">
        <ele>73.2</ele>
        <time>2020-09-05T08:38:03Z</time>
      </trkpt>
      <trkpt lat="37.16685" lon="-8.75531">
        <ele>73.68</ele>
        <time>2020-09-05T08:38:13Z</time>
      </trkpt>
      <trkpt lat="37.16707" lon="-8.75574">
        <ele>72.72</ele>
        <time>2020-09-05T08:38:24Z</time>
      </trkpt>
      <trkpt lat="37.16712" lon="-8.75593">
        <ele>72.24</ele>
        <time>2020-09-05T08:38:28Z</time>
      </trkpt>
      <trkpt lat="37.16713" lon="-8.75599">
        <ele>72.24</ele>
        <time>2020-09-05T08:38:29Z</time>
      </trkpt>
      <trkpt lat="37.16713" lon="-8.75605">
        <ele>72.24</ele>
        <time>2020-09-05T08:38:30Z</time>
      </trkpt>
      <trkpt lat="37.16708" lon="-8.75633">
        <ele>69.83</ele>
        <time>2020-09-05T08:38:35Z</time>
      </trkpt>
      <trkpt lat="37.16705" lon="-8.75637">
        <ele>68.87</ele>
        <time>2020-09-05T08:38:36Z</time>
      </trkpt>
      <trkpt lat="37.16701" lon="-8.75639">
        <ele>68.39</ele>
        <time>2020-09-05T08:38:37Z</time>
      </trkpt>
      <trkpt lat="37.16696" lon="-8.75639">
        <ele>68.39</ele>
        <time>2020-09-05T08:38:38Z</time>
      </trkpt>
      <trkpt lat="37.16691" lon="-8.75637">
        <ele>67.91</ele>
        <time>2020-09-05T08:38:39Z</time>
      </trkpt>
      <trkpt lat="37.16687" lon="-8.75634">
        <ele>67.91</ele>
        <time>2020-09-05T08:38:40Z</time>
      </trkpt>
      <trkpt lat="37.16683" lon="-8.7563">
        <ele>67.91</ele>
        <time>2020-09-05T08:38:41Z</time>
      </trkpt>
      <trkpt lat="37.16679" lon="-8.75626">
        <ele>67.91</ele>
        <time>2020-09-05T08:38:42Z</time>
      </trkpt>
      <trkpt lat="37.16677" lon="-8.75621">
        <ele>67.91</ele>
        <time>2020-09-05T08:38:43Z</time>
      </trkpt>
      <trkpt lat="37.16675" lon="-8.75617">
        <ele>67.91</ele>
        <time>2020-09-05T08:38:44Z</time>
      </trkpt>
      <trkpt lat="37.16653" lon="-8.75584">
        <ele>67.43</ele>
        <time>2020-09-05T08:38:52Z</time>
      </trkpt>
      <trkpt lat="37.16631" lon="-8.75558">
        <ele>67.43</ele>
        <time>2020-09-05T08:38:59Z</time>
      </trkpt>
      <trkpt lat="37.16628" lon="-8.75554">
        <ele>67.43</ele>
        <time>2020-09-05T08:39:00Z</time>
      </trkpt>
      <trkpt lat="37.166" lon="-8.75516">
        <ele>68.87</ele>
        <time>2020-09-05T08:39:11Z</time>
      </trkpt>
      <trkpt lat="37.16572" lon="-8.75504">
        <ele>69.83</ele>
        <time>2020-09-05T08:39:20Z</time>
      </trkpt>
      <trkpt lat="37.16556" lon="-8.75514">
        <ele>70.79</ele>
        <time>2020-09-05T08:39:26Z</time>
      </trkpt>
      <trkpt lat="37.16539" lon="-8.7553">
        <ele>71.76</ele>
        <time>2020-09-05T08:39:33Z</time>
      </trkpt>
      <trkpt lat="37.16522" lon="-8.75523">
        <ele>73.68</ele>
        <time>2020-09-05T08:39:39Z</time>
      </trkpt>
      <trkpt lat="37.16514" lon="-8.75503">
        <ele>74.64</ele>
        <time>2020-09-05T08:39:45Z</time>
      </trkpt>
      <trkpt lat="37.16512" lon="-8.75473">
        <ele>77.52</ele>
        <time>2020-09-05T08:39:53Z</time>
      </trkpt>
      <trkpt lat="37.16501" lon="-8.75452">
        <ele>78.97</ele>
        <time>2020-09-05T08:40:00Z</time>
      </trkpt>
      <trkpt lat="37.16483" lon="-8.75447">
        <ele>79.93</ele>
        <time>2020-09-05T08:40:06Z</time>
      </trkpt>
      <trkpt lat="37.1646" lon="-8.75438">
        <ele>81.37</ele>
        <time>2020-09-05T08:40:14Z</time>
      </trkpt>
      <trkpt lat="37.16446" lon="-8.75414">
        <ele>83.77</ele>
        <time>2020-09-05T08:40:23Z</time>
      </trkpt>
      <trkpt lat="37.16434" lon="-8.75398">
        <ele>85.69</ele>
        <time>2020-09-05T08:40:31Z</time>
      </trkpt>
      <trkpt lat="37.16431" lon="-8.75399">
        <ele>86.66</ele>
        <time>2020-09-05T08:40:32Z</time>
      </trkpt>
      <trkpt lat="37.1643" lon="-8.75401">
        <ele>86.66</ele>
        <time>2020-09-05T08:40:33Z</time>
      </trkpt>
      <trkpt lat="37.16429" lon="-8.75403">
        <ele>87.14</ele>
        <time>2020-09-05T08:40:34Z</time>
      </trkpt>
      <trkpt lat="37.16429" lon="-8.75406">
        <ele>87.14</ele>
        <time>2020-09-05T08:40:35Z</time>
      </trkpt>
      <trkpt lat="37.16429" lon="-8.75409">
        <ele>87.14</ele>
        <time>2020-09-05T08:40:36Z</time>
      </trkpt>
      <trkpt lat="37.16432" lon="-8.75435">
        <ele>89.06</ele>
        <time>2020-09-05T08:40:45Z</time>
      </trkpt>
      <trkpt lat="37.16423" lon="-8.75455">
        <ele>91.46</ele>
        <time>2020-09-05T08:40:53Z</time>
      </trkpt>
      <trkpt lat="37.16417" lon="-8.75462">
        <ele>92.9</ele>
        <time>2020-09-05T08:40:57Z</time>
      </trkpt>
      <trkpt lat="37.16405" lon="-8.75481">
        <ele>93.39</ele>
        <time>2020-09-05T08:41:03Z</time>
      </trkpt>
      <trkpt lat="37.16394" lon="-8.75506">
        <ele>90.98</ele>
        <time>2020-09-05T08:41:07Z</time>
      </trkpt>
      <trkpt lat="37.1639" lon="-8.75511">
        <ele>90.98</ele>
        <time>2020-09-05T08:41:08Z</time>
      </trkpt>
      <trkpt lat="37.16386" lon="-8.75516">
        <ele>90.98</ele>
        <time>2020-09-05T08:41:09Z</time>
      </trkpt>
      <trkpt lat="37.16383" lon="-8.7552">
        <ele>90.98</ele>
        <time>2020-09-05T08:41:10Z</time>
      </trkpt>
      <trkpt lat="37.16379" lon="-8.75523">
        <ele>90.98</ele>
        <time>2020-09-05T08:41:11Z</time>
      </trkpt>
      <trkpt lat="37.16375" lon="-8.75525">
        <ele>90.98</ele>
        <time>2020-09-05T08:41:12Z</time>
      </trkpt>
      <trkpt lat="37.16371" lon="-8.75527">
        <ele>90.98</ele>
        <time>2020-09-05T08:41:13Z</time>
      </trkpt>
      <trkpt lat="37.16367" lon="-8.75528">
        <ele>90.98</ele>
        <time>2020-09-05T08:41:14Z</time>
      </trkpt>
      <trkpt lat="37.16364" lon="-8.75528">
        <ele>90.98</ele>
        <time>2020-09-05T08:41:15Z</time>
      </trkpt>
      <trkpt lat="37.1636" lon="-8.75528">
        <ele>90.98</ele>
        <time>2020-09-05T08:41:16Z</time>
      </trkpt>
      <trkpt lat="37.16356" lon="-8.75527">
        <ele>90.98</ele>
        <time>2020-09-05T08:41:17Z</time>
      </trkpt>
      <trkpt lat="37.1632" lon="-8.75529">
        <ele>93.87</ele>
        <time>2020-09-05T08:41:28Z</time>
      </trkpt>
      <trkpt lat="37.16288" lon="-8.75537">
        <ele>94.83</ele>
        <time>2020-09-05T08:41:38Z</time>
      </trkpt>
      <trkpt lat="37.16254" lon="-8.75538">
        <ele>96.75</ele>
        <time>2020-09-05T08:41:49Z</time>
      </trkpt>
      <trkpt lat="37.16224" lon="-8.75535">
        <ele>96.75</ele>
        <time>2020-09-05T08:41:58Z</time>
      </trkpt>
      <trkpt lat="37.16219" lon="-8.75536">
        <ele>95.31</ele>
        <time>2020-09-05T08:41:59Z</time>
      </trkpt>
      <trkpt lat="37.16214" lon="-8.75538">
        <ele>95.31</ele>
        <time>2020-09-05T08:42:00Z</time>
      </trkpt>
      <trkpt lat="37.16191" lon="-8.75544">
        <ele>93.87</ele>
        <time>2020-09-05T08:42:04Z</time>
      </trkpt>
      <trkpt lat="37.16178" lon="-8.75549">
        <ele>92.42</ele>
        <time>2020-09-05T08:42:06Z</time>
      </trkpt>
      <trkpt lat="37.16172" lon="-8.75553">
        <ele>90.98</ele>
        <time>2020-09-05T08:42:07Z</time>
      </trkpt>
      <trkpt lat="37.16161" lon="-8.75557">
        <ele>90.5</ele>
        <time>2020-09-05T08:42:09Z</time>
      </trkpt>
      <trkpt lat="37.16137" lon="-8.75557">
        <ele>86.18</ele>
        <time>2020-09-05T08:42:14Z</time>
      </trkpt>
      <trkpt lat="37.16114" lon="-8.75555">
        <ele>82.33</ele>
        <time>2020-09-05T08:42:18Z</time>
      </trkpt>
      <trkpt lat="37.16096" lon="-8.75565">
        <ele>80.89</ele>
        <time>2020-09-05T08:42:22Z</time>
      </trkpt>
      <trkpt lat="37.16078" lon="-8.75578">
        <ele>80.41</ele>
        <time>2020-09-05T08:42:27Z</time>
      </trkpt>
      <trkpt lat="37.16074" lon="-8.75579">
        <ele>80.41</ele>
        <time>2020-09-05T08:42:28Z</time>
      </trkpt>
      <trkpt lat="37.16057" lon="-8.75581">
        <ele>80.41</ele>
        <time>2020-09-05T08:42:32Z</time>
      </trkpt>
      <trkpt lat="37.16024" lon="-8.75566">
        <ele>79.45</ele>
        <time>2020-09-05T08:42:40Z</time>
      </trkpt>
      <trkpt lat="37.16015" lon="-8.75562">
        <ele>79.45</ele>
        <time>2020-09-05T08:42:42Z</time>
      </trkpt>
      <trkpt lat="37.16005" lon="-8.75558">
        <ele>78.97</ele>
        <time>2020-09-05T08:42:44Z</time>
      </trkpt>
      <trkpt lat="37.15978" lon="-8.75557">
        <ele>75.12</ele>
        <time>2020-09-05T08:42:49Z</time>
      </trkpt>
      <trkpt lat="37.15972" lon="-8.75556">
        <ele>74.16</ele>
        <time>2020-09-05T08:42:50Z</time>
      </trkpt>
      <trkpt lat="37.15945" lon="-8.7556">
        <ele>70.79</ele>
        <time>2020-09-05T08:42:54Z</time>
      </trkpt>
      <trkpt lat="37.15914" lon="-8.75564">
        <ele>70.79</ele>
        <time>2020-09-05T08:43:00Z</time>
      </trkpt>
      <trkpt lat="37.1588" lon="-8.75563">
        <ele>67.91</ele>
        <time>2020-09-05T08:43:06Z</time>
      </trkpt>
      <trkpt lat="37.15867" lon="-8.75562">
        <ele>67.43</ele>
        <time>2020-09-05T08:43:08Z</time>
      </trkpt>
      <trkpt lat="37.15833" lon="-8.75565">
        <ele>67.91</ele>
        <time>2020-09-05T08:43:15Z</time>
      </trkpt>
      <trkpt lat="37.15796" lon="-8.7556">
        <ele>67.91</ele>
        <time>2020-09-05T08:43:23Z</time>
      </trkpt>
      <trkpt lat="37.15748" lon="-8.75554">
        <ele>65.99</ele>
        <time>2020-09-05T08:43:31Z</time>
      </trkpt>
      <trkpt lat="37.15717" lon="-8.75545">
        <ele>65.03</ele>
        <time>2020-09-05T08:43:37Z</time>
      </trkpt>
      <trkpt lat="37.15695" lon="-8.75543">
        <ele>64.07</ele>
        <time>2020-09-05T08:43:41Z</time>
      </trkpt>
      <trkpt lat="37.15665" lon="-8.75533">
        <ele>62.14</ele>
        <time>2020-09-05T08:43:46Z</time>
      </trkpt>
      <trkpt lat="37.15626" lon="-8.75514">
        <ele>59.74</ele>
        <time>2020-09-05T08:43:52Z</time>
      </trkpt>
      <trkpt lat="37.15597" lon="-8.75511">
        <ele>58.3</ele>
        <time>2020-09-05T08:43:56Z</time>
      </trkpt>
      <trkpt lat="37.15572" lon="-8.75524">
        <ele>56.86</ele>
        <time>2020-09-05T08:44:00Z</time>
      </trkpt>
      <trkpt lat="37.15568" lon="-8.75545">
        <ele>56.37</ele>
        <time>2020-09-05T08:44:03Z</time>
      </trkpt>
      <trkpt lat="37.1557" lon="-8.75567">
        <ele>57.82</ele>
        <time>2020-09-05T08:44:07Z</time>
      </trkpt>
      <trkpt lat="37.15566" lon="-8.75598">
        <ele>60.7</ele>
        <time>2020-09-05T08:44:14Z</time>
      </trkpt>
      <trkpt lat="37.15564" lon="-8.75638">
        <ele>62.62</ele>
        <time>2020-09-05T08:44:23Z</time>
      </trkpt>
      <trkpt lat="37.15554" lon="-8.75675">
        <ele>62.62</ele>
        <time>2020-09-05T08:44:32Z</time>
      </trkpt>
      <trkpt lat="37.15552" lon="-8.75717">
        <ele>61.18</ele>
        <time>2020-09-05T08:44:40Z</time>
      </trkpt>
      <trkpt lat="37.15556" lon="-8.75746">
        <ele>59.26</ele>
        <time>2020-09-05T08:44:47Z</time>
      </trkpt>
      <trkpt lat="37.15557" lon="-8.75746">
        <ele>59.26</ele>
        <time>2020-09-05T08:44:52Z</time>
      </trkpt>
      <trkpt lat="37.15557" lon="-8.75746">
        <ele>59.26</ele>
        <time>2020-09-05T08:45:11Z</time>
      </trkpt>
      <trkpt lat="37.15556" lon="-8.75746">
        <ele>59.26</ele>
        <time>2020-09-05T08:45:30Z</time>
      </trkpt>
      <trkpt lat="37.15556" lon="-8.75746">
        <ele>59.26</ele>
        <time>2020-09-05T08:45:49Z</time>
      </trkpt>
      <trkpt lat="37.15557" lon="-8.75749">
        <ele>59.26</ele>
        <time>2020-09-05T08:46:06Z</time>
      </trkpt>
      <trkpt lat="37.15564" lon="-8.75766">
        <ele>58.3</ele>
        <time>2020-09-05T08:46:11Z</time>
      </trkpt>
      <trkpt lat="37.15572" lon="-8.75778">
        <ele>57.82</ele>
        <time>2020-09-05T08:46:14Z</time>
      </trkpt>
      <trkpt lat="37.15584" lon="-8.75803">
        <ele>57.34</ele>
        <time>2020-09-05T08:46:19Z</time>
      </trkpt>
      <trkpt lat="37.15598" lon="-8.7585">
        <ele>55.89</ele>
        <time>2020-09-05T08:46:27Z</time>
      </trkpt>
      <trkpt lat="37.15607" lon="-8.75901">
        <ele>54.45</ele>
        <time>2020-09-05T08:46:33Z</time>
      </trkpt>
      <trkpt lat="37.15605" lon="-8.75934">
        <ele>54.45</ele>
        <time>2020-09-05T08:46:38Z</time>
      </trkpt>
      <trkpt lat="37.15601" lon="-8.75975">
        <ele>57.34</ele>
        <time>2020-09-05T08:46:46Z</time>
      </trkpt>
      <trkpt lat="37.15603" lon="-8.76029">
        <ele>59.26</ele>
        <time>2020-09-05T08:46:57Z</time>
      </trkpt>
      <trkpt lat="37.15611" lon="-8.76072">
        <ele>56.86</ele>
        <time>2020-09-05T08:47:03Z</time>
      </trkpt>
      <trkpt lat="37.15626" lon="-8.76128">
        <ele>55.41</ele>
        <time>2020-09-05T08:47:10Z</time>
      </trkpt>
      <trkpt lat="37.15627" lon="-8.76135">
        <ele>55.41</ele>
        <time>2020-09-05T08:47:11Z</time>
      </trkpt>
      <trkpt lat="37.15626" lon="-8.76142">
        <ele>55.41</ele>
        <time>2020-09-05T08:47:12Z</time>
      </trkpt>
      <trkpt lat="37.15624" lon="-8.76148">
        <ele>55.41</ele>
        <time>2020-09-05T08:47:13Z</time>
      </trkpt>
      <trkpt lat="37.15621" lon="-8.76154">
        <ele>55.41</ele>
        <time>2020-09-05T08:47:14Z</time>
      </trkpt>
      <trkpt lat="37.15619" lon="-8.76159">
        <ele>55.41</ele>
        <time>2020-09-05T08:47:15Z</time>
      </trkpt>
      <trkpt lat="37.15616" lon="-8.76163">
        <ele>55.41</ele>
        <time>2020-09-05T08:47:16Z</time>
      </trkpt>
      <trkpt lat="37.15604" lon="-8.76182">
        <ele>56.86</ele>
        <time>2020-09-05T08:47:21Z</time>
      </trkpt>
      <trkpt lat="37.15583" lon="-8.76212">
        <ele>60.22</ele>
        <time>2020-09-05T08:47:31Z</time>
      </trkpt>
      <trkpt lat="37.15557" lon="-8.76251">
        <ele>62.62</ele>
        <time>2020-09-05T08:47:44Z</time>
      </trkpt>
      <trkpt lat="37.15526" lon="-8.76295">
        <ele>65.03</ele>
        <time>2020-09-05T08:47:58Z</time>
      </trkpt>
      <trkpt lat="37.15502" lon="-8.76329">
        <ele>67.91</ele>
        <time>2020-09-05T08:48:09Z</time>
      </trkpt>
      <trkpt lat="37.15474" lon="-8.76358">
        <ele>67.91</ele>
        <time>2020-09-05T08:48:19Z</time>
      </trkpt>
      <trkpt lat="37.1543" lon="-8.7639">
        <ele>65.99</ele>
        <time>2020-09-05T08:48:30Z</time>
      </trkpt>
      <trkpt lat="37.15417" lon="-8.76401">
        <ele>65.51</ele>
        <time>2020-09-05T08:48:33Z</time>
      </trkpt>
      <trkpt lat="37.15375" lon="-8.76446">
        <ele>63.1</ele>
        <time>2020-09-05T08:48:42Z</time>
      </trkpt>
      <trkpt lat="37.1534" lon="-8.76487">
        <ele>59.26</ele>
        <time>2020-09-05T08:48:48Z</time>
      </trkpt>
      <trkpt lat="37.15311" lon="-8.76518">
        <ele>56.37</ele>
        <time>2020-09-05T08:48:52Z</time>
      </trkpt>
      <trkpt lat="37.15296" lon="-8.76535">
        <ele>55.41</ele>
        <time>2020-09-05T08:48:54Z</time>
      </trkpt>
      <trkpt lat="37.15264" lon="-8.76566">
        <ele>56.37</ele>
        <time>2020-09-05T08:48:59Z</time>
      </trkpt>
      <trkpt lat="37.15247" lon="-8.76582">
        <ele>57.82</ele>
        <time>2020-09-05T08:49:04Z</time>
      </trkpt>
      <trkpt lat="37.15217" lon="-8.76611">
        <ele>61.18</ele>
        <time>2020-09-05T08:49:15Z</time>
      </trkpt>
      <trkpt lat="37.15186" lon="-8.76644">
        <ele>63.1</ele>
        <time>2020-09-05T08:49:25Z</time>
      </trkpt>
      <trkpt lat="37.1515" lon="-8.76678">
        <ele>64.07</ele>
        <time>2020-09-05T08:49:34Z</time>
      </trkpt>
      <trkpt lat="37.15102" lon="-8.76717">
        <ele>64.07</ele>
        <time>2020-09-05T08:49:45Z</time>
      </trkpt>
      <trkpt lat="37.15069" lon="-8.76726">
        <ele>65.03</ele>
        <time>2020-09-05T08:49:53Z</time>
      </trkpt>
      <trkpt lat="37.15031" lon="-8.76741">
        <ele>66.95</ele>
        <time>2020-09-05T08:50:03Z</time>
      </trkpt>
      <trkpt lat="37.15002" lon="-8.7677">
        <ele>68.39</ele>
        <time>2020-09-05T08:50:13Z</time>
      </trkpt>
      <trkpt lat="37.14966" lon="-8.76791">
        <ele>68.39</ele>
        <time>2020-09-05T08:50:23Z</time>
      </trkpt>
      <trkpt lat="37.14925" lon="-8.76816">
        <ele>70.31</ele>
        <time>2020-09-05T08:50:35Z</time>
      </trkpt>
      <trkpt lat="37.14901" lon="-8.76843">
        <ele>73.2</ele>
        <time>2020-09-05T08:50:45Z</time>
      </trkpt>
      <trkpt lat="37.14872" lon="-8.7687">
        <ele>75.12</ele>
        <time>2020-09-05T08:50:56Z</time>
      </trkpt>
      <trkpt lat="37.14839" lon="-8.76907">
        <ele>76.08</ele>
        <time>2020-09-05T08:51:09Z</time>
      </trkpt>
      <trkpt lat="37.14813" lon="-8.76926">
        <ele>77.04</ele>
        <time>2020-09-05T08:51:18Z</time>
      </trkpt>
      <trkpt lat="37.14776" lon="-8.76939">
        <ele>80.41</ele>
        <time>2020-09-05T08:51:30Z</time>
      </trkpt>
      <trkpt lat="37.14735" lon="-8.76959">
        <ele>83.77</ele>
        <time>2020-09-05T08:51:44Z</time>
      </trkpt>
      <trkpt lat="37.14707" lon="-8.76985">
        <ele>86.66</ele>
        <time>2020-09-05T08:51:55Z</time>
      </trkpt>
      <trkpt lat="37.14677" lon="-8.77016">
        <ele>87.62</ele>
        <time>2020-09-05T08:52:06Z</time>
      </trkpt>
      <trkpt lat="37.14652" lon="-8.77034">
        <ele>85.69</ele>
        <time>2020-09-05T08:52:12Z</time>
      </trkpt>
      <trkpt lat="37.14621" lon="-8.7706">
        <ele>82.33</ele>
        <time>2020-09-05T08:52:17Z</time>
      </trkpt>
      <trkpt lat="37.14607" lon="-8.77075">
        <ele>80.89</ele>
        <time>2020-09-05T08:52:19Z</time>
      </trkpt>
      <trkpt lat="37.14599" lon="-8.7708">
        <ele>80.89</ele>
        <time>2020-09-05T08:52:20Z</time>
      </trkpt>
      <trkpt lat="37.1459" lon="-8.77084">
        <ele>79.93</ele>
        <time>2020-09-05T08:52:21Z</time>
      </trkpt>
      <trkpt lat="37.14582" lon="-8.77087">
        <ele>79.93</ele>
        <time>2020-09-05T08:52:22Z</time>
      </trkpt>
      <trkpt lat="37.14575" lon="-8.7709">
        <ele>79.93</ele>
        <time>2020-09-05T08:52:23Z</time>
      </trkpt>
      <trkpt lat="37.14567" lon="-8.77094">
        <ele>79.93</ele>
        <time>2020-09-05T08:52:24Z</time>
      </trkpt>
      <trkpt lat="37.1456" lon="-8.77099">
        <ele>79.93</ele>
        <time>2020-09-05T08:52:25Z</time>
      </trkpt>
      <trkpt lat="37.14554" lon="-8.77104">
        <ele>79.93</ele>
        <time>2020-09-05T08:52:26Z</time>
      </trkpt>
      <trkpt lat="37.14515" lon="-8.77145">
        <ele>79.45</ele>
        <time>2020-09-05T08:52:33Z</time>
      </trkpt>
      <trkpt lat="37.14486" lon="-8.77186">
        <ele>79.45</ele>
        <time>2020-09-05T08:52:40Z</time>
      </trkpt>
      <trkpt lat="37.14449" lon="-8.77243">
        <ele>78.97</ele>
        <time>2020-09-05T08:52:51Z</time>
      </trkpt>
      <trkpt lat="37.1441" lon="-8.77304">
        <ele>77.04</ele>
        <time>2020-09-05T08:53:03Z</time>
      </trkpt>
      <trkpt lat="37.14405" lon="-8.77309">
        <ele>77.04</ele>
        <time>2020-09-05T08:53:04Z</time>
      </trkpt>
      <trkpt lat="37.14361" lon="-8.77346">
        <ele>75.6</ele>
        <time>2020-09-05T08:53:13Z</time>
      </trkpt>
      <trkpt lat="37.14325" lon="-8.77389">
        <ele>74.16</ele>
        <time>2020-09-05T08:53:21Z</time>
      </trkpt>
      <trkpt lat="37.14307" lon="-8.77408">
        <ele>72.24</ele>
        <time>2020-09-05T08:53:24Z</time>
      </trkpt>
      <trkpt lat="37.14302" lon="-8.77415">
        <ele>72.24</ele>
        <time>2020-09-05T08:53:25Z</time>
      </trkpt>
      <trkpt lat="37.14296" lon="-8.77424">
        <ele>71.27</ele>
        <time>2020-09-05T08:53:26Z</time>
      </trkpt>
      <trkpt lat="37.14292" lon="-8.77434">
        <ele>70.79</ele>
        <time>2020-09-05T08:53:27Z</time>
      </trkpt>
      <trkpt lat="37.14287" lon="-8.77444">
        <ele>69.83</ele>
        <time>2020-09-05T08:53:28Z</time>
      </trkpt>
      <trkpt lat="37.14252" lon="-8.77517">
        <ele>65.99</ele>
        <time>2020-09-05T08:53:35Z</time>
      </trkpt>
      <trkpt lat="37.14245" lon="-8.77525">
        <ele>65.51</ele>
        <time>2020-09-05T08:53:36Z</time>
      </trkpt>
      <trkpt lat="37.14211" lon="-8.77561">
        <ele>63.1</ele>
        <time>2020-09-05T08:53:41Z</time>
      </trkpt>
      <trkpt lat="37.14198" lon="-8.77573">
        <ele>62.14</ele>
        <time>2020-09-05T08:53:44Z</time>
      </trkpt>
      <trkpt lat="37.14189" lon="-8.7758">
        <ele>62.14</ele>
        <time>2020-09-05T08:53:46Z</time>
      </trkpt>
      <trkpt lat="37.14186" lon="-8.77585">
        <ele>62.14</ele>
        <time>2020-09-05T08:53:47Z</time>
      </trkpt>
      <trkpt lat="37.14186" lon="-8.77591">
        <ele>62.14</ele>
        <time>2020-09-05T08:53:48Z</time>
      </trkpt>
      <trkpt lat="37.14188" lon="-8.77596">
        <ele>61.66</ele>
        <time>2020-09-05T08:53:49Z</time>
      </trkpt>
      <trkpt lat="37.1419" lon="-8.77599">
        <ele>62.14</ele>
        <time>2020-09-05T08:53:50Z</time>
      </trkpt>
      <trkpt lat="37.14193" lon="-8.77603">
        <ele>62.14</ele>
        <time>2020-09-05T08:53:51Z</time>
      </trkpt>
      <trkpt lat="37.14195" lon="-8.77608">
        <ele>62.14</ele>
        <time>2020-09-05T08:53:52Z</time>
      </trkpt>
      <trkpt lat="37.14198" lon="-8.77613">
        <ele>62.14</ele>
        <time>2020-09-05T08:53:53Z</time>
      </trkpt>
      <trkpt lat="37.1422" lon="-8.77659">
        <ele>63.1</ele>
        <time>2020-09-05T08:54:03Z</time>
      </trkpt>
      <trkpt lat="37.14243" lon="-8.77693">
        <ele>65.99</ele>
        <time>2020-09-05T08:54:13Z</time>
      </trkpt>
      <trkpt lat="37.14243" lon="-8.77697">
        <ele>65.99</ele>
        <time>2020-09-05T08:54:14Z</time>
      </trkpt>
      <trkpt lat="37.14241" lon="-8.77701">
        <ele>66.95</ele>
        <time>2020-09-05T08:54:15Z</time>
      </trkpt>
      <trkpt lat="37.14239" lon="-8.77703">
        <ele>66.95</ele>
        <time>2020-09-05T08:54:16Z</time>
      </trkpt>
      <trkpt lat="37.14236" lon="-8.77704">
        <ele>67.43</ele>
        <time>2020-09-05T08:54:17Z</time>
      </trkpt>
      <trkpt lat="37.14233" lon="-8.77705">
        <ele>67.43</ele>
        <time>2020-09-05T08:54:18Z</time>
      </trkpt>
      <trkpt lat="37.1423" lon="-8.77705">
        <ele>67.91</ele>
        <time>2020-09-05T08:54:19Z</time>
      </trkpt>
      <trkpt lat="37.14198" lon="-8.77708">
        <ele>71.27</ele>
        <time>2020-09-05T08:54:30Z</time>
      </trkpt>
      <trkpt lat="37.14169" lon="-8.77712">
        <ele>74.64</ele>
        <time>2020-09-05T08:54:41Z</time>
      </trkpt>
      <trkpt lat="37.14147" lon="-8.77727">
        <ele>77.52</ele>
        <time>2020-09-05T08:54:50Z</time>
      </trkpt>
      <trkpt lat="37.14122" lon="-8.7775">
        <ele>78.97</ele>
        <time>2020-09-05T08:55:01Z</time>
      </trkpt>
      <trkpt lat="37.14101" lon="-8.77777">
        <ele>79.45</ele>
        <time>2020-09-05T08:55:11Z</time>
      </trkpt>
      <trkpt lat="37.1408" lon="-8.77802">
        <ele>79.93</ele>
        <time>2020-09-05T08:55:20Z</time>
      </trkpt>
      <trkpt lat="37.14073" lon="-8.77811">
        <ele>78.48</ele>
        <time>2020-09-05T08:55:22Z</time>
      </trkpt>
      <trkpt lat="37.1407" lon="-8.77818">
        <ele>77.52</ele>
        <time>2020-09-05T08:55:23Z</time>
      </trkpt>
      <trkpt lat="37.14069" lon="-8.77826">
        <ele>77.52</ele>
        <time>2020-09-05T08:55:24Z</time>
      </trkpt>
      <trkpt lat="37.14069" lon="-8.77834">
        <ele>77.52</ele>
        <time>2020-09-05T08:55:25Z</time>
      </trkpt>
      <trkpt lat="37.1407" lon="-8.77838">
        <ele>77.52</ele>
        <time>2020-09-05T08:55:26Z</time>
      </trkpt>
      <trkpt lat="37.14072" lon="-8.7785">
        <ele>79.45</ele>
        <time>2020-09-05T08:55:29Z</time>
      </trkpt>
      <trkpt lat="37.14075" lon="-8.77859">
        <ele>80.89</ele>
        <time>2020-09-05T08:55:32Z</time>
      </trkpt>
      <trkpt lat="37.14089" lon="-8.77875">
        <ele>84.25</ele>
        <time>2020-09-05T08:55:40Z</time>
      </trkpt>
      <trkpt lat="37.14109" lon="-8.77893">
        <ele>87.14</ele>
        <time>2020-09-05T08:55:50Z</time>
      </trkpt>
      <trkpt lat="37.14128" lon="-8.77919">
        <ele>89.54</ele>
        <time>2020-09-05T08:56:01Z</time>
      </trkpt>
      <trkpt lat="37.14143" lon="-8.77946">
        <ele>90.5</ele>
        <time>2020-09-05T08:56:10Z</time>
      </trkpt>
      <trkpt lat="37.1416" lon="-8.77964">
        <ele>91.46</ele>
        <time>2020-09-05T08:56:17Z</time>
      </trkpt>
      <trkpt lat="37.14188" lon="-8.77983">
        <ele>92.42</ele>
        <time>2020-09-05T08:56:27Z</time>
      </trkpt>
      <trkpt lat="37.14204" lon="-8.78">
        <ele>93.87</ele>
        <time>2020-09-05T08:56:34Z</time>
      </trkpt>
      <trkpt lat="37.14226" lon="-8.78022">
        <ele>94.83</ele>
        <time>2020-09-05T08:56:44Z</time>
      </trkpt>
      <trkpt lat="37.14256" lon="-8.78048">
        <ele>95.31</ele>
        <time>2020-09-05T08:56:56Z</time>
      </trkpt>
      <trkpt lat="37.14279" lon="-8.78069">
        <ele>97.71</ele>
        <time>2020-09-05T08:57:06Z</time>
      </trkpt>
      <trkpt lat="37.14306" lon="-8.78095">
        <ele>98.67</ele>
        <time>2020-09-05T08:57:17Z</time>
      </trkpt>
      <trkpt lat="37.14332" lon="-8.78119">
        <ele>99.63</ele>
        <time>2020-09-05T08:57:27Z</time>
      </trkpt>
      <trkpt lat="37.14351" lon="-8.78139">
        <ele>100.6</ele>
        <time>2020-09-05T08:57:35Z</time>
      </trkpt>
      <trkpt lat="37.14377" lon="-8.78167">
        <ele>102.52</ele>
        <time>2020-09-05T08:57:46Z</time>
      </trkpt>
      <trkpt lat="37.14395" lon="-8.78187">
        <ele>105.4</ele>
        <time>2020-09-05T08:57:55Z</time>
      </trkpt>
      <trkpt lat="37.14413" lon="-8.78212">
        <ele>106.84</ele>
        <time>2020-09-05T08:58:05Z</time>
      </trkpt>
      <trkpt lat="37.14428" lon="-8.78244">
        <ele>107.32</ele>
        <time>2020-09-05T08:58:15Z</time>
      </trkpt>
      <trkpt lat="37.14444" lon="-8.78276">
        <ele>109.25</ele>
        <time>2020-09-05T08:58:26Z</time>
      </trkpt>
      <trkpt lat="37.14449" lon="-8.78302">
        <ele>111.65</ele>
        <time>2020-09-05T08:58:34Z</time>
      </trkpt>
      <trkpt lat="37.14457" lon="-8.78327">
        <ele>113.09</ele>
        <time>2020-09-05T08:58:42Z</time>
      </trkpt>
      <trkpt lat="37.14472" lon="-8.78351">
        <ele>115.01</ele>
        <time>2020-09-05T08:58:51Z</time>
      </trkpt>
      <trkpt lat="37.14485" lon="-8.78373">
        <ele>118.38</ele>
        <time>2020-09-05T08:59:00Z</time>
      </trkpt>
      <trkpt lat="37.14499" lon="-8.78392">
        <ele>119.34</ele>
        <time>2020-09-05T08:59:09Z</time>
      </trkpt>
      <trkpt lat="37.14517" lon="-8.78416">
        <ele>121.74</ele>
        <time>2020-09-05T08:59:20Z</time>
      </trkpt>
      <trkpt lat="37.14534" lon="-8.78435">
        <ele>123.67</ele>
        <time>2020-09-05T08:59:30Z</time>
      </trkpt>
      <trkpt lat="37.14544" lon="-8.78455">
        <ele>127.03</ele>
        <time>2020-09-05T08:59:39Z</time>
      </trkpt>
      <trkpt lat="37.14558" lon="-8.78474">
        <ele>128.95</ele>
        <time>2020-09-05T08:59:49Z</time>
      </trkpt>
      <trkpt lat="37.1457" lon="-8.7849">
        <ele>131.36</ele>
        <time>2020-09-05T08:59:57Z</time>
      </trkpt>
      <trkpt lat="37.14583" lon="-8.78502">
        <ele>132.8</ele>
        <time>2020-09-05T09:00:05Z</time>
      </trkpt>
      <trkpt lat="37.14601" lon="-8.78516">
        <ele>134.72</ele>
        <time>2020-09-05T09:00:15Z</time>
      </trkpt>
      <trkpt lat="37.14618" lon="-8.78529">
        <ele>135.68</ele>
        <time>2020-09-05T09:00:24Z</time>
      </trkpt>
      <trkpt lat="37.14633" lon="-8.78547">
        <ele>136.64</ele>
        <time>2020-09-05T09:00:33Z</time>
      </trkpt>
      <trkpt lat="37.14649" lon="-8.78569">
        <ele>138.57</ele>
        <time>2020-09-05T09:00:43Z</time>
      </trkpt>
      <trkpt lat="37.14664" lon="-8.78597">
        <ele>140.97</ele>
        <time>2020-09-05T09:00:54Z</time>
      </trkpt>
      <trkpt lat="37.14672" lon="-8.78616">
        <ele>140.97</ele>
        <time>2020-09-05T09:01:01Z</time>
      </trkpt>
      <trkpt lat="37.14681" lon="-8.78643">
        <ele>141.45</ele>
        <time>2020-09-05T09:01:10Z</time>
      </trkpt>
      <trkpt lat="37.14688" lon="-8.78663">
        <ele>142.41</ele>
        <time>2020-09-05T09:01:17Z</time>
      </trkpt>
      <trkpt lat="37.14696" lon="-8.78692">
        <ele>143.85</ele>
        <time>2020-09-05T09:01:27Z</time>
      </trkpt>
      <trkpt lat="37.14701" lon="-8.78713">
        <ele>144.82</ele>
        <time>2020-09-05T09:01:34Z</time>
      </trkpt>
      <trkpt lat="37.14711" lon="-8.78738">
        <ele>146.26</ele>
        <time>2020-09-05T09:01:43Z</time>
      </trkpt>
      <trkpt lat="37.14721" lon="-8.78763">
        <ele>148.18</ele>
        <time>2020-09-05T09:01:52Z</time>
      </trkpt>
      <trkpt lat="37.14731" lon="-8.78789">
        <ele>149.62</ele>
        <time>2020-09-05T09:02:01Z</time>
      </trkpt>
      <trkpt lat="37.14738" lon="-8.78814">
        <ele>151.54</ele>
        <time>2020-09-05T09:02:10Z</time>
      </trkpt>
      <trkpt lat="37.14751" lon="-8.78833">
        <ele>154.43</ele>
        <time>2020-09-05T09:02:19Z</time>
      </trkpt>
      <trkpt lat="37.14765" lon="-8.78853">
        <ele>156.83</ele>
        <time>2020-09-05T09:02:28Z</time>
      </trkpt>
      <trkpt lat="37.14778" lon="-8.7887">
        <ele>160.2</ele>
        <time>2020-09-05T09:02:36Z</time>
      </trkpt>
      <trkpt lat="37.14791" lon="-8.78888">
        <ele>162.6</ele>
        <time>2020-09-05T09:02:44Z</time>
      </trkpt>
      <trkpt lat="37.14804" lon="-8.78907">
        <ele>165.48</ele>
        <time>2020-09-05T09:02:53Z</time>
      </trkpt>
      <trkpt lat="37.14815" lon="-8.78924">
        <ele>167.89</ele>
        <time>2020-09-05T09:03:01Z</time>
      </trkpt>
      <trkpt lat="37.14833" lon="-8.78943">
        <ele>169.81</ele>
        <time>2020-09-05T09:03:10Z</time>
      </trkpt>
      <trkpt lat="37.14834" lon="-8.78967">
        <ele>171.25</ele>
        <time>2020-09-05T09:03:17Z</time>
      </trkpt>
      <trkpt lat="37.14829" lon="-8.78994">
        <ele>173.17</ele>
        <time>2020-09-05T09:03:26Z</time>
      </trkpt>
      <trkpt lat="37.14824" lon="-8.79021">
        <ele>174.62</ele>
        <time>2020-09-05T09:03:35Z</time>
      </trkpt>
      <trkpt lat="37.14823" lon="-8.79047">
        <ele>176.06</ele>
        <time>2020-09-05T09:03:43Z</time>
      </trkpt>
      <trkpt lat="37.14835" lon="-8.79073">
        <ele>177.02</ele>
        <time>2020-09-05T09:03:52Z</time>
      </trkpt>
      <trkpt lat="37.14841" lon="-8.79094">
        <ele>177.98</ele>
        <time>2020-09-05T09:03:59Z</time>
      </trkpt>
      <trkpt lat="37.14838" lon="-8.79098">
        <ele>177.98</ele>
        <time>2020-09-05T09:04:01Z</time>
      </trkpt>
      <trkpt lat="37.14836" lon="-8.79099">
        <ele>177.98</ele>
        <time>2020-09-05T09:04:02Z</time>
      </trkpt>
      <trkpt lat="37.14822" lon="-8.791">
        <ele>177.98</ele>
        <time>2020-09-05T09:04:10Z</time>
      </trkpt>
      <trkpt lat="37.14823" lon="-8.79099">
        <ele>178.46</ele>
        <time>2020-09-05T09:04:25Z</time>
      </trkpt>
      <trkpt lat="37.14824" lon="-8.791">
        <ele>177.02</ele>
        <time>2020-09-05T09:04:37Z</time>
      </trkpt>
      <trkpt lat="37.14824" lon="-8.791">
        <ele>178.46</ele>
        <time>2020-09-05T09:04:39Z</time>
      </trkpt>
      <trkpt lat="37.14823" lon="-8.791">
        <ele>177.5</ele>
        <time>2020-09-05T09:04:51Z</time>
      </trkpt>
      <trkpt lat="37.14823" lon="-8.791">
        <ele>178.94</ele>
        <time>2020-09-05T09:04:53Z</time>
      </trkpt>
      <trkpt lat="37.14818" lon="-8.79103">
        <ele>177.98</ele>
        <time>2020-09-05T09:05:02Z</time>
      </trkpt>
      <trkpt lat="37.14792" lon="-8.79109">
        <ele>177.98</ele>
        <time>2020-09-05T09:05:10Z</time>
      </trkpt>
      <trkpt lat="37.14761" lon="-8.79115">
        <ele>177.5</ele>
        <time>2020-09-05T09:05:19Z</time>
      </trkpt>
      <trkpt lat="37.14716" lon="-8.79125">
        <ele>177.5</ele>
        <time>2020-09-05T09:05:31Z</time>
      </trkpt>
      <trkpt lat="37.14705" lon="-8.79128">
        <ele>178.94</ele>
        <time>2020-09-05T09:05:34Z</time>
      </trkpt>
      <trkpt lat="37.14666" lon="-8.79141">
        <ele>178.94</ele>
        <time>2020-09-05T09:05:44Z</time>
      </trkpt>
      <trkpt lat="37.14633" lon="-8.79161">
        <ele>179.42</ele>
        <time>2020-09-05T09:05:53Z</time>
      </trkpt>
      <trkpt lat="37.14605" lon="-8.79182">
        <ele>179.42</ele>
        <time>2020-09-05T09:06:01Z</time>
      </trkpt>
      <trkpt lat="37.14574" lon="-8.79206">
        <ele>179.42</ele>
        <time>2020-09-05T09:06:10Z</time>
      </trkpt>
      <trkpt lat="37.14571" lon="-8.79209">
        <ele>176.06</ele>
        <time>2020-09-05T09:06:11Z</time>
      </trkpt>
      <trkpt lat="37.14568" lon="-8.79213">
        <ele>179.9</ele>
        <time>2020-09-05T09:06:12Z</time>
      </trkpt>
      <trkpt lat="37.14544" lon="-8.79229">
        <ele>177.5</ele>
        <time>2020-09-05T09:06:20Z</time>
      </trkpt>
      <trkpt lat="37.14539" lon="-8.79232">
        <ele>177.5</ele>
        <time>2020-09-05T09:06:25Z</time>
      </trkpt>
      <trkpt lat="37.1454" lon="-8.79232">
        <ele>176.54</ele>
        <time>2020-09-05T09:06:35Z</time>
      </trkpt>
      <trkpt lat="37.14542" lon="-8.79234">
        <ele>176.54</ele>
        <time>2020-09-05T09:07:01Z</time>
      </trkpt>
      <trkpt lat="37.1454" lon="-8.79235">
        <ele>176.54</ele>
        <time>2020-09-05T09:07:27Z</time>
      </trkpt>
      <trkpt lat="37.14541" lon="-8.79232">
        <ele>176.54</ele>
        <time>2020-09-05T09:07:54Z</time>
      </trkpt>
      <trkpt lat="37.14543" lon="-8.79236">
        <ele>176.54</ele>
        <time>2020-09-05T09:08:15Z</time>
      </trkpt>
      <trkpt lat="37.14543" lon="-8.79235">
        <ele>176.54</ele>
        <time>2020-09-05T09:08:37Z</time>
      </trkpt>
      <trkpt lat="37.14542" lon="-8.79233">
        <ele>176.54</ele>
        <time>2020-09-05T09:08:55Z</time>
      </trkpt>
      <trkpt lat="37.14542" lon="-8.79233">
        <ele>176.54</ele>
        <time>2020-09-05T09:08:56Z</time>
      </trkpt>
      <trkpt lat="37.14541" lon="-8.79236">
        <ele>176.54</ele>
        <time>2020-09-05T09:09:06Z</time>
      </trkpt>
      <trkpt lat="37.14541" lon="-8.79239">
        <ele>176.54</ele>
        <time>2020-09-05T09:09:08Z</time>
      </trkpt>
      <trkpt lat="37.1454" lon="-8.79242">
        <ele>176.54</ele>
        <time>2020-09-05T09:09:09Z</time>
      </trkpt>
      <trkpt lat="37.14536" lon="-8.79268">
        <ele>176.54</ele>
        <time>2020-09-05T09:09:16Z</time>
      </trkpt>
      <trkpt lat="37.14521" lon="-8.79315">
        <ele>176.06</ele>
        <time>2020-09-05T09:09:27Z</time>
      </trkpt>
      <trkpt lat="37.14509" lon="-8.79353">
        <ele>174.62</ele>
        <time>2020-09-05T09:09:35Z</time>
      </trkpt>
      <trkpt lat="37.14504" lon="-8.79369">
        <ele>174.14</ele>
        <time>2020-09-05T09:09:38Z</time>
      </trkpt>
      <trkpt lat="37.14503" lon="-8.79375">
        <ele>173.66</ele>
        <time>2020-09-05T09:09:39Z</time>
      </trkpt>
      <trkpt lat="37.14501" lon="-8.79394">
        <ele>173.17</ele>
        <time>2020-09-05T09:09:42Z</time>
      </trkpt>
      <trkpt lat="37.14501" lon="-8.79424">
        <ele>171.25</ele>
        <time>2020-09-05T09:09:46Z</time>
      </trkpt>
      <trkpt lat="37.14504" lon="-8.79468">
        <ele>167.89</ele>
        <time>2020-09-05T09:09:52Z</time>
      </trkpt>
      <trkpt lat="37.14507" lon="-8.79497">
        <ele>165</ele>
        <time>2020-09-05T09:09:56Z</time>
      </trkpt>
      <trkpt lat="37.14511" lon="-8.79532">
        <ele>161.64</ele>
        <time>2020-09-05T09:10:00Z</time>
      </trkpt>
      <trkpt lat="37.1451" lon="-8.79571">
        <ele>158.75</ele>
        <time>2020-09-05T09:10:04Z</time>
      </trkpt>
      <trkpt lat="37.14509" lon="-8.79581">
        <ele>158.27</ele>
        <time>2020-09-05T09:10:05Z</time>
      </trkpt>
      <trkpt lat="37.14506" lon="-8.79589">
        <ele>158.27</ele>
        <time>2020-09-05T09:10:06Z</time>
      </trkpt>
      <trkpt lat="37.14486" lon="-8.79652">
        <ele>155.39</ele>
        <time>2020-09-05T09:10:14Z</time>
      </trkpt>
      <trkpt lat="37.14474" lon="-8.79679">
        <ele>152.51</ele>
        <time>2020-09-05T09:10:18Z</time>
      </trkpt>
      <trkpt lat="37.14462" lon="-8.79704">
        <ele>149.14</ele>
        <time>2020-09-05T09:10:22Z</time>
      </trkpt>
      <trkpt lat="37.14453" lon="-8.79723">
        <ele>147.22</ele>
        <time>2020-09-05T09:10:25Z</time>
      </trkpt>
      <trkpt lat="37.14449" lon="-8.79736">
        <ele>145.3</ele>
        <time>2020-09-05T09:10:27Z</time>
      </trkpt>
      <trkpt lat="37.14448" lon="-8.79743">
        <ele>144.34</ele>
        <time>2020-09-05T09:10:28Z</time>
      </trkpt>
      <trkpt lat="37.14448" lon="-8.7975">
        <ele>143.85</ele>
        <time>2020-09-05T09:10:29Z</time>
      </trkpt>
      <trkpt lat="37.14448" lon="-8.79758">
        <ele>142.89</ele>
        <time>2020-09-05T09:10:30Z</time>
      </trkpt>
      <trkpt lat="37.14449" lon="-8.79765">
        <ele>141.93</ele>
        <time>2020-09-05T09:10:31Z</time>
      </trkpt>
      <trkpt lat="37.14451" lon="-8.79773">
        <ele>141.45</ele>
        <time>2020-09-05T09:10:32Z</time>
      </trkpt>
      <trkpt lat="37.14453" lon="-8.7978">
        <ele>140.49</ele>
        <time>2020-09-05T09:10:33Z</time>
      </trkpt>
      <trkpt lat="37.14456" lon="-8.79788">
        <ele>139.53</ele>
        <time>2020-09-05T09:10:34Z</time>
      </trkpt>
      <trkpt lat="37.14461" lon="-8.79803">
        <ele>138.57</ele>
        <time>2020-09-05T09:10:36Z</time>
      </trkpt>
      <trkpt lat="37.14467" lon="-8.79837">
        <ele>135.68</ele>
        <time>2020-09-05T09:10:40Z</time>
      </trkpt>
      <trkpt lat="37.14466" lon="-8.79845">
        <ele>135.2</ele>
        <time>2020-09-05T09:10:41Z</time>
      </trkpt>
      <trkpt lat="37.14465" lon="-8.79854">
        <ele>134.72</ele>
        <time>2020-09-05T09:10:42Z</time>
      </trkpt>
      <trkpt lat="37.14464" lon="-8.79862">
        <ele>134.24</ele>
        <time>2020-09-05T09:10:43Z</time>
      </trkpt>
      <trkpt lat="37.14461" lon="-8.7987">
        <ele>133.76</ele>
        <time>2020-09-05T09:10:44Z</time>
      </trkpt>
      <trkpt lat="37.14458" lon="-8.79878">
        <ele>133.28</ele>
        <time>2020-09-05T09:10:45Z</time>
      </trkpt>
      <trkpt lat="37.14454" lon="-8.79885">
        <ele>132.8</ele>
        <time>2020-09-05T09:10:46Z</time>
      </trkpt>
      <trkpt lat="37.1445" lon="-8.79892">
        <ele>132.32</ele>
        <time>2020-09-05T09:10:47Z</time>
      </trkpt>
      <trkpt lat="37.14422" lon="-8.79929">
        <ele>128.95</ele>
        <time>2020-09-05T09:10:53Z</time>
      </trkpt>
      <trkpt lat="37.14392" lon="-8.79966">
        <ele>125.11</ele>
        <time>2020-09-05T09:10:59Z</time>
      </trkpt>
      <trkpt lat="37.14362" lon="-8.79994">
        <ele>121.74</ele>
        <time>2020-09-05T09:11:04Z</time>
      </trkpt>
      <trkpt lat="37.14355" lon="-8.8">
        <ele>121.74</ele>
        <time>2020-09-05T09:11:05Z</time>
      </trkpt>
      <trkpt lat="37.14324" lon="-8.8003">
        <ele>118.38</ele>
        <time>2020-09-05T09:11:10Z</time>
      </trkpt>
      <trkpt lat="37.14299" lon="-8.80067">
        <ele>115.01</ele>
        <time>2020-09-05T09:11:16Z</time>
      </trkpt>
      <trkpt lat="37.14275" lon="-8.80109">
        <ele>111.17</ele>
        <time>2020-09-05T09:11:21Z</time>
      </trkpt>
      <trkpt lat="37.14243" lon="-8.80155">
        <ele>107.32</ele>
        <time>2020-09-05T09:11:26Z</time>
      </trkpt>
      <trkpt lat="37.1422" lon="-8.80181">
        <ele>106.36</ele>
        <time>2020-09-05T09:11:29Z</time>
      </trkpt>
      <trkpt lat="37.14196" lon="-8.80207">
        <ele>104.44</ele>
        <time>2020-09-05T09:11:32Z</time>
      </trkpt>
      <trkpt lat="37.14137" lon="-8.80269">
        <ele>101.56</ele>
        <time>2020-09-05T09:11:40Z</time>
      </trkpt>
      <trkpt lat="37.14126" lon="-8.80282">
        <ele>101.56</ele>
        <time>2020-09-05T09:11:42Z</time>
      </trkpt>
      <trkpt lat="37.14122" lon="-8.80288">
        <ele>101.56</ele>
        <time>2020-09-05T09:11:43Z</time>
      </trkpt>
      <trkpt lat="37.14119" lon="-8.80293">
        <ele>103</ele>
        <time>2020-09-05T09:11:44Z</time>
      </trkpt>
      <trkpt lat="37.14108" lon="-8.80316">
        <ele>105.88</ele>
        <time>2020-09-05T09:11:50Z</time>
      </trkpt>
      <trkpt lat="37.14101" lon="-8.80326">
        <ele>106.36</ele>
        <time>2020-09-05T09:11:53Z</time>
      </trkpt>
      <trkpt lat="37.14074" lon="-8.80351">
        <ele>103.48</ele>
        <time>2020-09-05T09:11:59Z</time>
      </trkpt>
      <trkpt lat="37.14037" lon="-8.80381">
        <ele>99.63</ele>
        <time>2020-09-05T09:12:06Z</time>
      </trkpt>
      <trkpt lat="37.14032" lon="-8.80386">
        <ele>99.15</ele>
        <time>2020-09-05T09:12:07Z</time>
      </trkpt>
      <trkpt lat="37.14027" lon="-8.80391">
        <ele>99.15</ele>
        <time>2020-09-05T09:12:08Z</time>
      </trkpt>
      <trkpt lat="37.14022" lon="-8.80397">
        <ele>98.67</ele>
        <time>2020-09-05T09:12:09Z</time>
      </trkpt>
      <trkpt lat="37.14019" lon="-8.80404">
        <ele>98.67</ele>
        <time>2020-09-05T09:12:10Z</time>
      </trkpt>
      <trkpt lat="37.14015" lon="-8.8041">
        <ele>98.67</ele>
        <time>2020-09-05T09:12:11Z</time>
      </trkpt>
      <trkpt lat="37.13997" lon="-8.8044">
        <ele>98.19</ele>
        <time>2020-09-05T09:12:16Z</time>
      </trkpt>
      <trkpt lat="37.13972" lon="-8.80471">
        <ele>97.23</ele>
        <time>2020-09-05T09:12:23Z</time>
      </trkpt>
      <trkpt lat="37.1396" lon="-8.80487">
        <ele>96.27</ele>
        <time>2020-09-05T09:12:27Z</time>
      </trkpt>
      <trkpt lat="37.13928" lon="-8.80515">
        <ele>93.39</ele>
        <time>2020-09-05T09:12:33Z</time>
      </trkpt>
      <trkpt lat="37.13898" lon="-8.80539">
        <ele>92.9</ele>
        <time>2020-09-05T09:12:39Z</time>
      </trkpt>
      <trkpt lat="37.13896" lon="-8.80541">
        <ele>92.9</ele>
        <time>2020-09-05T09:12:43Z</time>
      </trkpt>
      <trkpt lat="37.13899" lon="-8.80541">
        <ele>94.35</ele>
        <time>2020-09-05T09:12:55Z</time>
      </trkpt>
      <trkpt lat="37.13898" lon="-8.80542">
        <ele>94.83</ele>
        <time>2020-09-05T09:13:17Z</time>
      </trkpt>
      <trkpt lat="37.13896" lon="-8.80544">
        <ele>94.83</ele>
        <time>2020-09-05T09:13:32Z</time>
      </trkpt>
      <trkpt lat="37.13896" lon="-8.80547">
        <ele>94.83</ele>
        <time>2020-09-05T09:13:36Z</time>
      </trkpt>
      <trkpt lat="37.13899" lon="-8.80567">
        <ele>92.9</ele>
        <time>2020-09-05T09:13:43Z</time>
      </trkpt>
      <trkpt lat="37.13906" lon="-8.806">
        <ele>91.46</ele>
        <time>2020-09-05T09:13:49Z</time>
      </trkpt>
      <trkpt lat="37.13916" lon="-8.80647">
        <ele>90.5</ele>
        <time>2020-09-05T09:13:56Z</time>
      </trkpt>
      <trkpt lat="37.13928" lon="-8.8067">
        <ele>90.02</ele>
        <time>2020-09-05T09:14:01Z</time>
      </trkpt>
      <trkpt lat="37.13931" lon="-8.80675">
        <ele>90.02</ele>
        <time>2020-09-05T09:14:02Z</time>
      </trkpt>
      <trkpt lat="37.13933" lon="-8.80681">
        <ele>89.54</ele>
        <time>2020-09-05T09:14:03Z</time>
      </trkpt>
      <trkpt lat="37.13938" lon="-8.80699">
        <ele>88.58</ele>
        <time>2020-09-05T09:14:06Z</time>
      </trkpt>
      <trkpt lat="37.1394" lon="-8.80704">
        <ele>88.58</ele>
        <time>2020-09-05T09:14:07Z</time>
      </trkpt>
      <trkpt lat="37.13943" lon="-8.8071">
        <ele>88.1</ele>
        <time>2020-09-05T09:14:08Z</time>
      </trkpt>
      <trkpt lat="37.13951" lon="-8.80723">
        <ele>87.62</ele>
        <time>2020-09-05T09:14:11Z</time>
      </trkpt>
      <trkpt lat="37.13962" lon="-8.80757">
        <ele>87.14</ele>
        <time>2020-09-05T09:14:18Z</time>
      </trkpt>
      <trkpt lat="37.13978" lon="-8.80783">
        <ele>88.58</ele>
        <time>2020-09-05T09:14:25Z</time>
      </trkpt>
      <trkpt lat="37.1399" lon="-8.80796">
        <ele>89.06</ele>
        <time>2020-09-05T09:14:29Z</time>
      </trkpt>
      <trkpt lat="37.13993" lon="-8.80799">
        <ele>89.06</ele>
        <time>2020-09-05T09:14:30Z</time>
      </trkpt>
      <trkpt lat="37.14026" lon="-8.80822">
        <ele>90.98</ele>
        <time>2020-09-05T09:14:40Z</time>
      </trkpt>
      <trkpt lat="37.14054" lon="-8.80837">
        <ele>92.9</ele>
        <time>2020-09-05T09:14:49Z</time>
      </trkpt>
      <trkpt lat="37.14084" lon="-8.80852">
        <ele>93.39</ele>
        <time>2020-09-05T09:14:58Z</time>
      </trkpt>
      <trkpt lat="37.14095" lon="-8.8086">
        <ele>91.94</ele>
        <time>2020-09-05T09:15:01Z</time>
      </trkpt>
      <trkpt lat="37.14099" lon="-8.80863">
        <ele>91.46</ele>
        <time>2020-09-05T09:15:02Z</time>
      </trkpt>
      <trkpt lat="37.14103" lon="-8.80864">
        <ele>90.98</ele>
        <time>2020-09-05T09:15:03Z</time>
      </trkpt>
      <trkpt lat="37.14107" lon="-8.80864">
        <ele>90.02</ele>
        <time>2020-09-05T09:15:04Z</time>
      </trkpt>
      <trkpt lat="37.14112" lon="-8.80865">
        <ele>89.54</ele>
        <time>2020-09-05T09:15:05Z</time>
      </trkpt>
      <trkpt lat="37.14117" lon="-8.80865">
        <ele>89.06</ele>
        <time>2020-09-05T09:15:06Z</time>
      </trkpt>
      <trkpt lat="37.14127" lon="-8.80867">
        <ele>87.62</ele>
        <time>2020-09-05T09:15:08Z</time>
      </trkpt>
      <trkpt lat="37.14133" lon="-8.80867">
        <ele>86.66</ele>
        <time>2020-09-05T09:15:09Z</time>
      </trkpt>
      <trkpt lat="37.14139" lon="-8.80866">
        <ele>86.18</ele>
        <time>2020-09-05T09:15:10Z</time>
      </trkpt>
      <trkpt lat="37.14146" lon="-8.80865">
        <ele>86.18</ele>
        <time>2020-09-05T09:15:11Z</time>
      </trkpt>
      <trkpt lat="37.14168" lon="-8.80865">
        <ele>84.73</ele>
        <time>2020-09-05T09:15:15Z</time>
      </trkpt>
      <trkpt lat="37.14174" lon="-8.80867">
        <ele>83.77</ele>
        <time>2020-09-05T09:15:16Z</time>
      </trkpt>
      <trkpt lat="37.14189" lon="-8.80872">
        <ele>85.21</ele>
        <time>2020-09-05T09:15:20Z</time>
      </trkpt>
      <trkpt lat="37.14209" lon="-8.8087">
        <ele>87.62</ele>
        <time>2020-09-05T09:15:27Z</time>
      </trkpt>
      <trkpt lat="37.14226" lon="-8.80875">
        <ele>90.02</ele>
        <time>2020-09-05T09:15:34Z</time>
      </trkpt>
      <trkpt lat="37.14246" lon="-8.80881">
        <ele>92.9</ele>
        <time>2020-09-05T09:15:43Z</time>
      </trkpt>
      <trkpt lat="37.14272" lon="-8.80894">
        <ele>95.31</ele>
        <time>2020-09-05T09:15:55Z</time>
      </trkpt>
      <trkpt lat="37.14297" lon="-8.80909">
        <ele>96.27</ele>
        <time>2020-09-05T09:16:06Z</time>
      </trkpt>
      <trkpt lat="37.14316" lon="-8.80919">
        <ele>97.23</ele>
        <time>2020-09-05T09:16:14Z</time>
      </trkpt>
      <trkpt lat="37.14336" lon="-8.80931">
        <ele>98.19</ele>
        <time>2020-09-05T09:16:23Z</time>
      </trkpt>
      <trkpt lat="37.14355" lon="-8.80942">
        <ele>101.08</ele>
        <time>2020-09-05T09:16:32Z</time>
      </trkpt>
      <trkpt lat="37.1438" lon="-8.80958">
        <ele>103</ele>
        <time>2020-09-05T09:16:44Z</time>
      </trkpt>
      <trkpt lat="37.14391" lon="-8.80976">
        <ele>104.44</ele>
        <time>2020-09-05T09:16:52Z</time>
      </trkpt>
      <trkpt lat="37.14387" lon="-8.80994">
        <ele>104.92</ele>
        <time>2020-09-05T09:16:58Z</time>
      </trkpt>
      <trkpt lat="37.14381" lon="-8.81013">
        <ele>105.88</ele>
        <time>2020-09-05T09:17:05Z</time>
      </trkpt>
      <trkpt lat="37.14383" lon="-8.81015">
        <ele>105.88</ele>
        <time>2020-09-05T09:17:06Z</time>
      </trkpt>
      <trkpt lat="37.14385" lon="-8.81017">
        <ele>106.36</ele>
        <time>2020-09-05T09:17:07Z</time>
      </trkpt>
      <trkpt lat="37.14387" lon="-8.81017">
        <ele>106.36</ele>
        <time>2020-09-05T09:17:08Z</time>
      </trkpt>
      <trkpt lat="37.1439" lon="-8.81016">
        <ele>107.32</ele>
        <time>2020-09-05T09:17:09Z</time>
      </trkpt>
      <trkpt lat="37.14392" lon="-8.81014">
        <ele>107.32</ele>
        <time>2020-09-05T09:17:10Z</time>
      </trkpt>
      <trkpt lat="37.14393" lon="-8.81012">
        <ele>107.81</ele>
        <time>2020-09-05T09:17:11Z</time>
      </trkpt>
      <trkpt lat="37.14395" lon="-8.8101">
        <ele>107.81</ele>
        <time>2020-09-05T09:17:12Z</time>
      </trkpt>
      <trkpt lat="37.14412" lon="-8.80987">
        <ele>109.73</ele>
        <time>2020-09-05T09:17:22Z</time>
      </trkpt>
      <trkpt lat="37.14426" lon="-8.80963">
        <ele>112.13</ele>
        <time>2020-09-05T09:17:32Z</time>
      </trkpt>
      <trkpt lat="37.14443" lon="-8.80946">
        <ele>113.09</ele>
        <time>2020-09-05T09:17:41Z</time>
      </trkpt>
      <trkpt lat="37.14462" lon="-8.80947">
        <ele>115.01</ele>
        <time>2020-09-05T09:17:48Z</time>
      </trkpt>
      <trkpt lat="37.14468" lon="-8.80951">
        <ele>116.94</ele>
        <time>2020-09-05T09:17:51Z</time>
      </trkpt>
      <trkpt lat="37.14477" lon="-8.80957">
        <ele>120.3</ele>
        <time>2020-09-05T09:17:57Z</time>
      </trkpt>
      <trkpt lat="37.14485" lon="-8.80964">
        <ele>122.71</ele>
        <time>2020-09-05T09:18:02Z</time>
      </trkpt>
      <trkpt lat="37.14486" lon="-8.80965">
        <ele>123.19</ele>
        <time>2020-09-05T09:18:03Z</time>
      </trkpt>
      <trkpt lat="37.14487" lon="-8.80966">
        <ele>124.15</ele>
        <time>2020-09-05T09:18:04Z</time>
      </trkpt>
      <trkpt lat="37.14488" lon="-8.80967">
        <ele>124.15</ele>
        <time>2020-09-05T09:18:05Z</time>
      </trkpt>
      <trkpt lat="37.14499" lon="-8.80973">
        <ele>127.03</ele>
        <time>2020-09-05T09:18:12Z</time>
      </trkpt>
      <trkpt lat="37.14513" lon="-8.80978">
        <ele>129.92</ele>
        <time>2020-09-05T09:18:19Z</time>
      </trkpt>
      <trkpt lat="37.14528" lon="-8.80982">
        <ele>133.28</ele>
        <time>2020-09-05T09:18:27Z</time>
      </trkpt>
      <trkpt lat="37.14544" lon="-8.80988">
        <ele>134.72</ele>
        <time>2020-09-05T09:18:35Z</time>
      </trkpt>
      <trkpt lat="37.14563" lon="-8.80999">
        <ele>134.72</ele>
        <time>2020-09-05T09:18:44Z</time>
      </trkpt>
      <trkpt lat="37.14577" lon="-8.81017">
        <ele>135.2</ele>
        <time>2020-09-05T09:18:53Z</time>
      </trkpt>
      <trkpt lat="37.14591" lon="-8.81035">
        <ele>135.2</ele>
        <time>2020-09-05T09:19:00Z</time>
      </trkpt>
      <trkpt lat="37.14609" lon="-8.81062">
        <ele>135.68</ele>
        <time>2020-09-05T09:19:11Z</time>
      </trkpt>
      <trkpt lat="37.1461" lon="-8.81089">
        <ele>137.61</ele>
        <time>2020-09-05T09:19:19Z</time>
      </trkpt>
      <trkpt lat="37.14608" lon="-8.81097">
        <ele>139.05</ele>
        <time>2020-09-05T09:19:22Z</time>
      </trkpt>
      <trkpt lat="37.146" lon="-8.81116">
        <ele>142.41</ele>
        <time>2020-09-05T09:19:30Z</time>
      </trkpt>
      <trkpt lat="37.14592" lon="-8.8114">
        <ele>145.3</ele>
        <time>2020-09-05T09:19:39Z</time>
      </trkpt>
      <trkpt lat="37.14594" lon="-8.81142">
        <ele>146.26</ele>
        <time>2020-09-05T09:19:40Z</time>
      </trkpt>
      <trkpt lat="37.14595" lon="-8.81145">
        <ele>146.74</ele>
        <time>2020-09-05T09:19:41Z</time>
      </trkpt>
      <trkpt lat="37.14607" lon="-8.8116">
        <ele>150.1</ele>
        <time>2020-09-05T09:19:48Z</time>
      </trkpt>
      <trkpt lat="37.1461" lon="-8.81164">
        <ele>151.06</ele>
        <time>2020-09-05T09:19:50Z</time>
      </trkpt>
      <trkpt lat="37.14622" lon="-8.81178">
        <ele>153.47</ele>
        <time>2020-09-05T09:19:58Z</time>
      </trkpt>
      <trkpt lat="37.14641" lon="-8.81179">
        <ele>153.47</ele>
        <time>2020-09-05T09:20:05Z</time>
      </trkpt>
      <trkpt lat="37.14659" lon="-8.8118">
        <ele>153.47</ele>
        <time>2020-09-05T09:20:12Z</time>
      </trkpt>
      <trkpt lat="37.14677" lon="-8.81185">
        <ele>154.43</ele>
        <time>2020-09-05T09:20:20Z</time>
      </trkpt>
      <trkpt lat="37.14678" lon="-8.81203">
        <ele>154.43</ele>
        <time>2020-09-05T09:20:26Z</time>
      </trkpt>
      <trkpt lat="37.14683" lon="-8.81222">
        <ele>154.43</ele>
        <time>2020-09-05T09:20:32Z</time>
      </trkpt>
      <trkpt lat="37.14684" lon="-8.81247">
        <ele>154.43</ele>
        <time>2020-09-05T09:20:38Z</time>
      </trkpt>
      <trkpt lat="37.14673" lon="-8.81279">
        <ele>151.54</ele>
        <time>2020-09-05T09:20:46Z</time>
      </trkpt>
      <trkpt lat="37.14665" lon="-8.81299">
        <ele>150.1</ele>
        <time>2020-09-05T09:20:52Z</time>
      </trkpt>
      <trkpt lat="37.14664" lon="-8.813">
        <ele>150.1</ele>
        <time>2020-09-05T09:21:02Z</time>
      </trkpt>
      <trkpt lat="37.14656" lon="-8.81313">
        <ele>150.1</ele>
        <time>2020-09-05T09:21:07Z</time>
      </trkpt>
      <trkpt lat="37.14643" lon="-8.81343">
        <ele>152.03</ele>
        <time>2020-09-05T09:21:16Z</time>
      </trkpt>
      <trkpt lat="37.14619" lon="-8.81373">
        <ele>153.47</ele>
        <time>2020-09-05T09:21:27Z</time>
      </trkpt>
      <trkpt lat="37.14609" lon="-8.81387">
        <ele>153.47</ele>
        <time>2020-09-05T09:21:31Z</time>
      </trkpt>
      <trkpt lat="37.14606" lon="-8.81391">
        <ele>153.47</ele>
        <time>2020-09-05T09:21:32Z</time>
      </trkpt>
      <trkpt lat="37.14604" lon="-8.81396">
        <ele>153.47</ele>
        <time>2020-09-05T09:21:33Z</time>
      </trkpt>
      <trkpt lat="37.14594" lon="-8.81439">
        <ele>151.54</ele>
        <time>2020-09-05T09:21:42Z</time>
      </trkpt>
      <trkpt lat="37.14595" lon="-8.81444">
        <ele>151.54</ele>
        <time>2020-09-05T09:21:43Z</time>
      </trkpt>
      <trkpt lat="37.14596" lon="-8.81449">
        <ele>151.06</ele>
        <time>2020-09-05T09:21:44Z</time>
      </trkpt>
      <trkpt lat="37.14598" lon="-8.81455">
        <ele>150.58</ele>
        <time>2020-09-05T09:21:45Z</time>
      </trkpt>
      <trkpt lat="37.14599" lon="-8.8146">
        <ele>150.58</ele>
        <time>2020-09-05T09:21:46Z</time>
      </trkpt>
      <trkpt lat="37.14606" lon="-8.81477">
        <ele>150.1</ele>
        <time>2020-09-05T09:21:49Z</time>
      </trkpt>
      <trkpt lat="37.1461" lon="-8.81483">
        <ele>149.62</ele>
        <time>2020-09-05T09:21:50Z</time>
      </trkpt>
      <trkpt lat="37.1464" lon="-8.81533">
        <ele>147.22</ele>
        <time>2020-09-05T09:21:58Z</time>
      </trkpt>
      <trkpt lat="37.14653" lon="-8.81575">
        <ele>147.22</ele>
        <time>2020-09-05T09:22:04Z</time>
      </trkpt>
      <trkpt lat="37.14667" lon="-8.81627">
        <ele>147.22</ele>
        <time>2020-09-05T09:22:13Z</time>
      </trkpt>
      <trkpt lat="37.14674" lon="-8.81675">
        <ele>147.22</ele>
        <time>2020-09-05T09:22:22Z</time>
      </trkpt>
      <trkpt lat="37.14685" lon="-8.81728">
        <ele>148.66</ele>
        <time>2020-09-05T09:22:32Z</time>
      </trkpt>
      <trkpt lat="37.14702" lon="-8.81754">
        <ele>150.58</ele>
        <time>2020-09-05T09:22:39Z</time>
      </trkpt>
      <trkpt lat="37.14719" lon="-8.81773">
        <ele>152.51</ele>
        <time>2020-09-05T09:22:46Z</time>
      </trkpt>
      <trkpt lat="37.1472" lon="-8.81777">
        <ele>152.99</ele>
        <time>2020-09-05T09:22:47Z</time>
      </trkpt>
      <trkpt lat="37.14719" lon="-8.81782">
        <ele>152.99</ele>
        <time>2020-09-05T09:22:48Z</time>
      </trkpt>
      <trkpt lat="37.14718" lon="-8.81786">
        <ele>152.99</ele>
        <time>2020-09-05T09:22:49Z</time>
      </trkpt>
      <trkpt lat="37.14715" lon="-8.8179">
        <ele>153.47</ele>
        <time>2020-09-05T09:22:50Z</time>
      </trkpt>
      <trkpt lat="37.14713" lon="-8.81792">
        <ele>152.99</ele>
        <time>2020-09-05T09:22:51Z</time>
      </trkpt>
      <trkpt lat="37.14709" lon="-8.81794">
        <ele>153.95</ele>
        <time>2020-09-05T09:22:52Z</time>
      </trkpt>
      <trkpt lat="37.14706" lon="-8.81796">
        <ele>153.95</ele>
        <time>2020-09-05T09:22:53Z</time>
      </trkpt>
      <trkpt lat="37.14702" lon="-8.81798">
        <ele>153.95</ele>
        <time>2020-09-05T09:22:54Z</time>
      </trkpt>
      <trkpt lat="37.14699" lon="-8.81799">
        <ele>154.43</ele>
        <time>2020-09-05T09:22:55Z</time>
      </trkpt>
      <trkpt lat="37.1466" lon="-8.81814">
        <ele>157.31</ele>
        <time>2020-09-05T09:23:07Z</time>
      </trkpt>
      <trkpt lat="37.14632" lon="-8.81837">
        <ele>157.79</ele>
        <time>2020-09-05T09:23:16Z</time>
      </trkpt>
      <trkpt lat="37.14596" lon="-8.81863">
        <ele>158.27</ele>
        <time>2020-09-05T09:23:27Z</time>
      </trkpt>
      <trkpt lat="37.14563" lon="-8.81881">
        <ele>158.27</ele>
        <time>2020-09-05T09:23:36Z</time>
      </trkpt>
      <trkpt lat="37.1453" lon="-8.81905">
        <ele>158.27</ele>
        <time>2020-09-05T09:23:45Z</time>
      </trkpt>
      <trkpt lat="37.14525" lon="-8.81906">
        <ele>158.27</ele>
        <time>2020-09-05T09:23:46Z</time>
      </trkpt>
      <trkpt lat="37.1452" lon="-8.81907">
        <ele>158.27</ele>
        <time>2020-09-05T09:23:47Z</time>
      </trkpt>
      <trkpt lat="37.14516" lon="-8.81908">
        <ele>158.27</ele>
        <time>2020-09-05T09:23:48Z</time>
      </trkpt>
      <trkpt lat="37.14512" lon="-8.81908">
        <ele>158.27</ele>
        <time>2020-09-05T09:23:49Z</time>
      </trkpt>
      <trkpt lat="37.14508" lon="-8.81907">
        <ele>158.27</ele>
        <time>2020-09-05T09:23:50Z</time>
      </trkpt>
      <trkpt lat="37.14503" lon="-8.81905">
        <ele>157.31</ele>
        <time>2020-09-05T09:23:51Z</time>
      </trkpt>
      <trkpt lat="37.145" lon="-8.81902">
        <ele>157.31</ele>
        <time>2020-09-05T09:23:52Z</time>
      </trkpt>
      <trkpt lat="37.14496" lon="-8.81898">
        <ele>156.83</ele>
        <time>2020-09-05T09:23:53Z</time>
      </trkpt>
      <trkpt lat="37.14493" lon="-8.81894">
        <ele>156.83</ele>
        <time>2020-09-05T09:23:54Z</time>
      </trkpt>
      <trkpt lat="37.1449" lon="-8.8189">
        <ele>156.83</ele>
        <time>2020-09-05T09:23:55Z</time>
      </trkpt>
      <trkpt lat="37.14486" lon="-8.81884">
        <ele>155.87</ele>
        <time>2020-09-05T09:23:56Z</time>
      </trkpt>
      <trkpt lat="37.14483" lon="-8.81878">
        <ele>155.39</ele>
        <time>2020-09-05T09:23:57Z</time>
      </trkpt>
      <trkpt lat="37.14464" lon="-8.81849">
        <ele>153.95</ele>
        <time>2020-09-05T09:24:02Z</time>
      </trkpt>
      <trkpt lat="37.14459" lon="-8.81843">
        <ele>153.95</ele>
        <time>2020-09-05T09:24:03Z</time>
      </trkpt>
      <trkpt lat="37.14453" lon="-8.81838">
        <ele>152.99</ele>
        <time>2020-09-05T09:24:04Z</time>
      </trkpt>
      <trkpt lat="37.14431" lon="-8.81825">
        <ele>152.51</ele>
        <time>2020-09-05T09:24:08Z</time>
      </trkpt>
      <trkpt lat="37.14425" lon="-8.81824">
        <ele>152.51</ele>
        <time>2020-09-05T09:24:09Z</time>
      </trkpt>
      <trkpt lat="37.1442" lon="-8.81823">
        <ele>152.51</ele>
        <time>2020-09-05T09:24:10Z</time>
      </trkpt>
      <trkpt lat="37.14415" lon="-8.81822">
        <ele>152.51</ele>
        <time>2020-09-05T09:24:11Z</time>
      </trkpt>
      <trkpt lat="37.1441" lon="-8.81822">
        <ele>152.51</ele>
        <time>2020-09-05T09:24:12Z</time>
      </trkpt>
      <trkpt lat="37.14372" lon="-8.81813">
        <ele>152.51</ele>
        <time>2020-09-05T09:24:20Z</time>
      </trkpt>
      <trkpt lat="37.14347" lon="-8.81797">
        <ele>150.58</ele>
        <time>2020-09-05T09:24:25Z</time>
      </trkpt>
      <trkpt lat="37.14341" lon="-8.81792">
        <ele>150.58</ele>
        <time>2020-09-05T09:24:26Z</time>
      </trkpt>
      <trkpt lat="37.14318" lon="-8.81766">
        <ele>146.74</ele>
        <time>2020-09-05T09:24:30Z</time>
      </trkpt>
      <trkpt lat="37.14304" lon="-8.81752">
        <ele>145.3</ele>
        <time>2020-09-05T09:24:32Z</time>
      </trkpt>
      <trkpt lat="37.14296" lon="-8.81746">
        <ele>144.34</ele>
        <time>2020-09-05T09:24:33Z</time>
      </trkpt>
      <trkpt lat="37.14287" lon="-8.81742">
        <ele>143.85</ele>
        <time>2020-09-05T09:24:34Z</time>
      </trkpt>
      <trkpt lat="37.14278" lon="-8.81739">
        <ele>143.37</ele>
        <time>2020-09-05T09:24:35Z</time>
      </trkpt>
      <trkpt lat="37.14269" lon="-8.81739">
        <ele>142.89</ele>
        <time>2020-09-05T09:24:36Z</time>
      </trkpt>
      <trkpt lat="37.14261" lon="-8.81742">
        <ele>142.41</ele>
        <time>2020-09-05T09:24:37Z</time>
      </trkpt>
      <trkpt lat="37.14254" lon="-8.81746">
        <ele>142.41</ele>
        <time>2020-09-05T09:24:38Z</time>
      </trkpt>
      <trkpt lat="37.14249" lon="-8.81752">
        <ele>142.89</ele>
        <time>2020-09-05T09:24:39Z</time>
      </trkpt>
      <trkpt lat="37.14244" lon="-8.81757">
        <ele>142.41</ele>
        <time>2020-09-05T09:24:40Z</time>
      </trkpt>
      <trkpt lat="37.14239" lon="-8.81763">
        <ele>142.41</ele>
        <time>2020-09-05T09:24:41Z</time>
      </trkpt>
      <trkpt lat="37.14236" lon="-8.8177">
        <ele>142.41</ele>
        <time>2020-09-05T09:24:42Z</time>
      </trkpt>
      <trkpt lat="37.14217" lon="-8.81794">
        <ele>144.82</ele>
        <time>2020-09-05T09:24:48Z</time>
      </trkpt>
      <trkpt lat="37.14194" lon="-8.81813">
        <ele>148.18</ele>
        <time>2020-09-05T09:24:56Z</time>
      </trkpt>
      <trkpt lat="37.14166" lon="-8.81826">
        <ele>149.62</ele>
        <time>2020-09-05T09:25:04Z</time>
      </trkpt>
      <trkpt lat="37.14162" lon="-8.81827">
        <ele>149.62</ele>
        <time>2020-09-05T09:25:05Z</time>
      </trkpt>
      <trkpt lat="37.14158" lon="-8.81827">
        <ele>149.62</ele>
        <time>2020-09-05T09:25:06Z</time>
      </trkpt>
      <trkpt lat="37.14154" lon="-8.81827">
        <ele>149.62</ele>
        <time>2020-09-05T09:25:07Z</time>
      </trkpt>
      <trkpt lat="37.1415" lon="-8.81827">
        <ele>149.62</ele>
        <time>2020-09-05T09:25:08Z</time>
      </trkpt>
      <trkpt lat="37.14147" lon="-8.81827">
        <ele>149.62</ele>
        <time>2020-09-05T09:25:09Z</time>
      </trkpt>
      <trkpt lat="37.14143" lon="-8.81827">
        <ele>149.62</ele>
        <time>2020-09-05T09:25:10Z</time>
      </trkpt>
      <trkpt lat="37.14139" lon="-8.81827">
        <ele>149.62</ele>
        <time>2020-09-05T09:25:11Z</time>
      </trkpt>
      <trkpt lat="37.14099" lon="-8.81821">
        <ele>149.62</ele>
        <time>2020-09-05T09:25:21Z</time>
      </trkpt>
      <trkpt lat="37.14086" lon="-8.81823">
        <ele>149.62</ele>
        <time>2020-09-05T09:25:24Z</time>
      </trkpt>
      <trkpt lat="37.14073" lon="-8.81828">
        <ele>149.62</ele>
        <time>2020-09-05T09:25:27Z</time>
      </trkpt>
      <trkpt lat="37.14034" lon="-8.81861">
        <ele>149.62</ele>
        <time>2020-09-05T09:25:37Z</time>
      </trkpt>
      <trkpt lat="37.14028" lon="-8.81869">
        <ele>148.66</ele>
        <time>2020-09-05T09:25:39Z</time>
      </trkpt>
      <trkpt lat="37.14025" lon="-8.81874">
        <ele>148.66</ele>
        <time>2020-09-05T09:25:40Z</time>
      </trkpt>
      <trkpt lat="37.14022" lon="-8.81878">
        <ele>148.66</ele>
        <time>2020-09-05T09:25:41Z</time>
      </trkpt>
      <trkpt lat="37.14017" lon="-8.81882">
        <ele>147.7</ele>
        <time>2020-09-05T09:25:42Z</time>
      </trkpt>
      <trkpt lat="37.14012" lon="-8.81885">
        <ele>147.22</ele>
        <time>2020-09-05T09:25:43Z</time>
      </trkpt>
      <trkpt lat="37.14007" lon="-8.81888">
        <ele>146.74</ele>
        <time>2020-09-05T09:25:44Z</time>
      </trkpt>
      <trkpt lat="37.13965" lon="-8.81905">
        <ele>144.34</ele>
        <time>2020-09-05T09:25:50Z</time>
      </trkpt>
      <trkpt lat="37.13943" lon="-8.81916">
        <ele>142.41</ele>
        <time>2020-09-05T09:25:53Z</time>
      </trkpt>
      <trkpt lat="37.13936" lon="-8.81922">
        <ele>142.41</ele>
        <time>2020-09-05T09:25:54Z</time>
      </trkpt>
      <trkpt lat="37.1393" lon="-8.81927">
        <ele>142.41</ele>
        <time>2020-09-05T09:25:55Z</time>
      </trkpt>
      <trkpt lat="37.13924" lon="-8.81933">
        <ele>142.41</ele>
        <time>2020-09-05T09:25:56Z</time>
      </trkpt>
      <trkpt lat="37.13919" lon="-8.8194">
        <ele>141.45</ele>
        <time>2020-09-05T09:25:57Z</time>
      </trkpt>
      <trkpt lat="37.13914" lon="-8.81947">
        <ele>141.45</ele>
        <time>2020-09-05T09:25:58Z</time>
      </trkpt>
      <trkpt lat="37.13896" lon="-8.81974">
        <ele>141.45</ele>
        <time>2020-09-05T09:26:02Z</time>
      </trkpt>
      <trkpt lat="37.13891" lon="-8.81979">
        <ele>140.97</ele>
        <time>2020-09-05T09:26:03Z</time>
      </trkpt>
      <trkpt lat="37.13886" lon="-8.81984">
        <ele>140.97</ele>
        <time>2020-09-05T09:26:04Z</time>
      </trkpt>
      <trkpt lat="37.13875" lon="-8.81994">
        <ele>140.49</ele>
        <time>2020-09-05T09:26:06Z</time>
      </trkpt>
      <trkpt lat="37.1387" lon="-8.81999">
        <ele>140.49</ele>
        <time>2020-09-05T09:26:07Z</time>
      </trkpt>
      <trkpt lat="37.13866" lon="-8.82005">
        <ele>140.49</ele>
        <time>2020-09-05T09:26:08Z</time>
      </trkpt>
      <trkpt lat="37.13862" lon="-8.82011">
        <ele>140.49</ele>
        <time>2020-09-05T09:26:09Z</time>
      </trkpt>
      <trkpt lat="37.13859" lon="-8.82017">
        <ele>140.49</ele>
        <time>2020-09-05T09:26:10Z</time>
      </trkpt>
      <trkpt lat="37.13838" lon="-8.82061">
        <ele>140.49</ele>
        <time>2020-09-05T09:26:18Z</time>
      </trkpt>
      <trkpt lat="37.13829" lon="-8.82077">
        <ele>140.01</ele>
        <time>2020-09-05T09:26:21Z</time>
      </trkpt>
      <trkpt lat="37.13827" lon="-8.82083">
        <ele>140.01</ele>
        <time>2020-09-05T09:26:22Z</time>
      </trkpt>
      <trkpt lat="37.13816" lon="-8.8211">
        <ele>139.53</ele>
        <time>2020-09-05T09:26:27Z</time>
      </trkpt>
      <trkpt lat="37.13814" lon="-8.82116">
        <ele>139.05</ele>
        <time>2020-09-05T09:26:28Z</time>
      </trkpt>
      <trkpt lat="37.13807" lon="-8.82137">
        <ele>137.13</ele>
        <time>2020-09-05T09:26:31Z</time>
      </trkpt>
      <trkpt lat="37.13806" lon="-8.82144">
        <ele>137.13</ele>
        <time>2020-09-05T09:26:32Z</time>
      </trkpt>
      <trkpt lat="37.13806" lon="-8.82152">
        <ele>136.16</ele>
        <time>2020-09-05T09:26:33Z</time>
      </trkpt>
      <trkpt lat="37.13807" lon="-8.8216">
        <ele>135.68</ele>
        <time>2020-09-05T09:26:34Z</time>
      </trkpt>
      <trkpt lat="37.1381" lon="-8.8217">
        <ele>134.72</ele>
        <time>2020-09-05T09:26:35Z</time>
      </trkpt>
      <trkpt lat="37.13812" lon="-8.82179">
        <ele>133.28</ele>
        <time>2020-09-05T09:26:36Z</time>
      </trkpt>
      <trkpt lat="37.13815" lon="-8.82189">
        <ele>133.28</ele>
        <time>2020-09-05T09:26:37Z</time>
      </trkpt>
      <trkpt lat="37.13816" lon="-8.82199">
        <ele>132.32</ele>
        <time>2020-09-05T09:26:38Z</time>
      </trkpt>
      <trkpt lat="37.13815" lon="-8.82207">
        <ele>132.32</ele>
        <time>2020-09-05T09:26:39Z</time>
      </trkpt>
      <trkpt lat="37.13813" lon="-8.82215">
        <ele>132.32</ele>
        <time>2020-09-05T09:26:40Z</time>
      </trkpt>
      <trkpt lat="37.1381" lon="-8.82221">
        <ele>132.32</ele>
        <time>2020-09-05T09:26:41Z</time>
      </trkpt>
      <trkpt lat="37.13806" lon="-8.82227">
        <ele>132.32</ele>
        <time>2020-09-05T09:26:42Z</time>
      </trkpt>
      <trkpt lat="37.1378" lon="-8.82273">
        <ele>130.4</ele>
        <time>2020-09-05T09:26:49Z</time>
      </trkpt>
      <trkpt lat="37.13762" lon="-8.82304">
        <ele>131.84</ele>
        <time>2020-09-05T09:26:55Z</time>
      </trkpt>
      <trkpt lat="37.1376" lon="-8.82308">
        <ele>131.84</ele>
        <time>2020-09-05T09:26:56Z</time>
      </trkpt>
      <trkpt lat="37.13757" lon="-8.82312">
        <ele>132.8</ele>
        <time>2020-09-05T09:26:57Z</time>
      </trkpt>
      <trkpt lat="37.13742" lon="-8.82338">
        <ele>135.2</ele>
        <time>2020-09-05T09:27:04Z</time>
      </trkpt>
      <trkpt lat="37.13734" lon="-8.82368">
        <ele>137.13</ele>
        <time>2020-09-05T09:27:12Z</time>
      </trkpt>
      <trkpt lat="37.13734" lon="-8.82393">
        <ele>138.09</ele>
        <time>2020-09-05T09:27:20Z</time>
      </trkpt>
      <trkpt lat="37.1373" lon="-8.8241">
        <ele>138.09</ele>
        <time>2020-09-05T09:27:27Z</time>
      </trkpt>
      <trkpt lat="37.13727" lon="-8.82438">
        <ele>140.49</ele>
        <time>2020-09-05T09:27:35Z</time>
      </trkpt>
      <trkpt lat="37.13719" lon="-8.82466">
        <ele>143.37</ele>
        <time>2020-09-05T09:27:44Z</time>
      </trkpt>
      <trkpt lat="37.13704" lon="-8.82493">
        <ele>142.41</ele>
        <time>2020-09-05T09:27:51Z</time>
      </trkpt>
      <trkpt lat="37.13701" lon="-8.82498">
        <ele>142.41</ele>
        <time>2020-09-05T09:27:52Z</time>
      </trkpt>
      <trkpt lat="37.13676" lon="-8.82533">
        <ele>139.53</ele>
        <time>2020-09-05T09:27:58Z</time>
      </trkpt>
      <trkpt lat="37.13672" lon="-8.8254">
        <ele>139.53</ele>
        <time>2020-09-05T09:27:59Z</time>
      </trkpt>
      <trkpt lat="37.13669" lon="-8.82547">
        <ele>139.53</ele>
        <time>2020-09-05T09:28:00Z</time>
      </trkpt>
      <trkpt lat="37.1366" lon="-8.8258">
        <ele>136.64</ele>
        <time>2020-09-05T09:28:04Z</time>
      </trkpt>
      <trkpt lat="37.13656" lon="-8.82625">
        <ele>136.16</ele>
        <time>2020-09-05T09:28:10Z</time>
      </trkpt>
      <trkpt lat="37.13655" lon="-8.82647">
        <ele>139.53</ele>
        <time>2020-09-05T09:28:15Z</time>
      </trkpt>
      <trkpt lat="37.13655" lon="-8.82651">
        <ele>139.53</ele>
        <time>2020-09-05T09:28:16Z</time>
      </trkpt>
      <trkpt lat="37.13653" lon="-8.82674">
        <ele>142.41</ele>
        <time>2020-09-05T09:28:22Z</time>
      </trkpt>
      <trkpt lat="37.13649" lon="-8.82699">
        <ele>143.85</ele>
        <time>2020-09-05T09:28:30Z</time>
      </trkpt>
      <trkpt lat="37.13649" lon="-8.82701">
        <ele>138.09</ele>
        <time>2020-09-05T09:28:31Z</time>
      </trkpt>
      <trkpt lat="37.13648" lon="-8.82704">
        <ele>143.85</ele>
        <time>2020-09-05T09:28:32Z</time>
      </trkpt>
      <trkpt lat="37.13648" lon="-8.8271">
        <ele>140.97</ele>
        <time>2020-09-05T09:28:34Z</time>
      </trkpt>
      <trkpt lat="37.13648" lon="-8.82711">
        <ele>140.97</ele>
        <time>2020-09-05T09:28:35Z</time>
      </trkpt>
      <trkpt lat="37.13648" lon="-8.82714">
        <ele>140.01</ele>
        <time>2020-09-05T09:28:46Z</time>
      </trkpt>
      <trkpt lat="37.13647" lon="-8.82717">
        <ele>140.01</ele>
        <time>2020-09-05T09:28:47Z</time>
      </trkpt>
      <trkpt lat="37.13641" lon="-8.82744">
        <ele>136.64</ele>
        <time>2020-09-05T09:28:51Z</time>
      </trkpt>
      <trkpt lat="37.13639" lon="-8.82753">
        <ele>136.16</ele>
        <time>2020-09-05T09:28:52Z</time>
      </trkpt>
      <trkpt lat="37.13639" lon="-8.82763">
        <ele>135.2</ele>
        <time>2020-09-05T09:28:53Z</time>
      </trkpt>
      <trkpt lat="37.13638" lon="-8.82772">
        <ele>135.2</ele>
        <time>2020-09-05T09:28:54Z</time>
      </trkpt>
      <trkpt lat="37.13639" lon="-8.82782">
        <ele>134.72</ele>
        <time>2020-09-05T09:28:55Z</time>
      </trkpt>
      <trkpt lat="37.13639" lon="-8.8279">
        <ele>134.72</ele>
        <time>2020-09-05T09:28:56Z</time>
      </trkpt>
      <trkpt lat="37.1364" lon="-8.82798">
        <ele>134.72</ele>
        <time>2020-09-05T09:28:57Z</time>
      </trkpt>
      <trkpt lat="37.13643" lon="-8.82812">
        <ele>134.72</ele>
        <time>2020-09-05T09:28:59Z</time>
      </trkpt>
      <trkpt lat="37.13644" lon="-8.82818">
        <ele>134.72</ele>
        <time>2020-09-05T09:29:00Z</time>
      </trkpt>
      <trkpt lat="37.13649" lon="-8.8283">
        <ele>136.16</ele>
        <time>2020-09-05T09:29:03Z</time>
      </trkpt>
      <trkpt lat="37.13658" lon="-8.82843">
        <ele>138.09</ele>
        <time>2020-09-05T09:29:07Z</time>
      </trkpt>
      <trkpt lat="37.13673" lon="-8.82861">
        <ele>141.93</ele>
        <time>2020-09-05T09:29:14Z</time>
      </trkpt>
      <trkpt lat="37.13696" lon="-8.82874">
        <ele>141.93</ele>
        <time>2020-09-05T09:29:21Z</time>
      </trkpt>
      <trkpt lat="37.13727" lon="-8.82881">
        <ele>139.05</ele>
        <time>2020-09-05T09:29:27Z</time>
      </trkpt>
      <trkpt lat="37.13734" lon="-8.82883">
        <ele>139.05</ele>
        <time>2020-09-05T09:29:28Z</time>
      </trkpt>
      <trkpt lat="37.13748" lon="-8.82887">
        <ele>137.61</ele>
        <time>2020-09-05T09:29:30Z</time>
      </trkpt>
      <trkpt lat="37.13769" lon="-8.82892">
        <ele>136.16</ele>
        <time>2020-09-05T09:29:33Z</time>
      </trkpt>
      <trkpt lat="37.13777" lon="-8.82894">
        <ele>134.72</ele>
        <time>2020-09-05T09:29:34Z</time>
      </trkpt>
      <trkpt lat="37.13784" lon="-8.82899">
        <ele>134.72</ele>
        <time>2020-09-05T09:29:35Z</time>
      </trkpt>
      <trkpt lat="37.1379" lon="-8.82904">
        <ele>134.72</ele>
        <time>2020-09-05T09:29:36Z</time>
      </trkpt>
      <trkpt lat="37.13795" lon="-8.8291">
        <ele>134.24</ele>
        <time>2020-09-05T09:29:37Z</time>
      </trkpt>
      <trkpt lat="37.138" lon="-8.82918">
        <ele>133.28</ele>
        <time>2020-09-05T09:29:38Z</time>
      </trkpt>
      <trkpt lat="37.13804" lon="-8.82927">
        <ele>132.32</ele>
        <time>2020-09-05T09:29:39Z</time>
      </trkpt>
      <trkpt lat="37.13808" lon="-8.82937">
        <ele>131.36</ele>
        <time>2020-09-05T09:29:40Z</time>
      </trkpt>
      <trkpt lat="37.13811" lon="-8.82948">
        <ele>130.88</ele>
        <time>2020-09-05T09:29:41Z</time>
      </trkpt>
      <trkpt lat="37.13813" lon="-8.82959">
        <ele>130.4</ele>
        <time>2020-09-05T09:29:42Z</time>
      </trkpt>
      <trkpt lat="37.13814" lon="-8.8297">
        <ele>130.4</ele>
        <time>2020-09-05T09:29:43Z</time>
      </trkpt>
      <trkpt lat="37.13814" lon="-8.8298">
        <ele>130.4</ele>
        <time>2020-09-05T09:29:44Z</time>
      </trkpt>
      <trkpt lat="37.13813" lon="-8.8299">
        <ele>130.4</ele>
        <time>2020-09-05T09:29:45Z</time>
      </trkpt>
      <trkpt lat="37.13811" lon="-8.83028">
        <ele>131.36</ele>
        <time>2020-09-05T09:29:50Z</time>
      </trkpt>
      <trkpt lat="37.13812" lon="-8.83034">
        <ele>131.36</ele>
        <time>2020-09-05T09:29:51Z</time>
      </trkpt>
      <trkpt lat="37.13814" lon="-8.83041">
        <ele>131.36</ele>
        <time>2020-09-05T09:29:52Z</time>
      </trkpt>
      <trkpt lat="37.13817" lon="-8.83047">
        <ele>131.36</ele>
        <time>2020-09-05T09:29:53Z</time>
      </trkpt>
      <trkpt lat="37.13821" lon="-8.83054">
        <ele>131.36</ele>
        <time>2020-09-05T09:29:54Z</time>
      </trkpt>
      <trkpt lat="37.1383" lon="-8.83066">
        <ele>129.92</ele>
        <time>2020-09-05T09:29:56Z</time>
      </trkpt>
      <trkpt lat="37.13834" lon="-8.83073">
        <ele>129.43</ele>
        <time>2020-09-05T09:29:57Z</time>
      </trkpt>
      <trkpt lat="37.13838" lon="-8.83082">
        <ele>128.95</ele>
        <time>2020-09-05T09:29:58Z</time>
      </trkpt>
      <trkpt lat="37.13844" lon="-8.83099">
        <ele>128.95</ele>
        <time>2020-09-05T09:30:00Z</time>
      </trkpt>
      <trkpt lat="37.13848" lon="-8.83106">
        <ele>127.99</ele>
        <time>2020-09-05T09:30:01Z</time>
      </trkpt>
      <trkpt lat="37.13853" lon="-8.83112">
        <ele>127.99</ele>
        <time>2020-09-05T09:30:02Z</time>
      </trkpt>
      <trkpt lat="37.13859" lon="-8.83118">
        <ele>127.99</ele>
        <time>2020-09-05T09:30:03Z</time>
      </trkpt>
      <trkpt lat="37.13865" lon="-8.83121">
        <ele>127.99</ele>
        <time>2020-09-05T09:30:04Z</time>
      </trkpt>
      <trkpt lat="37.1387" lon="-8.83124">
        <ele>127.99</ele>
        <time>2020-09-05T09:30:05Z</time>
      </trkpt>
      <trkpt lat="37.13876" lon="-8.83125">
        <ele>127.99</ele>
        <time>2020-09-05T09:30:06Z</time>
      </trkpt>
      <trkpt lat="37.13881" lon="-8.83126">
        <ele>127.99</ele>
        <time>2020-09-05T09:30:07Z</time>
      </trkpt>
      <trkpt lat="37.13901" lon="-8.83131">
        <ele>129.43</ele>
        <time>2020-09-05T09:30:12Z</time>
      </trkpt>
      <trkpt lat="37.13933" lon="-8.8314">
        <ele>130.88</ele>
        <time>2020-09-05T09:30:21Z</time>
      </trkpt>
      <trkpt lat="37.13961" lon="-8.83144">
        <ele>127.99</ele>
        <time>2020-09-05T09:30:26Z</time>
      </trkpt>
      <trkpt lat="37.13979" lon="-8.83151">
        <ele>126.55</ele>
        <time>2020-09-05T09:30:29Z</time>
      </trkpt>
      <trkpt lat="37.13985" lon="-8.83155">
        <ele>126.55</ele>
        <time>2020-09-05T09:30:30Z</time>
      </trkpt>
      <trkpt lat="37.13991" lon="-8.8316">
        <ele>126.55</ele>
        <time>2020-09-05T09:30:31Z</time>
      </trkpt>
      <trkpt lat="37.13995" lon="-8.83166">
        <ele>126.55</ele>
        <time>2020-09-05T09:30:32Z</time>
      </trkpt>
      <trkpt lat="37.13999" lon="-8.83172">
        <ele>126.55</ele>
        <time>2020-09-05T09:30:33Z</time>
      </trkpt>
      <trkpt lat="37.14005" lon="-8.83182">
        <ele>126.55</ele>
        <time>2020-09-05T09:30:35Z</time>
      </trkpt>
      <trkpt lat="37.14012" lon="-8.83198">
        <ele>127.99</ele>
        <time>2020-09-05T09:30:39Z</time>
      </trkpt>
      <trkpt lat="37.14013" lon="-8.83203">
        <ele>127.99</ele>
        <time>2020-09-05T09:30:41Z</time>
      </trkpt>
      <trkpt lat="37.14012" lon="-8.83204">
        <ele>127.99</ele>
        <time>2020-09-05T09:30:46Z</time>
      </trkpt>
      <trkpt lat="37.14012" lon="-8.83206">
        <ele>127.99</ele>
        <time>2020-09-05T09:30:56Z</time>
      </trkpt>
      <trkpt lat="37.14011" lon="-8.83208">
        <ele>127.99</ele>
        <time>2020-09-05T09:30:57Z</time>
      </trkpt>
      <trkpt lat="37.14007" lon="-8.83219">
        <ele>126.55</ele>
        <time>2020-09-05T09:31:00Z</time>
      </trkpt>
      <trkpt lat="37.14001" lon="-8.83235">
        <ele>125.59</ele>
        <time>2020-09-05T09:31:03Z</time>
      </trkpt>
      <trkpt lat="37.13998" lon="-8.8324">
        <ele>125.11</ele>
        <time>2020-09-05T09:31:04Z</time>
      </trkpt>
      <trkpt lat="37.13987" lon="-8.83262">
        <ele>124.63</ele>
        <time>2020-09-05T09:31:08Z</time>
      </trkpt>
      <trkpt lat="37.13978" lon="-8.83292">
        <ele>126.07</ele>
        <time>2020-09-05T09:31:15Z</time>
      </trkpt>
      <trkpt lat="37.13977" lon="-8.83296">
        <ele>126.07</ele>
        <time>2020-09-05T09:31:16Z</time>
      </trkpt>
      <trkpt lat="37.13966" lon="-8.83329">
        <ele>127.03</ele>
        <time>2020-09-05T09:31:24Z</time>
      </trkpt>
      <trkpt lat="37.13948" lon="-8.8336">
        <ele>127.99</ele>
        <time>2020-09-05T09:31:32Z</time>
      </trkpt>
      <trkpt lat="37.13933" lon="-8.83387">
        <ele>127.99</ele>
        <time>2020-09-05T09:31:39Z</time>
      </trkpt>
      <trkpt lat="37.13929" lon="-8.83401">
        <ele>127.51</ele>
        <time>2020-09-05T09:31:42Z</time>
      </trkpt>
      <trkpt lat="37.13928" lon="-8.83407">
        <ele>127.51</ele>
        <time>2020-09-05T09:31:43Z</time>
      </trkpt>
      <trkpt lat="37.13927" lon="-8.83417">
        <ele>127.51</ele>
        <time>2020-09-05T09:31:45Z</time>
      </trkpt>
      <trkpt lat="37.13928" lon="-8.83423">
        <ele>127.51</ele>
        <time>2020-09-05T09:31:46Z</time>
      </trkpt>
      <trkpt lat="37.13934" lon="-8.83469">
        <ele>128.95</ele>
        <time>2020-09-05T09:31:55Z</time>
      </trkpt>
      <trkpt lat="37.13942" lon="-8.83514">
        <ele>130.4</ele>
        <time>2020-09-05T09:32:05Z</time>
      </trkpt>
      <trkpt lat="37.13951" lon="-8.83549">
        <ele>130.88</ele>
        <time>2020-09-05T09:32:13Z</time>
      </trkpt>
      <trkpt lat="37.13963" lon="-8.8359">
        <ele>131.36</ele>
        <time>2020-09-05T09:32:22Z</time>
      </trkpt>
      <trkpt lat="37.13979" lon="-8.83633">
        <ele>131.36</ele>
        <time>2020-09-05T09:32:31Z</time>
      </trkpt>
      <trkpt lat="37.1399" lon="-8.83666">
        <ele>131.84</ele>
        <time>2020-09-05T09:32:38Z</time>
      </trkpt>
      <trkpt lat="37.13996" lon="-8.83707">
        <ele>133.28</ele>
        <time>2020-09-05T09:32:46Z</time>
      </trkpt>
      <trkpt lat="37.13996" lon="-8.83747">
        <ele>133.76</ele>
        <time>2020-09-05T09:32:54Z</time>
      </trkpt>
      <trkpt lat="37.13986" lon="-8.83807">
        <ele>132.32</ele>
        <time>2020-09-05T09:33:05Z</time>
      </trkpt>
      <trkpt lat="37.13979" lon="-8.83837">
        <ele>130.4</ele>
        <time>2020-09-05T09:33:09Z</time>
      </trkpt>
      <trkpt lat="37.13975" lon="-8.83846">
        <ele>129.43</ele>
        <time>2020-09-05T09:33:10Z</time>
      </trkpt>
      <trkpt lat="37.13967" lon="-8.83862">
        <ele>128.47</ele>
        <time>2020-09-05T09:33:12Z</time>
      </trkpt>
      <trkpt lat="37.13947" lon="-8.83909">
        <ele>129.43</ele>
        <time>2020-09-05T09:33:19Z</time>
      </trkpt>
      <trkpt lat="37.13945" lon="-8.83913">
        <ele>129.43</ele>
        <time>2020-09-05T09:33:20Z</time>
      </trkpt>
      <trkpt lat="37.13929" lon="-8.83943">
        <ele>128.95</ele>
        <time>2020-09-05T09:33:26Z</time>
      </trkpt>
      <trkpt lat="37.13905" lon="-8.8399">
        <ele>126.07</ele>
        <time>2020-09-05T09:33:33Z</time>
      </trkpt>
      <trkpt lat="37.13895" lon="-8.84011">
        <ele>125.59</ele>
        <time>2020-09-05T09:33:36Z</time>
      </trkpt>
      <trkpt lat="37.13893" lon="-8.84019">
        <ele>125.59</ele>
        <time>2020-09-05T09:33:37Z</time>
      </trkpt>
      <trkpt lat="37.13891" lon="-8.84026">
        <ele>125.59</ele>
        <time>2020-09-05T09:33:38Z</time>
      </trkpt>
      <trkpt lat="37.13891" lon="-8.84033">
        <ele>125.59</ele>
        <time>2020-09-05T09:33:39Z</time>
      </trkpt>
      <trkpt lat="37.1389" lon="-8.8404">
        <ele>125.59</ele>
        <time>2020-09-05T09:33:40Z</time>
      </trkpt>
      <trkpt lat="37.1389" lon="-8.84047">
        <ele>125.59</ele>
        <time>2020-09-05T09:33:41Z</time>
      </trkpt>
      <trkpt lat="37.13891" lon="-8.84054">
        <ele>125.59</ele>
        <time>2020-09-05T09:33:42Z</time>
      </trkpt>
      <trkpt lat="37.13891" lon="-8.8406">
        <ele>126.07</ele>
        <time>2020-09-05T09:33:43Z</time>
      </trkpt>
      <trkpt lat="37.13892" lon="-8.84093">
        <ele>127.03</ele>
        <time>2020-09-05T09:33:49Z</time>
      </trkpt>
      <trkpt lat="37.13889" lon="-8.84106">
        <ele>127.99</ele>
        <time>2020-09-05T09:33:52Z</time>
      </trkpt>
      <trkpt lat="37.13885" lon="-8.84117">
        <ele>127.99</ele>
        <time>2020-09-05T09:33:54Z</time>
      </trkpt>
      <trkpt lat="37.13882" lon="-8.84135">
        <ele>126.55</ele>
        <time>2020-09-05T09:33:57Z</time>
      </trkpt>
      <trkpt lat="37.13882" lon="-8.84141">
        <ele>126.55</ele>
        <time>2020-09-05T09:33:58Z</time>
      </trkpt>
      <trkpt lat="37.13882" lon="-8.84147">
        <ele>126.55</ele>
        <time>2020-09-05T09:33:59Z</time>
      </trkpt>
      <trkpt lat="37.13883" lon="-8.84153">
        <ele>126.55</ele>
        <time>2020-09-05T09:34:00Z</time>
      </trkpt>
      <trkpt lat="37.13884" lon="-8.84159">
        <ele>126.55</ele>
        <time>2020-09-05T09:34:01Z</time>
      </trkpt>
      <trkpt lat="37.13895" lon="-8.84232">
        <ele>126.55</ele>
        <time>2020-09-05T09:34:13Z</time>
      </trkpt>
      <trkpt lat="37.13903" lon="-8.84286">
        <ele>126.55</ele>
        <time>2020-09-05T09:34:23Z</time>
      </trkpt>
      <trkpt lat="37.13913" lon="-8.84344">
        <ele>126.55</ele>
        <time>2020-09-05T09:34:34Z</time>
      </trkpt>
      <trkpt lat="37.13929" lon="-8.84417">
        <ele>128.47</ele>
        <time>2020-09-05T09:34:48Z</time>
      </trkpt>
      <trkpt lat="37.13938" lon="-8.84467">
        <ele>128.95</ele>
        <time>2020-09-05T09:34:57Z</time>
      </trkpt>
      <trkpt lat="37.13953" lon="-8.84512">
        <ele>130.4</ele>
        <time>2020-09-05T09:35:06Z</time>
      </trkpt>
      <trkpt lat="37.13962" lon="-8.84563">
        <ele>130.4</ele>
        <time>2020-09-05T09:35:16Z</time>
      </trkpt>
      <trkpt lat="37.13971" lon="-8.84607">
        <ele>130.4</ele>
        <time>2020-09-05T09:35:24Z</time>
      </trkpt>
      <trkpt lat="37.13988" lon="-8.84657">
        <ele>129.43</ele>
        <time>2020-09-05T09:35:33Z</time>
      </trkpt>
      <trkpt lat="37.14009" lon="-8.84715">
        <ele>128.95</ele>
        <time>2020-09-05T09:35:43Z</time>
      </trkpt>
      <trkpt lat="37.14021" lon="-8.84774">
        <ele>127.99</ele>
        <time>2020-09-05T09:35:53Z</time>
      </trkpt>
      <trkpt lat="37.14038" lon="-8.84849">
        <ele>126.55</ele>
        <time>2020-09-05T09:36:04Z</time>
      </trkpt>
      <trkpt lat="37.14052" lon="-8.84917">
        <ele>123.19</ele>
        <time>2020-09-05T09:36:13Z</time>
      </trkpt>
      <trkpt lat="37.14055" lon="-8.84963">
        <ele>121.74</ele>
        <time>2020-09-05T09:36:18Z</time>
      </trkpt>
      <trkpt lat="37.1406" lon="-8.85018">
        <ele>118.86</ele>
        <time>2020-09-05T09:36:24Z</time>
      </trkpt>
      <trkpt lat="37.14061" lon="-8.85027">
        <ele>118.86</ele>
        <time>2020-09-05T09:36:25Z</time>
      </trkpt>
      <trkpt lat="37.1406" lon="-8.85037">
        <ele>118.86</ele>
        <time>2020-09-05T09:36:26Z</time>
      </trkpt>
      <trkpt lat="37.14058" lon="-8.85046">
        <ele>118.86</ele>
        <time>2020-09-05T09:36:27Z</time>
      </trkpt>
      <trkpt lat="37.14056" lon="-8.85054">
        <ele>117.9</ele>
        <time>2020-09-05T09:36:28Z</time>
      </trkpt>
      <trkpt lat="37.14053" lon="-8.85063">
        <ele>117.9</ele>
        <time>2020-09-05T09:36:29Z</time>
      </trkpt>
      <trkpt lat="37.14037" lon="-8.85126">
        <ele>117.42</ele>
        <time>2020-09-05T09:36:37Z</time>
      </trkpt>
      <trkpt lat="37.14035" lon="-8.85139">
        <ele>116.94</ele>
        <time>2020-09-05T09:36:39Z</time>
      </trkpt>
      <trkpt lat="37.14034" lon="-8.85147">
        <ele>116.94</ele>
        <time>2020-09-05T09:36:40Z</time>
      </trkpt>
      <trkpt lat="37.14035" lon="-8.85153">
        <ele>116.94</ele>
        <time>2020-09-05T09:36:41Z</time>
      </trkpt>
      <trkpt lat="37.14035" lon="-8.8516">
        <ele>116.94</ele>
        <time>2020-09-05T09:36:42Z</time>
      </trkpt>
      <trkpt lat="37.14037" lon="-8.85166">
        <ele>116.94</ele>
        <time>2020-09-05T09:36:43Z</time>
      </trkpt>
      <trkpt lat="37.14038" lon="-8.85172">
        <ele>116.94</ele>
        <time>2020-09-05T09:36:44Z</time>
      </trkpt>
      <trkpt lat="37.14047" lon="-8.85222">
        <ele>116.46</ele>
        <time>2020-09-05T09:36:52Z</time>
      </trkpt>
      <trkpt lat="37.1405" lon="-8.8529">
        <ele>113.57</ele>
        <time>2020-09-05T09:37:01Z</time>
      </trkpt>
      <trkpt lat="37.14052" lon="-8.85326">
        <ele>112.13</ele>
        <time>2020-09-05T09:37:05Z</time>
      </trkpt>
      <trkpt lat="37.14044" lon="-8.85394">
        <ele>109.73</ele>
        <time>2020-09-05T09:37:12Z</time>
      </trkpt>
      <trkpt lat="37.14034" lon="-8.85464">
        <ele>108.77</ele>
        <time>2020-09-05T09:37:20Z</time>
      </trkpt>
      <trkpt lat="37.14034" lon="-8.85472">
        <ele>108.77</ele>
        <time>2020-09-05T09:37:21Z</time>
      </trkpt>
      <trkpt lat="37.14035" lon="-8.85496">
        <ele>108.29</ele>
        <time>2020-09-05T09:37:24Z</time>
      </trkpt>
      <trkpt lat="37.14033" lon="-8.85505">
        <ele>107.81</ele>
        <time>2020-09-05T09:37:25Z</time>
      </trkpt>
      <trkpt lat="37.1403" lon="-8.85514">
        <ele>106.84</ele>
        <time>2020-09-05T09:37:26Z</time>
      </trkpt>
      <trkpt lat="37.14027" lon="-8.85522">
        <ele>105.88</ele>
        <time>2020-09-05T09:37:27Z</time>
      </trkpt>
      <trkpt lat="37.14023" lon="-8.85532">
        <ele>104.92</ele>
        <time>2020-09-05T09:37:28Z</time>
      </trkpt>
      <trkpt lat="37.14019" lon="-8.85541">
        <ele>103.48</ele>
        <time>2020-09-05T09:37:29Z</time>
      </trkpt>
      <trkpt lat="37.14016" lon="-8.85553">
        <ele>103.48</ele>
        <time>2020-09-05T09:37:30Z</time>
      </trkpt>
      <trkpt lat="37.14014" lon="-8.85564">
        <ele>103.48</ele>
        <time>2020-09-05T09:37:31Z</time>
      </trkpt>
      <trkpt lat="37.14012" lon="-8.85575">
        <ele>103</ele>
        <time>2020-09-05T09:37:32Z</time>
      </trkpt>
      <trkpt lat="37.14004" lon="-8.85615">
        <ele>102.04</ele>
        <time>2020-09-05T09:37:36Z</time>
      </trkpt>
      <trkpt lat="37.13994" lon="-8.85651">
        <ele>101.56</ele>
        <time>2020-09-05T09:37:41Z</time>
      </trkpt>
      <trkpt lat="37.13991" lon="-8.85668">
        <ele>103</ele>
        <time>2020-09-05T09:37:44Z</time>
      </trkpt>
      <trkpt lat="37.13988" lon="-8.857">
        <ele>100.11</ele>
        <time>2020-09-05T09:37:49Z</time>
      </trkpt>
      <trkpt lat="37.13988" lon="-8.85707">
        <ele>99.15</ele>
        <time>2020-09-05T09:37:50Z</time>
      </trkpt>
      <trkpt lat="37.13989" lon="-8.85742">
        <ele>96.27</ele>
        <time>2020-09-05T09:37:55Z</time>
      </trkpt>
      <trkpt lat="37.13988" lon="-8.85756">
        <ele>95.31</ele>
        <time>2020-09-05T09:37:57Z</time>
      </trkpt>
      <trkpt lat="37.13993" lon="-8.85789">
        <ele>91.94</ele>
        <time>2020-09-05T09:38:02Z</time>
      </trkpt>
      <trkpt lat="37.13995" lon="-8.85803">
        <ele>90.02</ele>
        <time>2020-09-05T09:38:04Z</time>
      </trkpt>
      <trkpt lat="37.13995" lon="-8.8581">
        <ele>88.58</ele>
        <time>2020-09-05T09:38:05Z</time>
      </trkpt>
      <trkpt lat="37.13994" lon="-8.85818">
        <ele>87.62</ele>
        <time>2020-09-05T09:38:06Z</time>
      </trkpt>
      <trkpt lat="37.13992" lon="-8.85825">
        <ele>86.66</ele>
        <time>2020-09-05T09:38:07Z</time>
      </trkpt>
      <trkpt lat="37.13989" lon="-8.85833">
        <ele>86.18</ele>
        <time>2020-09-05T09:38:08Z</time>
      </trkpt>
      <trkpt lat="37.13978" lon="-8.85863">
        <ele>82.33</ele>
        <time>2020-09-05T09:38:12Z</time>
      </trkpt>
      <trkpt lat="37.13966" lon="-8.85892">
        <ele>78.48</ele>
        <time>2020-09-05T09:38:16Z</time>
      </trkpt>
      <trkpt lat="37.13957" lon="-8.85909">
        <ele>77.04</ele>
        <time>2020-09-05T09:38:20Z</time>
      </trkpt>
      <trkpt lat="37.13949" lon="-8.85919">
        <ele>75.6</ele>
        <time>2020-09-05T09:38:26Z</time>
      </trkpt>
      <trkpt lat="37.13946" lon="-8.85922">
        <ele>75.12</ele>
        <time>2020-09-05T09:38:27Z</time>
      </trkpt>
      <trkpt lat="37.13942" lon="-8.85926">
        <ele>74.64</ele>
        <time>2020-09-05T09:38:28Z</time>
      </trkpt>
      <trkpt lat="37.13939" lon="-8.85931">
        <ele>74.16</ele>
        <time>2020-09-05T09:38:29Z</time>
      </trkpt>
      <trkpt lat="37.13934" lon="-8.85942">
        <ele>73.2</ele>
        <time>2020-09-05T09:38:31Z</time>
      </trkpt>
      <trkpt lat="37.13933" lon="-8.85948">
        <ele>72.72</ele>
        <time>2020-09-05T09:38:32Z</time>
      </trkpt>
      <trkpt lat="37.13932" lon="-8.85953">
        <ele>72.24</ele>
        <time>2020-09-05T09:38:33Z</time>
      </trkpt>
      <trkpt lat="37.13929" lon="-8.85969">
        <ele>70.31</ele>
        <time>2020-09-05T09:38:36Z</time>
      </trkpt>
      <trkpt lat="37.13927" lon="-8.85986">
        <ele>67.91</ele>
        <time>2020-09-05T09:38:39Z</time>
      </trkpt>
      <trkpt lat="37.13926" lon="-8.85991">
        <ele>67.91</ele>
        <time>2020-09-05T09:38:40Z</time>
      </trkpt>
      <trkpt lat="37.13924" lon="-8.85996">
        <ele>66.95</ele>
        <time>2020-09-05T09:38:41Z</time>
      </trkpt>
      <trkpt lat="37.13916" lon="-8.86012">
        <ele>65.51</ele>
        <time>2020-09-05T09:38:44Z</time>
      </trkpt>
      <trkpt lat="37.13913" lon="-8.86016">
        <ele>65.03</ele>
        <time>2020-09-05T09:38:45Z</time>
      </trkpt>
      <trkpt lat="37.1391" lon="-8.8602">
        <ele>64.07</ele>
        <time>2020-09-05T09:38:46Z</time>
      </trkpt>
      <trkpt lat="37.13889" lon="-8.86043">
        <ele>61.66</ele>
        <time>2020-09-05T09:38:53Z</time>
      </trkpt>
      <trkpt lat="37.1388" lon="-8.86061">
        <ele>59.26</ele>
        <time>2020-09-05T09:38:57Z</time>
      </trkpt>
      <trkpt lat="37.13878" lon="-8.86066">
        <ele>58.78</ele>
        <time>2020-09-05T09:38:58Z</time>
      </trkpt>
      <trkpt lat="37.13876" lon="-8.86077">
        <ele>57.82</ele>
        <time>2020-09-05T09:39:00Z</time>
      </trkpt>
      <trkpt lat="37.13874" lon="-8.861">
        <ele>56.37</ele>
        <time>2020-09-05T09:39:04Z</time>
      </trkpt>
      <trkpt lat="37.13874" lon="-8.86105">
        <ele>55.41</ele>
        <time>2020-09-05T09:39:05Z</time>
      </trkpt>
      <trkpt lat="37.13876" lon="-8.86111">
        <ele>55.41</ele>
        <time>2020-09-05T09:39:06Z</time>
      </trkpt>
      <trkpt lat="37.13878" lon="-8.86115">
        <ele>54.45</ele>
        <time>2020-09-05T09:39:07Z</time>
      </trkpt>
      <trkpt lat="37.13882" lon="-8.86118">
        <ele>54.45</ele>
        <time>2020-09-05T09:39:08Z</time>
      </trkpt>
      <trkpt lat="37.13885" lon="-8.8612">
        <ele>54.45</ele>
        <time>2020-09-05T09:39:09Z</time>
      </trkpt>
      <trkpt lat="37.13889" lon="-8.86121">
        <ele>54.45</ele>
        <time>2020-09-05T09:39:10Z</time>
      </trkpt>
      <trkpt lat="37.13893" lon="-8.86121">
        <ele>53.97</ele>
        <time>2020-09-05T09:39:11Z</time>
      </trkpt>
      <trkpt lat="37.13897" lon="-8.86122">
        <ele>53.97</ele>
        <time>2020-09-05T09:39:12Z</time>
      </trkpt>
      <trkpt lat="37.13923" lon="-8.86125">
        <ele>53.49</ele>
        <time>2020-09-05T09:39:19Z</time>
      </trkpt>
      <trkpt lat="37.13946" lon="-8.86123">
        <ele>52.53</ele>
        <time>2020-09-05T09:39:28Z</time>
      </trkpt>
      <trkpt lat="37.13979" lon="-8.86117">
        <ele>51.09</ele>
        <time>2020-09-05T09:39:37Z</time>
      </trkpt>
      <trkpt lat="37.13999" lon="-8.86119">
        <ele>50.13</ele>
        <time>2020-09-05T09:39:45Z</time>
      </trkpt>
      <trkpt lat="37.1403" lon="-8.86121">
        <ele>49.65</ele>
        <time>2020-09-05T09:39:53Z</time>
      </trkpt>
      <trkpt lat="37.14062" lon="-8.86128">
        <ele>49.16</ele>
        <time>2020-09-05T09:40:02Z</time>
      </trkpt>
      <trkpt lat="37.14078" lon="-8.86144">
        <ele>49.16</ele>
        <time>2020-09-05T09:40:09Z</time>
      </trkpt>
      <trkpt lat="37.14076" lon="-8.86167">
        <ele>50.61</ele>
        <time>2020-09-05T09:40:16Z</time>
      </trkpt>
      <trkpt lat="37.14072" lon="-8.86198">
        <ele>52.05</ele>
        <time>2020-09-05T09:40:25Z</time>
      </trkpt>
      <trkpt lat="37.14074" lon="-8.86227">
        <ele>53.01</ele>
        <time>2020-09-05T09:40:35Z</time>
      </trkpt>
      <trkpt lat="37.14075" lon="-8.86228">
        <ele>53.01</ele>
        <time>2020-09-05T09:40:40Z</time>
      </trkpt>
      <trkpt lat="37.14075" lon="-8.86227">
        <ele>53.01</ele>
        <time>2020-09-05T09:40:56Z</time>
      </trkpt>
      <trkpt lat="37.14075" lon="-8.86227">
        <ele>53.01</ele>
        <time>2020-09-05T09:41:11Z</time>
      </trkpt>
      <trkpt lat="37.14075" lon="-8.86227">
        <ele>53.01</ele>
        <time>2020-09-05T09:41:22Z</time>
      </trkpt>
      <trkpt lat="37.14075" lon="-8.86227">
        <ele>53.01</ele>
        <time>2020-09-05T09:41:38Z</time>
      </trkpt>
      <trkpt lat="37.14074" lon="-8.86226">
        <ele>53.01</ele>
        <time>2020-09-05T09:41:51Z</time>
      </trkpt>
      <trkpt lat="37.14074" lon="-8.86226">
        <ele>53.01</ele>
        <time>2020-09-05T09:42:06Z</time>
      </trkpt>
      <trkpt lat="37.14074" lon="-8.86227">
        <ele>53.01</ele>
        <time>2020-09-05T09:42:19Z</time>
      </trkpt>
      <trkpt lat="37.14075" lon="-8.86227">
        <ele>53.01</ele>
        <time>2020-09-05T09:42:30Z</time>
      </trkpt>
      <trkpt lat="37.14075" lon="-8.86227">
        <ele>53.01</ele>
        <time>2020-09-05T09:42:41Z</time>
      </trkpt>
      <trkpt lat="37.14074" lon="-8.86227">
        <ele>53.01</ele>
        <time>2020-09-05T09:42:55Z</time>
      </trkpt>
      <trkpt lat="37.14075" lon="-8.86228">
        <ele>53.01</ele>
        <time>2020-09-05T09:43:07Z</time>
      </trkpt>
      <trkpt lat="37.14077" lon="-8.86227">
        <ele>53.01</ele>
        <time>2020-09-05T09:43:23Z</time>
      </trkpt>
      <trkpt lat="37.14076" lon="-8.86227">
        <ele>53.01</ele>
        <time>2020-09-05T09:43:36Z</time>
      </trkpt>
      <trkpt lat="37.14077" lon="-8.86228">
        <ele>53.01</ele>
        <time>2020-09-05T09:43:46Z</time>
      </trkpt>
      <trkpt lat="37.14077" lon="-8.8623">
        <ele>53.01</ele>
        <time>2020-09-05T09:44:02Z</time>
      </trkpt>
      <trkpt lat="37.14077" lon="-8.86229">
        <ele>53.01</ele>
        <time>2020-09-05T09:44:14Z</time>
      </trkpt>
      <trkpt lat="37.14076" lon="-8.86228">
        <ele>53.01</ele>
        <time>2020-09-05T09:44:26Z</time>
      </trkpt>
      <trkpt lat="37.14075" lon="-8.86229">
        <ele>53.01</ele>
        <time>2020-09-05T09:44:37Z</time>
      </trkpt>
      <trkpt lat="37.14074" lon="-8.86227">
        <ele>53.01</ele>
        <time>2020-09-05T09:44:54Z</time>
      </trkpt>
      <trkpt lat="37.14074" lon="-8.86227">
        <ele>53.01</ele>
        <time>2020-09-05T09:45:08Z</time>
      </trkpt>
      <trkpt lat="37.14073" lon="-8.86228">
        <ele>53.01</ele>
        <time>2020-09-05T09:45:27Z</time>
      </trkpt>
      <trkpt lat="37.14073" lon="-8.86228">
        <ele>53.01</ele>
        <time>2020-09-05T09:45:40Z</time>
      </trkpt>
      <trkpt lat="37.14074" lon="-8.86227">
        <ele>53.01</ele>
        <time>2020-09-05T09:45:56Z</time>
      </trkpt>
      <trkpt lat="37.14073" lon="-8.86227">
        <ele>53.01</ele>
        <time>2020-09-05T09:46:12Z</time>
      </trkpt>
      <trkpt lat="37.14074" lon="-8.86228">
        <ele>53.01</ele>
        <time>2020-09-05T09:46:23Z</time>
      </trkpt>
      <trkpt lat="37.14074" lon="-8.86228">
        <ele>53.01</ele>
        <time>2020-09-05T09:46:39Z</time>
      </trkpt>
      <trkpt lat="37.14075" lon="-8.86227">
        <ele>53.01</ele>
        <time>2020-09-05T09:47:00Z</time>
      </trkpt>
      <trkpt lat="37.14076" lon="-8.86228">
        <ele>53.01</ele>
        <time>2020-09-05T09:47:20Z</time>
      </trkpt>
      <trkpt lat="37.14077" lon="-8.86228">
        <ele>53.01</ele>
        <time>2020-09-05T09:47:35Z</time>
      </trkpt>
      <trkpt lat="37.14076" lon="-8.86228">
        <ele>53.01</ele>
        <time>2020-09-05T09:47:48Z</time>
      </trkpt>
      <trkpt lat="37.14075" lon="-8.86227">
        <ele>53.01</ele>
        <time>2020-09-05T09:48:01Z</time>
      </trkpt>
      <trkpt lat="37.14075" lon="-8.86228">
        <ele>53.01</ele>
        <time>2020-09-05T09:48:24Z</time>
      </trkpt>
      <trkpt lat="37.14075" lon="-8.86227">
        <ele>53.01</ele>
        <time>2020-09-05T09:48:41Z</time>
      </trkpt>
      <trkpt lat="37.14075" lon="-8.86227">
        <ele>53.01</ele>
        <time>2020-09-05T09:49:04Z</time>
      </trkpt>
      <trkpt lat="37.14074" lon="-8.86226">
        <ele>53.01</ele>
        <time>2020-09-05T09:49:21Z</time>
      </trkpt>
      <trkpt lat="37.14075" lon="-8.86227">
        <ele>53.01</ele>
        <time>2020-09-05T09:49:44Z</time>
      </trkpt>
      <trkpt lat="37.14076" lon="-8.86228">
        <ele>53.01</ele>
        <time>2020-09-05T09:50:06Z</time>
      </trkpt>
      <trkpt lat="37.14075" lon="-8.86228">
        <ele>53.01</ele>
        <time>2020-09-05T09:50:30Z</time>
      </trkpt>
      <trkpt lat="37.14075" lon="-8.86229">
        <ele>53.01</ele>
        <time>2020-09-05T09:50:47Z</time>
      </trkpt>
      <trkpt lat="37.14074" lon="-8.86231">
        <ele>53.01</ele>
        <time>2020-09-05T09:51:09Z</time>
      </trkpt>
      <trkpt lat="37.14073" lon="-8.86231">
        <ele>53.01</ele>
        <time>2020-09-05T09:51:24Z</time>
      </trkpt>
      <trkpt lat="37.14072" lon="-8.8623">
        <ele>53.01</ele>
        <time>2020-09-05T09:51:47Z</time>
      </trkpt>
      <trkpt lat="37.14072" lon="-8.86229">
        <ele>53.01</ele>
        <time>2020-09-05T09:52:19Z</time>
      </trkpt>
      <trkpt lat="37.14074" lon="-8.86229">
        <ele>53.01</ele>
        <time>2020-09-05T09:52:52Z</time>
      </trkpt>
      <trkpt lat="37.14073" lon="-8.86229">
        <ele>51.57</ele>
        <time>2020-09-05T09:53:15Z</time>
      </trkpt>
      <trkpt lat="37.14073" lon="-8.86229">
        <ele>51.57</ele>
        <time>2020-09-05T09:53:34Z</time>
      </trkpt>
      <trkpt lat="37.14074" lon="-8.86227">
        <ele>51.57</ele>
        <time>2020-09-05T09:53:52Z</time>
      </trkpt>
      <trkpt lat="37.14076" lon="-8.86227">
        <ele>51.57</ele>
        <time>2020-09-05T09:54:15Z</time>
      </trkpt>
      <trkpt lat="37.14075" lon="-8.86227">
        <ele>51.57</ele>
        <time>2020-09-05T09:54:38Z</time>
      </trkpt>
      <trkpt lat="37.14076" lon="-8.86227">
        <ele>51.57</ele>
        <time>2020-09-05T09:54:58Z</time>
      </trkpt>
      <trkpt lat="37.14075" lon="-8.86229">
        <ele>51.57</ele>
        <time>2020-09-05T09:55:19Z</time>
      </trkpt>
      <trkpt lat="37.14075" lon="-8.86228">
        <ele>51.57</ele>
        <time>2020-09-05T09:55:49Z</time>
      </trkpt>
      <trkpt lat="37.14073" lon="-8.86227">
        <ele>51.57</ele>
        <time>2020-09-05T09:56:13Z</time>
      </trkpt>
      <trkpt lat="37.14073" lon="-8.86228">
        <ele>51.57</ele>
        <time>2020-09-05T09:56:31Z</time>
      </trkpt>
      <trkpt lat="37.14074" lon="-8.86227">
        <ele>51.57</ele>
        <time>2020-09-05T09:56:48Z</time>
      </trkpt>
      <trkpt lat="37.14074" lon="-8.86226">
        <ele>51.57</ele>
        <time>2020-09-05T09:57:10Z</time>
      </trkpt>
      <trkpt lat="37.14073" lon="-8.86226">
        <ele>51.57</ele>
        <time>2020-09-05T09:57:41Z</time>
      </trkpt>
      <trkpt lat="37.14073" lon="-8.86227">
        <ele>51.57</ele>
        <time>2020-09-05T09:58:00Z</time>
      </trkpt>
      <trkpt lat="37.14074" lon="-8.86226">
        <ele>51.57</ele>
        <time>2020-09-05T09:58:20Z</time>
      </trkpt>
      <trkpt lat="37.14074" lon="-8.86226">
        <ele>51.57</ele>
        <time>2020-09-05T09:58:36Z</time>
      </trkpt>
      <trkpt lat="37.14073" lon="-8.86226">
        <ele>51.57</ele>
        <time>2020-09-05T09:58:52Z</time>
      </trkpt>
      <trkpt lat="37.14073" lon="-8.86226">
        <ele>51.57</ele>
        <time>2020-09-05T09:59:17Z</time>
      </trkpt>
      <trkpt lat="37.14072" lon="-8.86228">
        <ele>51.57</ele>
        <time>2020-09-05T09:59:43Z</time>
      </trkpt>
      <trkpt lat="37.14072" lon="-8.86229">
        <ele>51.57</ele>
        <time>2020-09-05T10:00:04Z</time>
      </trkpt>
      <trkpt lat="37.14072" lon="-8.86229">
        <ele>51.57</ele>
        <time>2020-09-05T10:00:31Z</time>
      </trkpt>
      <trkpt lat="37.14074" lon="-8.86229">
        <ele>51.57</ele>
        <time>2020-09-05T10:00:56Z</time>
      </trkpt>
      <trkpt lat="37.14074" lon="-8.86229">
        <ele>51.57</ele>
        <time>2020-09-05T10:01:25Z</time>
      </trkpt>
      <trkpt lat="37.14074" lon="-8.86228">
        <ele>51.57</ele>
        <time>2020-09-05T10:01:55Z</time>
      </trkpt>
      <trkpt lat="37.14075" lon="-8.86229">
        <ele>51.57</ele>
        <time>2020-09-05T10:02:25Z</time>
      </trkpt>
      <trkpt lat="37.14078" lon="-8.86228">
        <ele>51.57</ele>
        <time>2020-09-05T10:02:46Z</time>
      </trkpt>
      <trkpt lat="37.14077" lon="-8.86227">
        <ele>51.57</ele>
        <time>2020-09-05T10:03:20Z</time>
      </trkpt>
      <trkpt lat="37.14075" lon="-8.86227">
        <ele>51.57</ele>
        <time>2020-09-05T10:03:43Z</time>
      </trkpt>
      <trkpt lat="37.14076" lon="-8.8623">
        <ele>52.53</ele>
        <time>2020-09-05T10:04:16Z</time>
      </trkpt>
      <trkpt lat="37.14075" lon="-8.86229">
        <ele>52.53</ele>
        <time>2020-09-05T10:04:41Z</time>
      </trkpt>
      <trkpt lat="37.14074" lon="-8.86229">
        <ele>52.53</ele>
        <time>2020-09-05T10:05:08Z</time>
      </trkpt>
      <trkpt lat="37.14075" lon="-8.86228">
        <ele>52.53</ele>
        <time>2020-09-05T10:05:35Z</time>
      </trkpt>
      <trkpt lat="37.14074" lon="-8.86227">
        <ele>52.53</ele>
        <time>2020-09-05T10:05:57Z</time>
      </trkpt>
      <trkpt lat="37.14074" lon="-8.86228">
        <ele>51.57</ele>
        <time>2020-09-05T10:06:20Z</time>
      </trkpt>
      <trkpt lat="37.14074" lon="-8.86228">
        <ele>51.57</ele>
        <time>2020-09-05T10:06:40Z</time>
      </trkpt>
      <trkpt lat="37.14075" lon="-8.86228">
        <ele>51.57</ele>
        <time>2020-09-05T10:07:02Z</time>
      </trkpt>
      <trkpt lat="37.14072" lon="-8.86226">
        <ele>51.57</ele>
        <time>2020-09-05T10:07:11Z</time>
      </trkpt>
      <trkpt lat="37.14072" lon="-8.86225">
        <ele>51.57</ele>
        <time>2020-09-05T10:07:19Z</time>
      </trkpt>
      <trkpt lat="37.14072" lon="-8.86224">
        <ele>51.57</ele>
        <time>2020-09-05T10:07:20Z</time>
      </trkpt>
      <trkpt lat="37.14072" lon="-8.86222">
        <ele>51.57</ele>
        <time>2020-09-05T10:07:21Z</time>
      </trkpt>
      <trkpt lat="37.14072" lon="-8.86219">
        <ele>51.57</ele>
        <time>2020-09-05T10:07:22Z</time>
      </trkpt>
      <trkpt lat="37.14073" lon="-8.86216">
        <ele>51.57</ele>
        <time>2020-09-05T10:07:23Z</time>
      </trkpt>
      <trkpt lat="37.14073" lon="-8.86213">
        <ele>51.57</ele>
        <time>2020-09-05T10:07:24Z</time>
      </trkpt>
      <trkpt lat="37.14072" lon="-8.86184">
        <ele>51.09</ele>
        <time>2020-09-05T10:07:31Z</time>
      </trkpt>
      <trkpt lat="37.14075" lon="-8.86158">
        <ele>50.61</ele>
        <time>2020-09-05T10:07:38Z</time>
      </trkpt>
      <trkpt lat="37.14076" lon="-8.86137">
        <ele>48.68</ele>
        <time>2020-09-05T10:07:46Z</time>
      </trkpt>
      <trkpt lat="37.14075" lon="-8.86135">
        <ele>48.68</ele>
        <time>2020-09-05T10:07:52Z</time>
      </trkpt>
      <trkpt lat="37.14074" lon="-8.86134">
        <ele>49.65</ele>
        <time>2020-09-05T10:08:08Z</time>
      </trkpt>
      <trkpt lat="37.14072" lon="-8.86133">
        <ele>49.16</ele>
        <time>2020-09-05T10:08:09Z</time>
      </trkpt>
      <trkpt lat="37.14069" lon="-8.86131">
        <ele>48.2</ele>
        <time>2020-09-05T10:08:11Z</time>
      </trkpt>
      <trkpt lat="37.14062" lon="-8.86129">
        <ele>48.2</ele>
        <time>2020-09-05T10:08:15Z</time>
      </trkpt>
      <trkpt lat="37.1406" lon="-8.86129">
        <ele>48.2</ele>
        <time>2020-09-05T10:08:16Z</time>
      </trkpt>
      <trkpt lat="37.14059" lon="-8.86128">
        <ele>48.2</ele>
        <time>2020-09-05T10:08:17Z</time>
      </trkpt>
      <trkpt lat="37.1406" lon="-8.86126">
        <ele>48.2</ele>
        <time>2020-09-05T10:08:18Z</time>
      </trkpt>
      <trkpt lat="37.14061" lon="-8.86126">
        <ele>48.2</ele>
        <time>2020-09-05T10:08:19Z</time>
      </trkpt>
      <trkpt lat="37.14063" lon="-8.86126">
        <ele>48.2</ele>
        <time>2020-09-05T10:08:20Z</time>
      </trkpt>
      <trkpt lat="37.14065" lon="-8.86127">
        <ele>48.2</ele>
        <time>2020-09-05T10:08:21Z</time>
      </trkpt>
      <trkpt lat="37.1408" lon="-8.86133">
        <ele>48.2</ele>
        <time>2020-09-05T10:08:28Z</time>
      </trkpt>
      <trkpt lat="37.14099" lon="-8.86135">
        <ele>49.65</ele>
        <time>2020-09-05T10:08:35Z</time>
      </trkpt>
      <trkpt lat="37.14142" lon="-8.86146">
        <ele>52.05</ele>
        <time>2020-09-05T10:08:50Z</time>
      </trkpt>
      <trkpt lat="37.14168" lon="-8.86153">
        <ele>53.01</ele>
        <time>2020-09-05T10:08:59Z</time>
      </trkpt>
      <trkpt lat="37.1419" lon="-8.86153">
        <ele>53.97</ele>
        <time>2020-09-05T10:09:07Z</time>
      </trkpt>
      <trkpt lat="37.14199" lon="-8.86143">
        <ele>53.97</ele>
        <time>2020-09-05T10:09:11Z</time>
      </trkpt>
      <trkpt lat="37.14202" lon="-8.86138">
        <ele>52.53</ele>
        <time>2020-09-05T10:09:12Z</time>
      </trkpt>
      <trkpt lat="37.14207" lon="-8.86133">
        <ele>52.05</ele>
        <time>2020-09-05T10:09:13Z</time>
      </trkpt>
      <trkpt lat="37.14213" lon="-8.86131">
        <ele>51.09</ele>
        <time>2020-09-05T10:09:14Z</time>
      </trkpt>
      <trkpt lat="37.1422" lon="-8.8613">
        <ele>51.09</ele>
        <time>2020-09-05T10:09:15Z</time>
      </trkpt>
      <trkpt lat="37.14225" lon="-8.86133">
        <ele>51.09</ele>
        <time>2020-09-05T10:09:16Z</time>
      </trkpt>
      <trkpt lat="37.14229" lon="-8.86138">
        <ele>51.09</ele>
        <time>2020-09-05T10:09:17Z</time>
      </trkpt>
      <trkpt lat="37.14231" lon="-8.86144">
        <ele>51.09</ele>
        <time>2020-09-05T10:09:18Z</time>
      </trkpt>
      <trkpt lat="37.14233" lon="-8.86151">
        <ele>51.09</ele>
        <time>2020-09-05T10:09:19Z</time>
      </trkpt>
      <trkpt lat="37.14234" lon="-8.86156">
        <ele>51.09</ele>
        <time>2020-09-05T10:09:20Z</time>
      </trkpt>
      <trkpt lat="37.14236" lon="-8.86161">
        <ele>51.09</ele>
        <time>2020-09-05T10:09:21Z</time>
      </trkpt>
      <trkpt lat="37.14238" lon="-8.86165">
        <ele>51.09</ele>
        <time>2020-09-05T10:09:22Z</time>
      </trkpt>
      <trkpt lat="37.1424" lon="-8.86168">
        <ele>51.09</ele>
        <time>2020-09-05T10:09:23Z</time>
      </trkpt>
      <trkpt lat="37.14243" lon="-8.86171">
        <ele>51.09</ele>
        <time>2020-09-05T10:09:24Z</time>
      </trkpt>
      <trkpt lat="37.14246" lon="-8.86172">
        <ele>51.09</ele>
        <time>2020-09-05T10:09:25Z</time>
      </trkpt>
      <trkpt lat="37.1425" lon="-8.86172">
        <ele>52.53</ele>
        <time>2020-09-05T10:09:26Z</time>
      </trkpt>
      <trkpt lat="37.14253" lon="-8.86171">
        <ele>52.53</ele>
        <time>2020-09-05T10:09:27Z</time>
      </trkpt>
      <trkpt lat="37.14256" lon="-8.86169">
        <ele>53.01</ele>
        <time>2020-09-05T10:09:28Z</time>
      </trkpt>
      <trkpt lat="37.14259" lon="-8.86166">
        <ele>53.49</ele>
        <time>2020-09-05T10:09:29Z</time>
      </trkpt>
      <trkpt lat="37.14261" lon="-8.86162">
        <ele>53.49</ele>
        <time>2020-09-05T10:09:30Z</time>
      </trkpt>
      <trkpt lat="37.14263" lon="-8.86159">
        <ele>53.49</ele>
        <time>2020-09-05T10:09:31Z</time>
      </trkpt>
      <trkpt lat="37.14286" lon="-8.8613">
        <ele>54.45</ele>
        <time>2020-09-05T10:09:40Z</time>
      </trkpt>
      <trkpt lat="37.14311" lon="-8.86112">
        <ele>53.49</ele>
        <time>2020-09-05T10:09:47Z</time>
      </trkpt>
      <trkpt lat="37.14316" lon="-8.86109">
        <ele>53.01</ele>
        <time>2020-09-05T10:09:48Z</time>
      </trkpt>
      <trkpt lat="37.14352" lon="-8.86093">
        <ele>50.13</ele>
        <time>2020-09-05T10:09:53Z</time>
      </trkpt>
      <trkpt lat="37.14412" lon="-8.86065">
        <ele>48.68</ele>
        <time>2020-09-05T10:10:01Z</time>
      </trkpt>
      <trkpt lat="37.14461" lon="-8.86047">
        <ele>47.72</ele>
        <time>2020-09-05T10:10:08Z</time>
      </trkpt>
      <trkpt lat="37.14475" lon="-8.86042">
        <ele>47.24</ele>
        <time>2020-09-05T10:10:10Z</time>
      </trkpt>
      <trkpt lat="37.14518" lon="-8.86027">
        <ele>46.76</ele>
        <time>2020-09-05T10:10:17Z</time>
      </trkpt>
      <trkpt lat="37.14526" lon="-8.86023">
        <ele>48.2</ele>
        <time>2020-09-05T10:10:19Z</time>
      </trkpt>
      <trkpt lat="37.14569" lon="-8.86002">
        <ele>49.65</ele>
        <time>2020-09-05T10:10:30Z</time>
      </trkpt>
      <trkpt lat="37.146" lon="-8.85985">
        <ele>49.65</ele>
        <time>2020-09-05T10:10:38Z</time>
      </trkpt>
      <trkpt lat="37.14616" lon="-8.85974">
        <ele>49.65</ele>
        <time>2020-09-05T10:10:42Z</time>
      </trkpt>
      <trkpt lat="37.14655" lon="-8.85956">
        <ele>50.13</ele>
        <time>2020-09-05T10:10:51Z</time>
      </trkpt>
      <trkpt lat="37.14659" lon="-8.85953">
        <ele>50.13</ele>
        <time>2020-09-05T10:10:52Z</time>
      </trkpt>
      <trkpt lat="37.1467" lon="-8.85944">
        <ele>50.13</ele>
        <time>2020-09-05T10:10:55Z</time>
      </trkpt>
      <trkpt lat="37.14693" lon="-8.85919">
        <ele>47.24</ele>
        <time>2020-09-05T10:11:00Z</time>
      </trkpt>
      <trkpt lat="37.14697" lon="-8.85911">
        <ele>46.76</ele>
        <time>2020-09-05T10:11:01Z</time>
      </trkpt>
      <trkpt lat="37.14701" lon="-8.85904">
        <ele>46.28</ele>
        <time>2020-09-05T10:11:02Z</time>
      </trkpt>
      <trkpt lat="37.14705" lon="-8.85896">
        <ele>45.8</ele>
        <time>2020-09-05T10:11:03Z</time>
      </trkpt>
      <trkpt lat="37.14709" lon="-8.85888">
        <ele>45.8</ele>
        <time>2020-09-05T10:11:04Z</time>
      </trkpt>
      <trkpt lat="37.14714" lon="-8.85881">
        <ele>44.84</ele>
        <time>2020-09-05T10:11:05Z</time>
      </trkpt>
      <trkpt lat="37.1472" lon="-8.85875">
        <ele>44.84</ele>
        <time>2020-09-05T10:11:06Z</time>
      </trkpt>
      <trkpt lat="37.14725" lon="-8.85871">
        <ele>44.84</ele>
        <time>2020-09-05T10:11:07Z</time>
      </trkpt>
      <trkpt lat="37.14731" lon="-8.85869">
        <ele>44.84</ele>
        <time>2020-09-05T10:11:08Z</time>
      </trkpt>
      <trkpt lat="37.14735" lon="-8.85869">
        <ele>44.84</ele>
        <time>2020-09-05T10:11:09Z</time>
      </trkpt>
      <trkpt lat="37.1474" lon="-8.85868">
        <ele>44.84</ele>
        <time>2020-09-05T10:11:10Z</time>
      </trkpt>
      <trkpt lat="37.14745" lon="-8.85867">
        <ele>44.36</ele>
        <time>2020-09-05T10:11:11Z</time>
      </trkpt>
      <trkpt lat="37.14749" lon="-8.85865">
        <ele>44.36</ele>
        <time>2020-09-05T10:11:12Z</time>
      </trkpt>
      <trkpt lat="37.14754" lon="-8.85862">
        <ele>43.88</ele>
        <time>2020-09-05T10:11:13Z</time>
      </trkpt>
      <trkpt lat="37.14758" lon="-8.85857">
        <ele>43.88</ele>
        <time>2020-09-05T10:11:14Z</time>
      </trkpt>
      <trkpt lat="37.14762" lon="-8.85853">
        <ele>43.88</ele>
        <time>2020-09-05T10:11:15Z</time>
      </trkpt>
      <trkpt lat="37.14797" lon="-8.85821">
        <ele>43.88</ele>
        <time>2020-09-05T10:11:23Z</time>
      </trkpt>
      <trkpt lat="37.14815" lon="-8.85808">
        <ele>43.4</ele>
        <time>2020-09-05T10:11:27Z</time>
      </trkpt>
      <trkpt lat="37.1484" lon="-8.85786">
        <ele>42.92</ele>
        <time>2020-09-05T10:11:33Z</time>
      </trkpt>
      <trkpt lat="37.14847" lon="-8.85779">
        <ele>42.92</ele>
        <time>2020-09-05T10:11:35Z</time>
      </trkpt>
      <trkpt lat="37.14851" lon="-8.85775">
        <ele>42.92</ele>
        <time>2020-09-05T10:11:36Z</time>
      </trkpt>
      <trkpt lat="37.14855" lon="-8.85772">
        <ele>42.92</ele>
        <time>2020-09-05T10:11:37Z</time>
      </trkpt>
      <trkpt lat="37.14858" lon="-8.85767">
        <ele>42.92</ele>
        <time>2020-09-05T10:11:38Z</time>
      </trkpt>
      <trkpt lat="37.14862" lon="-8.85763">
        <ele>42.92</ele>
        <time>2020-09-05T10:11:39Z</time>
      </trkpt>
      <trkpt lat="37.14865" lon="-8.85758">
        <ele>42.92</ele>
        <time>2020-09-05T10:11:40Z</time>
      </trkpt>
      <trkpt lat="37.14895" lon="-8.85717">
        <ele>42.92</ele>
        <time>2020-09-05T10:11:49Z</time>
      </trkpt>
      <trkpt lat="37.14902" lon="-8.85709">
        <ele>42.92</ele>
        <time>2020-09-05T10:11:51Z</time>
      </trkpt>
      <trkpt lat="37.14906" lon="-8.85705">
        <ele>42.92</ele>
        <time>2020-09-05T10:11:52Z</time>
      </trkpt>
      <trkpt lat="37.1491" lon="-8.85702">
        <ele>42.92</ele>
        <time>2020-09-05T10:11:53Z</time>
      </trkpt>
      <trkpt lat="37.14914" lon="-8.857">
        <ele>42.92</ele>
        <time>2020-09-05T10:11:54Z</time>
      </trkpt>
      <trkpt lat="37.14919" lon="-8.85697">
        <ele>42.92</ele>
        <time>2020-09-05T10:11:55Z</time>
      </trkpt>
      <trkpt lat="37.14924" lon="-8.85695">
        <ele>42.92</ele>
        <time>2020-09-05T10:11:56Z</time>
      </trkpt>
      <trkpt lat="37.14929" lon="-8.85694">
        <ele>42.92</ele>
        <time>2020-09-05T10:11:57Z</time>
      </trkpt>
      <trkpt lat="37.14969" lon="-8.85694">
        <ele>42.44</ele>
        <time>2020-09-05T10:12:04Z</time>
      </trkpt>
      <trkpt lat="37.14997" lon="-8.85701">
        <ele>40.51</ele>
        <time>2020-09-05T10:12:08Z</time>
      </trkpt>
      <trkpt lat="37.15002" lon="-8.85704">
        <ele>40.51</ele>
        <time>2020-09-05T10:12:09Z</time>
      </trkpt>
      <trkpt lat="37.15007" lon="-8.85708">
        <ele>40.51</ele>
        <time>2020-09-05T10:12:10Z</time>
      </trkpt>
      <trkpt lat="37.15026" lon="-8.85725">
        <ele>42.44</ele>
        <time>2020-09-05T10:12:15Z</time>
      </trkpt>
      <trkpt lat="37.1503" lon="-8.85728">
        <ele>42.44</ele>
        <time>2020-09-05T10:12:16Z</time>
      </trkpt>
      <trkpt lat="37.15074" lon="-8.85744">
        <ele>42.92</ele>
        <time>2020-09-05T10:12:25Z</time>
      </trkpt>
      <trkpt lat="37.15078" lon="-8.85746">
        <ele>42.92</ele>
        <time>2020-09-05T10:12:26Z</time>
      </trkpt>
      <trkpt lat="37.15098" lon="-8.85748">
        <ele>42.92</ele>
        <time>2020-09-05T10:12:30Z</time>
      </trkpt>
      <trkpt lat="37.15134" lon="-8.8575">
        <ele>41.47</ele>
        <time>2020-09-05T10:12:36Z</time>
      </trkpt>
      <trkpt lat="37.15141" lon="-8.8575">
        <ele>41.47</ele>
        <time>2020-09-05T10:12:37Z</time>
      </trkpt>
      <trkpt lat="37.15183" lon="-8.85745">
        <ele>40.99</ele>
        <time>2020-09-05T10:12:44Z</time>
      </trkpt>
      <trkpt lat="37.15224" lon="-8.85735">
        <ele>40.51</ele>
        <time>2020-09-05T10:12:51Z</time>
      </trkpt>
      <trkpt lat="37.15243" lon="-8.85733">
        <ele>40.03</ele>
        <time>2020-09-05T10:12:54Z</time>
      </trkpt>
      <trkpt lat="37.15249" lon="-8.8573">
        <ele>40.03</ele>
        <time>2020-09-05T10:12:55Z</time>
      </trkpt>
      <trkpt lat="37.15255" lon="-8.85725">
        <ele>40.03</ele>
        <time>2020-09-05T10:12:56Z</time>
      </trkpt>
      <trkpt lat="37.1526" lon="-8.85719">
        <ele>38.59</ele>
        <time>2020-09-05T10:12:57Z</time>
      </trkpt>
      <trkpt lat="37.15265" lon="-8.85713">
        <ele>38.11</ele>
        <time>2020-09-05T10:12:58Z</time>
      </trkpt>
      <trkpt lat="37.15269" lon="-8.85705">
        <ele>38.11</ele>
        <time>2020-09-05T10:12:59Z</time>
      </trkpt>
      <trkpt lat="37.15273" lon="-8.85698">
        <ele>38.11</ele>
        <time>2020-09-05T10:13:00Z</time>
      </trkpt>
      <trkpt lat="37.15308" lon="-8.85638">
        <ele>38.11</ele>
        <time>2020-09-05T10:13:09Z</time>
      </trkpt>
      <trkpt lat="37.15326" lon="-8.85619">
        <ele>37.63</ele>
        <time>2020-09-05T10:13:13Z</time>
      </trkpt>
      <trkpt lat="37.15358" lon="-8.85599">
        <ele>37.15</ele>
        <time>2020-09-05T10:13:19Z</time>
      </trkpt>
      <trkpt lat="37.15362" lon="-8.85595">
        <ele>37.15</ele>
        <time>2020-09-05T10:13:20Z</time>
      </trkpt>
      <trkpt lat="37.15394" lon="-8.85557">
        <ele>36.67</ele>
        <time>2020-09-05T10:13:28Z</time>
      </trkpt>
      <trkpt lat="37.1542" lon="-8.85533">
        <ele>36.67</ele>
        <time>2020-09-05T10:13:34Z</time>
      </trkpt>
      <trkpt lat="37.15425" lon="-8.85529">
        <ele>36.67</ele>
        <time>2020-09-05T10:13:35Z</time>
      </trkpt>
      <trkpt lat="37.1543" lon="-8.85526">
        <ele>36.19</ele>
        <time>2020-09-05T10:13:36Z</time>
      </trkpt>
      <trkpt lat="37.15435" lon="-8.85524">
        <ele>36.19</ele>
        <time>2020-09-05T10:13:37Z</time>
      </trkpt>
      <trkpt lat="37.15439" lon="-8.85522">
        <ele>36.19</ele>
        <time>2020-09-05T10:13:38Z</time>
      </trkpt>
      <trkpt lat="37.15477" lon="-8.85509">
        <ele>35.71</ele>
        <time>2020-09-05T10:13:45Z</time>
      </trkpt>
      <trkpt lat="37.15522" lon="-8.85488">
        <ele>35.71</ele>
        <time>2020-09-05T10:13:54Z</time>
      </trkpt>
      <trkpt lat="37.15532" lon="-8.85483">
        <ele>35.71</ele>
        <time>2020-09-05T10:13:56Z</time>
      </trkpt>
      <trkpt lat="37.15537" lon="-8.85479">
        <ele>35.71</ele>
        <time>2020-09-05T10:13:57Z</time>
      </trkpt>
      <trkpt lat="37.15541" lon="-8.85476">
        <ele>35.71</ele>
        <time>2020-09-05T10:13:58Z</time>
      </trkpt>
      <trkpt lat="37.15545" lon="-8.85472">
        <ele>35.71</ele>
        <time>2020-09-05T10:13:59Z</time>
      </trkpt>
      <trkpt lat="37.15549" lon="-8.85467">
        <ele>35.23</ele>
        <time>2020-09-05T10:14:00Z</time>
      </trkpt>
      <trkpt lat="37.15553" lon="-8.85463">
        <ele>35.23</ele>
        <time>2020-09-05T10:14:01Z</time>
      </trkpt>
      <trkpt lat="37.1558" lon="-8.85422">
        <ele>35.23</ele>
        <time>2020-09-05T10:14:09Z</time>
      </trkpt>
      <trkpt lat="37.15596" lon="-8.85372">
        <ele>34.74</ele>
        <time>2020-09-05T10:14:17Z</time>
      </trkpt>
      <trkpt lat="37.15599" lon="-8.8536">
        <ele>34.74</ele>
        <time>2020-09-05T10:14:19Z</time>
      </trkpt>
      <trkpt lat="37.15601" lon="-8.85354">
        <ele>34.74</ele>
        <time>2020-09-05T10:14:20Z</time>
      </trkpt>
      <trkpt lat="37.15615" lon="-8.85315">
        <ele>34.74</ele>
        <time>2020-09-05T10:14:28Z</time>
      </trkpt>
      <trkpt lat="37.15627" lon="-8.85297">
        <ele>34.74</ele>
        <time>2020-09-05T10:14:32Z</time>
      </trkpt>
      <trkpt lat="37.15631" lon="-8.85294">
        <ele>34.74</ele>
        <time>2020-09-05T10:14:33Z</time>
      </trkpt>
      <trkpt lat="37.15669" lon="-8.85266">
        <ele>34.74</ele>
        <time>2020-09-05T10:14:42Z</time>
      </trkpt>
      <trkpt lat="37.15708" lon="-8.85238">
        <ele>34.74</ele>
        <time>2020-09-05T10:14:51Z</time>
      </trkpt>
      <trkpt lat="37.15747" lon="-8.85205">
        <ele>34.74</ele>
        <time>2020-09-05T10:15:01Z</time>
      </trkpt>
      <trkpt lat="37.15768" lon="-8.85192">
        <ele>34.74</ele>
        <time>2020-09-05T10:15:06Z</time>
      </trkpt>
      <trkpt lat="37.15772" lon="-8.8519">
        <ele>34.26</ele>
        <time>2020-09-05T10:15:07Z</time>
      </trkpt>
      <trkpt lat="37.15787" lon="-8.85186">
        <ele>34.26</ele>
        <time>2020-09-05T10:15:10Z</time>
      </trkpt>
      <trkpt lat="37.1582" lon="-8.85169">
        <ele>34.26</ele>
        <time>2020-09-05T10:15:17Z</time>
      </trkpt>
      <trkpt lat="37.15825" lon="-8.85165">
        <ele>34.26</ele>
        <time>2020-09-05T10:15:18Z</time>
      </trkpt>
      <trkpt lat="37.15845" lon="-8.85146">
        <ele>34.26</ele>
        <time>2020-09-05T10:15:23Z</time>
      </trkpt>
      <trkpt lat="37.1585" lon="-8.85142">
        <ele>34.26</ele>
        <time>2020-09-05T10:15:24Z</time>
      </trkpt>
      <trkpt lat="37.15892" lon="-8.8512">
        <ele>34.26</ele>
        <time>2020-09-05T10:15:33Z</time>
      </trkpt>
      <trkpt lat="37.1594" lon="-8.85104">
        <ele>34.26</ele>
        <time>2020-09-05T10:15:43Z</time>
      </trkpt>
      <trkpt lat="37.15967" lon="-8.85105">
        <ele>33.3</ele>
        <time>2020-09-05T10:15:48Z</time>
      </trkpt>
      <trkpt lat="37.15973" lon="-8.85107">
        <ele>33.3</ele>
        <time>2020-09-05T10:15:49Z</time>
      </trkpt>
      <trkpt lat="37.16013" lon="-8.8512">
        <ele>33.3</ele>
        <time>2020-09-05T10:15:57Z</time>
      </trkpt>
      <trkpt lat="37.16031" lon="-8.85123">
        <ele>33.3</ele>
        <time>2020-09-05T10:16:01Z</time>
      </trkpt>
      <trkpt lat="37.16035" lon="-8.85122">
        <ele>33.3</ele>
        <time>2020-09-05T10:16:02Z</time>
      </trkpt>
      <trkpt lat="37.1604" lon="-8.8512">
        <ele>33.3</ele>
        <time>2020-09-05T10:16:03Z</time>
      </trkpt>
      <trkpt lat="37.16044" lon="-8.85117">
        <ele>32.82</ele>
        <time>2020-09-05T10:16:04Z</time>
      </trkpt>
      <trkpt lat="37.16048" lon="-8.85114">
        <ele>32.34</ele>
        <time>2020-09-05T10:16:05Z</time>
      </trkpt>
      <trkpt lat="37.16052" lon="-8.85109">
        <ele>32.34</ele>
        <time>2020-09-05T10:16:06Z</time>
      </trkpt>
      <trkpt lat="37.16056" lon="-8.85103">
        <ele>31.86</ele>
        <time>2020-09-05T10:16:07Z</time>
      </trkpt>
      <trkpt lat="37.16059" lon="-8.85097">
        <ele>31.38</ele>
        <time>2020-09-05T10:16:08Z</time>
      </trkpt>
      <trkpt lat="37.16061" lon="-8.85092">
        <ele>31.38</ele>
        <time>2020-09-05T10:16:09Z</time>
      </trkpt>
      <trkpt lat="37.16061" lon="-8.85088">
        <ele>32.34</ele>
        <time>2020-09-05T10:16:10Z</time>
      </trkpt>
      <trkpt lat="37.16062" lon="-8.85083">
        <ele>32.82</ele>
        <time>2020-09-05T10:16:11Z</time>
      </trkpt>
      <trkpt lat="37.16062" lon="-8.85078">
        <ele>32.82</ele>
        <time>2020-09-05T10:16:12Z</time>
      </trkpt>
      <trkpt lat="37.16063" lon="-8.85035">
        <ele>33.3</ele>
        <time>2020-09-05T10:16:19Z</time>
      </trkpt>
      <trkpt lat="37.16077" lon="-8.84985">
        <ele>33.3</ele>
        <time>2020-09-05T10:16:27Z</time>
      </trkpt>
      <trkpt lat="37.16084" lon="-8.84965">
        <ele>31.86</ele>
        <time>2020-09-05T10:16:30Z</time>
      </trkpt>
      <trkpt lat="37.16089" lon="-8.84953">
        <ele>31.38</ele>
        <time>2020-09-05T10:16:32Z</time>
      </trkpt>
      <trkpt lat="37.16092" lon="-8.84948">
        <ele>31.38</ele>
        <time>2020-09-05T10:16:33Z</time>
      </trkpt>
      <trkpt lat="37.16094" lon="-8.84943">
        <ele>31.38</ele>
        <time>2020-09-05T10:16:34Z</time>
      </trkpt>
      <trkpt lat="37.16103" lon="-8.84916">
        <ele>31.38</ele>
        <time>2020-09-05T10:16:39Z</time>
      </trkpt>
      <trkpt lat="37.16111" lon="-8.84861">
        <ele>31.38</ele>
        <time>2020-09-05T10:16:47Z</time>
      </trkpt>
      <trkpt lat="37.16124" lon="-8.84813">
        <ele>31.38</ele>
        <time>2020-09-05T10:16:54Z</time>
      </trkpt>
      <trkpt lat="37.1615" lon="-8.84739">
        <ele>31.38</ele>
        <time>2020-09-05T10:17:06Z</time>
      </trkpt>
      <trkpt lat="37.16166" lon="-8.84713">
        <ele>31.38</ele>
        <time>2020-09-05T10:17:11Z</time>
      </trkpt>
      <trkpt lat="37.16199" lon="-8.84677">
        <ele>31.38</ele>
        <time>2020-09-05T10:17:19Z</time>
      </trkpt>
      <trkpt lat="37.16204" lon="-8.84674">
        <ele>31.38</ele>
        <time>2020-09-05T10:17:20Z</time>
      </trkpt>
      <trkpt lat="37.16219" lon="-8.84667">
        <ele>31.38</ele>
        <time>2020-09-05T10:17:23Z</time>
      </trkpt>
      <trkpt lat="37.16229" lon="-8.84663">
        <ele>31.38</ele>
        <time>2020-09-05T10:17:25Z</time>
      </trkpt>
      <trkpt lat="37.16234" lon="-8.8466">
        <ele>31.38</ele>
        <time>2020-09-05T10:17:26Z</time>
      </trkpt>
      <trkpt lat="37.16239" lon="-8.84656">
        <ele>31.38</ele>
        <time>2020-09-05T10:17:27Z</time>
      </trkpt>
      <trkpt lat="37.16261" lon="-8.84637">
        <ele>30.42</ele>
        <time>2020-09-05T10:17:32Z</time>
      </trkpt>
      <trkpt lat="37.16266" lon="-8.84635">
        <ele>30.42</ele>
        <time>2020-09-05T10:17:33Z</time>
      </trkpt>
      <trkpt lat="37.16271" lon="-8.84635">
        <ele>30.42</ele>
        <time>2020-09-05T10:17:34Z</time>
      </trkpt>
      <trkpt lat="37.16277" lon="-8.84636">
        <ele>30.42</ele>
        <time>2020-09-05T10:17:35Z</time>
      </trkpt>
      <trkpt lat="37.16282" lon="-8.84638">
        <ele>30.42</ele>
        <time>2020-09-05T10:17:36Z</time>
      </trkpt>
      <trkpt lat="37.16307" lon="-8.84645">
        <ele>30.42</ele>
        <time>2020-09-05T10:17:41Z</time>
      </trkpt>
      <trkpt lat="37.16311" lon="-8.84646">
        <ele>30.42</ele>
        <time>2020-09-05T10:17:42Z</time>
      </trkpt>
      <trkpt lat="37.16316" lon="-8.84646">
        <ele>30.42</ele>
        <time>2020-09-05T10:17:43Z</time>
      </trkpt>
      <trkpt lat="37.16321" lon="-8.84646">
        <ele>30.42</ele>
        <time>2020-09-05T10:17:44Z</time>
      </trkpt>
      <trkpt lat="37.16325" lon="-8.84645">
        <ele>30.42</ele>
        <time>2020-09-05T10:17:45Z</time>
      </trkpt>
      <trkpt lat="37.16339" lon="-8.84644">
        <ele>30.42</ele>
        <time>2020-09-05T10:17:48Z</time>
      </trkpt>
      <trkpt lat="37.16344" lon="-8.84645">
        <ele>30.42</ele>
        <time>2020-09-05T10:17:49Z</time>
      </trkpt>
      <trkpt lat="37.16348" lon="-8.84648">
        <ele>29.46</ele>
        <time>2020-09-05T10:17:50Z</time>
      </trkpt>
      <trkpt lat="37.16352" lon="-8.84651">
        <ele>28.98</ele>
        <time>2020-09-05T10:17:51Z</time>
      </trkpt>
      <trkpt lat="37.16356" lon="-8.84655">
        <ele>28.98</ele>
        <time>2020-09-05T10:17:52Z</time>
      </trkpt>
      <trkpt lat="37.16358" lon="-8.84658">
        <ele>29.46</ele>
        <time>2020-09-05T10:17:53Z</time>
      </trkpt>
      <trkpt lat="37.16362" lon="-8.84664">
        <ele>30.42</ele>
        <time>2020-09-05T10:17:55Z</time>
      </trkpt>
      <trkpt lat="37.16379" lon="-8.84676">
        <ele>30.42</ele>
        <time>2020-09-05T10:18:00Z</time>
      </trkpt>
      <trkpt lat="37.16387" lon="-8.84678">
        <ele>30.42</ele>
        <time>2020-09-05T10:18:02Z</time>
      </trkpt>
      <trkpt lat="37.16402" lon="-8.84681">
        <ele>30.42</ele>
        <time>2020-09-05T10:18:07Z</time>
      </trkpt>
      <trkpt lat="37.16401" lon="-8.84682">
        <ele>30.42</ele>
        <time>2020-09-05T10:18:15Z</time>
      </trkpt>
      <trkpt lat="37.16399" lon="-8.84685">
        <ele>30.42</ele>
        <time>2020-09-05T10:18:38Z</time>
      </trkpt>
      <trkpt lat="37.16399" lon="-8.84682">
        <ele>30.42</ele>
        <time>2020-09-05T10:19:04Z</time>
      </trkpt>
      <trkpt lat="37.16399" lon="-8.84681">
        <ele>30.42</ele>
        <time>2020-09-05T10:19:25Z</time>
      </trkpt>
      <trkpt lat="37.16399" lon="-8.84682">
        <ele>30.42</ele>
        <time>2020-09-05T10:19:48Z</time>
      </trkpt>
      <trkpt lat="37.164" lon="-8.84682">
        <ele>30.42</ele>
        <time>2020-09-05T10:20:10Z</time>
      </trkpt>
      <trkpt lat="37.16402" lon="-8.84683">
        <ele>30.42</ele>
        <time>2020-09-05T10:20:30Z</time>
      </trkpt>
      <trkpt lat="37.16404" lon="-8.84684">
        <ele>30.42</ele>
        <time>2020-09-05T10:20:39Z</time>
      </trkpt>
      <trkpt lat="37.1642" lon="-8.84689">
        <ele>30.42</ele>
        <time>2020-09-05T10:20:45Z</time>
      </trkpt>
      <trkpt lat="37.16443" lon="-8.84694">
        <ele>30.42</ele>
        <time>2020-09-05T10:20:51Z</time>
      </trkpt>
      <trkpt lat="37.16447" lon="-8.84693">
        <ele>30.42</ele>
        <time>2020-09-05T10:20:52Z</time>
      </trkpt>
      <trkpt lat="37.16452" lon="-8.84692">
        <ele>30.42</ele>
        <time>2020-09-05T10:20:53Z</time>
      </trkpt>
      <trkpt lat="37.16483" lon="-8.84682">
        <ele>30.42</ele>
        <time>2020-09-05T10:21:01Z</time>
      </trkpt>
      <trkpt lat="37.16486" lon="-8.84679">
        <ele>30.42</ele>
        <time>2020-09-05T10:21:02Z</time>
      </trkpt>
      <trkpt lat="37.1651" lon="-8.84657">
        <ele>28.98</ele>
        <time>2020-09-05T10:21:09Z</time>
      </trkpt>
      <trkpt lat="37.16514" lon="-8.84654">
        <ele>28.98</ele>
        <time>2020-09-05T10:21:10Z</time>
      </trkpt>
      <trkpt lat="37.16522" lon="-8.84649">
        <ele>28.98</ele>
        <time>2020-09-05T10:21:12Z</time>
      </trkpt>
      <trkpt lat="37.16526" lon="-8.84648">
        <ele>28.98</ele>
        <time>2020-09-05T10:21:13Z</time>
      </trkpt>
      <trkpt lat="37.16531" lon="-8.84647">
        <ele>28.98</ele>
        <time>2020-09-05T10:21:14Z</time>
      </trkpt>
      <trkpt lat="37.16536" lon="-8.84648">
        <ele>28.98</ele>
        <time>2020-09-05T10:21:15Z</time>
      </trkpt>
      <trkpt lat="37.1654" lon="-8.84649">
        <ele>28.98</ele>
        <time>2020-09-05T10:21:16Z</time>
      </trkpt>
      <trkpt lat="37.16543" lon="-8.8465">
        <ele>30.42</ele>
        <time>2020-09-05T10:21:17Z</time>
      </trkpt>
      <trkpt lat="37.16547" lon="-8.84652">
        <ele>30.42</ele>
        <time>2020-09-05T10:21:18Z</time>
      </trkpt>
      <trkpt lat="37.16569" lon="-8.84667">
        <ele>30.42</ele>
        <time>2020-09-05T10:21:24Z</time>
      </trkpt>
      <trkpt lat="37.16576" lon="-8.84675">
        <ele>30.42</ele>
        <time>2020-09-05T10:21:26Z</time>
      </trkpt>
      <trkpt lat="37.1658" lon="-8.84678">
        <ele>30.42</ele>
        <time>2020-09-05T10:21:27Z</time>
      </trkpt>
      <trkpt lat="37.16606" lon="-8.84699">
        <ele>28.98</ele>
        <time>2020-09-05T10:21:34Z</time>
      </trkpt>
      <trkpt lat="37.16619" lon="-8.84714">
        <ele>28.98</ele>
        <time>2020-09-05T10:21:38Z</time>
      </trkpt>
      <trkpt lat="37.16621" lon="-8.84719">
        <ele>28.98</ele>
        <time>2020-09-05T10:21:39Z</time>
      </trkpt>
      <trkpt lat="37.16629" lon="-8.84739">
        <ele>28.98</ele>
        <time>2020-09-05T10:21:43Z</time>
      </trkpt>
      <trkpt lat="37.16633" lon="-8.84756">
        <ele>28.98</ele>
        <time>2020-09-05T10:21:46Z</time>
      </trkpt>
      <trkpt lat="37.16635" lon="-8.84761">
        <ele>28.98</ele>
        <time>2020-09-05T10:21:47Z</time>
      </trkpt>
      <trkpt lat="37.16638" lon="-8.84765">
        <ele>28.98</ele>
        <time>2020-09-05T10:21:48Z</time>
      </trkpt>
      <trkpt lat="37.16642" lon="-8.84767">
        <ele>28.5</ele>
        <time>2020-09-05T10:21:49Z</time>
      </trkpt>
      <trkpt lat="37.16646" lon="-8.8477">
        <ele>28.5</ele>
        <time>2020-09-05T10:21:50Z</time>
      </trkpt>
      <trkpt lat="37.1665" lon="-8.84775">
        <ele>28.02</ele>
        <time>2020-09-05T10:21:51Z</time>
      </trkpt>
      <trkpt lat="37.16653" lon="-8.8478">
        <ele>28.02</ele>
        <time>2020-09-05T10:21:52Z</time>
      </trkpt>
      <trkpt lat="37.16656" lon="-8.84787">
        <ele>27.53</ele>
        <time>2020-09-05T10:21:53Z</time>
      </trkpt>
      <trkpt lat="37.16658" lon="-8.84797">
        <ele>27.53</ele>
        <time>2020-09-05T10:21:55Z</time>
      </trkpt>
      <trkpt lat="37.16659" lon="-8.848">
        <ele>27.53</ele>
        <time>2020-09-05T10:21:56Z</time>
      </trkpt>
      <trkpt lat="37.16659" lon="-8.84805">
        <ele>27.53</ele>
        <time>2020-09-05T10:21:57Z</time>
      </trkpt>
      <trkpt lat="37.1666" lon="-8.8481">
        <ele>27.53</ele>
        <time>2020-09-05T10:21:58Z</time>
      </trkpt>
      <trkpt lat="37.1666" lon="-8.84856">
        <ele>28.5</ele>
        <time>2020-09-05T10:22:06Z</time>
      </trkpt>
      <trkpt lat="37.16657" lon="-8.84899">
        <ele>28.5</ele>
        <time>2020-09-05T10:22:13Z</time>
      </trkpt>
      <trkpt lat="37.16658" lon="-8.84905">
        <ele>28.5</ele>
        <time>2020-09-05T10:22:14Z</time>
      </trkpt>
      <trkpt lat="37.16659" lon="-8.84912">
        <ele>28.5</ele>
        <time>2020-09-05T10:22:15Z</time>
      </trkpt>
      <trkpt lat="37.16661" lon="-8.84917">
        <ele>28.5</ele>
        <time>2020-09-05T10:22:16Z</time>
      </trkpt>
      <trkpt lat="37.16663" lon="-8.84922">
        <ele>28.5</ele>
        <time>2020-09-05T10:22:17Z</time>
      </trkpt>
      <trkpt lat="37.16668" lon="-8.84928">
        <ele>28.5</ele>
        <time>2020-09-05T10:22:18Z</time>
      </trkpt>
      <trkpt lat="37.16671" lon="-8.84931">
        <ele>28.5</ele>
        <time>2020-09-05T10:22:19Z</time>
      </trkpt>
      <trkpt lat="37.16674" lon="-8.84933">
        <ele>28.5</ele>
        <time>2020-09-05T10:22:20Z</time>
      </trkpt>
      <trkpt lat="37.16678" lon="-8.84936">
        <ele>27.53</ele>
        <time>2020-09-05T10:22:21Z</time>
      </trkpt>
      <trkpt lat="37.16683" lon="-8.84939">
        <ele>27.53</ele>
        <time>2020-09-05T10:22:22Z</time>
      </trkpt>
      <trkpt lat="37.16693" lon="-8.84944">
        <ele>26.57</ele>
        <time>2020-09-05T10:22:24Z</time>
      </trkpt>
      <trkpt lat="37.16711" lon="-8.8495">
        <ele>25.13</ele>
        <time>2020-09-05T10:22:27Z</time>
      </trkpt>
      <trkpt lat="37.16716" lon="-8.84953">
        <ele>25.13</ele>
        <time>2020-09-05T10:22:28Z</time>
      </trkpt>
      <trkpt lat="37.16722" lon="-8.84954">
        <ele>25.13</ele>
        <time>2020-09-05T10:22:29Z</time>
      </trkpt>
      <trkpt lat="37.16726" lon="-8.84955">
        <ele>26.09</ele>
        <time>2020-09-05T10:22:30Z</time>
      </trkpt>
      <trkpt lat="37.1673" lon="-8.84954">
        <ele>26.09</ele>
        <time>2020-09-05T10:22:31Z</time>
      </trkpt>
      <trkpt lat="37.16735" lon="-8.84953">
        <ele>26.09</ele>
        <time>2020-09-05T10:22:33Z</time>
      </trkpt>
      <trkpt lat="37.1678" lon="-8.84947">
        <ele>28.5</ele>
        <time>2020-09-05T10:22:43Z</time>
      </trkpt>
      <trkpt lat="37.16804" lon="-8.84942">
        <ele>28.02</ele>
        <time>2020-09-05T10:22:49Z</time>
      </trkpt>
      <trkpt lat="37.16816" lon="-8.8494">
        <ele>27.05</ele>
        <time>2020-09-05T10:22:51Z</time>
      </trkpt>
      <trkpt lat="37.16845" lon="-8.84951">
        <ele>26.57</ele>
        <time>2020-09-05T10:22:57Z</time>
      </trkpt>
      <trkpt lat="37.1685" lon="-8.84954">
        <ele>26.57</ele>
        <time>2020-09-05T10:22:58Z</time>
      </trkpt>
      <trkpt lat="37.16859" lon="-8.84959">
        <ele>26.57</ele>
        <time>2020-09-05T10:23:00Z</time>
      </trkpt>
      <trkpt lat="37.16868" lon="-8.8497">
        <ele>26.57</ele>
        <time>2020-09-05T10:23:03Z</time>
      </trkpt>
      <trkpt lat="37.16871" lon="-8.84981">
        <ele>26.57</ele>
        <time>2020-09-05T10:23:04Z</time>
      </trkpt>
      <trkpt lat="37.16872" lon="-8.84988">
        <ele>26.57</ele>
        <time>2020-09-05T10:23:06Z</time>
      </trkpt>
      <trkpt lat="37.16871" lon="-8.84997">
        <ele>26.57</ele>
        <time>2020-09-05T10:23:07Z</time>
      </trkpt>
      <trkpt lat="37.16869" lon="-8.85003">
        <ele>26.09</ele>
        <time>2020-09-05T10:23:08Z</time>
      </trkpt>
      <trkpt lat="37.16865" lon="-8.8501">
        <ele>26.57</ele>
        <time>2020-09-05T10:23:09Z</time>
      </trkpt>
      <trkpt lat="37.16862" lon="-8.85017">
        <ele>26.57</ele>
        <time>2020-09-05T10:23:11Z</time>
      </trkpt>
      <trkpt lat="37.16838" lon="-8.85055">
        <ele>26.57</ele>
        <time>2020-09-05T10:23:18Z</time>
      </trkpt>
      <trkpt lat="37.16815" lon="-8.8509">
        <ele>26.09</ele>
        <time>2020-09-05T10:23:26Z</time>
      </trkpt>
      <trkpt lat="37.16798" lon="-8.85124">
        <ele>23.69</ele>
        <time>2020-09-05T10:23:30Z</time>
      </trkpt>
      <trkpt lat="37.16785" lon="-8.85151">
        <ele>25.13</ele>
        <time>2020-09-05T10:23:35Z</time>
      </trkpt>
      <trkpt lat="37.16779" lon="-8.85161">
        <ele>25.13</ele>
        <time>2020-09-05T10:23:37Z</time>
      </trkpt>
      <trkpt lat="37.16777" lon="-8.85167">
        <ele>25.13</ele>
        <time>2020-09-05T10:23:38Z</time>
      </trkpt>
      <trkpt lat="37.16772" lon="-8.85178">
        <ele>25.61</ele>
        <time>2020-09-05T10:23:40Z</time>
      </trkpt>
      <trkpt lat="37.16771" lon="-8.85184">
        <ele>25.61</ele>
        <time>2020-09-05T10:23:41Z</time>
      </trkpt>
      <trkpt lat="37.16771" lon="-8.85188">
        <ele>26.57</ele>
        <time>2020-09-05T10:23:42Z</time>
      </trkpt>
      <trkpt lat="37.1677" lon="-8.85203">
        <ele>26.57</ele>
        <time>2020-09-05T10:23:45Z</time>
      </trkpt>
      <trkpt lat="37.1677" lon="-8.85209">
        <ele>26.57</ele>
        <time>2020-09-05T10:23:46Z</time>
      </trkpt>
      <trkpt lat="37.16785" lon="-8.85251">
        <ele>26.57</ele>
        <time>2020-09-05T10:23:54Z</time>
      </trkpt>
      <trkpt lat="37.16789" lon="-8.85258">
        <ele>26.57</ele>
        <time>2020-09-05T10:23:55Z</time>
      </trkpt>
      <trkpt lat="37.16823" lon="-8.85298">
        <ele>26.57</ele>
        <time>2020-09-05T10:24:04Z</time>
      </trkpt>
      <trkpt lat="37.16825" lon="-8.85305">
        <ele>26.57</ele>
        <time>2020-09-05T10:24:05Z</time>
      </trkpt>
      <trkpt lat="37.16829" lon="-8.85316">
        <ele>26.57</ele>
        <time>2020-09-05T10:24:07Z</time>
      </trkpt>
      <trkpt lat="37.16832" lon="-8.85324">
        <ele>24.65</ele>
        <time>2020-09-05T10:24:08Z</time>
      </trkpt>
      <trkpt lat="37.16838" lon="-8.85334">
        <ele>24.65</ele>
        <time>2020-09-05T10:24:10Z</time>
      </trkpt>
      <trkpt lat="37.16841" lon="-8.85346">
        <ele>24.17</ele>
        <time>2020-09-05T10:24:11Z</time>
      </trkpt>
      <trkpt lat="37.16843" lon="-8.85354">
        <ele>23.69</ele>
        <time>2020-09-05T10:24:12Z</time>
      </trkpt>
      <trkpt lat="37.16844" lon="-8.85359">
        <ele>23.69</ele>
        <time>2020-09-05T10:24:13Z</time>
      </trkpt>
      <trkpt lat="37.16846" lon="-8.85366">
        <ele>23.69</ele>
        <time>2020-09-05T10:24:14Z</time>
      </trkpt>
      <trkpt lat="37.16858" lon="-8.85395">
        <ele>23.69</ele>
        <time>2020-09-05T10:24:19Z</time>
      </trkpt>
      <trkpt lat="37.16864" lon="-8.85412">
        <ele>24.65</ele>
        <time>2020-09-05T10:24:22Z</time>
      </trkpt>
      <trkpt lat="37.16877" lon="-8.85467">
        <ele>25.13</ele>
        <time>2020-09-05T10:24:31Z</time>
      </trkpt>
      <trkpt lat="37.16878" lon="-8.85472">
        <ele>25.13</ele>
        <time>2020-09-05T10:24:32Z</time>
      </trkpt>
      <trkpt lat="37.16878" lon="-8.85479">
        <ele>25.13</ele>
        <time>2020-09-05T10:24:33Z</time>
      </trkpt>
      <trkpt lat="37.16877" lon="-8.85492">
        <ele>25.13</ele>
        <time>2020-09-05T10:24:35Z</time>
      </trkpt>
      <trkpt lat="37.16875" lon="-8.855">
        <ele>25.13</ele>
        <time>2020-09-05T10:24:36Z</time>
      </trkpt>
      <trkpt lat="37.16873" lon="-8.85504">
        <ele>25.13</ele>
        <time>2020-09-05T10:24:37Z</time>
      </trkpt>
      <trkpt lat="37.16871" lon="-8.85509">
        <ele>24.17</ele>
        <time>2020-09-05T10:24:38Z</time>
      </trkpt>
      <trkpt lat="37.16865" lon="-8.85522">
        <ele>24.17</ele>
        <time>2020-09-05T10:24:40Z</time>
      </trkpt>
      <trkpt lat="37.16864" lon="-8.85526">
        <ele>24.17</ele>
        <time>2020-09-05T10:24:41Z</time>
      </trkpt>
      <trkpt lat="37.16845" lon="-8.8557">
        <ele>24.17</ele>
        <time>2020-09-05T10:24:49Z</time>
      </trkpt>
      <trkpt lat="37.16841" lon="-8.85577">
        <ele>24.17</ele>
        <time>2020-09-05T10:24:50Z</time>
      </trkpt>
      <trkpt lat="37.16839" lon="-8.85579">
        <ele>24.17</ele>
        <time>2020-09-05T10:24:51Z</time>
      </trkpt>
      <trkpt lat="37.16815" lon="-8.85618">
        <ele>24.17</ele>
        <time>2020-09-05T10:24:59Z</time>
      </trkpt>
      <trkpt lat="37.16801" lon="-8.85666">
        <ele>24.17</ele>
        <time>2020-09-05T10:25:08Z</time>
      </trkpt>
      <trkpt lat="37.16794" lon="-8.85695">
        <ele>24.17</ele>
        <time>2020-09-05T10:25:13Z</time>
      </trkpt>
      <trkpt lat="37.16793" lon="-8.85701">
        <ele>24.17</ele>
        <time>2020-09-05T10:25:14Z</time>
      </trkpt>
      <trkpt lat="37.16794" lon="-8.85707">
        <ele>25.13</ele>
        <time>2020-09-05T10:25:15Z</time>
      </trkpt>
      <trkpt lat="37.16796" lon="-8.85719">
        <ele>25.13</ele>
        <time>2020-09-05T10:25:17Z</time>
      </trkpt>
      <trkpt lat="37.16796" lon="-8.85725">
        <ele>25.13</ele>
        <time>2020-09-05T10:25:18Z</time>
      </trkpt>
      <trkpt lat="37.16795" lon="-8.85731">
        <ele>25.13</ele>
        <time>2020-09-05T10:25:19Z</time>
      </trkpt>
      <trkpt lat="37.16794" lon="-8.85739">
        <ele>25.13</ele>
        <time>2020-09-05T10:25:20Z</time>
      </trkpt>
      <trkpt lat="37.16792" lon="-8.85743">
        <ele>25.13</ele>
        <time>2020-09-05T10:25:21Z</time>
      </trkpt>
      <trkpt lat="37.16779" lon="-8.85792">
        <ele>25.13</ele>
        <time>2020-09-05T10:25:29Z</time>
      </trkpt>
      <trkpt lat="37.16776" lon="-8.85803">
        <ele>25.13</ele>
        <time>2020-09-05T10:25:31Z</time>
      </trkpt>
      <trkpt lat="37.16773" lon="-8.85808">
        <ele>25.13</ele>
        <time>2020-09-05T10:25:32Z</time>
      </trkpt>
      <trkpt lat="37.1677" lon="-8.85812">
        <ele>25.13</ele>
        <time>2020-09-05T10:25:33Z</time>
      </trkpt>
      <trkpt lat="37.16766" lon="-8.85816">
        <ele>25.13</ele>
        <time>2020-09-05T10:25:34Z</time>
      </trkpt>
      <trkpt lat="37.16762" lon="-8.85819">
        <ele>25.13</ele>
        <time>2020-09-05T10:25:35Z</time>
      </trkpt>
      <trkpt lat="37.16758" lon="-8.85822">
        <ele>25.13</ele>
        <time>2020-09-05T10:25:36Z</time>
      </trkpt>
      <trkpt lat="37.16738" lon="-8.85836">
        <ele>25.13</ele>
        <time>2020-09-05T10:25:41Z</time>
      </trkpt>
      <trkpt lat="37.16735" lon="-8.8584">
        <ele>25.13</ele>
        <time>2020-09-05T10:25:42Z</time>
      </trkpt>
      <trkpt lat="37.16733" lon="-8.85846">
        <ele>25.13</ele>
        <time>2020-09-05T10:25:43Z</time>
      </trkpt>
      <trkpt lat="37.16733" lon="-8.85852">
        <ele>25.13</ele>
        <time>2020-09-05T10:25:44Z</time>
      </trkpt>
      <trkpt lat="37.16733" lon="-8.85855">
        <ele>25.13</ele>
        <time>2020-09-05T10:25:45Z</time>
      </trkpt>
      <trkpt lat="37.16734" lon="-8.85861">
        <ele>25.13</ele>
        <time>2020-09-05T10:25:46Z</time>
      </trkpt>
      <trkpt lat="37.1674" lon="-8.85919">
        <ele>23.69</ele>
        <time>2020-09-05T10:25:56Z</time>
      </trkpt>
      <trkpt lat="37.1674" lon="-8.85925">
        <ele>23.69</ele>
        <time>2020-09-05T10:25:57Z</time>
      </trkpt>
      <trkpt lat="37.16748" lon="-8.85993">
        <ele>23.69</ele>
        <time>2020-09-05T10:26:08Z</time>
      </trkpt>
      <trkpt lat="37.16754" lon="-8.86071">
        <ele>23.21</ele>
        <time>2020-09-05T10:26:20Z</time>
      </trkpt>
      <trkpt lat="37.16756" lon="-8.86138">
        <ele>23.21</ele>
        <time>2020-09-05T10:26:31Z</time>
      </trkpt>
      <trkpt lat="37.16754" lon="-8.86154">
        <ele>25.13</ele>
        <time>2020-09-05T10:26:34Z</time>
      </trkpt>
      <trkpt lat="37.16748" lon="-8.862">
        <ele>26.57</ele>
        <time>2020-09-05T10:26:43Z</time>
      </trkpt>
      <trkpt lat="37.16747" lon="-8.8623">
        <ele>28.02</ele>
        <time>2020-09-05T10:26:49Z</time>
      </trkpt>
      <trkpt lat="37.16748" lon="-8.86235">
        <ele>28.02</ele>
        <time>2020-09-05T10:26:50Z</time>
      </trkpt>
      <trkpt lat="37.1675" lon="-8.86239">
        <ele>28.5</ele>
        <time>2020-09-05T10:26:51Z</time>
      </trkpt>
      <trkpt lat="37.16753" lon="-8.86243">
        <ele>28.5</ele>
        <time>2020-09-05T10:26:52Z</time>
      </trkpt>
      <trkpt lat="37.16756" lon="-8.86247">
        <ele>28.5</ele>
        <time>2020-09-05T10:26:53Z</time>
      </trkpt>
      <trkpt lat="37.16759" lon="-8.86249">
        <ele>28.5</ele>
        <time>2020-09-05T10:26:54Z</time>
      </trkpt>
      <trkpt lat="37.16763" lon="-8.86251">
        <ele>28.98</ele>
        <time>2020-09-05T10:26:55Z</time>
      </trkpt>
      <trkpt lat="37.16767" lon="-8.86251">
        <ele>29.46</ele>
        <time>2020-09-05T10:26:56Z</time>
      </trkpt>
      <trkpt lat="37.1677" lon="-8.8625">
        <ele>29.46</ele>
        <time>2020-09-05T10:26:57Z</time>
      </trkpt>
      <trkpt lat="37.16774" lon="-8.86248">
        <ele>29.46</ele>
        <time>2020-09-05T10:26:58Z</time>
      </trkpt>
      <trkpt lat="37.16776" lon="-8.86246">
        <ele>29.46</ele>
        <time>2020-09-05T10:26:59Z</time>
      </trkpt>
      <trkpt lat="37.16781" lon="-8.86243">
        <ele>29.46</ele>
        <time>2020-09-05T10:27:00Z</time>
      </trkpt>
      <trkpt lat="37.16786" lon="-8.86241">
        <ele>28.02</ele>
        <time>2020-09-05T10:27:01Z</time>
      </trkpt>
      <trkpt lat="37.16791" lon="-8.86238">
        <ele>28.02</ele>
        <time>2020-09-05T10:27:02Z</time>
      </trkpt>
      <trkpt lat="37.16796" lon="-8.86235">
        <ele>27.53</ele>
        <time>2020-09-05T10:27:03Z</time>
      </trkpt>
      <trkpt lat="37.16802" lon="-8.86234">
        <ele>27.05</ele>
        <time>2020-09-05T10:27:04Z</time>
      </trkpt>
      <trkpt lat="37.16808" lon="-8.86233">
        <ele>26.57</ele>
        <time>2020-09-05T10:27:05Z</time>
      </trkpt>
      <trkpt lat="37.16815" lon="-8.86233">
        <ele>26.57</ele>
        <time>2020-09-05T10:27:06Z</time>
      </trkpt>
      <trkpt lat="37.16821" lon="-8.86233">
        <ele>25.61</ele>
        <time>2020-09-05T10:27:07Z</time>
      </trkpt>
      <trkpt lat="37.16828" lon="-8.86234">
        <ele>25.13</ele>
        <time>2020-09-05T10:27:08Z</time>
      </trkpt>
      <trkpt lat="37.16864" lon="-8.8625">
        <ele>23.69</ele>
        <time>2020-09-05T10:27:14Z</time>
      </trkpt>
      <trkpt lat="37.16868" lon="-8.86254">
        <ele>23.69</ele>
        <time>2020-09-05T10:27:15Z</time>
      </trkpt>
      <trkpt lat="37.16872" lon="-8.86258">
        <ele>23.69</ele>
        <time>2020-09-05T10:27:16Z</time>
      </trkpt>
      <trkpt lat="37.16875" lon="-8.86263">
        <ele>23.21</ele>
        <time>2020-09-05T10:27:17Z</time>
      </trkpt>
      <trkpt lat="37.16877" lon="-8.86268">
        <ele>23.21</ele>
        <time>2020-09-05T10:27:18Z</time>
      </trkpt>
      <trkpt lat="37.16879" lon="-8.86275">
        <ele>23.21</ele>
        <time>2020-09-05T10:27:19Z</time>
      </trkpt>
      <trkpt lat="37.1688" lon="-8.86281">
        <ele>23.21</ele>
        <time>2020-09-05T10:27:20Z</time>
      </trkpt>
      <trkpt lat="37.1688" lon="-8.86287">
        <ele>23.21</ele>
        <time>2020-09-05T10:27:21Z</time>
      </trkpt>
      <trkpt lat="37.1688" lon="-8.86293">
        <ele>23.21</ele>
        <time>2020-09-05T10:27:22Z</time>
      </trkpt>
      <trkpt lat="37.16881" lon="-8.86299">
        <ele>23.21</ele>
        <time>2020-09-05T10:27:23Z</time>
      </trkpt>
      <trkpt lat="37.16881" lon="-8.86305">
        <ele>23.21</ele>
        <time>2020-09-05T10:27:24Z</time>
      </trkpt>
      <trkpt lat="37.16882" lon="-8.8631">
        <ele>23.21</ele>
        <time>2020-09-05T10:27:25Z</time>
      </trkpt>
      <trkpt lat="37.16884" lon="-8.86316">
        <ele>24.65</ele>
        <time>2020-09-05T10:27:26Z</time>
      </trkpt>
      <trkpt lat="37.16886" lon="-8.8632">
        <ele>24.65</ele>
        <time>2020-09-05T10:27:27Z</time>
      </trkpt>
      <trkpt lat="37.16889" lon="-8.86325">
        <ele>24.65</ele>
        <time>2020-09-05T10:27:28Z</time>
      </trkpt>
      <trkpt lat="37.16892" lon="-8.86329">
        <ele>25.13</ele>
        <time>2020-09-05T10:27:29Z</time>
      </trkpt>
      <trkpt lat="37.16895" lon="-8.86333">
        <ele>25.13</ele>
        <time>2020-09-05T10:27:30Z</time>
      </trkpt>
      <trkpt lat="37.16922" lon="-8.86359">
        <ele>26.09</ele>
        <time>2020-09-05T10:27:38Z</time>
      </trkpt>
      <trkpt lat="37.16966" lon="-8.86391">
        <ele>26.09</ele>
        <time>2020-09-05T10:27:49Z</time>
      </trkpt>
      <trkpt lat="37.16985" lon="-8.86405">
        <ele>26.09</ele>
        <time>2020-09-05T10:27:54Z</time>
      </trkpt>
      <trkpt lat="37.16989" lon="-8.86407">
        <ele>26.57</ele>
        <time>2020-09-05T10:27:55Z</time>
      </trkpt>
      <trkpt lat="37.17023" lon="-8.8641">
        <ele>27.53</ele>
        <time>2020-09-05T10:28:03Z</time>
      </trkpt>
      <trkpt lat="37.1706" lon="-8.86411">
        <ele>29.94</ele>
        <time>2020-09-05T10:28:12Z</time>
      </trkpt>
      <trkpt lat="37.17086" lon="-8.86409">
        <ele>30.42</ele>
        <time>2020-09-05T10:28:19Z</time>
      </trkpt>
      <trkpt lat="37.17091" lon="-8.86408">
        <ele>30.42</ele>
        <time>2020-09-05T10:28:20Z</time>
      </trkpt>
      <trkpt lat="37.17119" lon="-8.86402">
        <ele>31.38</ele>
        <time>2020-09-05T10:28:28Z</time>
      </trkpt>
      <trkpt lat="37.17139" lon="-8.86417">
        <ele>31.38</ele>
        <time>2020-09-05T10:28:34Z</time>
      </trkpt>
      <trkpt lat="37.17143" lon="-8.86419">
        <ele>31.38</ele>
        <time>2020-09-05T10:28:35Z</time>
      </trkpt>
      <trkpt lat="37.17168" lon="-8.86431">
        <ele>29.46</ele>
        <time>2020-09-05T10:28:41Z</time>
      </trkpt>
      <trkpt lat="37.17197" lon="-8.86456">
        <ele>27.05</ele>
        <time>2020-09-05T10:28:47Z</time>
      </trkpt>
      <trkpt lat="37.17214" lon="-8.86471">
        <ele>25.61</ele>
        <time>2020-09-05T10:28:50Z</time>
      </trkpt>
      <trkpt lat="37.17218" lon="-8.86477">
        <ele>25.61</ele>
        <time>2020-09-05T10:28:51Z</time>
      </trkpt>
      <trkpt lat="37.17245" lon="-8.86521">
        <ele>24.65</ele>
        <time>2020-09-05T10:28:58Z</time>
      </trkpt>
      <trkpt lat="37.17266" lon="-8.86555">
        <ele>24.65</ele>
        <time>2020-09-05T10:29:05Z</time>
      </trkpt>
      <trkpt lat="37.17273" lon="-8.86571">
        <ele>24.65</ele>
        <time>2020-09-05T10:29:08Z</time>
      </trkpt>
      <trkpt lat="37.17276" lon="-8.86576">
        <ele>24.65</ele>
        <time>2020-09-05T10:29:09Z</time>
      </trkpt>
      <trkpt lat="37.17279" lon="-8.8658">
        <ele>24.65</ele>
        <time>2020-09-05T10:29:10Z</time>
      </trkpt>
      <trkpt lat="37.17297" lon="-8.86611">
        <ele>24.17</ele>
        <time>2020-09-05T10:29:17Z</time>
      </trkpt>
      <trkpt lat="37.17304" lon="-8.86621">
        <ele>23.21</ele>
        <time>2020-09-05T10:29:19Z</time>
      </trkpt>
      <trkpt lat="37.17309" lon="-8.86626">
        <ele>22.25</ele>
        <time>2020-09-05T10:29:20Z</time>
      </trkpt>
      <trkpt lat="37.17314" lon="-8.86629">
        <ele>22.25</ele>
        <time>2020-09-05T10:29:21Z</time>
      </trkpt>
      <trkpt lat="37.17321" lon="-8.86632">
        <ele>22.25</ele>
        <time>2020-09-05T10:29:22Z</time>
      </trkpt>
      <trkpt lat="37.17327" lon="-8.86633">
        <ele>21.29</ele>
        <time>2020-09-05T10:29:23Z</time>
      </trkpt>
      <trkpt lat="37.17334" lon="-8.86634">
        <ele>20.81</ele>
        <time>2020-09-05T10:29:24Z</time>
      </trkpt>
      <trkpt lat="37.17395" lon="-8.86646">
        <ele>19.84</ele>
        <time>2020-09-05T10:29:34Z</time>
      </trkpt>
      <trkpt lat="37.17465" lon="-8.86658">
        <ele>20.32</ele>
        <time>2020-09-05T10:29:47Z</time>
      </trkpt>
      <trkpt lat="37.17495" lon="-8.86664">
        <ele>20.32</ele>
        <time>2020-09-05T10:29:53Z</time>
      </trkpt>
      <trkpt lat="37.175" lon="-8.86666">
        <ele>19.84</ele>
        <time>2020-09-05T10:29:54Z</time>
      </trkpt>
      <trkpt lat="37.17513" lon="-8.86674">
        <ele>19.84</ele>
        <time>2020-09-05T10:29:57Z</time>
      </trkpt>
      <trkpt lat="37.17518" lon="-8.86675">
        <ele>19.84</ele>
        <time>2020-09-05T10:29:58Z</time>
      </trkpt>
      <trkpt lat="37.17523" lon="-8.86675">
        <ele>19.84</ele>
        <time>2020-09-05T10:29:59Z</time>
      </trkpt>
      <trkpt lat="37.17528" lon="-8.86675">
        <ele>19.84</ele>
        <time>2020-09-05T10:30:00Z</time>
      </trkpt>
      <trkpt lat="37.17534" lon="-8.86674">
        <ele>19.84</ele>
        <time>2020-09-05T10:30:01Z</time>
      </trkpt>
      <trkpt lat="37.17539" lon="-8.86674">
        <ele>19.84</ele>
        <time>2020-09-05T10:30:02Z</time>
      </trkpt>
      <trkpt lat="37.17575" lon="-8.8667">
        <ele>19.84</ele>
        <time>2020-09-05T10:30:09Z</time>
      </trkpt>
      <trkpt lat="37.1758" lon="-8.86671">
        <ele>19.84</ele>
        <time>2020-09-05T10:30:10Z</time>
      </trkpt>
      <trkpt lat="37.17585" lon="-8.86673">
        <ele>19.84</ele>
        <time>2020-09-05T10:30:11Z</time>
      </trkpt>
      <trkpt lat="37.17589" lon="-8.86675">
        <ele>19.84</ele>
        <time>2020-09-05T10:30:12Z</time>
      </trkpt>
      <trkpt lat="37.17593" lon="-8.86679">
        <ele>19.84</ele>
        <time>2020-09-05T10:30:13Z</time>
      </trkpt>
      <trkpt lat="37.17597" lon="-8.86682">
        <ele>19.84</ele>
        <time>2020-09-05T10:30:14Z</time>
      </trkpt>
      <trkpt lat="37.17628" lon="-8.86717">
        <ele>21.77</ele>
        <time>2020-09-05T10:30:23Z</time>
      </trkpt>
      <trkpt lat="37.17631" lon="-8.86721">
        <ele>21.77</ele>
        <time>2020-09-05T10:30:24Z</time>
      </trkpt>
      <trkpt lat="37.17659" lon="-8.86765">
        <ele>20.32</ele>
        <time>2020-09-05T10:30:34Z</time>
      </trkpt>
      <trkpt lat="37.17684" lon="-8.86804">
        <ele>17.92</ele>
        <time>2020-09-05T10:30:40Z</time>
      </trkpt>
      <trkpt lat="37.17691" lon="-8.86827">
        <ele>17.92</ele>
        <time>2020-09-05T10:30:43Z</time>
      </trkpt>
      <trkpt lat="37.17703" lon="-8.86881">
        <ele>17.44</ele>
        <time>2020-09-05T10:30:51Z</time>
      </trkpt>
      <trkpt lat="37.17709" lon="-8.86932">
        <ele>16.96</ele>
        <time>2020-09-05T10:30:59Z</time>
      </trkpt>
      <trkpt lat="37.17719" lon="-8.86993">
        <ele>16.96</ele>
        <time>2020-09-05T10:31:09Z</time>
      </trkpt>
      <trkpt lat="37.17744" lon="-8.87036">
        <ele>16.48</ele>
        <time>2020-09-05T10:31:17Z</time>
      </trkpt>
      <trkpt lat="37.17766" lon="-8.87084">
        <ele>16</ele>
        <time>2020-09-05T10:31:26Z</time>
      </trkpt>
      <trkpt lat="37.17777" lon="-8.87107">
        <ele>16</ele>
        <time>2020-09-05T10:31:30Z</time>
      </trkpt>
      <trkpt lat="37.1778" lon="-8.87112">
        <ele>16</ele>
        <time>2020-09-05T10:31:31Z</time>
      </trkpt>
      <trkpt lat="37.17784" lon="-8.87116">
        <ele>15.04</ele>
        <time>2020-09-05T10:31:32Z</time>
      </trkpt>
      <trkpt lat="37.17788" lon="-8.8712">
        <ele>15.04</ele>
        <time>2020-09-05T10:31:33Z</time>
      </trkpt>
      <trkpt lat="37.17792" lon="-8.87124">
        <ele>15.04</ele>
        <time>2020-09-05T10:31:34Z</time>
      </trkpt>
      <trkpt lat="37.17818" lon="-8.87146">
        <ele>16.48</ele>
        <time>2020-09-05T10:31:41Z</time>
      </trkpt>
      <trkpt lat="37.17821" lon="-8.8715">
        <ele>16.48</ele>
        <time>2020-09-05T10:31:42Z</time>
      </trkpt>
      <trkpt lat="37.17827" lon="-8.87159">
        <ele>16.48</ele>
        <time>2020-09-05T10:31:44Z</time>
      </trkpt>
      <trkpt lat="37.1783" lon="-8.87164">
        <ele>16.48</ele>
        <time>2020-09-05T10:31:45Z</time>
      </trkpt>
      <trkpt lat="37.1785" lon="-8.87206">
        <ele>16.96</ele>
        <time>2020-09-05T10:31:53Z</time>
      </trkpt>
      <trkpt lat="37.17851" lon="-8.87212">
        <ele>16.96</ele>
        <time>2020-09-05T10:31:54Z</time>
      </trkpt>
      <trkpt lat="37.17852" lon="-8.87219">
        <ele>16.96</ele>
        <time>2020-09-05T10:31:55Z</time>
      </trkpt>
      <trkpt lat="37.17852" lon="-8.87226">
        <ele>16.96</ele>
        <time>2020-09-05T10:31:56Z</time>
      </trkpt>
      <trkpt lat="37.17851" lon="-8.87232">
        <ele>16.96</ele>
        <time>2020-09-05T10:31:57Z</time>
      </trkpt>
      <trkpt lat="37.17849" lon="-8.87295">
        <ele>15.04</ele>
        <time>2020-09-05T10:32:06Z</time>
      </trkpt>
      <trkpt lat="37.17838" lon="-8.87349">
        <ele>15.04</ele>
        <time>2020-09-05T10:32:15Z</time>
      </trkpt>
      <trkpt lat="37.17831" lon="-8.87419">
        <ele>15.04</ele>
        <time>2020-09-05T10:32:27Z</time>
      </trkpt>
      <trkpt lat="37.17826" lon="-8.87473">
        <ele>15.04</ele>
        <time>2020-09-05T10:32:35Z</time>
      </trkpt>
      <trkpt lat="37.17827" lon="-8.87479">
        <ele>15.04</ele>
        <time>2020-09-05T10:32:36Z</time>
      </trkpt>
      <trkpt lat="37.17828" lon="-8.87486">
        <ele>14.56</ele>
        <time>2020-09-05T10:32:37Z</time>
      </trkpt>
      <trkpt lat="37.1783" lon="-8.87492">
        <ele>14.56</ele>
        <time>2020-09-05T10:32:38Z</time>
      </trkpt>
      <trkpt lat="37.17832" lon="-8.87498">
        <ele>14.56</ele>
        <time>2020-09-05T10:32:39Z</time>
      </trkpt>
      <trkpt lat="37.17836" lon="-8.87503">
        <ele>14.56</ele>
        <time>2020-09-05T10:32:40Z</time>
      </trkpt>
      <trkpt lat="37.17839" lon="-8.87507">
        <ele>14.56</ele>
        <time>2020-09-05T10:32:41Z</time>
      </trkpt>
      <trkpt lat="37.17844" lon="-8.87511">
        <ele>13.6</ele>
        <time>2020-09-05T10:32:42Z</time>
      </trkpt>
      <trkpt lat="37.1785" lon="-8.87513">
        <ele>13.6</ele>
        <time>2020-09-05T10:32:43Z</time>
      </trkpt>
      <trkpt lat="37.17855" lon="-8.87514">
        <ele>13.12</ele>
        <time>2020-09-05T10:32:44Z</time>
      </trkpt>
      <trkpt lat="37.17861" lon="-8.87515">
        <ele>12.63</ele>
        <time>2020-09-05T10:32:45Z</time>
      </trkpt>
      <trkpt lat="37.17867" lon="-8.87516">
        <ele>12.63</ele>
        <time>2020-09-05T10:32:46Z</time>
      </trkpt>
      <trkpt lat="37.17873" lon="-8.87518">
        <ele>12.63</ele>
        <time>2020-09-05T10:32:47Z</time>
      </trkpt>
      <trkpt lat="37.17878" lon="-8.87522">
        <ele>12.63</ele>
        <time>2020-09-05T10:32:48Z</time>
      </trkpt>
      <trkpt lat="37.17881" lon="-8.87527">
        <ele>12.15</ele>
        <time>2020-09-05T10:32:49Z</time>
      </trkpt>
      <trkpt lat="37.17884" lon="-8.87534">
        <ele>12.15</ele>
        <time>2020-09-05T10:32:50Z</time>
      </trkpt>
      <trkpt lat="37.17885" lon="-8.8754">
        <ele>12.15</ele>
        <time>2020-09-05T10:32:51Z</time>
      </trkpt>
      <trkpt lat="37.17902" lon="-8.87604">
        <ele>11.19</ele>
        <time>2020-09-05T10:33:01Z</time>
      </trkpt>
      <trkpt lat="37.17918" lon="-8.87664">
        <ele>11.19</ele>
        <time>2020-09-05T10:33:11Z</time>
      </trkpt>
      <trkpt lat="37.17937" lon="-8.87709">
        <ele>10.71</ele>
        <time>2020-09-05T10:33:19Z</time>
      </trkpt>
      <trkpt lat="37.17946" lon="-8.87724">
        <ele>10.71</ele>
        <time>2020-09-05T10:33:22Z</time>
      </trkpt>
      <trkpt lat="37.17982" lon="-8.87778">
        <ele>10.23</ele>
        <time>2020-09-05T10:33:33Z</time>
      </trkpt>
      <trkpt lat="37.17986" lon="-8.87782">
        <ele>10.23</ele>
        <time>2020-09-05T10:33:34Z</time>
      </trkpt>
      <trkpt lat="37.18008" lon="-8.87805">
        <ele>10.23</ele>
        <time>2020-09-05T10:33:41Z</time>
      </trkpt>
      <trkpt lat="37.1802" lon="-8.8782">
        <ele>10.23</ele>
        <time>2020-09-05T10:33:48Z</time>
      </trkpt>
      <trkpt lat="37.18044" lon="-8.8785">
        <ele>10.23</ele>
        <time>2020-09-05T10:33:56Z</time>
      </trkpt>
      <trkpt lat="37.18087" lon="-8.87902">
        <ele>10.23</ele>
        <time>2020-09-05T10:34:09Z</time>
      </trkpt>
      <trkpt lat="37.1812" lon="-8.87962">
        <ele>10.23</ele>
        <time>2020-09-05T10:34:21Z</time>
      </trkpt>
      <trkpt lat="37.18142" lon="-8.88007">
        <ele>10.23</ele>
        <time>2020-09-05T10:34:31Z</time>
      </trkpt>
      <trkpt lat="37.18144" lon="-8.88011">
        <ele>9.75</ele>
        <time>2020-09-05T10:34:35Z</time>
      </trkpt>
      <trkpt lat="37.18144" lon="-8.88011">
        <ele>9.75</ele>
        <time>2020-09-05T10:34:59Z</time>
      </trkpt>
      <trkpt lat="37.18144" lon="-8.88011">
        <ele>9.75</ele>
        <time>2020-09-05T10:35:24Z</time>
      </trkpt>
      <trkpt lat="37.18144" lon="-8.88011">
        <ele>9.75</ele>
        <time>2020-09-05T10:35:43Z</time>
      </trkpt>
      <trkpt lat="37.18148" lon="-8.88022">
        <ele>9.75</ele>
        <time>2020-09-05T10:35:49Z</time>
      </trkpt>
      <trkpt lat="37.1816" lon="-8.88052">
        <ele>9.75</ele>
        <time>2020-09-05T10:35:57Z</time>
      </trkpt>
      <trkpt lat="37.18176" lon="-8.88091">
        <ele>9.75</ele>
        <time>2020-09-05T10:36:06Z</time>
      </trkpt>
      <trkpt lat="37.18197" lon="-8.88136">
        <ele>9.75</ele>
        <time>2020-09-05T10:36:16Z</time>
      </trkpt>
      <trkpt lat="37.18219" lon="-8.88186">
        <ele>9.27</ele>
        <time>2020-09-05T10:36:26Z</time>
      </trkpt>
      <trkpt lat="37.1822" lon="-8.88192">
        <ele>9.27</ele>
        <time>2020-09-05T10:36:27Z</time>
      </trkpt>
      <trkpt lat="37.18221" lon="-8.88198">
        <ele>9.75</ele>
        <time>2020-09-05T10:36:28Z</time>
      </trkpt>
      <trkpt lat="37.18228" lon="-8.88255">
        <ele>9.75</ele>
        <time>2020-09-05T10:36:38Z</time>
      </trkpt>
      <trkpt lat="37.18241" lon="-8.88316">
        <ele>9.75</ele>
        <time>2020-09-05T10:36:49Z</time>
      </trkpt>
      <trkpt lat="37.18256" lon="-8.88391">
        <ele>9.27</ele>
        <time>2020-09-05T10:37:02Z</time>
      </trkpt>
      <trkpt lat="37.18266" lon="-8.88455">
        <ele>8.79</ele>
        <time>2020-09-05T10:37:13Z</time>
      </trkpt>
      <trkpt lat="37.18278" lon="-8.88517">
        <ele>8.79</ele>
        <time>2020-09-05T10:37:24Z</time>
      </trkpt>
      <trkpt lat="37.1828" lon="-8.88522">
        <ele>8.79</ele>
        <time>2020-09-05T10:37:25Z</time>
      </trkpt>
      <trkpt lat="37.18283" lon="-8.88527">
        <ele>8.79</ele>
        <time>2020-09-05T10:37:26Z</time>
      </trkpt>
      <trkpt lat="37.18286" lon="-8.88532">
        <ele>8.79</ele>
        <time>2020-09-05T10:37:27Z</time>
      </trkpt>
      <trkpt lat="37.18288" lon="-8.88537">
        <ele>8.79</ele>
        <time>2020-09-05T10:37:28Z</time>
      </trkpt>
      <trkpt lat="37.18291" lon="-8.88541">
        <ele>8.79</ele>
        <time>2020-09-05T10:37:29Z</time>
      </trkpt>
      <trkpt lat="37.18295" lon="-8.88545">
        <ele>8.79</ele>
        <time>2020-09-05T10:37:30Z</time>
      </trkpt>
      <trkpt lat="37.18299" lon="-8.88549">
        <ele>8.79</ele>
        <time>2020-09-05T10:37:31Z</time>
      </trkpt>
      <trkpt lat="37.18332" lon="-8.8859">
        <ele>8.31</ele>
        <time>2020-09-05T10:37:41Z</time>
      </trkpt>
      <trkpt lat="37.18335" lon="-8.88595">
        <ele>8.31</ele>
        <time>2020-09-05T10:37:42Z</time>
      </trkpt>
      <trkpt lat="37.1835" lon="-8.88643">
        <ele>8.31</ele>
        <time>2020-09-05T10:37:51Z</time>
      </trkpt>
      <trkpt lat="37.18362" lon="-8.88682">
        <ele>8.31</ele>
        <time>2020-09-05T10:37:58Z</time>
      </trkpt>
      <trkpt lat="37.18364" lon="-8.88686">
        <ele>8.31</ele>
        <time>2020-09-05T10:37:59Z</time>
      </trkpt>
      <trkpt lat="37.18374" lon="-8.887">
        <ele>8.31</ele>
        <time>2020-09-05T10:38:02Z</time>
      </trkpt>
      <trkpt lat="37.18384" lon="-8.8871">
        <ele>8.31</ele>
        <time>2020-09-05T10:38:05Z</time>
      </trkpt>
      <trkpt lat="37.18433" lon="-8.88742">
        <ele>8.31</ele>
        <time>2020-09-05T10:38:17Z</time>
      </trkpt>
      <trkpt lat="37.18478" lon="-8.88775">
        <ele>8.31</ele>
        <time>2020-09-05T10:38:28Z</time>
      </trkpt>
      <trkpt lat="37.18522" lon="-8.88806">
        <ele>8.31</ele>
        <time>2020-09-05T10:38:39Z</time>
      </trkpt>
      <trkpt lat="37.18553" lon="-8.8883">
        <ele>8.31</ele>
        <time>2020-09-05T10:38:47Z</time>
      </trkpt>
      <trkpt lat="37.18573" lon="-8.88847">
        <ele>7.83</ele>
        <time>2020-09-05T10:38:52Z</time>
      </trkpt>
      <trkpt lat="37.18576" lon="-8.88851">
        <ele>7.83</ele>
        <time>2020-09-05T10:38:53Z</time>
      </trkpt>
      <trkpt lat="37.18578" lon="-8.88856">
        <ele>7.83</ele>
        <time>2020-09-05T10:38:54Z</time>
      </trkpt>
      <trkpt lat="37.1858" lon="-8.88862">
        <ele>7.83</ele>
        <time>2020-09-05T10:38:55Z</time>
      </trkpt>
      <trkpt lat="37.1858" lon="-8.88868">
        <ele>7.83</ele>
        <time>2020-09-05T10:38:56Z</time>
      </trkpt>
      <trkpt lat="37.1858" lon="-8.88873">
        <ele>7.83</ele>
        <time>2020-09-05T10:38:57Z</time>
      </trkpt>
      <trkpt lat="37.18579" lon="-8.88879">
        <ele>7.83</ele>
        <time>2020-09-05T10:38:58Z</time>
      </trkpt>
      <trkpt lat="37.18577" lon="-8.88885">
        <ele>7.83</ele>
        <time>2020-09-05T10:38:59Z</time>
      </trkpt>
      <trkpt lat="37.18574" lon="-8.8889">
        <ele>7.83</ele>
        <time>2020-09-05T10:39:00Z</time>
      </trkpt>
      <trkpt lat="37.18571" lon="-8.88894">
        <ele>7.83</ele>
        <time>2020-09-05T10:39:01Z</time>
      </trkpt>
      <trkpt lat="37.18568" lon="-8.88899">
        <ele>7.83</ele>
        <time>2020-09-05T10:39:02Z</time>
      </trkpt>
      <trkpt lat="37.18537" lon="-8.88945">
        <ele>7.35</ele>
        <time>2020-09-05T10:39:12Z</time>
      </trkpt>
      <trkpt lat="37.18501" lon="-8.89009">
        <ele>7.35</ele>
        <time>2020-09-05T10:39:24Z</time>
      </trkpt>
      <trkpt lat="37.18498" lon="-8.89014">
        <ele>7.35</ele>
        <time>2020-09-05T10:39:25Z</time>
      </trkpt>
      <trkpt lat="37.18496" lon="-8.8902">
        <ele>7.35</ele>
        <time>2020-09-05T10:39:26Z</time>
      </trkpt>
      <trkpt lat="37.18495" lon="-8.89026">
        <ele>7.35</ele>
        <time>2020-09-05T10:39:27Z</time>
      </trkpt>
      <trkpt lat="37.18494" lon="-8.89032">
        <ele>7.35</ele>
        <time>2020-09-05T10:39:28Z</time>
      </trkpt>
      <trkpt lat="37.18494" lon="-8.89038">
        <ele>7.35</ele>
        <time>2020-09-05T10:39:29Z</time>
      </trkpt>
      <trkpt lat="37.18494" lon="-8.89044">
        <ele>7.35</ele>
        <time>2020-09-05T10:39:30Z</time>
      </trkpt>
      <trkpt lat="37.18494" lon="-8.8905">
        <ele>7.35</ele>
        <time>2020-09-05T10:39:31Z</time>
      </trkpt>
      <trkpt lat="37.185" lon="-8.89097">
        <ele>8.79</ele>
        <time>2020-09-05T10:39:40Z</time>
      </trkpt>
      <trkpt lat="37.18507" lon="-8.8915">
        <ele>9.75</ele>
        <time>2020-09-05T10:39:50Z</time>
      </trkpt>
      <trkpt lat="37.18517" lon="-8.89218">
        <ele>9.75</ele>
        <time>2020-09-05T10:40:02Z</time>
      </trkpt>
      <trkpt lat="37.18518" lon="-8.89224">
        <ele>9.75</ele>
        <time>2020-09-05T10:40:03Z</time>
      </trkpt>
      <trkpt lat="37.18528" lon="-8.89257">
        <ele>9.75</ele>
        <time>2020-09-05T10:40:09Z</time>
      </trkpt>
      <trkpt lat="37.18531" lon="-8.89261">
        <ele>9.75</ele>
        <time>2020-09-05T10:40:10Z</time>
      </trkpt>
      <trkpt lat="37.18541" lon="-8.89274">
        <ele>9.75</ele>
        <time>2020-09-05T10:40:13Z</time>
      </trkpt>
      <trkpt lat="37.18544" lon="-8.89278">
        <ele>9.75</ele>
        <time>2020-09-05T10:40:14Z</time>
      </trkpt>
      <trkpt lat="37.18564" lon="-8.89292">
        <ele>9.75</ele>
        <time>2020-09-05T10:40:19Z</time>
      </trkpt>
      <trkpt lat="37.18568" lon="-8.89293">
        <ele>9.75</ele>
        <time>2020-09-05T10:40:20Z</time>
      </trkpt>
      <trkpt lat="37.18573" lon="-8.89294">
        <ele>9.75</ele>
        <time>2020-09-05T10:40:21Z</time>
      </trkpt>
      <trkpt lat="37.18577" lon="-8.89294">
        <ele>9.75</ele>
        <time>2020-09-05T10:40:22Z</time>
      </trkpt>
      <trkpt lat="37.18582" lon="-8.89294">
        <ele>9.75</ele>
        <time>2020-09-05T10:40:23Z</time>
      </trkpt>
      <trkpt lat="37.18587" lon="-8.89293">
        <ele>9.75</ele>
        <time>2020-09-05T10:40:24Z</time>
      </trkpt>
      <trkpt lat="37.18592" lon="-8.89291">
        <ele>9.75</ele>
        <time>2020-09-05T10:40:25Z</time>
      </trkpt>
      <trkpt lat="37.18629" lon="-8.89274">
        <ele>10.71</ele>
        <time>2020-09-05T10:40:34Z</time>
      </trkpt>
      <trkpt lat="37.18641" lon="-8.89268">
        <ele>10.71</ele>
        <time>2020-09-05T10:40:37Z</time>
      </trkpt>
      <trkpt lat="37.18672" lon="-8.89263">
        <ele>11.67</ele>
        <time>2020-09-05T10:40:45Z</time>
      </trkpt>
      <trkpt lat="37.18675" lon="-8.89264">
        <ele>11.67</ele>
        <time>2020-09-05T10:40:46Z</time>
      </trkpt>
      <trkpt lat="37.18679" lon="-8.89266">
        <ele>11.67</ele>
        <time>2020-09-05T10:40:47Z</time>
      </trkpt>
      <trkpt lat="37.18692" lon="-8.89281">
        <ele>12.15</ele>
        <time>2020-09-05T10:40:54Z</time>
      </trkpt>
      <trkpt lat="37.18704" lon="-8.89282">
        <ele>12.63</ele>
        <time>2020-09-05T10:40:59Z</time>
      </trkpt>
      <trkpt lat="37.18715" lon="-8.89279">
        <ele>12.63</ele>
        <time>2020-09-05T10:41:05Z</time>
      </trkpt>
      <trkpt lat="37.18715" lon="-8.89281">
        <ele>12.63</ele>
        <time>2020-09-05T10:41:12Z</time>
      </trkpt>
      <trkpt lat="37.18714" lon="-8.8928">
        <ele>12.63</ele>
        <time>2020-09-05T10:41:30Z</time>
      </trkpt>
      <trkpt lat="37.18713" lon="-8.8928">
        <ele>12.63</ele>
        <time>2020-09-05T10:41:47Z</time>
      </trkpt>
      <trkpt lat="37.18714" lon="-8.89281">
        <ele>12.63</ele>
        <time>2020-09-05T10:42:05Z</time>
      </trkpt>
      <trkpt lat="37.18714" lon="-8.89281">
        <ele>12.63</ele>
        <time>2020-09-05T10:42:20Z</time>
      </trkpt>
      <trkpt lat="37.18714" lon="-8.89281">
        <ele>12.63</ele>
        <time>2020-09-05T10:42:37Z</time>
      </trkpt>
      <trkpt lat="37.18715" lon="-8.8928">
        <ele>12.63</ele>
        <time>2020-09-05T10:42:53Z</time>
      </trkpt>
      <trkpt lat="37.18715" lon="-8.8928">
        <ele>12.63</ele>
        <time>2020-09-05T10:43:07Z</time>
      </trkpt>
      <trkpt lat="37.18715" lon="-8.8928">
        <ele>13.12</ele>
        <time>2020-09-05T10:43:19Z</time>
      </trkpt>
      <trkpt lat="37.18715" lon="-8.89281">
        <ele>13.12</ele>
        <time>2020-09-05T10:43:35Z</time>
      </trkpt>
      <trkpt lat="37.18714" lon="-8.89281">
        <ele>13.12</ele>
        <time>2020-09-05T10:43:49Z</time>
      </trkpt>
      <trkpt lat="37.18714" lon="-8.8928">
        <ele>13.12</ele>
        <time>2020-09-05T10:44:03Z</time>
      </trkpt>
      <trkpt lat="37.18713" lon="-8.89281">
        <ele>13.12</ele>
        <time>2020-09-05T10:44:18Z</time>
      </trkpt>
      <trkpt lat="37.18714" lon="-8.8928">
        <ele>13.12</ele>
        <time>2020-09-05T10:44:36Z</time>
      </trkpt>
      <trkpt lat="37.18714" lon="-8.89281">
        <ele>13.12</ele>
        <time>2020-09-05T10:44:50Z</time>
      </trkpt>
      <trkpt lat="37.18715" lon="-8.89281">
        <ele>13.12</ele>
        <time>2020-09-05T10:45:04Z</time>
      </trkpt>
      <trkpt lat="37.18715" lon="-8.8928">
        <ele>13.12</ele>
        <time>2020-09-05T10:45:25Z</time>
      </trkpt>
      <trkpt lat="37.18715" lon="-8.8928">
        <ele>13.12</ele>
        <time>2020-09-05T10:45:41Z</time>
      </trkpt>
      <trkpt lat="37.18714" lon="-8.89278">
        <ele>13.12</ele>
        <time>2020-09-05T10:45:58Z</time>
      </trkpt>
      <trkpt lat="37.18712" lon="-8.89278">
        <ele>13.12</ele>
        <time>2020-09-05T10:46:05Z</time>
      </trkpt>
      <trkpt lat="37.18711" lon="-8.8928">
        <ele>13.6</ele>
        <time>2020-09-05T10:46:10Z</time>
      </trkpt>
      <trkpt lat="37.1871" lon="-8.89281">
        <ele>13.6</ele>
        <time>2020-09-05T10:46:11Z</time>
      </trkpt>
      <trkpt lat="37.18704" lon="-8.89292">
        <ele>13.12</ele>
        <time>2020-09-05T10:46:17Z</time>
      </trkpt>
      <trkpt lat="37.18704" lon="-8.89295">
        <ele>13.12</ele>
        <time>2020-09-05T10:46:18Z</time>
      </trkpt>
      <trkpt lat="37.18705" lon="-8.89299">
        <ele>13.6</ele>
        <time>2020-09-05T10:46:19Z</time>
      </trkpt>
      <trkpt lat="37.18706" lon="-8.89301">
        <ele>13.12</ele>
        <time>2020-09-05T10:46:20Z</time>
      </trkpt>
      <trkpt lat="37.18707" lon="-8.89304">
        <ele>13.12</ele>
        <time>2020-09-05T10:46:21Z</time>
      </trkpt>
      <trkpt lat="37.18709" lon="-8.89306">
        <ele>13.12</ele>
        <time>2020-09-05T10:46:22Z</time>
      </trkpt>
      <trkpt lat="37.18719" lon="-8.89323">
        <ele>13.6</ele>
        <time>2020-09-05T10:46:30Z</time>
      </trkpt>
      <trkpt lat="37.18729" lon="-8.89335">
        <ele>13.6</ele>
        <time>2020-09-05T10:46:38Z</time>
      </trkpt>
      <trkpt lat="37.18735" lon="-8.8934">
        <ele>13.6</ele>
        <time>2020-09-05T10:46:42Z</time>
      </trkpt>
      <trkpt lat="37.18735" lon="-8.89341">
        <ele>13.6</ele>
        <time>2020-09-05T10:46:43Z</time>
      </trkpt>
      <trkpt lat="37.18736" lon="-8.89343">
        <ele>13.6</ele>
        <time>2020-09-05T10:46:44Z</time>
      </trkpt>
      <trkpt lat="37.18736" lon="-8.89345">
        <ele>13.6</ele>
        <time>2020-09-05T10:46:45Z</time>
      </trkpt>
      <trkpt lat="37.18736" lon="-8.89346">
        <ele>13.6</ele>
        <time>2020-09-05T10:46:46Z</time>
      </trkpt>
      <trkpt lat="37.18736" lon="-8.89347">
        <ele>13.6</ele>
        <time>2020-09-05T10:46:47Z</time>
      </trkpt>
      <trkpt lat="37.18737" lon="-8.89349">
        <ele>13.6</ele>
        <time>2020-09-05T10:46:48Z</time>
      </trkpt>
      <trkpt lat="37.18738" lon="-8.89352">
        <ele>13.6</ele>
        <time>2020-09-05T10:46:55Z</time>
      </trkpt>
      <trkpt lat="37.18738" lon="-8.89352">
        <ele>13.6</ele>
        <time>2020-09-05T10:47:01Z</time>
      </trkpt>
      <trkpt lat="37.18739" lon="-8.89352">
        <ele>13.6</ele>
        <time>2020-09-05T10:47:02Z</time>
      </trkpt>
      <trkpt lat="37.18741" lon="-8.89352">
        <ele>13.6</ele>
        <time>2020-09-05T10:47:03Z</time>
      </trkpt>
      <trkpt lat="37.18739" lon="-8.89347">
        <ele>13.6</ele>
        <time>2020-09-05T10:47:06Z</time>
      </trkpt>
      <trkpt lat="37.18737" lon="-8.89345">
        <ele>13.6</ele>
        <time>2020-09-05T10:47:07Z</time>
      </trkpt>
      <trkpt lat="37.18734" lon="-8.89344">
        <ele>13.6</ele>
        <time>2020-09-05T10:47:08Z</time>
      </trkpt>
      <trkpt lat="37.18732" lon="-8.89342">
        <ele>13.6</ele>
        <time>2020-09-05T10:47:09Z</time>
      </trkpt>
      <trkpt lat="37.18708" lon="-8.89319">
        <ele>13.6</ele>
        <time>2020-09-05T10:47:19Z</time>
      </trkpt>
      <trkpt lat="37.18695" lon="-8.89309">
        <ele>13.6</ele>
        <time>2020-09-05T10:47:26Z</time>
      </trkpt>
      <trkpt lat="37.18683" lon="-8.89318">
        <ele>12.63</ele>
        <time>2020-09-05T10:47:32Z</time>
      </trkpt>
      <trkpt lat="37.18655" lon="-8.89354">
        <ele>12.63</ele>
        <time>2020-09-05T10:47:44Z</time>
      </trkpt>
      <trkpt lat="37.18629" lon="-8.89386">
        <ele>12.63</ele>
        <time>2020-09-05T10:47:54Z</time>
      </trkpt>
      <trkpt lat="37.18604" lon="-8.89418">
        <ele>14.56</ele>
        <time>2020-09-05T10:48:05Z</time>
      </trkpt>
      <trkpt lat="37.18576" lon="-8.89454">
        <ele>16.96</ele>
        <time>2020-09-05T10:48:17Z</time>
      </trkpt>
      <trkpt lat="37.18551" lon="-8.89484">
        <ele>18.88</ele>
        <time>2020-09-05T10:48:27Z</time>
      </trkpt>
      <trkpt lat="37.18527" lon="-8.89518">
        <ele>20.81</ele>
        <time>2020-09-05T10:48:38Z</time>
      </trkpt>
      <trkpt lat="37.18512" lon="-8.89537">
        <ele>21.77</ele>
        <time>2020-09-05T10:48:45Z</time>
      </trkpt>
      <trkpt lat="37.18489" lon="-8.89562">
        <ele>24.65</ele>
        <time>2020-09-05T10:48:55Z</time>
      </trkpt>
      <trkpt lat="37.18469" lon="-8.89575">
        <ele>26.09</ele>
        <time>2020-09-05T10:49:03Z</time>
      </trkpt>
      <trkpt lat="37.18438" lon="-8.89581">
        <ele>27.05</ele>
        <time>2020-09-05T10:49:13Z</time>
      </trkpt>
      <trkpt lat="37.18415" lon="-8.89576">
        <ele>27.53</ele>
        <time>2020-09-05T10:49:20Z</time>
      </trkpt>
      <trkpt lat="37.18396" lon="-8.89565">
        <ele>26.57</ele>
        <time>2020-09-05T10:49:26Z</time>
      </trkpt>
      <trkpt lat="37.1838" lon="-8.89544">
        <ele>25.13</ele>
        <time>2020-09-05T10:49:33Z</time>
      </trkpt>
      <trkpt lat="37.18373" lon="-8.89529">
        <ele>24.65</ele>
        <time>2020-09-05T10:49:42Z</time>
      </trkpt>
      <trkpt lat="37.18367" lon="-8.89515">
        <ele>23.69</ele>
        <time>2020-09-05T10:49:51Z</time>
      </trkpt>
      <trkpt lat="37.1836" lon="-8.89499">
        <ele>23.21</ele>
        <time>2020-09-05T10:49:59Z</time>
      </trkpt>
      <trkpt lat="37.18359" lon="-8.89497">
        <ele>23.21</ele>
        <time>2020-09-05T10:50:00Z</time>
      </trkpt>
      <trkpt lat="37.18357" lon="-8.89496">
        <ele>23.21</ele>
        <time>2020-09-05T10:50:01Z</time>
      </trkpt>
      <trkpt lat="37.18356" lon="-8.89495">
        <ele>23.21</ele>
        <time>2020-09-05T10:50:02Z</time>
      </trkpt>
      <trkpt lat="37.18354" lon="-8.89493">
        <ele>23.21</ele>
        <time>2020-09-05T10:50:03Z</time>
      </trkpt>
      <trkpt lat="37.18353" lon="-8.89492">
        <ele>23.21</ele>
        <time>2020-09-05T10:50:04Z</time>
      </trkpt>
      <trkpt lat="37.18351" lon="-8.89492">
        <ele>22.73</ele>
        <time>2020-09-05T10:50:05Z</time>
      </trkpt>
      <trkpt lat="37.18349" lon="-8.89492">
        <ele>22.73</ele>
        <time>2020-09-05T10:50:06Z</time>
      </trkpt>
      <trkpt lat="37.18333" lon="-8.89495">
        <ele>22.25</ele>
        <time>2020-09-05T10:50:12Z</time>
      </trkpt>
      <trkpt lat="37.18329" lon="-8.89497">
        <ele>21.77</ele>
        <time>2020-09-05T10:50:17Z</time>
      </trkpt>
      <trkpt lat="37.18328" lon="-8.89497">
        <ele>21.77</ele>
        <time>2020-09-05T10:50:18Z</time>
      </trkpt>
      <trkpt lat="37.18326" lon="-8.89496">
        <ele>21.77</ele>
        <time>2020-09-05T10:50:19Z</time>
      </trkpt>
      <trkpt lat="37.18324" lon="-8.89497">
        <ele>21.77</ele>
        <time>2020-09-05T10:50:20Z</time>
      </trkpt>
      <trkpt lat="37.18322" lon="-8.89498">
        <ele>21.77</ele>
        <time>2020-09-05T10:50:21Z</time>
      </trkpt>
      <trkpt lat="37.1832" lon="-8.89499">
        <ele>21.77</ele>
        <time>2020-09-05T10:50:22Z</time>
      </trkpt>
      <trkpt lat="37.18319" lon="-8.89502">
        <ele>21.77</ele>
        <time>2020-09-05T10:50:23Z</time>
      </trkpt>
      <trkpt lat="37.18318" lon="-8.89504">
        <ele>21.77</ele>
        <time>2020-09-05T10:50:24Z</time>
      </trkpt>
      <trkpt lat="37.18316" lon="-8.89515">
        <ele>21.77</ele>
        <time>2020-09-05T10:50:30Z</time>
      </trkpt>
      <trkpt lat="37.18314" lon="-8.89516">
        <ele>21.77</ele>
        <time>2020-09-05T10:50:31Z</time>
      </trkpt>
      <trkpt lat="37.18311" lon="-8.89516">
        <ele>21.77</ele>
        <time>2020-09-05T10:50:32Z</time>
      </trkpt>
      <trkpt lat="37.1831" lon="-8.89515">
        <ele>21.77</ele>
        <time>2020-09-05T10:50:33Z</time>
      </trkpt>
      <trkpt lat="37.18308" lon="-8.89513">
        <ele>21.77</ele>
        <time>2020-09-05T10:50:34Z</time>
      </trkpt>
      <trkpt lat="37.18306" lon="-8.8951">
        <ele>21.77</ele>
        <time>2020-09-05T10:50:35Z</time>
      </trkpt>
      <trkpt lat="37.18307" lon="-8.89507">
        <ele>21.77</ele>
        <time>2020-09-05T10:50:36Z</time>
      </trkpt>
      <trkpt lat="37.18308" lon="-8.89506">
        <ele>21.29</ele>
        <time>2020-09-05T10:50:37Z</time>
      </trkpt>
      <trkpt lat="37.1831" lon="-8.89504">
        <ele>21.29</ele>
        <time>2020-09-05T10:50:38Z</time>
      </trkpt>
      <trkpt lat="37.18312" lon="-8.89503">
        <ele>21.29</ele>
        <time>2020-09-05T10:50:39Z</time>
      </trkpt>
      <trkpt lat="37.18315" lon="-8.89502">
        <ele>21.29</ele>
        <time>2020-09-05T10:50:40Z</time>
      </trkpt>
      <trkpt lat="37.18337" lon="-8.89491">
        <ele>21.29</ele>
        <time>2020-09-05T10:50:49Z</time>
      </trkpt>
      <trkpt lat="37.1835" lon="-8.89483">
        <ele>22.73</ele>
        <time>2020-09-05T10:50:55Z</time>
      </trkpt>
      <trkpt lat="37.18363" lon="-8.89473">
        <ele>24.17</ele>
        <time>2020-09-05T10:51:02Z</time>
      </trkpt>
      <trkpt lat="37.18374" lon="-8.89454">
        <ele>27.53</ele>
        <time>2020-09-05T10:51:10Z</time>
      </trkpt>
      <trkpt lat="37.1838" lon="-8.89438">
        <ele>30.9</ele>
        <time>2020-09-05T10:51:16Z</time>
      </trkpt>
      <trkpt lat="37.1838" lon="-8.89433">
        <ele>31.38</ele>
        <time>2020-09-05T10:51:18Z</time>
      </trkpt>
      <trkpt lat="37.18383" lon="-8.89426">
        <ele>32.82</ele>
        <time>2020-09-05T10:51:22Z</time>
      </trkpt>
      <trkpt lat="37.18384" lon="-8.89425">
        <ele>33.3</ele>
        <time>2020-09-05T10:51:23Z</time>
      </trkpt>
      <trkpt lat="37.18396" lon="-8.8942">
        <ele>35.23</ele>
        <time>2020-09-05T10:51:30Z</time>
      </trkpt>
      <trkpt lat="37.18405" lon="-8.89418">
        <ele>36.67</ele>
        <time>2020-09-05T10:51:35Z</time>
      </trkpt>
      <trkpt lat="37.18406" lon="-8.8942">
        <ele>36.67</ele>
        <time>2020-09-05T10:51:36Z</time>
      </trkpt>
      <trkpt lat="37.18407" lon="-8.89422">
        <ele>37.15</ele>
        <time>2020-09-05T10:51:37Z</time>
      </trkpt>
      <trkpt lat="37.18408" lon="-8.89424">
        <ele>37.15</ele>
        <time>2020-09-05T10:51:38Z</time>
      </trkpt>
      <trkpt lat="37.18409" lon="-8.89426">
        <ele>37.15</ele>
        <time>2020-09-05T10:51:39Z</time>
      </trkpt>
      <trkpt lat="37.18409" lon="-8.89429">
        <ele>36.67</ele>
        <time>2020-09-05T10:51:40Z</time>
      </trkpt>
      <trkpt lat="37.1841" lon="-8.89432">
        <ele>37.15</ele>
        <time>2020-09-05T10:51:41Z</time>
      </trkpt>
      <trkpt lat="37.1841" lon="-8.89456">
        <ele>37.15</ele>
        <time>2020-09-05T10:51:48Z</time>
      </trkpt>
      <trkpt lat="37.18411" lon="-8.8947">
        <ele>35.71</ele>
        <time>2020-09-05T10:51:52Z</time>
      </trkpt>
      <trkpt lat="37.18413" lon="-8.89505">
        <ele>34.26</ele>
        <time>2020-09-05T10:52:03Z</time>
      </trkpt>
      <trkpt lat="37.18417" lon="-8.89537">
        <ele>32.82</ele>
        <time>2020-09-05T10:52:12Z</time>
      </trkpt>
      <trkpt lat="37.18419" lon="-8.89559">
        <ele>30.9</ele>
        <time>2020-09-05T10:52:20Z</time>
      </trkpt>
      <trkpt lat="37.18417" lon="-8.8956">
        <ele>30.9</ele>
        <time>2020-09-05T10:52:21Z</time>
      </trkpt>
      <trkpt lat="37.18415" lon="-8.8956">
        <ele>29.94</ele>
        <time>2020-09-05T10:52:22Z</time>
      </trkpt>
      <trkpt lat="37.18413" lon="-8.8956">
        <ele>29.46</ele>
        <time>2020-09-05T10:52:23Z</time>
      </trkpt>
      <trkpt lat="37.1841" lon="-8.8956">
        <ele>29.46</ele>
        <time>2020-09-05T10:52:24Z</time>
      </trkpt>
      <trkpt lat="37.18407" lon="-8.89558">
        <ele>28.98</ele>
        <time>2020-09-05T10:52:25Z</time>
      </trkpt>
      <trkpt lat="37.18403" lon="-8.89556">
        <ele>28.98</ele>
        <time>2020-09-05T10:52:26Z</time>
      </trkpt>
      <trkpt lat="37.184" lon="-8.89554">
        <ele>28.5</ele>
        <time>2020-09-05T10:52:27Z</time>
      </trkpt>
      <trkpt lat="37.1839" lon="-8.89551">
        <ele>26.57</ele>
        <time>2020-09-05T10:52:31Z</time>
      </trkpt>
      <trkpt lat="37.18389" lon="-8.89553">
        <ele>25.61</ele>
        <time>2020-09-05T10:52:32Z</time>
      </trkpt>
      <trkpt lat="37.18389" lon="-8.89556">
        <ele>25.61</ele>
        <time>2020-09-05T10:52:33Z</time>
      </trkpt>
      <trkpt lat="37.1839" lon="-8.89557">
        <ele>25.61</ele>
        <time>2020-09-05T10:52:34Z</time>
      </trkpt>
      <trkpt lat="37.18392" lon="-8.89559">
        <ele>25.61</ele>
        <time>2020-09-05T10:52:35Z</time>
      </trkpt>
      <trkpt lat="37.18394" lon="-8.8956">
        <ele>25.61</ele>
        <time>2020-09-05T10:52:36Z</time>
      </trkpt>
      <trkpt lat="37.18397" lon="-8.89561">
        <ele>25.61</ele>
        <time>2020-09-05T10:52:37Z</time>
      </trkpt>
      <trkpt lat="37.18399" lon="-8.89562">
        <ele>25.61</ele>
        <time>2020-09-05T10:52:38Z</time>
      </trkpt>
      <trkpt lat="37.18402" lon="-8.89562">
        <ele>25.61</ele>
        <time>2020-09-05T10:52:39Z</time>
      </trkpt>
      <trkpt lat="37.18425" lon="-8.89572">
        <ele>27.05</ele>
        <time>2020-09-05T10:52:49Z</time>
      </trkpt>
      <trkpt lat="37.1845" lon="-8.89572">
        <ele>27.05</ele>
        <time>2020-09-05T10:52:57Z</time>
      </trkpt>
      <trkpt lat="37.18469" lon="-8.89564">
        <ele>25.61</ele>
        <time>2020-09-05T10:53:02Z</time>
      </trkpt>
      <trkpt lat="37.18474" lon="-8.89561">
        <ele>25.61</ele>
        <time>2020-09-05T10:53:03Z</time>
      </trkpt>
      <trkpt lat="37.18492" lon="-8.89547">
        <ele>24.17</ele>
        <time>2020-09-05T10:53:07Z</time>
      </trkpt>
      <trkpt lat="37.18497" lon="-8.89542">
        <ele>23.69</ele>
        <time>2020-09-05T10:53:08Z</time>
      </trkpt>
      <trkpt lat="37.18527" lon="-8.89505">
        <ele>21.29</ele>
        <time>2020-09-05T10:53:14Z</time>
      </trkpt>
      <trkpt lat="37.18566" lon="-8.89455">
        <ele>18.4</ele>
        <time>2020-09-05T10:53:21Z</time>
      </trkpt>
      <trkpt lat="37.18609" lon="-8.89401">
        <ele>15.04</ele>
        <time>2020-09-05T10:53:28Z</time>
      </trkpt>
      <trkpt lat="37.1866" lon="-8.89339">
        <ele>13.12</ele>
        <time>2020-09-05T10:53:37Z</time>
      </trkpt>
      <trkpt lat="37.18665" lon="-8.89334">
        <ele>13.12</ele>
        <time>2020-09-05T10:53:38Z</time>
      </trkpt>
      <trkpt lat="37.18689" lon="-8.89311">
        <ele>13.12</ele>
        <time>2020-09-05T10:53:43Z</time>
      </trkpt>
      <trkpt lat="37.18693" lon="-8.89308">
        <ele>13.12</ele>
        <time>2020-09-05T10:53:44Z</time>
      </trkpt>
      <trkpt lat="37.18698" lon="-8.89307">
        <ele>13.12</ele>
        <time>2020-09-05T10:53:45Z</time>
      </trkpt>
      <trkpt lat="37.18702" lon="-8.89308">
        <ele>13.12</ele>
        <time>2020-09-05T10:53:46Z</time>
      </trkpt>
      <trkpt lat="37.18705" lon="-8.8931">
        <ele>13.12</ele>
        <time>2020-09-05T10:53:47Z</time>
      </trkpt>
      <trkpt lat="37.18708" lon="-8.89313">
        <ele>13.12</ele>
        <time>2020-09-05T10:53:48Z</time>
      </trkpt>
      <trkpt lat="37.18712" lon="-8.89316">
        <ele>13.12</ele>
        <time>2020-09-05T10:53:49Z</time>
      </trkpt>
      <trkpt lat="37.18715" lon="-8.89319">
        <ele>13.12</ele>
        <time>2020-09-05T10:53:50Z</time>
      </trkpt>
      <trkpt lat="37.18741" lon="-8.89346">
        <ele>14.08</ele>
        <time>2020-09-05T10:53:59Z</time>
      </trkpt>
      <trkpt lat="37.18773" lon="-8.89363">
        <ele>14.08</ele>
        <time>2020-09-05T10:54:09Z</time>
      </trkpt>
      <trkpt lat="37.18804" lon="-8.89371">
        <ele>14.08</ele>
        <time>2020-09-05T10:54:18Z</time>
      </trkpt>
      <trkpt lat="37.18844" lon="-8.89382">
        <ele>14.08</ele>
        <time>2020-09-05T10:54:29Z</time>
      </trkpt>
      <trkpt lat="37.18874" lon="-8.89391">
        <ele>14.08</ele>
        <time>2020-09-05T10:54:38Z</time>
      </trkpt>
      <trkpt lat="37.18903" lon="-8.894">
        <ele>14.08</ele>
        <time>2020-09-05T10:54:47Z</time>
      </trkpt>
      <trkpt lat="37.18932" lon="-8.8941">
        <ele>14.08</ele>
        <time>2020-09-05T10:54:56Z</time>
      </trkpt>
      <trkpt lat="37.18959" lon="-8.8943">
        <ele>14.08</ele>
        <time>2020-09-05T10:55:05Z</time>
      </trkpt>
      <trkpt lat="37.18975" lon="-8.89449">
        <ele>12.63</ele>
        <time>2020-09-05T10:55:10Z</time>
      </trkpt>
      <trkpt lat="37.19007" lon="-8.89488">
        <ele>10.71</ele>
        <time>2020-09-05T10:55:18Z</time>
      </trkpt>
      <trkpt lat="37.19028" lon="-8.89512">
        <ele>10.71</ele>
        <time>2020-09-05T10:55:25Z</time>
      </trkpt>
      <trkpt lat="37.19035" lon="-8.8952">
        <ele>12.15</ele>
        <time>2020-09-05T10:55:28Z</time>
      </trkpt>
      <trkpt lat="37.19056" lon="-8.89538">
        <ele>12.63</ele>
        <time>2020-09-05T10:55:38Z</time>
      </trkpt>
      <trkpt lat="37.19066" lon="-8.89543">
        <ele>12.15</ele>
        <time>2020-09-05T10:55:45Z</time>
      </trkpt>
      <trkpt lat="37.1908" lon="-8.89555">
        <ele>11.19</ele>
        <time>2020-09-05T10:55:51Z</time>
      </trkpt>
      <trkpt lat="37.19107" lon="-8.89575">
        <ele>10.23</ele>
        <time>2020-09-05T10:55:59Z</time>
      </trkpt>
      <trkpt lat="37.19139" lon="-8.89596">
        <ele>10.23</ele>
        <time>2020-09-05T10:56:09Z</time>
      </trkpt>
      <trkpt lat="37.1916" lon="-8.89617">
        <ele>10.23</ele>
        <time>2020-09-05T10:56:16Z</time>
      </trkpt>
      <trkpt lat="37.19176" lon="-8.89654">
        <ele>9.27</ele>
        <time>2020-09-05T10:56:24Z</time>
      </trkpt>
      <trkpt lat="37.19188" lon="-8.89704">
        <ele>9.27</ele>
        <time>2020-09-05T10:56:35Z</time>
      </trkpt>
      <trkpt lat="37.19203" lon="-8.89753">
        <ele>10.23</ele>
        <time>2020-09-05T10:56:47Z</time>
      </trkpt>
      <trkpt lat="37.19214" lon="-8.89789">
        <ele>10.23</ele>
        <time>2020-09-05T10:56:56Z</time>
      </trkpt>
      <trkpt lat="37.19226" lon="-8.89828">
        <ele>10.23</ele>
        <time>2020-09-05T10:57:06Z</time>
      </trkpt>
      <trkpt lat="37.19238" lon="-8.89869">
        <ele>10.23</ele>
        <time>2020-09-05T10:57:16Z</time>
      </trkpt>
      <trkpt lat="37.19237" lon="-8.89897">
        <ele>10.71</ele>
        <time>2020-09-05T10:57:23Z</time>
      </trkpt>
      <trkpt lat="37.19218" lon="-8.89934">
        <ele>10.71</ele>
        <time>2020-09-05T10:57:33Z</time>
      </trkpt>
      <trkpt lat="37.19207" lon="-8.89963">
        <ele>10.71</ele>
        <time>2020-09-05T10:57:40Z</time>
      </trkpt>
      <trkpt lat="37.19209" lon="-8.89989">
        <ele>10.71</ele>
        <time>2020-09-05T10:57:47Z</time>
      </trkpt>
      <trkpt lat="37.19217" lon="-8.90015">
        <ele>10.71</ele>
        <time>2020-09-05T10:57:56Z</time>
      </trkpt>
      <trkpt lat="37.19221" lon="-8.90024">
        <ele>10.71</ele>
        <time>2020-09-05T10:58:02Z</time>
      </trkpt>
      <trkpt lat="37.19221" lon="-8.90026">
        <ele>10.71</ele>
        <time>2020-09-05T10:58:03Z</time>
      </trkpt>
      <trkpt lat="37.19215" lon="-8.90025">
        <ele>10.71</ele>
        <time>2020-09-05T10:58:06Z</time>
      </trkpt>
      <trkpt lat="37.19214" lon="-8.90022">
        <ele>10.71</ele>
        <time>2020-09-05T10:58:07Z</time>
      </trkpt>
      <trkpt lat="37.19214" lon="-8.9002">
        <ele>10.71</ele>
        <time>2020-09-05T10:58:08Z</time>
      </trkpt>
      <trkpt lat="37.19213" lon="-8.90017">
        <ele>10.71</ele>
        <time>2020-09-05T10:58:09Z</time>
      </trkpt>
      <trkpt lat="37.19206" lon="-8.89989">
        <ele>10.71</ele>
        <time>2020-09-05T10:58:17Z</time>
      </trkpt>
      <trkpt lat="37.19206" lon="-8.8995">
        <ele>10.71</ele>
        <time>2020-09-05T10:58:26Z</time>
      </trkpt>
      <trkpt lat="37.19222" lon="-8.8992">
        <ele>10.71</ele>
        <time>2020-09-05T10:58:35Z</time>
      </trkpt>
      <trkpt lat="37.19236" lon="-8.89886">
        <ele>10.71</ele>
        <time>2020-09-05T10:58:45Z</time>
      </trkpt>
      <trkpt lat="37.19232" lon="-8.89855">
        <ele>10.71</ele>
        <time>2020-09-05T10:58:52Z</time>
      </trkpt>
      <trkpt lat="37.19218" lon="-8.89809">
        <ele>10.71</ele>
        <time>2020-09-05T10:59:03Z</time>
      </trkpt>
      <trkpt lat="37.19206" lon="-8.89776">
        <ele>10.71</ele>
        <time>2020-09-05T10:59:11Z</time>
      </trkpt>
      <trkpt lat="37.19193" lon="-8.89731">
        <ele>10.71</ele>
        <time>2020-09-05T10:59:23Z</time>
      </trkpt>
      <trkpt lat="37.19183" lon="-8.89694">
        <ele>10.71</ele>
        <time>2020-09-05T10:59:32Z</time>
      </trkpt>
      <trkpt lat="37.19172" lon="-8.89646">
        <ele>9.75</ele>
        <time>2020-09-05T10:59:44Z</time>
      </trkpt>
      <trkpt lat="37.19157" lon="-8.89616">
        <ele>9.27</ele>
        <time>2020-09-05T10:59:52Z</time>
      </trkpt>
      <trkpt lat="37.19139" lon="-8.89599">
        <ele>10.71</ele>
        <time>2020-09-05T10:59:58Z</time>
      </trkpt>
      <trkpt lat="37.1911" lon="-8.89581">
        <ele>10.71</ele>
        <time>2020-09-05T11:00:06Z</time>
      </trkpt>
      <trkpt lat="37.19087" lon="-8.89564">
        <ele>11.19</ele>
        <time>2020-09-05T11:00:15Z</time>
      </trkpt>
      <trkpt lat="37.19066" lon="-8.89548">
        <ele>12.15</ele>
        <time>2020-09-05T11:00:26Z</time>
      </trkpt>
      <trkpt lat="37.19054" lon="-8.89539">
        <ele>12.63</ele>
        <time>2020-09-05T11:00:35Z</time>
      </trkpt>
      <trkpt lat="37.19038" lon="-8.89526">
        <ele>12.63</ele>
        <time>2020-09-05T11:00:43Z</time>
      </trkpt>
      <trkpt lat="37.19026" lon="-8.89515">
        <ele>12.63</ele>
        <time>2020-09-05T11:00:49Z</time>
      </trkpt>
      <trkpt lat="37.19006" lon="-8.89493">
        <ele>11.19</ele>
        <time>2020-09-05T11:00:56Z</time>
      </trkpt>
      <trkpt lat="37.18981" lon="-8.89461">
        <ele>11.19</ele>
        <time>2020-09-05T11:01:06Z</time>
      </trkpt>
      <trkpt lat="37.18963" lon="-8.8944">
        <ele>13.12</ele>
        <time>2020-09-05T11:01:15Z</time>
      </trkpt>
      <trkpt lat="37.1894" lon="-8.8942">
        <ele>14.56</ele>
        <time>2020-09-05T11:01:26Z</time>
      </trkpt>
      <trkpt lat="37.18915" lon="-8.89408">
        <ele>14.56</ele>
        <time>2020-09-05T11:01:36Z</time>
      </trkpt>
      <trkpt lat="37.18892" lon="-8.894">
        <ele>14.56</ele>
        <time>2020-09-05T11:01:45Z</time>
      </trkpt>
      <trkpt lat="37.18868" lon="-8.89393">
        <ele>14.56</ele>
        <time>2020-09-05T11:01:56Z</time>
      </trkpt>
      <trkpt lat="37.18845" lon="-8.89386">
        <ele>14.56</ele>
        <time>2020-09-05T11:02:05Z</time>
      </trkpt>
      <trkpt lat="37.18813" lon="-8.89377">
        <ele>14.56</ele>
        <time>2020-09-05T11:02:15Z</time>
      </trkpt>
      <trkpt lat="37.18778" lon="-8.89366">
        <ele>14.56</ele>
        <time>2020-09-05T11:02:28Z</time>
      </trkpt>
      <trkpt lat="37.18758" lon="-8.8936">
        <ele>14.56</ele>
        <time>2020-09-05T11:02:38Z</time>
      </trkpt>
      <trkpt lat="37.18742" lon="-8.89353">
        <ele>14.56</ele>
        <time>2020-09-05T11:02:47Z</time>
      </trkpt>
      <trkpt lat="37.18733" lon="-8.89347">
        <ele>14.56</ele>
        <time>2020-09-05T11:02:55Z</time>
      </trkpt>
      <trkpt lat="37.18731" lon="-8.89349">
        <ele>14.56</ele>
        <time>2020-09-05T11:03:01Z</time>
      </trkpt>
      <trkpt lat="37.18732" lon="-8.8935">
        <ele>14.56</ele>
        <time>2020-09-05T11:03:11Z</time>
      </trkpt>
      <trkpt lat="37.18732" lon="-8.8935">
        <ele>14.56</ele>
        <time>2020-09-05T11:03:24Z</time>
      </trkpt>
      <trkpt lat="37.18731" lon="-8.89351">
        <ele>14.56</ele>
        <time>2020-09-05T11:03:37Z</time>
      </trkpt>
      <trkpt lat="37.18731" lon="-8.8935">
        <ele>14.56</ele>
        <time>2020-09-05T11:03:52Z</time>
      </trkpt>
      <trkpt lat="37.18732" lon="-8.89353">
        <ele>14.56</ele>
        <time>2020-09-05T11:04:10Z</time>
      </trkpt>
      <trkpt lat="37.18733" lon="-8.89353">
        <ele>14.56</ele>
        <time>2020-09-05T11:04:24Z</time>
      </trkpt>
      <trkpt lat="37.18733" lon="-8.89355">
        <ele>14.56</ele>
        <time>2020-09-05T11:04:38Z</time>
      </trkpt>
      <trkpt lat="37.18733" lon="-8.89355">
        <ele>14.56</ele>
        <time>2020-09-05T11:04:54Z</time>
      </trkpt>
      <trkpt lat="37.18732" lon="-8.89353">
        <ele>14.56</ele>
        <time>2020-09-05T11:05:06Z</time>
      </trkpt>
      <trkpt lat="37.18733" lon="-8.89354">
        <ele>14.56</ele>
        <time>2020-09-05T11:05:21Z</time>
      </trkpt>
      <trkpt lat="37.18733" lon="-8.89355">
        <ele>14.56</ele>
        <time>2020-09-05T11:05:36Z</time>
      </trkpt>
      <trkpt lat="37.18734" lon="-8.89354">
        <ele>14.56</ele>
        <time>2020-09-05T11:05:51Z</time>
      </trkpt>
      <trkpt lat="37.18736" lon="-8.89354">
        <ele>14.56</ele>
        <time>2020-09-05T11:06:11Z</time>
      </trkpt>
      <trkpt lat="37.18735" lon="-8.89354">
        <ele>14.56</ele>
        <time>2020-09-05T11:06:27Z</time>
      </trkpt>
      <trkpt lat="37.18733" lon="-8.89353">
        <ele>14.56</ele>
        <time>2020-09-05T11:06:51Z</time>
      </trkpt>
      <trkpt lat="37.18732" lon="-8.89354">
        <ele>14.08</ele>
        <time>2020-09-05T11:07:08Z</time>
      </trkpt>
      <trkpt lat="37.18732" lon="-8.89354">
        <ele>14.08</ele>
        <time>2020-09-05T11:07:27Z</time>
      </trkpt>
      <trkpt lat="37.1873" lon="-8.89353">
        <ele>14.08</ele>
        <time>2020-09-05T11:07:37Z</time>
      </trkpt>
      <trkpt lat="37.18732" lon="-8.89351">
        <ele>14.56</ele>
        <time>2020-09-05T11:07:46Z</time>
      </trkpt>
      <trkpt lat="37.18732" lon="-8.89347">
        <ele>14.56</ele>
        <time>2020-09-05T11:07:48Z</time>
      </trkpt>
      <trkpt lat="37.1873" lon="-8.89344">
        <ele>14.56</ele>
        <time>2020-09-05T11:07:49Z</time>
      </trkpt>
      <trkpt lat="37.18728" lon="-8.89342">
        <ele>14.56</ele>
        <time>2020-09-05T11:07:50Z</time>
      </trkpt>
      <trkpt lat="37.18725" lon="-8.8934">
        <ele>14.56</ele>
        <time>2020-09-05T11:07:51Z</time>
      </trkpt>
      <trkpt lat="37.18704" lon="-8.89313">
        <ele>14.56</ele>
        <time>2020-09-05T11:07:59Z</time>
      </trkpt>
      <trkpt lat="37.18696" lon="-8.89304">
        <ele>14.56</ele>
        <time>2020-09-05T11:08:04Z</time>
      </trkpt>
      <trkpt lat="37.18696" lon="-8.89303">
        <ele>14.56</ele>
        <time>2020-09-05T11:08:11Z</time>
      </trkpt>
      <trkpt lat="37.18692" lon="-8.89297">
        <ele>14.56</ele>
        <time>2020-09-05T11:08:14Z</time>
      </trkpt>
      <trkpt lat="37.18691" lon="-8.89293">
        <ele>14.56</ele>
        <time>2020-09-05T11:08:15Z</time>
      </trkpt>
      <trkpt lat="37.18683" lon="-8.89271">
        <ele>14.56</ele>
        <time>2020-09-05T11:08:21Z</time>
      </trkpt>
      <trkpt lat="37.18666" lon="-8.89264">
        <ele>13.6</ele>
        <time>2020-09-05T11:08:26Z</time>
      </trkpt>
      <trkpt lat="37.18634" lon="-8.89274">
        <ele>12.63</ele>
        <time>2020-09-05T11:08:34Z</time>
      </trkpt>
      <trkpt lat="37.18595" lon="-8.89293">
        <ele>12.15</ele>
        <time>2020-09-05T11:08:43Z</time>
      </trkpt>
      <trkpt lat="37.1859" lon="-8.89294">
        <ele>11.67</ele>
        <time>2020-09-05T11:08:44Z</time>
      </trkpt>
      <trkpt lat="37.18586" lon="-8.89294">
        <ele>11.67</ele>
        <time>2020-09-05T11:08:45Z</time>
      </trkpt>
      <trkpt lat="37.18572" lon="-8.89294">
        <ele>11.67</ele>
        <time>2020-09-05T11:08:48Z</time>
      </trkpt>
      <trkpt lat="37.18567" lon="-8.89293">
        <ele>11.67</ele>
        <time>2020-09-05T11:08:49Z</time>
      </trkpt>
      <trkpt lat="37.18563" lon="-8.89291">
        <ele>11.67</ele>
        <time>2020-09-05T11:08:50Z</time>
      </trkpt>
      <trkpt lat="37.18558" lon="-8.89289">
        <ele>11.67</ele>
        <time>2020-09-05T11:08:51Z</time>
      </trkpt>
      <trkpt lat="37.18554" lon="-8.89286">
        <ele>11.19</ele>
        <time>2020-09-05T11:08:52Z</time>
      </trkpt>
      <trkpt lat="37.18549" lon="-8.89282">
        <ele>11.19</ele>
        <time>2020-09-05T11:08:53Z</time>
      </trkpt>
      <trkpt lat="37.18545" lon="-8.89279">
        <ele>11.19</ele>
        <time>2020-09-05T11:08:54Z</time>
      </trkpt>
      <trkpt lat="37.18542" lon="-8.89275">
        <ele>11.19</ele>
        <time>2020-09-05T11:08:55Z</time>
      </trkpt>
      <trkpt lat="37.18538" lon="-8.89271">
        <ele>11.19</ele>
        <time>2020-09-05T11:08:56Z</time>
      </trkpt>
      <trkpt lat="37.18531" lon="-8.89262">
        <ele>11.19</ele>
        <time>2020-09-05T11:08:58Z</time>
      </trkpt>
      <trkpt lat="37.18528" lon="-8.89258">
        <ele>11.19</ele>
        <time>2020-09-05T11:08:59Z</time>
      </trkpt>
      <trkpt lat="37.18524" lon="-8.89249">
        <ele>11.19</ele>
        <time>2020-09-05T11:09:01Z</time>
      </trkpt>
      <trkpt lat="37.18522" lon="-8.89244">
        <ele>11.19</ele>
        <time>2020-09-05T11:09:02Z</time>
      </trkpt>
      <trkpt lat="37.18521" lon="-8.8924">
        <ele>11.19</ele>
        <time>2020-09-05T11:09:03Z</time>
      </trkpt>
      <trkpt lat="37.1852" lon="-8.89235">
        <ele>11.19</ele>
        <time>2020-09-05T11:09:04Z</time>
      </trkpt>
      <trkpt lat="37.1852" lon="-8.89231">
        <ele>11.19</ele>
        <time>2020-09-05T11:09:05Z</time>
      </trkpt>
      <trkpt lat="37.18514" lon="-8.89194">
        <ele>11.19</ele>
        <time>2020-09-05T11:09:14Z</time>
      </trkpt>
      <trkpt lat="37.18505" lon="-8.89149">
        <ele>11.19</ele>
        <time>2020-09-05T11:09:24Z</time>
      </trkpt>
      <trkpt lat="37.18497" lon="-8.89095">
        <ele>11.19</ele>
        <time>2020-09-05T11:09:34Z</time>
      </trkpt>
      <trkpt lat="37.1849" lon="-8.89041">
        <ele>10.71</ele>
        <time>2020-09-05T11:09:43Z</time>
      </trkpt>
      <trkpt lat="37.18491" lon="-8.89035">
        <ele>10.71</ele>
        <time>2020-09-05T11:09:44Z</time>
      </trkpt>
      <trkpt lat="37.18491" lon="-8.89028">
        <ele>10.71</ele>
        <time>2020-09-05T11:09:45Z</time>
      </trkpt>
      <trkpt lat="37.18492" lon="-8.89022">
        <ele>10.71</ele>
        <time>2020-09-05T11:09:46Z</time>
      </trkpt>
      <trkpt lat="37.18494" lon="-8.89016">
        <ele>10.71</ele>
        <time>2020-09-05T11:09:47Z</time>
      </trkpt>
      <trkpt lat="37.18496" lon="-8.8901">
        <ele>10.23</ele>
        <time>2020-09-05T11:09:48Z</time>
      </trkpt>
      <trkpt lat="37.18499" lon="-8.89005">
        <ele>10.23</ele>
        <time>2020-09-05T11:09:49Z</time>
      </trkpt>
      <trkpt lat="37.18502" lon="-8.89">
        <ele>10.23</ele>
        <time>2020-09-05T11:09:50Z</time>
      </trkpt>
      <trkpt lat="37.18505" lon="-8.88994">
        <ele>10.23</ele>
        <time>2020-09-05T11:09:51Z</time>
      </trkpt>
      <trkpt lat="37.18537" lon="-8.88943">
        <ele>10.23</ele>
        <time>2020-09-05T11:10:02Z</time>
      </trkpt>
      <trkpt lat="37.18569" lon="-8.88893">
        <ele>10.23</ele>
        <time>2020-09-05T11:10:14Z</time>
      </trkpt>
      <trkpt lat="37.18575" lon="-8.88884">
        <ele>10.23</ele>
        <time>2020-09-05T11:10:16Z</time>
      </trkpt>
      <trkpt lat="37.18577" lon="-8.88879">
        <ele>10.23</ele>
        <time>2020-09-05T11:10:17Z</time>
      </trkpt>
      <trkpt lat="37.18578" lon="-8.88873">
        <ele>10.23</ele>
        <time>2020-09-05T11:10:18Z</time>
      </trkpt>
      <trkpt lat="37.18579" lon="-8.88867">
        <ele>10.23</ele>
        <time>2020-09-05T11:10:19Z</time>
      </trkpt>
      <trkpt lat="37.18579" lon="-8.88861">
        <ele>10.23</ele>
        <time>2020-09-05T11:10:20Z</time>
      </trkpt>
      <trkpt lat="37.18577" lon="-8.88855">
        <ele>10.23</ele>
        <time>2020-09-05T11:10:21Z</time>
      </trkpt>
      <trkpt lat="37.18575" lon="-8.8885">
        <ele>10.23</ele>
        <time>2020-09-05T11:10:22Z</time>
      </trkpt>
      <trkpt lat="37.18571" lon="-8.88845">
        <ele>10.23</ele>
        <time>2020-09-05T11:10:23Z</time>
      </trkpt>
      <trkpt lat="37.18568" lon="-8.88841">
        <ele>10.23</ele>
        <time>2020-09-05T11:10:24Z</time>
      </trkpt>
      <trkpt lat="37.18564" lon="-8.88838">
        <ele>10.23</ele>
        <time>2020-09-05T11:10:25Z</time>
      </trkpt>
      <trkpt lat="37.1856" lon="-8.88835">
        <ele>10.23</ele>
        <time>2020-09-05T11:10:26Z</time>
      </trkpt>
      <trkpt lat="37.18555" lon="-8.88832">
        <ele>10.23</ele>
        <time>2020-09-05T11:10:27Z</time>
      </trkpt>
      <trkpt lat="37.1851" lon="-8.88797">
        <ele>10.23</ele>
        <time>2020-09-05T11:10:38Z</time>
      </trkpt>
      <trkpt lat="37.18467" lon="-8.88768">
        <ele>10.23</ele>
        <time>2020-09-05T11:10:48Z</time>
      </trkpt>
      <trkpt lat="37.18407" lon="-8.88728">
        <ele>11.19</ele>
        <time>2020-09-05T11:11:02Z</time>
      </trkpt>
      <trkpt lat="37.18366" lon="-8.88694">
        <ele>11.19</ele>
        <time>2020-09-05T11:11:12Z</time>
      </trkpt>
      <trkpt lat="37.1836" lon="-8.88684">
        <ele>11.19</ele>
        <time>2020-09-05T11:11:14Z</time>
      </trkpt>
      <trkpt lat="37.18358" lon="-8.88679">
        <ele>11.19</ele>
        <time>2020-09-05T11:11:15Z</time>
      </trkpt>
      <trkpt lat="37.18354" lon="-8.88667">
        <ele>11.19</ele>
        <time>2020-09-05T11:11:17Z</time>
      </trkpt>
      <trkpt lat="37.18352" lon="-8.88661">
        <ele>11.19</ele>
        <time>2020-09-05T11:11:18Z</time>
      </trkpt>
      <trkpt lat="37.18339" lon="-8.88607">
        <ele>11.19</ele>
        <time>2020-09-05T11:11:27Z</time>
      </trkpt>
      <trkpt lat="37.18335" lon="-8.88596">
        <ele>11.19</ele>
        <time>2020-09-05T11:11:29Z</time>
      </trkpt>
      <trkpt lat="37.18332" lon="-8.88591">
        <ele>11.19</ele>
        <time>2020-09-05T11:11:30Z</time>
      </trkpt>
      <trkpt lat="37.18329" lon="-8.88587">
        <ele>11.19</ele>
        <time>2020-09-05T11:11:31Z</time>
      </trkpt>
      <trkpt lat="37.18295" lon="-8.88547">
        <ele>11.19</ele>
        <time>2020-09-05T11:11:41Z</time>
      </trkpt>
      <trkpt lat="37.18282" lon="-8.8853">
        <ele>11.19</ele>
        <time>2020-09-05T11:11:45Z</time>
      </trkpt>
      <trkpt lat="37.1828" lon="-8.88525">
        <ele>11.19</ele>
        <time>2020-09-05T11:11:46Z</time>
      </trkpt>
      <trkpt lat="37.18266" lon="-8.88479">
        <ele>11.19</ele>
        <time>2020-09-05T11:11:54Z</time>
      </trkpt>
      <trkpt lat="37.18256" lon="-8.88404">
        <ele>11.19</ele>
        <time>2020-09-05T11:12:06Z</time>
      </trkpt>
      <trkpt lat="37.18242" lon="-8.88334">
        <ele>11.67</ele>
        <time>2020-09-05T11:12:18Z</time>
      </trkpt>
      <trkpt lat="37.18224" lon="-8.88251">
        <ele>12.15</ele>
        <time>2020-09-05T11:12:32Z</time>
      </trkpt>
      <trkpt lat="37.18218" lon="-8.88189">
        <ele>12.15</ele>
        <time>2020-09-05T11:12:42Z</time>
      </trkpt>
      <trkpt lat="37.18217" lon="-8.88183">
        <ele>12.15</ele>
        <time>2020-09-05T11:12:43Z</time>
      </trkpt>
      <trkpt lat="37.18215" lon="-8.88177">
        <ele>12.15</ele>
        <time>2020-09-05T11:12:44Z</time>
      </trkpt>
      <trkpt lat="37.18213" lon="-8.88171">
        <ele>12.15</ele>
        <time>2020-09-05T11:12:45Z</time>
      </trkpt>
      <trkpt lat="37.18211" lon="-8.88166">
        <ele>12.15</ele>
        <time>2020-09-05T11:12:46Z</time>
      </trkpt>
      <trkpt lat="37.18208" lon="-8.8816">
        <ele>12.15</ele>
        <time>2020-09-05T11:12:47Z</time>
      </trkpt>
      <trkpt lat="37.18172" lon="-8.88086">
        <ele>12.63</ele>
        <time>2020-09-05T11:13:01Z</time>
      </trkpt>
      <trkpt lat="37.18147" lon="-8.88025">
        <ele>12.63</ele>
        <time>2020-09-05T11:13:12Z</time>
      </trkpt>
      <trkpt lat="37.18125" lon="-8.87978">
        <ele>13.12</ele>
        <time>2020-09-05T11:13:21Z</time>
      </trkpt>
      <trkpt lat="37.18112" lon="-8.87952">
        <ele>13.6</ele>
        <time>2020-09-05T11:13:26Z</time>
      </trkpt>
      <trkpt lat="37.18083" lon="-8.87901">
        <ele>13.12</ele>
        <time>2020-09-05T11:13:36Z</time>
      </trkpt>
      <trkpt lat="37.18049" lon="-8.87858">
        <ele>13.12</ele>
        <time>2020-09-05T11:13:46Z</time>
      </trkpt>
      <trkpt lat="37.18015" lon="-8.87817">
        <ele>13.6</ele>
        <time>2020-09-05T11:13:56Z</time>
      </trkpt>
      <trkpt lat="37.17976" lon="-8.87772">
        <ele>13.6</ele>
        <time>2020-09-05T11:14:07Z</time>
      </trkpt>
      <trkpt lat="37.17972" lon="-8.87766">
        <ele>14.08</ele>
        <time>2020-09-05T11:14:11Z</time>
      </trkpt>
      <trkpt lat="37.17962" lon="-8.8775">
        <ele>14.08</ele>
        <time>2020-09-05T11:14:16Z</time>
      </trkpt>
      <trkpt lat="37.17953" lon="-8.87738">
        <ele>14.08</ele>
        <time>2020-09-05T11:14:19Z</time>
      </trkpt>
      <trkpt lat="37.17923" lon="-8.8768">
        <ele>14.08</ele>
        <time>2020-09-05T11:14:31Z</time>
      </trkpt>
      <trkpt lat="37.17906" lon="-8.87625">
        <ele>14.56</ele>
        <time>2020-09-05T11:14:41Z</time>
      </trkpt>
      <trkpt lat="37.17887" lon="-8.87555">
        <ele>15.04</ele>
        <time>2020-09-05T11:14:53Z</time>
      </trkpt>
      <trkpt lat="37.17884" lon="-8.87539">
        <ele>15.52</ele>
        <time>2020-09-05T11:14:56Z</time>
      </trkpt>
      <trkpt lat="37.17882" lon="-8.87534">
        <ele>15.52</ele>
        <time>2020-09-05T11:14:57Z</time>
      </trkpt>
      <trkpt lat="37.1788" lon="-8.87529">
        <ele>15.52</ele>
        <time>2020-09-05T11:14:58Z</time>
      </trkpt>
      <trkpt lat="37.17877" lon="-8.87524">
        <ele>15.52</ele>
        <time>2020-09-05T11:14:59Z</time>
      </trkpt>
      <trkpt lat="37.17874" lon="-8.8752">
        <ele>15.52</ele>
        <time>2020-09-05T11:15:00Z</time>
      </trkpt>
      <trkpt lat="37.1787" lon="-8.87518">
        <ele>15.52</ele>
        <time>2020-09-05T11:15:01Z</time>
      </trkpt>
      <trkpt lat="37.17865" lon="-8.87516">
        <ele>15.52</ele>
        <time>2020-09-05T11:15:02Z</time>
      </trkpt>
      <trkpt lat="37.17861" lon="-8.87515">
        <ele>15.52</ele>
        <time>2020-09-05T11:15:03Z</time>
      </trkpt>
      <trkpt lat="37.17857" lon="-8.87514">
        <ele>16</ele>
        <time>2020-09-05T11:15:04Z</time>
      </trkpt>
      <trkpt lat="37.17853" lon="-8.87514">
        <ele>16.48</ele>
        <time>2020-09-05T11:15:05Z</time>
      </trkpt>
      <trkpt lat="37.17833" lon="-8.875">
        <ele>17.92</ele>
        <time>2020-09-05T11:15:11Z</time>
      </trkpt>
      <trkpt lat="37.17825" lon="-8.87474">
        <ele>18.4</ele>
        <time>2020-09-05T11:15:17Z</time>
      </trkpt>
      <trkpt lat="37.17825" lon="-8.87469">
        <ele>18.4</ele>
        <time>2020-09-05T11:15:18Z</time>
      </trkpt>
      <trkpt lat="37.17825" lon="-8.87464">
        <ele>18.88</ele>
        <time>2020-09-05T11:15:19Z</time>
      </trkpt>
      <trkpt lat="37.1783" lon="-8.87418">
        <ele>19.36</ele>
        <time>2020-09-05T11:15:28Z</time>
      </trkpt>
      <trkpt lat="37.17837" lon="-8.8736">
        <ele>19.36</ele>
        <time>2020-09-05T11:15:39Z</time>
      </trkpt>
      <trkpt lat="37.17843" lon="-8.87321">
        <ele>19.36</ele>
        <time>2020-09-05T11:15:46Z</time>
      </trkpt>
      <trkpt lat="37.17851" lon="-8.87272">
        <ele>19.36</ele>
        <time>2020-09-05T11:15:54Z</time>
      </trkpt>
      <trkpt lat="37.17852" lon="-8.87221">
        <ele>19.36</ele>
        <time>2020-09-05T11:16:03Z</time>
      </trkpt>
      <trkpt lat="37.17852" lon="-8.87216">
        <ele>19.36</ele>
        <time>2020-09-05T11:16:04Z</time>
      </trkpt>
      <trkpt lat="37.17851" lon="-8.87211">
        <ele>19.36</ele>
        <time>2020-09-05T11:16:05Z</time>
      </trkpt>
      <trkpt lat="37.17848" lon="-8.872">
        <ele>19.36</ele>
        <time>2020-09-05T11:16:07Z</time>
      </trkpt>
      <trkpt lat="37.17827" lon="-8.87157">
        <ele>19.84</ele>
        <time>2020-09-05T11:16:16Z</time>
      </trkpt>
      <trkpt lat="37.17821" lon="-8.87149">
        <ele>19.84</ele>
        <time>2020-09-05T11:16:18Z</time>
      </trkpt>
      <trkpt lat="37.17817" lon="-8.87145">
        <ele>19.84</ele>
        <time>2020-09-05T11:16:19Z</time>
      </trkpt>
      <trkpt lat="37.17813" lon="-8.87142">
        <ele>19.84</ele>
        <time>2020-09-05T11:16:20Z</time>
      </trkpt>
      <trkpt lat="37.1778" lon="-8.87112">
        <ele>18.88</ele>
        <time>2020-09-05T11:16:28Z</time>
      </trkpt>
      <trkpt lat="37.17777" lon="-8.87107">
        <ele>18.88</ele>
        <time>2020-09-05T11:16:29Z</time>
      </trkpt>
      <trkpt lat="37.17774" lon="-8.87102">
        <ele>18.88</ele>
        <time>2020-09-05T11:16:30Z</time>
      </trkpt>
      <trkpt lat="37.17771" lon="-8.87096">
        <ele>18.88</ele>
        <time>2020-09-05T11:16:31Z</time>
      </trkpt>
      <trkpt lat="37.17769" lon="-8.87091">
        <ele>18.88</ele>
        <time>2020-09-05T11:16:32Z</time>
      </trkpt>
      <trkpt lat="37.17754" lon="-8.87056">
        <ele>18.4</ele>
        <time>2020-09-05T11:16:39Z</time>
      </trkpt>
      <trkpt lat="37.17752" lon="-8.87051">
        <ele>18.4</ele>
        <time>2020-09-05T11:16:40Z</time>
      </trkpt>
      <trkpt lat="37.17721" lon="-8.87002">
        <ele>18.88</ele>
        <time>2020-09-05T11:16:51Z</time>
      </trkpt>
      <trkpt lat="37.17717" lon="-8.86992">
        <ele>19.84</ele>
        <time>2020-09-05T11:16:53Z</time>
      </trkpt>
      <trkpt lat="37.17713" lon="-8.86982">
        <ele>19.84</ele>
        <time>2020-09-05T11:16:55Z</time>
      </trkpt>
      <trkpt lat="37.1771" lon="-8.86959">
        <ele>20.32</ele>
        <time>2020-09-05T11:16:59Z</time>
      </trkpt>
      <trkpt lat="37.17705" lon="-8.86908">
        <ele>20.32</ele>
        <time>2020-09-05T11:17:08Z</time>
      </trkpt>
      <trkpt lat="37.17704" lon="-8.86896">
        <ele>20.32</ele>
        <time>2020-09-05T11:17:10Z</time>
      </trkpt>
      <trkpt lat="37.17693" lon="-8.86847">
        <ele>20.32</ele>
        <time>2020-09-05T11:17:19Z</time>
      </trkpt>
      <trkpt lat="37.17682" lon="-8.86805">
        <ele>20.81</ele>
        <time>2020-09-05T11:17:27Z</time>
      </trkpt>
      <trkpt lat="37.17659" lon="-8.86765">
        <ele>22.25</ele>
        <time>2020-09-05T11:17:36Z</time>
      </trkpt>
      <trkpt lat="37.17637" lon="-8.86731">
        <ele>25.13</ele>
        <time>2020-09-05T11:17:45Z</time>
      </trkpt>
      <trkpt lat="37.17614" lon="-8.86701">
        <ele>23.69</ele>
        <time>2020-09-05T11:17:52Z</time>
      </trkpt>
      <trkpt lat="37.1761" lon="-8.86696">
        <ele>23.69</ele>
        <time>2020-09-05T11:17:53Z</time>
      </trkpt>
      <trkpt lat="37.17586" lon="-8.86673">
        <ele>22.73</ele>
        <time>2020-09-05T11:17:58Z</time>
      </trkpt>
      <trkpt lat="37.17581" lon="-8.86671">
        <ele>22.73</ele>
        <time>2020-09-05T11:17:59Z</time>
      </trkpt>
      <trkpt lat="37.17576" lon="-8.86669">
        <ele>22.73</ele>
        <time>2020-09-05T11:18:00Z</time>
      </trkpt>
      <trkpt lat="37.17571" lon="-8.86669">
        <ele>22.73</ele>
        <time>2020-09-05T11:18:01Z</time>
      </trkpt>
      <trkpt lat="37.17566" lon="-8.8667">
        <ele>22.73</ele>
        <time>2020-09-05T11:18:02Z</time>
      </trkpt>
      <trkpt lat="37.17561" lon="-8.8667">
        <ele>22.73</ele>
        <time>2020-09-05T11:18:03Z</time>
      </trkpt>
      <trkpt lat="37.1752" lon="-8.86675">
        <ele>22.73</ele>
        <time>2020-09-05T11:18:11Z</time>
      </trkpt>
      <trkpt lat="37.17515" lon="-8.86674">
        <ele>22.73</ele>
        <time>2020-09-05T11:18:12Z</time>
      </trkpt>
      <trkpt lat="37.17511" lon="-8.86672">
        <ele>22.73</ele>
        <time>2020-09-05T11:18:13Z</time>
      </trkpt>
      <trkpt lat="37.1747" lon="-8.8666">
        <ele>22.73</ele>
        <time>2020-09-05T11:18:21Z</time>
      </trkpt>
      <trkpt lat="37.17409" lon="-8.86651">
        <ele>22.73</ele>
        <time>2020-09-05T11:18:33Z</time>
      </trkpt>
      <trkpt lat="37.17334" lon="-8.86637">
        <ele>22.73</ele>
        <time>2020-09-05T11:18:48Z</time>
      </trkpt>
      <trkpt lat="37.17316" lon="-8.86632">
        <ele>24.17</ele>
        <time>2020-09-05T11:18:52Z</time>
      </trkpt>
      <trkpt lat="37.17311" lon="-8.8663">
        <ele>24.17</ele>
        <time>2020-09-05T11:18:53Z</time>
      </trkpt>
      <trkpt lat="37.17308" lon="-8.86627">
        <ele>25.13</ele>
        <time>2020-09-05T11:18:54Z</time>
      </trkpt>
      <trkpt lat="37.17305" lon="-8.86624">
        <ele>25.61</ele>
        <time>2020-09-05T11:18:55Z</time>
      </trkpt>
      <trkpt lat="37.17302" lon="-8.8662">
        <ele>25.61</ele>
        <time>2020-09-05T11:18:56Z</time>
      </trkpt>
      <trkpt lat="37.17296" lon="-8.86612">
        <ele>26.09</ele>
        <time>2020-09-05T11:18:58Z</time>
      </trkpt>
      <trkpt lat="37.17293" lon="-8.86608">
        <ele>26.09</ele>
        <time>2020-09-05T11:18:59Z</time>
      </trkpt>
      <trkpt lat="37.1728" lon="-8.86584">
        <ele>27.53</ele>
        <time>2020-09-05T11:19:05Z</time>
      </trkpt>
      <trkpt lat="37.17259" lon="-8.86544">
        <ele>27.53</ele>
        <time>2020-09-05T11:19:14Z</time>
      </trkpt>
      <trkpt lat="37.17228" lon="-8.86497">
        <ele>27.53</ele>
        <time>2020-09-05T11:19:25Z</time>
      </trkpt>
      <trkpt lat="37.17207" lon="-8.86469">
        <ele>28.5</ele>
        <time>2020-09-05T11:19:33Z</time>
      </trkpt>
      <trkpt lat="37.17182" lon="-8.86445">
        <ele>29.94</ele>
        <time>2020-09-05T11:19:43Z</time>
      </trkpt>
      <trkpt lat="37.17171" lon="-8.86436">
        <ele>30.9</ele>
        <time>2020-09-05T11:19:47Z</time>
      </trkpt>
      <trkpt lat="37.17143" lon="-8.8642">
        <ele>33.3</ele>
        <time>2020-09-05T11:19:57Z</time>
      </trkpt>
      <trkpt lat="37.17114" lon="-8.86403">
        <ele>34.26</ele>
        <time>2020-09-05T11:20:06Z</time>
      </trkpt>
      <trkpt lat="37.1711" lon="-8.86404">
        <ele>34.26</ele>
        <time>2020-09-05T11:20:07Z</time>
      </trkpt>
      <trkpt lat="37.17073" lon="-8.8641">
        <ele>33.78</ele>
        <time>2020-09-05T11:20:15Z</time>
      </trkpt>
      <trkpt lat="37.17052" lon="-8.8641">
        <ele>32.82</ele>
        <time>2020-09-05T11:20:19Z</time>
      </trkpt>
      <trkpt lat="37.17033" lon="-8.8641">
        <ele>31.38</ele>
        <time>2020-09-05T11:20:22Z</time>
      </trkpt>
      <trkpt lat="37.1699" lon="-8.86407">
        <ele>30.42</ele>
        <time>2020-09-05T11:20:28Z</time>
      </trkpt>
      <trkpt lat="37.16983" lon="-8.86405">
        <ele>29.94</ele>
        <time>2020-09-05T11:20:29Z</time>
      </trkpt>
      <trkpt lat="37.16977" lon="-8.86401">
        <ele>29.94</ele>
        <time>2020-09-05T11:20:30Z</time>
      </trkpt>
      <trkpt lat="37.16971" lon="-8.86396">
        <ele>28.98</ele>
        <time>2020-09-05T11:20:31Z</time>
      </trkpt>
      <trkpt lat="37.16965" lon="-8.86391">
        <ele>28.98</ele>
        <time>2020-09-05T11:20:32Z</time>
      </trkpt>
      <trkpt lat="37.16928" lon="-8.86363">
        <ele>28.5</ele>
        <time>2020-09-05T11:20:39Z</time>
      </trkpt>
      <trkpt lat="37.16911" lon="-8.86352">
        <ele>28.5</ele>
        <time>2020-09-05T11:20:43Z</time>
      </trkpt>
      <trkpt lat="37.16907" lon="-8.86348">
        <ele>28.5</ele>
        <time>2020-09-05T11:20:44Z</time>
      </trkpt>
      <trkpt lat="37.16903" lon="-8.86344">
        <ele>28.5</ele>
        <time>2020-09-05T11:20:45Z</time>
      </trkpt>
      <trkpt lat="37.16887" lon="-8.86323">
        <ele>28.02</ele>
        <time>2020-09-05T11:20:49Z</time>
      </trkpt>
      <trkpt lat="37.16884" lon="-8.86317">
        <ele>28.02</ele>
        <time>2020-09-05T11:20:50Z</time>
      </trkpt>
      <trkpt lat="37.16882" lon="-8.8631">
        <ele>28.02</ele>
        <time>2020-09-05T11:20:51Z</time>
      </trkpt>
      <trkpt lat="37.1688" lon="-8.86303">
        <ele>28.02</ele>
        <time>2020-09-05T11:20:52Z</time>
      </trkpt>
      <trkpt lat="37.16879" lon="-8.86295">
        <ele>28.02</ele>
        <time>2020-09-05T11:20:53Z</time>
      </trkpt>
      <trkpt lat="37.16878" lon="-8.86287">
        <ele>27.05</ele>
        <time>2020-09-05T11:20:54Z</time>
      </trkpt>
      <trkpt lat="37.16876" lon="-8.86273">
        <ele>27.05</ele>
        <time>2020-09-05T11:20:56Z</time>
      </trkpt>
      <trkpt lat="37.16874" lon="-8.86266">
        <ele>26.57</ele>
        <time>2020-09-05T11:20:57Z</time>
      </trkpt>
      <trkpt lat="37.1687" lon="-8.8626">
        <ele>26.57</ele>
        <time>2020-09-05T11:20:58Z</time>
      </trkpt>
      <trkpt lat="37.16866" lon="-8.86255">
        <ele>27.05</ele>
        <time>2020-09-05T11:20:59Z</time>
      </trkpt>
      <trkpt lat="37.16862" lon="-8.86251">
        <ele>27.05</ele>
        <time>2020-09-05T11:21:00Z</time>
      </trkpt>
      <trkpt lat="37.16857" lon="-8.86248">
        <ele>27.05</ele>
        <time>2020-09-05T11:21:01Z</time>
      </trkpt>
      <trkpt lat="37.16853" lon="-8.86245">
        <ele>27.05</ele>
        <time>2020-09-05T11:21:02Z</time>
      </trkpt>
      <trkpt lat="37.16816" lon="-8.86234">
        <ele>28.02</ele>
        <time>2020-09-05T11:21:10Z</time>
      </trkpt>
      <trkpt lat="37.16807" lon="-8.86234">
        <ele>28.5</ele>
        <time>2020-09-05T11:21:12Z</time>
      </trkpt>
      <trkpt lat="37.16803" lon="-8.86234">
        <ele>28.5</ele>
        <time>2020-09-05T11:21:13Z</time>
      </trkpt>
      <trkpt lat="37.16799" lon="-8.86236">
        <ele>29.46</ele>
        <time>2020-09-05T11:21:14Z</time>
      </trkpt>
      <trkpt lat="37.16768" lon="-8.8625">
        <ele>32.34</ele>
        <time>2020-09-05T11:21:23Z</time>
      </trkpt>
      <trkpt lat="37.16765" lon="-8.8625">
        <ele>32.82</ele>
        <time>2020-09-05T11:21:24Z</time>
      </trkpt>
      <trkpt lat="37.16757" lon="-8.86248">
        <ele>32.82</ele>
        <time>2020-09-05T11:21:26Z</time>
      </trkpt>
      <trkpt lat="37.16754" lon="-8.86245">
        <ele>32.82</ele>
        <time>2020-09-05T11:21:27Z</time>
      </trkpt>
      <trkpt lat="37.16751" lon="-8.86241">
        <ele>32.82</ele>
        <time>2020-09-05T11:21:28Z</time>
      </trkpt>
      <trkpt lat="37.16748" lon="-8.86236">
        <ele>32.82</ele>
        <time>2020-09-05T11:21:29Z</time>
      </trkpt>
      <trkpt lat="37.16746" lon="-8.86229">
        <ele>31.38</ele>
        <time>2020-09-05T11:21:30Z</time>
      </trkpt>
      <trkpt lat="37.16746" lon="-8.86222">
        <ele>31.38</ele>
        <time>2020-09-05T11:21:31Z</time>
      </trkpt>
      <trkpt lat="37.16746" lon="-8.86216">
        <ele>30.9</ele>
        <time>2020-09-05T11:21:32Z</time>
      </trkpt>
      <trkpt lat="37.16747" lon="-8.86208">
        <ele>30.9</ele>
        <time>2020-09-05T11:21:33Z</time>
      </trkpt>
      <trkpt lat="37.16757" lon="-8.86129">
        <ele>27.53</ele>
        <time>2020-09-05T11:21:43Z</time>
      </trkpt>
      <trkpt lat="37.16752" lon="-8.8606">
        <ele>26.57</ele>
        <time>2020-09-05T11:21:51Z</time>
      </trkpt>
      <trkpt lat="37.16748" lon="-8.85999">
        <ele>26.57</ele>
        <time>2020-09-05T11:22:00Z</time>
      </trkpt>
      <trkpt lat="37.16743" lon="-8.85929">
        <ele>26.57</ele>
        <time>2020-09-05T11:22:11Z</time>
      </trkpt>
      <trkpt lat="37.16739" lon="-8.85895">
        <ele>26.57</ele>
        <time>2020-09-05T11:22:17Z</time>
      </trkpt>
      <trkpt lat="37.16733" lon="-8.85851">
        <ele>26.57</ele>
        <time>2020-09-05T11:22:26Z</time>
      </trkpt>
      <trkpt lat="37.16739" lon="-8.85834">
        <ele>26.57</ele>
        <time>2020-09-05T11:22:30Z</time>
      </trkpt>
      <trkpt lat="37.1676" lon="-8.85821">
        <ele>26.57</ele>
        <time>2020-09-05T11:22:36Z</time>
      </trkpt>
      <trkpt lat="37.1677" lon="-8.85812">
        <ele>26.09</ele>
        <time>2020-09-05T11:22:39Z</time>
      </trkpt>
      <trkpt lat="37.16774" lon="-8.85807">
        <ele>26.57</ele>
        <time>2020-09-05T11:22:40Z</time>
      </trkpt>
      <trkpt lat="37.16776" lon="-8.85803">
        <ele>26.57</ele>
        <time>2020-09-05T11:22:41Z</time>
      </trkpt>
      <trkpt lat="37.16778" lon="-8.85798">
        <ele>26.57</ele>
        <time>2020-09-05T11:22:42Z</time>
      </trkpt>
      <trkpt lat="37.16779" lon="-8.85792">
        <ele>26.57</ele>
        <time>2020-09-05T11:22:43Z</time>
      </trkpt>
      <trkpt lat="37.1678" lon="-8.85789">
        <ele>26.57</ele>
        <time>2020-09-05T11:22:44Z</time>
      </trkpt>
      <trkpt lat="37.16793" lon="-8.8574">
        <ele>26.09</ele>
        <time>2020-09-05T11:22:53Z</time>
      </trkpt>
      <trkpt lat="37.16796" lon="-8.85719">
        <ele>26.57</ele>
        <time>2020-09-05T11:22:57Z</time>
      </trkpt>
      <trkpt lat="37.16796" lon="-8.85713">
        <ele>26.57</ele>
        <time>2020-09-05T11:22:58Z</time>
      </trkpt>
      <trkpt lat="37.16795" lon="-8.85709">
        <ele>26.57</ele>
        <time>2020-09-05T11:22:59Z</time>
      </trkpt>
      <trkpt lat="37.16794" lon="-8.85703">
        <ele>26.57</ele>
        <time>2020-09-05T11:23:00Z</time>
      </trkpt>
      <trkpt lat="37.16794" lon="-8.85698">
        <ele>26.57</ele>
        <time>2020-09-05T11:23:01Z</time>
      </trkpt>
      <trkpt lat="37.16795" lon="-8.85692">
        <ele>27.53</ele>
        <time>2020-09-05T11:23:02Z</time>
      </trkpt>
      <trkpt lat="37.16796" lon="-8.85685">
        <ele>27.53</ele>
        <time>2020-09-05T11:23:03Z</time>
      </trkpt>
      <trkpt lat="37.16797" lon="-8.85681">
        <ele>27.53</ele>
        <time>2020-09-05T11:23:04Z</time>
      </trkpt>
      <trkpt lat="37.16811" lon="-8.85631">
        <ele>27.53</ele>
        <time>2020-09-05T11:23:13Z</time>
      </trkpt>
      <trkpt lat="37.16827" lon="-8.85595">
        <ele>27.53</ele>
        <time>2020-09-05T11:23:20Z</time>
      </trkpt>
      <trkpt lat="37.16833" lon="-8.85585">
        <ele>26.09</ele>
        <time>2020-09-05T11:23:22Z</time>
      </trkpt>
      <trkpt lat="37.16836" lon="-8.85582">
        <ele>26.09</ele>
        <time>2020-09-05T11:23:23Z</time>
      </trkpt>
      <trkpt lat="37.1685" lon="-8.85563">
        <ele>26.09</ele>
        <time>2020-09-05T11:23:27Z</time>
      </trkpt>
      <trkpt lat="37.16852" lon="-8.85559">
        <ele>26.09</ele>
        <time>2020-09-05T11:23:28Z</time>
      </trkpt>
      <trkpt lat="37.16874" lon="-8.85503">
        <ele>26.09</ele>
        <time>2020-09-05T11:23:39Z</time>
      </trkpt>
      <trkpt lat="37.16877" lon="-8.85492">
        <ele>26.09</ele>
        <time>2020-09-05T11:23:41Z</time>
      </trkpt>
      <trkpt lat="37.16878" lon="-8.85487">
        <ele>26.09</ele>
        <time>2020-09-05T11:23:42Z</time>
      </trkpt>
      <trkpt lat="37.16879" lon="-8.85476">
        <ele>26.09</ele>
        <time>2020-09-05T11:23:44Z</time>
      </trkpt>
      <trkpt lat="37.16879" lon="-8.85471">
        <ele>26.09</ele>
        <time>2020-09-05T11:23:45Z</time>
      </trkpt>
      <trkpt lat="37.16877" lon="-8.85454">
        <ele>26.09</ele>
        <time>2020-09-05T11:23:48Z</time>
      </trkpt>
      <trkpt lat="37.16856" lon="-8.8539">
        <ele>26.09</ele>
        <time>2020-09-05T11:24:00Z</time>
      </trkpt>
      <trkpt lat="37.16839" lon="-8.85338">
        <ele>25.13</ele>
        <time>2020-09-05T11:24:09Z</time>
      </trkpt>
      <trkpt lat="37.16837" lon="-8.85333">
        <ele>25.13</ele>
        <time>2020-09-05T11:24:10Z</time>
      </trkpt>
      <trkpt lat="37.16835" lon="-8.85329">
        <ele>25.13</ele>
        <time>2020-09-05T11:24:11Z</time>
      </trkpt>
      <trkpt lat="37.16833" lon="-8.85324">
        <ele>25.13</ele>
        <time>2020-09-05T11:24:12Z</time>
      </trkpt>
      <trkpt lat="37.16826" lon="-8.85307">
        <ele>26.57</ele>
        <time>2020-09-05T11:24:16Z</time>
      </trkpt>
      <trkpt lat="37.16822" lon="-8.85298">
        <ele>27.05</ele>
        <time>2020-09-05T11:24:18Z</time>
      </trkpt>
      <trkpt lat="37.16819" lon="-8.85294">
        <ele>27.53</ele>
        <time>2020-09-05T11:24:19Z</time>
      </trkpt>
      <trkpt lat="37.16816" lon="-8.8529">
        <ele>27.53</ele>
        <time>2020-09-05T11:24:20Z</time>
      </trkpt>
      <trkpt lat="37.16814" lon="-8.85287">
        <ele>27.53</ele>
        <time>2020-09-05T11:24:21Z</time>
      </trkpt>
      <trkpt lat="37.16809" lon="-8.85282">
        <ele>28.02</ele>
        <time>2020-09-05T11:24:22Z</time>
      </trkpt>
      <trkpt lat="37.16801" lon="-8.85273">
        <ele>28.02</ele>
        <time>2020-09-05T11:24:25Z</time>
      </trkpt>
      <trkpt lat="37.16775" lon="-8.85231">
        <ele>28.02</ele>
        <time>2020-09-05T11:24:35Z</time>
      </trkpt>
      <trkpt lat="37.16773" lon="-8.85223">
        <ele>28.02</ele>
        <time>2020-09-05T11:24:36Z</time>
      </trkpt>
      <trkpt lat="37.16771" lon="-8.85213">
        <ele>28.5</ele>
        <time>2020-09-05T11:24:38Z</time>
      </trkpt>
      <trkpt lat="37.16771" lon="-8.85207">
        <ele>28.5</ele>
        <time>2020-09-05T11:24:39Z</time>
      </trkpt>
      <trkpt lat="37.16771" lon="-8.85201">
        <ele>28.5</ele>
        <time>2020-09-05T11:24:40Z</time>
      </trkpt>
      <trkpt lat="37.16771" lon="-8.85195">
        <ele>28.5</ele>
        <time>2020-09-05T11:24:41Z</time>
      </trkpt>
      <trkpt lat="37.16771" lon="-8.85191">
        <ele>28.5</ele>
        <time>2020-09-05T11:24:42Z</time>
      </trkpt>
      <trkpt lat="37.16771" lon="-8.85186">
        <ele>28.5</ele>
        <time>2020-09-05T11:24:43Z</time>
      </trkpt>
      <trkpt lat="37.16772" lon="-8.85181">
        <ele>28.5</ele>
        <time>2020-09-05T11:24:44Z</time>
      </trkpt>
      <trkpt lat="37.16773" lon="-8.85175">
        <ele>28.5</ele>
        <time>2020-09-05T11:24:45Z</time>
      </trkpt>
      <trkpt lat="37.16775" lon="-8.85169">
        <ele>28.5</ele>
        <time>2020-09-05T11:24:46Z</time>
      </trkpt>
      <trkpt lat="37.16779" lon="-8.8516">
        <ele>28.5</ele>
        <time>2020-09-05T11:24:48Z</time>
      </trkpt>
      <trkpt lat="37.16783" lon="-8.85152">
        <ele>27.05</ele>
        <time>2020-09-05T11:24:49Z</time>
      </trkpt>
      <trkpt lat="37.16806" lon="-8.85105">
        <ele>25.13</ele>
        <time>2020-09-05T11:24:57Z</time>
      </trkpt>
      <trkpt lat="37.16816" lon="-8.85083">
        <ele>26.57</ele>
        <time>2020-09-05T11:25:02Z</time>
      </trkpt>
      <trkpt lat="37.16817" lon="-8.85081">
        <ele>26.57</ele>
        <time>2020-09-05T11:25:03Z</time>
      </trkpt>
      <trkpt lat="37.16838" lon="-8.8505">
        <ele>28.5</ele>
        <time>2020-09-05T11:25:12Z</time>
      </trkpt>
      <trkpt lat="37.16862" lon="-8.85011">
        <ele>28.98</ele>
        <time>2020-09-05T11:25:22Z</time>
      </trkpt>
      <trkpt lat="37.1687" lon="-8.84979">
        <ele>28.98</ele>
        <time>2020-09-05T11:25:29Z</time>
      </trkpt>
      <trkpt lat="37.16869" lon="-8.84974">
        <ele>28.98</ele>
        <time>2020-09-05T11:25:30Z</time>
      </trkpt>
      <trkpt lat="37.16867" lon="-8.84969">
        <ele>28.98</ele>
        <time>2020-09-05T11:25:31Z</time>
      </trkpt>
      <trkpt lat="37.16865" lon="-8.84965">
        <ele>28.98</ele>
        <time>2020-09-05T11:25:32Z</time>
      </trkpt>
      <trkpt lat="37.16861" lon="-8.84961">
        <ele>28.98</ele>
        <time>2020-09-05T11:25:33Z</time>
      </trkpt>
      <trkpt lat="37.16857" lon="-8.84958">
        <ele>28.98</ele>
        <time>2020-09-05T11:25:35Z</time>
      </trkpt>
      <trkpt lat="37.16854" lon="-8.84955">
        <ele>28.98</ele>
        <time>2020-09-05T11:25:36Z</time>
      </trkpt>
      <trkpt lat="37.16849" lon="-8.84951">
        <ele>28.98</ele>
        <time>2020-09-05T11:25:37Z</time>
      </trkpt>
      <trkpt lat="37.16844" lon="-8.84948">
        <ele>28.98</ele>
        <time>2020-09-05T11:25:38Z</time>
      </trkpt>
      <trkpt lat="37.16826" lon="-8.8494">
        <ele>28.98</ele>
        <time>2020-09-05T11:25:43Z</time>
      </trkpt>
      <trkpt lat="37.1682" lon="-8.84939">
        <ele>28.98</ele>
        <time>2020-09-05T11:25:44Z</time>
      </trkpt>
      <trkpt lat="37.16817" lon="-8.84939">
        <ele>28.98</ele>
        <time>2020-09-05T11:25:45Z</time>
      </trkpt>
      <trkpt lat="37.1681" lon="-8.8494">
        <ele>28.98</ele>
        <time>2020-09-05T11:25:47Z</time>
      </trkpt>
      <trkpt lat="37.16805" lon="-8.84941">
        <ele>28.98</ele>
        <time>2020-09-05T11:25:48Z</time>
      </trkpt>
      <trkpt lat="37.16793" lon="-8.84944">
        <ele>28.98</ele>
        <time>2020-09-05T11:25:51Z</time>
      </trkpt>
      <trkpt lat="37.16755" lon="-8.84949">
        <ele>30.42</ele>
        <time>2020-09-05T11:26:00Z</time>
      </trkpt>
      <trkpt lat="37.16735" lon="-8.84952">
        <ele>28.98</ele>
        <time>2020-09-05T11:26:04Z</time>
      </trkpt>
      <trkpt lat="37.16733" lon="-8.84952">
        <ele>28.98</ele>
        <time>2020-09-05T11:26:05Z</time>
      </trkpt>
      <trkpt lat="37.16728" lon="-8.84953">
        <ele>28.98</ele>
        <time>2020-09-05T11:26:06Z</time>
      </trkpt>
      <trkpt lat="37.16724" lon="-8.84953">
        <ele>28.98</ele>
        <time>2020-09-05T11:26:07Z</time>
      </trkpt>
      <trkpt lat="37.16719" lon="-8.84952">
        <ele>28.98</ele>
        <time>2020-09-05T11:26:08Z</time>
      </trkpt>
      <trkpt lat="37.16714" lon="-8.8495">
        <ele>28.5</ele>
        <time>2020-09-05T11:26:09Z</time>
      </trkpt>
      <trkpt lat="37.16708" lon="-8.84948">
        <ele>27.53</ele>
        <time>2020-09-05T11:26:10Z</time>
      </trkpt>
      <trkpt lat="37.16682" lon="-8.84937">
        <ele>27.05</ele>
        <time>2020-09-05T11:26:16Z</time>
      </trkpt>
      <trkpt lat="37.16671" lon="-8.8493">
        <ele>28.5</ele>
        <time>2020-09-05T11:26:19Z</time>
      </trkpt>
      <trkpt lat="37.16661" lon="-8.84917">
        <ele>29.46</ele>
        <time>2020-09-05T11:26:23Z</time>
      </trkpt>
      <trkpt lat="37.1666" lon="-8.84912">
        <ele>29.46</ele>
        <time>2020-09-05T11:26:24Z</time>
      </trkpt>
      <trkpt lat="37.16659" lon="-8.84907">
        <ele>29.46</ele>
        <time>2020-09-05T11:26:25Z</time>
      </trkpt>
      <trkpt lat="37.16658" lon="-8.84902">
        <ele>29.46</ele>
        <time>2020-09-05T11:26:26Z</time>
      </trkpt>
      <trkpt lat="37.16658" lon="-8.84897">
        <ele>29.46</ele>
        <time>2020-09-05T11:26:27Z</time>
      </trkpt>
      <trkpt lat="37.16658" lon="-8.84891">
        <ele>29.46</ele>
        <time>2020-09-05T11:26:28Z</time>
      </trkpt>
      <trkpt lat="37.16662" lon="-8.84838">
        <ele>29.94</ele>
        <time>2020-09-05T11:26:37Z</time>
      </trkpt>
      <trkpt lat="37.16657" lon="-8.84796">
        <ele>29.94</ele>
        <time>2020-09-05T11:26:45Z</time>
      </trkpt>
      <trkpt lat="37.16653" lon="-8.84773">
        <ele>28.5</ele>
        <time>2020-09-05T11:26:49Z</time>
      </trkpt>
      <trkpt lat="37.16653" lon="-8.84763">
        <ele>28.5</ele>
        <time>2020-09-05T11:26:51Z</time>
      </trkpt>
      <trkpt lat="37.16654" lon="-8.84758">
        <ele>28.5</ele>
        <time>2020-09-05T11:26:52Z</time>
      </trkpt>
      <trkpt lat="37.16655" lon="-8.84753">
        <ele>28.5</ele>
        <time>2020-09-05T11:26:53Z</time>
      </trkpt>
      <trkpt lat="37.16655" lon="-8.84749">
        <ele>28.5</ele>
        <time>2020-09-05T11:26:54Z</time>
      </trkpt>
      <trkpt lat="37.16655" lon="-8.84744">
        <ele>28.5</ele>
        <time>2020-09-05T11:26:55Z</time>
      </trkpt>
      <trkpt lat="37.16656" lon="-8.84734">
        <ele>31.38</ele>
        <time>2020-09-05T11:26:58Z</time>
      </trkpt>
      <trkpt lat="37.16655" lon="-8.84729">
        <ele>31.38</ele>
        <time>2020-09-05T11:27:02Z</time>
      </trkpt>
      <trkpt lat="37.16655" lon="-8.84732">
        <ele>31.38</ele>
        <time>2020-09-05T11:27:06Z</time>
      </trkpt>
      <trkpt lat="37.16655" lon="-8.84753">
        <ele>29.94</ele>
        <time>2020-09-05T11:27:12Z</time>
      </trkpt>
      <trkpt lat="37.16654" lon="-8.84762">
        <ele>28.98</ele>
        <time>2020-09-05T11:27:14Z</time>
      </trkpt>
      <trkpt lat="37.16652" lon="-8.84765">
        <ele>28.98</ele>
        <time>2020-09-05T11:27:15Z</time>
      </trkpt>
      <trkpt lat="37.16649" lon="-8.84767">
        <ele>28.98</ele>
        <time>2020-09-05T11:27:16Z</time>
      </trkpt>
      <trkpt lat="37.16646" lon="-8.84768">
        <ele>28.98</ele>
        <time>2020-09-05T11:27:17Z</time>
      </trkpt>
      <trkpt lat="37.16644" lon="-8.84768">
        <ele>28.98</ele>
        <time>2020-09-05T11:27:18Z</time>
      </trkpt>
      <trkpt lat="37.16642" lon="-8.84768">
        <ele>28.98</ele>
        <time>2020-09-05T11:27:19Z</time>
      </trkpt>
      <trkpt lat="37.16639" lon="-8.84766">
        <ele>28.98</ele>
        <time>2020-09-05T11:27:20Z</time>
      </trkpt>
      <trkpt lat="37.16637" lon="-8.84764">
        <ele>28.98</ele>
        <time>2020-09-05T11:27:21Z</time>
      </trkpt>
      <trkpt lat="37.16636" lon="-8.84761">
        <ele>30.42</ele>
        <time>2020-09-05T11:27:22Z</time>
      </trkpt>
      <trkpt lat="37.16634" lon="-8.84757">
        <ele>30.42</ele>
        <time>2020-09-05T11:27:23Z</time>
      </trkpt>
      <trkpt lat="37.16633" lon="-8.84753">
        <ele>30.42</ele>
        <time>2020-09-05T11:27:24Z</time>
      </trkpt>
      <trkpt lat="37.16632" lon="-8.84749">
        <ele>30.42</ele>
        <time>2020-09-05T11:27:25Z</time>
      </trkpt>
      <trkpt lat="37.16632" lon="-8.84745">
        <ele>30.42</ele>
        <time>2020-09-05T11:27:26Z</time>
      </trkpt>
      <trkpt lat="37.16631" lon="-8.84741">
        <ele>30.42</ele>
        <time>2020-09-05T11:27:27Z</time>
      </trkpt>
      <trkpt lat="37.1663" lon="-8.84737">
        <ele>30.9</ele>
        <time>2020-09-05T11:27:28Z</time>
      </trkpt>
      <trkpt lat="37.16628" lon="-8.84733">
        <ele>30.9</ele>
        <time>2020-09-05T11:27:29Z</time>
      </trkpt>
      <trkpt lat="37.16626" lon="-8.84729">
        <ele>30.9</ele>
        <time>2020-09-05T11:27:30Z</time>
      </trkpt>
      <trkpt lat="37.16624" lon="-8.84724">
        <ele>30.9</ele>
        <time>2020-09-05T11:27:31Z</time>
      </trkpt>
      <trkpt lat="37.16622" lon="-8.8472">
        <ele>30.9</ele>
        <time>2020-09-05T11:27:32Z</time>
      </trkpt>
      <trkpt lat="37.1662" lon="-8.84715">
        <ele>31.86</ele>
        <time>2020-09-05T11:27:33Z</time>
      </trkpt>
      <trkpt lat="37.16617" lon="-8.84711">
        <ele>31.86</ele>
        <time>2020-09-05T11:27:34Z</time>
      </trkpt>
      <trkpt lat="37.16609" lon="-8.84701">
        <ele>31.38</ele>
        <time>2020-09-05T11:27:37Z</time>
      </trkpt>
      <trkpt lat="37.16581" lon="-8.84678">
        <ele>31.38</ele>
        <time>2020-09-05T11:27:45Z</time>
      </trkpt>
      <trkpt lat="37.16578" lon="-8.84676">
        <ele>31.38</ele>
        <time>2020-09-05T11:27:46Z</time>
      </trkpt>
      <trkpt lat="37.16574" lon="-8.84673">
        <ele>31.38</ele>
        <time>2020-09-05T11:27:47Z</time>
      </trkpt>
      <trkpt lat="37.16571" lon="-8.8467">
        <ele>31.38</ele>
        <time>2020-09-05T11:27:48Z</time>
      </trkpt>
      <trkpt lat="37.16568" lon="-8.84666">
        <ele>31.38</ele>
        <time>2020-09-05T11:27:49Z</time>
      </trkpt>
      <trkpt lat="37.16566" lon="-8.84663">
        <ele>31.38</ele>
        <time>2020-09-05T11:27:50Z</time>
      </trkpt>
      <trkpt lat="37.16563" lon="-8.84659">
        <ele>31.38</ele>
        <time>2020-09-05T11:27:51Z</time>
      </trkpt>
      <trkpt lat="37.16559" lon="-8.84656">
        <ele>31.38</ele>
        <time>2020-09-05T11:27:52Z</time>
      </trkpt>
      <trkpt lat="37.16556" lon="-8.84654">
        <ele>31.86</ele>
        <time>2020-09-05T11:27:53Z</time>
      </trkpt>
      <trkpt lat="37.16553" lon="-8.84652">
        <ele>31.86</ele>
        <time>2020-09-05T11:27:54Z</time>
      </trkpt>
      <trkpt lat="37.16549" lon="-8.8465">
        <ele>31.86</ele>
        <time>2020-09-05T11:27:55Z</time>
      </trkpt>
      <trkpt lat="37.16531" lon="-8.84644">
        <ele>32.34</ele>
        <time>2020-09-05T11:28:00Z</time>
      </trkpt>
      <trkpt lat="37.16526" lon="-8.84645">
        <ele>32.34</ele>
        <time>2020-09-05T11:28:01Z</time>
      </trkpt>
      <trkpt lat="37.16522" lon="-8.84646">
        <ele>32.34</ele>
        <time>2020-09-05T11:28:02Z</time>
      </trkpt>
      <trkpt lat="37.16518" lon="-8.84648">
        <ele>32.34</ele>
        <time>2020-09-05T11:28:03Z</time>
      </trkpt>
      <trkpt lat="37.16514" lon="-8.84651">
        <ele>32.34</ele>
        <time>2020-09-05T11:28:04Z</time>
      </trkpt>
      <trkpt lat="37.16511" lon="-8.84654">
        <ele>30.9</ele>
        <time>2020-09-05T11:28:05Z</time>
      </trkpt>
      <trkpt lat="37.16507" lon="-8.84657">
        <ele>30.9</ele>
        <time>2020-09-05T11:28:06Z</time>
      </trkpt>
      <trkpt lat="37.16504" lon="-8.8466">
        <ele>30.9</ele>
        <time>2020-09-05T11:28:07Z</time>
      </trkpt>
      <trkpt lat="37.16501" lon="-8.84664">
        <ele>30.9</ele>
        <time>2020-09-05T11:28:08Z</time>
      </trkpt>
      <trkpt lat="37.1648" lon="-8.84683">
        <ele>30.9</ele>
        <time>2020-09-05T11:28:14Z</time>
      </trkpt>
      <trkpt lat="37.16477" lon="-8.84685">
        <ele>30.9</ele>
        <time>2020-09-05T11:28:15Z</time>
      </trkpt>
      <trkpt lat="37.16473" lon="-8.84687">
        <ele>30.9</ele>
        <time>2020-09-05T11:28:16Z</time>
      </trkpt>
      <trkpt lat="37.16468" lon="-8.84688">
        <ele>30.9</ele>
        <time>2020-09-05T11:28:17Z</time>
      </trkpt>
      <trkpt lat="37.16464" lon="-8.84689">
        <ele>30.9</ele>
        <time>2020-09-05T11:28:18Z</time>
      </trkpt>
      <trkpt lat="37.16455" lon="-8.84691">
        <ele>30.9</ele>
        <time>2020-09-05T11:28:20Z</time>
      </trkpt>
      <trkpt lat="37.16451" lon="-8.84693">
        <ele>30.9</ele>
        <time>2020-09-05T11:28:21Z</time>
      </trkpt>
      <trkpt lat="37.16447" lon="-8.84694">
        <ele>30.9</ele>
        <time>2020-09-05T11:28:22Z</time>
      </trkpt>
      <trkpt lat="37.16442" lon="-8.84694">
        <ele>30.42</ele>
        <time>2020-09-05T11:28:23Z</time>
      </trkpt>
      <trkpt lat="37.16438" lon="-8.84694">
        <ele>30.9</ele>
        <time>2020-09-05T11:28:24Z</time>
      </trkpt>
      <trkpt lat="37.16434" lon="-8.84693">
        <ele>30.9</ele>
        <time>2020-09-05T11:28:25Z</time>
      </trkpt>
      <trkpt lat="37.16429" lon="-8.84691">
        <ele>30.9</ele>
        <time>2020-09-05T11:28:26Z</time>
      </trkpt>
      <trkpt lat="37.16425" lon="-8.84689">
        <ele>30.9</ele>
        <time>2020-09-05T11:28:27Z</time>
      </trkpt>
      <trkpt lat="37.16395" lon="-8.84679">
        <ele>31.86</ele>
        <time>2020-09-05T11:28:34Z</time>
      </trkpt>
      <trkpt lat="37.1637" lon="-8.84672">
        <ele>31.86</ele>
        <time>2020-09-05T11:28:40Z</time>
      </trkpt>
      <trkpt lat="37.16366" lon="-8.84669">
        <ele>31.86</ele>
        <time>2020-09-05T11:28:41Z</time>
      </trkpt>
      <trkpt lat="37.16364" lon="-8.84666">
        <ele>31.86</ele>
        <time>2020-09-05T11:28:42Z</time>
      </trkpt>
      <trkpt lat="37.16362" lon="-8.84663">
        <ele>31.86</ele>
        <time>2020-09-05T11:28:43Z</time>
      </trkpt>
      <trkpt lat="37.1636" lon="-8.8466">
        <ele>31.86</ele>
        <time>2020-09-05T11:28:44Z</time>
      </trkpt>
      <trkpt lat="37.16357" lon="-8.84656">
        <ele>32.34</ele>
        <time>2020-09-05T11:28:45Z</time>
      </trkpt>
      <trkpt lat="37.16352" lon="-8.84649">
        <ele>32.34</ele>
        <time>2020-09-05T11:28:47Z</time>
      </trkpt>
      <trkpt lat="37.16347" lon="-8.84645">
        <ele>30.9</ele>
        <time>2020-09-05T11:28:48Z</time>
      </trkpt>
      <trkpt lat="37.16343" lon="-8.84643">
        <ele>30.42</ele>
        <time>2020-09-05T11:28:49Z</time>
      </trkpt>
      <trkpt lat="37.16339" lon="-8.84642">
        <ele>30.42</ele>
        <time>2020-09-05T11:28:50Z</time>
      </trkpt>
      <trkpt lat="37.16335" lon="-8.84642">
        <ele>31.86</ele>
        <time>2020-09-05T11:28:51Z</time>
      </trkpt>
      <trkpt lat="37.16331" lon="-8.84643">
        <ele>31.86</ele>
        <time>2020-09-05T11:28:52Z</time>
      </trkpt>
      <trkpt lat="37.16295" lon="-8.8464">
        <ele>32.34</ele>
        <time>2020-09-05T11:29:00Z</time>
      </trkpt>
      <trkpt lat="37.16291" lon="-8.84639">
        <ele>32.34</ele>
        <time>2020-09-05T11:29:01Z</time>
      </trkpt>
      <trkpt lat="37.16277" lon="-8.84635">
        <ele>32.34</ele>
        <time>2020-09-05T11:29:04Z</time>
      </trkpt>
      <trkpt lat="37.16272" lon="-8.84635">
        <ele>32.34</ele>
        <time>2020-09-05T11:29:05Z</time>
      </trkpt>
      <trkpt lat="37.16268" lon="-8.84635">
        <ele>32.34</ele>
        <time>2020-09-05T11:29:06Z</time>
      </trkpt>
      <trkpt lat="37.16263" lon="-8.84637">
        <ele>32.34</ele>
        <time>2020-09-05T11:29:07Z</time>
      </trkpt>
      <trkpt lat="37.16259" lon="-8.84639">
        <ele>32.34</ele>
        <time>2020-09-05T11:29:08Z</time>
      </trkpt>
      <trkpt lat="37.16255" lon="-8.84642">
        <ele>32.34</ele>
        <time>2020-09-05T11:29:09Z</time>
      </trkpt>
      <trkpt lat="37.16251" lon="-8.84645">
        <ele>32.34</ele>
        <time>2020-09-05T11:29:10Z</time>
      </trkpt>
      <trkpt lat="37.16248" lon="-8.84649">
        <ele>32.34</ele>
        <time>2020-09-05T11:29:11Z</time>
      </trkpt>
      <trkpt lat="37.16237" lon="-8.84658">
        <ele>32.82</ele>
        <time>2020-09-05T11:29:14Z</time>
      </trkpt>
      <trkpt lat="37.16225" lon="-8.84666">
        <ele>32.82</ele>
        <time>2020-09-05T11:29:17Z</time>
      </trkpt>
      <trkpt lat="37.16208" lon="-8.84673">
        <ele>32.82</ele>
        <time>2020-09-05T11:29:21Z</time>
      </trkpt>
      <trkpt lat="37.16204" lon="-8.84675">
        <ele>32.82</ele>
        <time>2020-09-05T11:29:22Z</time>
      </trkpt>
      <trkpt lat="37.16192" lon="-8.84684">
        <ele>32.82</ele>
        <time>2020-09-05T11:29:25Z</time>
      </trkpt>
      <trkpt lat="37.1616" lon="-8.84724">
        <ele>33.3</ele>
        <time>2020-09-05T11:29:35Z</time>
      </trkpt>
      <trkpt lat="37.16155" lon="-8.84734">
        <ele>33.3</ele>
        <time>2020-09-05T11:29:37Z</time>
      </trkpt>
      <trkpt lat="37.16138" lon="-8.84774">
        <ele>33.3</ele>
        <time>2020-09-05T11:29:45Z</time>
      </trkpt>
      <trkpt lat="37.16116" lon="-8.8484">
        <ele>33.3</ele>
        <time>2020-09-05T11:29:57Z</time>
      </trkpt>
      <trkpt lat="37.1611" lon="-8.84885">
        <ele>33.3</ele>
        <time>2020-09-05T11:30:05Z</time>
      </trkpt>
      <trkpt lat="37.16106" lon="-8.84912">
        <ele>33.78</ele>
        <time>2020-09-05T11:30:10Z</time>
      </trkpt>
      <trkpt lat="37.16104" lon="-8.84917">
        <ele>33.78</ele>
        <time>2020-09-05T11:30:11Z</time>
      </trkpt>
      <trkpt lat="37.16084" lon="-8.84965">
        <ele>33.78</ele>
        <time>2020-09-05T11:30:20Z</time>
      </trkpt>
      <trkpt lat="37.1607" lon="-8.85007">
        <ele>33.78</ele>
        <time>2020-09-05T11:30:28Z</time>
      </trkpt>
      <trkpt lat="37.16061" lon="-8.85061">
        <ele>33.78</ele>
        <time>2020-09-05T11:30:38Z</time>
      </trkpt>
      <trkpt lat="37.16061" lon="-8.85072">
        <ele>33.78</ele>
        <time>2020-09-05T11:30:40Z</time>
      </trkpt>
      <trkpt lat="37.16061" lon="-8.85083">
        <ele>33.78</ele>
        <time>2020-09-05T11:30:42Z</time>
      </trkpt>
      <trkpt lat="37.16061" lon="-8.85088">
        <ele>34.26</ele>
        <time>2020-09-05T11:30:43Z</time>
      </trkpt>
      <trkpt lat="37.1606" lon="-8.85094">
        <ele>34.26</ele>
        <time>2020-09-05T11:30:44Z</time>
      </trkpt>
      <trkpt lat="37.16057" lon="-8.851">
        <ele>34.26</ele>
        <time>2020-09-05T11:30:45Z</time>
      </trkpt>
      <trkpt lat="37.16053" lon="-8.85106">
        <ele>32.34</ele>
        <time>2020-09-05T11:30:46Z</time>
      </trkpt>
      <trkpt lat="37.16049" lon="-8.85111">
        <ele>31.86</ele>
        <time>2020-09-05T11:30:47Z</time>
      </trkpt>
      <trkpt lat="37.16046" lon="-8.85115">
        <ele>31.86</ele>
        <time>2020-09-05T11:30:48Z</time>
      </trkpt>
      <trkpt lat="37.16042" lon="-8.85117">
        <ele>31.86</ele>
        <time>2020-09-05T11:30:49Z</time>
      </trkpt>
      <trkpt lat="37.16038" lon="-8.85119">
        <ele>33.3</ele>
        <time>2020-09-05T11:30:50Z</time>
      </trkpt>
      <trkpt lat="37.16034" lon="-8.85121">
        <ele>33.3</ele>
        <time>2020-09-05T11:30:51Z</time>
      </trkpt>
      <trkpt lat="37.1603" lon="-8.85121">
        <ele>33.3</ele>
        <time>2020-09-05T11:30:52Z</time>
      </trkpt>
      <trkpt lat="37.16026" lon="-8.85121">
        <ele>33.78</ele>
        <time>2020-09-05T11:30:53Z</time>
      </trkpt>
      <trkpt lat="37.16021" lon="-8.85121">
        <ele>33.78</ele>
        <time>2020-09-05T11:30:54Z</time>
      </trkpt>
      <trkpt lat="37.16006" lon="-8.85119">
        <ele>34.26</ele>
        <time>2020-09-05T11:30:57Z</time>
      </trkpt>
      <trkpt lat="37.16001" lon="-8.85117">
        <ele>34.26</ele>
        <time>2020-09-05T11:30:58Z</time>
      </trkpt>
      <trkpt lat="37.15958" lon="-8.85105">
        <ele>34.74</ele>
        <time>2020-09-05T11:31:07Z</time>
      </trkpt>
      <trkpt lat="37.1592" lon="-8.85107">
        <ele>35.71</ele>
        <time>2020-09-05T11:31:15Z</time>
      </trkpt>
      <trkpt lat="37.15915" lon="-8.85108">
        <ele>35.71</ele>
        <time>2020-09-05T11:31:16Z</time>
      </trkpt>
      <trkpt lat="37.15855" lon="-8.85137">
        <ele>35.71</ele>
        <time>2020-09-05T11:31:28Z</time>
      </trkpt>
      <trkpt lat="37.15825" lon="-8.85163">
        <ele>35.71</ele>
        <time>2020-09-05T11:31:35Z</time>
      </trkpt>
      <trkpt lat="37.15811" lon="-8.85173">
        <ele>35.71</ele>
        <time>2020-09-05T11:31:38Z</time>
      </trkpt>
      <trkpt lat="37.15806" lon="-8.85176">
        <ele>35.71</ele>
        <time>2020-09-05T11:31:39Z</time>
      </trkpt>
      <trkpt lat="37.15765" lon="-8.85191">
        <ele>35.71</ele>
        <time>2020-09-05T11:31:47Z</time>
      </trkpt>
      <trkpt lat="37.1576" lon="-8.85193">
        <ele>35.71</ele>
        <time>2020-09-05T11:31:48Z</time>
      </trkpt>
      <trkpt lat="37.15756" lon="-8.85197">
        <ele>35.71</ele>
        <time>2020-09-05T11:31:49Z</time>
      </trkpt>
      <trkpt lat="37.15751" lon="-8.852">
        <ele>35.71</ele>
        <time>2020-09-05T11:31:50Z</time>
      </trkpt>
      <trkpt lat="37.15747" lon="-8.85203">
        <ele>35.71</ele>
        <time>2020-09-05T11:31:51Z</time>
      </trkpt>
      <trkpt lat="37.15716" lon="-8.8523">
        <ele>36.67</ele>
        <time>2020-09-05T11:31:59Z</time>
      </trkpt>
      <trkpt lat="37.15677" lon="-8.8526">
        <ele>36.67</ele>
        <time>2020-09-05T11:32:09Z</time>
      </trkpt>
      <trkpt lat="37.15634" lon="-8.85292">
        <ele>36.67</ele>
        <time>2020-09-05T11:32:20Z</time>
      </trkpt>
      <trkpt lat="37.15622" lon="-8.85302">
        <ele>36.67</ele>
        <time>2020-09-05T11:32:23Z</time>
      </trkpt>
      <trkpt lat="37.15619" lon="-8.85307">
        <ele>36.67</ele>
        <time>2020-09-05T11:32:24Z</time>
      </trkpt>
      <trkpt lat="37.15616" lon="-8.85312">
        <ele>36.67</ele>
        <time>2020-09-05T11:32:25Z</time>
      </trkpt>
      <trkpt lat="37.15606" lon="-8.85337">
        <ele>36.19</ele>
        <time>2020-09-05T11:32:30Z</time>
      </trkpt>
      <trkpt lat="37.15604" lon="-8.85342">
        <ele>36.19</ele>
        <time>2020-09-05T11:32:31Z</time>
      </trkpt>
      <trkpt lat="37.15597" lon="-8.85363">
        <ele>36.19</ele>
        <time>2020-09-05T11:32:35Z</time>
      </trkpt>
      <trkpt lat="37.15584" lon="-8.85406">
        <ele>36.19</ele>
        <time>2020-09-05T11:32:43Z</time>
      </trkpt>
      <trkpt lat="37.15572" lon="-8.8543">
        <ele>36.67</ele>
        <time>2020-09-05T11:32:48Z</time>
      </trkpt>
      <trkpt lat="37.1557" lon="-8.85435">
        <ele>36.67</ele>
        <time>2020-09-05T11:32:49Z</time>
      </trkpt>
      <trkpt lat="37.15544" lon="-8.8547">
        <ele>36.19</ele>
        <time>2020-09-05T11:32:57Z</time>
      </trkpt>
      <trkpt lat="37.15513" lon="-8.8549">
        <ele>36.19</ele>
        <time>2020-09-05T11:33:04Z</time>
      </trkpt>
      <trkpt lat="37.15466" lon="-8.85511">
        <ele>36.67</ele>
        <time>2020-09-05T11:33:14Z</time>
      </trkpt>
      <trkpt lat="37.1543" lon="-8.85524">
        <ele>37.63</ele>
        <time>2020-09-05T11:33:22Z</time>
      </trkpt>
      <trkpt lat="37.15417" lon="-8.85532">
        <ele>37.63</ele>
        <time>2020-09-05T11:33:25Z</time>
      </trkpt>
      <trkpt lat="37.15389" lon="-8.85559">
        <ele>38.11</ele>
        <time>2020-09-05T11:33:33Z</time>
      </trkpt>
      <trkpt lat="37.15385" lon="-8.85562">
        <ele>38.11</ele>
        <time>2020-09-05T11:33:34Z</time>
      </trkpt>
      <trkpt lat="37.15354" lon="-8.85599">
        <ele>38.11</ele>
        <time>2020-09-05T11:33:43Z</time>
      </trkpt>
      <trkpt lat="37.1535" lon="-8.85602">
        <ele>38.59</ele>
        <time>2020-09-05T11:33:44Z</time>
      </trkpt>
      <trkpt lat="37.15345" lon="-8.85605">
        <ele>38.59</ele>
        <time>2020-09-05T11:33:45Z</time>
      </trkpt>
      <trkpt lat="37.15317" lon="-8.85623">
        <ele>39.07</ele>
        <time>2020-09-05T11:33:52Z</time>
      </trkpt>
      <trkpt lat="37.15313" lon="-8.85627">
        <ele>39.07</ele>
        <time>2020-09-05T11:33:53Z</time>
      </trkpt>
      <trkpt lat="37.1531" lon="-8.8563">
        <ele>39.07</ele>
        <time>2020-09-05T11:33:54Z</time>
      </trkpt>
      <trkpt lat="37.1528" lon="-8.85675">
        <ele>40.03</ele>
        <time>2020-09-05T11:34:04Z</time>
      </trkpt>
      <trkpt lat="37.15259" lon="-8.85718">
        <ele>40.03</ele>
        <time>2020-09-05T11:34:13Z</time>
      </trkpt>
      <trkpt lat="37.15256" lon="-8.85722">
        <ele>40.03</ele>
        <time>2020-09-05T11:34:14Z</time>
      </trkpt>
      <trkpt lat="37.15253" lon="-8.85725">
        <ele>40.99</ele>
        <time>2020-09-05T11:34:15Z</time>
      </trkpt>
      <trkpt lat="37.15249" lon="-8.85728">
        <ele>41.47</ele>
        <time>2020-09-05T11:34:16Z</time>
      </trkpt>
      <trkpt lat="37.15245" lon="-8.8573">
        <ele>41.95</ele>
        <time>2020-09-05T11:34:17Z</time>
      </trkpt>
      <trkpt lat="37.15241" lon="-8.85732">
        <ele>41.95</ele>
        <time>2020-09-05T11:34:18Z</time>
      </trkpt>
      <trkpt lat="37.15237" lon="-8.85733">
        <ele>41.95</ele>
        <time>2020-09-05T11:34:19Z</time>
      </trkpt>
      <trkpt lat="37.15233" lon="-8.85734">
        <ele>41.95</ele>
        <time>2020-09-05T11:34:20Z</time>
      </trkpt>
      <trkpt lat="37.15191" lon="-8.85742">
        <ele>43.4</ele>
        <time>2020-09-05T11:34:30Z</time>
      </trkpt>
      <trkpt lat="37.15154" lon="-8.85748">
        <ele>43.88</ele>
        <time>2020-09-05T11:34:39Z</time>
      </trkpt>
      <trkpt lat="37.15116" lon="-8.85747">
        <ele>43.88</ele>
        <time>2020-09-05T11:34:48Z</time>
      </trkpt>
      <trkpt lat="37.15112" lon="-8.85747">
        <ele>44.36</ele>
        <time>2020-09-05T11:34:49Z</time>
      </trkpt>
      <trkpt lat="37.15078" lon="-8.85746">
        <ele>45.32</ele>
        <time>2020-09-05T11:34:58Z</time>
      </trkpt>
      <trkpt lat="37.1503" lon="-8.85728">
        <ele>45.32</ele>
        <time>2020-09-05T11:35:09Z</time>
      </trkpt>
      <trkpt lat="37.15003" lon="-8.85706">
        <ele>43.88</ele>
        <time>2020-09-05T11:35:17Z</time>
      </trkpt>
      <trkpt lat="37.14998" lon="-8.85702">
        <ele>43.4</ele>
        <time>2020-09-05T11:35:18Z</time>
      </trkpt>
      <trkpt lat="37.14994" lon="-8.85699">
        <ele>42.92</ele>
        <time>2020-09-05T11:35:19Z</time>
      </trkpt>
      <trkpt lat="37.14988" lon="-8.85697">
        <ele>42.44</ele>
        <time>2020-09-05T11:35:20Z</time>
      </trkpt>
      <trkpt lat="37.14982" lon="-8.85695">
        <ele>41.47</ele>
        <time>2020-09-05T11:35:21Z</time>
      </trkpt>
      <trkpt lat="37.14977" lon="-8.85695">
        <ele>41.95</ele>
        <time>2020-09-05T11:35:22Z</time>
      </trkpt>
      <trkpt lat="37.14954" lon="-8.85694">
        <ele>42.92</ele>
        <time>2020-09-05T11:35:28Z</time>
      </trkpt>
      <trkpt lat="37.14915" lon="-8.857">
        <ele>44.84</ele>
        <time>2020-09-05T11:35:39Z</time>
      </trkpt>
      <trkpt lat="37.14911" lon="-8.85702">
        <ele>44.84</ele>
        <time>2020-09-05T11:35:40Z</time>
      </trkpt>
      <trkpt lat="37.14907" lon="-8.85704">
        <ele>44.84</ele>
        <time>2020-09-05T11:35:41Z</time>
      </trkpt>
      <trkpt lat="37.14904" lon="-8.85708">
        <ele>45.32</ele>
        <time>2020-09-05T11:35:42Z</time>
      </trkpt>
      <trkpt lat="37.149" lon="-8.85711">
        <ele>45.32</ele>
        <time>2020-09-05T11:35:43Z</time>
      </trkpt>
      <trkpt lat="37.14897" lon="-8.85716">
        <ele>45.32</ele>
        <time>2020-09-05T11:35:44Z</time>
      </trkpt>
      <trkpt lat="37.14864" lon="-8.85759">
        <ele>45.32</ele>
        <time>2020-09-05T11:35:54Z</time>
      </trkpt>
      <trkpt lat="37.14826" lon="-8.85799">
        <ele>45.32</ele>
        <time>2020-09-05T11:36:04Z</time>
      </trkpt>
      <trkpt lat="37.14792" lon="-8.85824">
        <ele>45.32</ele>
        <time>2020-09-05T11:36:12Z</time>
      </trkpt>
      <trkpt lat="37.14784" lon="-8.85832">
        <ele>45.32</ele>
        <time>2020-09-05T11:36:14Z</time>
      </trkpt>
      <trkpt lat="37.14781" lon="-8.85835">
        <ele>45.32</ele>
        <time>2020-09-05T11:36:15Z</time>
      </trkpt>
      <trkpt lat="37.14777" lon="-8.85838">
        <ele>45.32</ele>
        <time>2020-09-05T11:36:16Z</time>
      </trkpt>
      <trkpt lat="37.14773" lon="-8.85842">
        <ele>45.32</ele>
        <time>2020-09-05T11:36:17Z</time>
      </trkpt>
      <trkpt lat="37.14769" lon="-8.85846">
        <ele>45.32</ele>
        <time>2020-09-05T11:36:18Z</time>
      </trkpt>
      <trkpt lat="37.14758" lon="-8.85857">
        <ele>45.32</ele>
        <time>2020-09-05T11:36:21Z</time>
      </trkpt>
      <trkpt lat="37.14754" lon="-8.8586">
        <ele>45.32</ele>
        <time>2020-09-05T11:36:22Z</time>
      </trkpt>
      <trkpt lat="37.1475" lon="-8.85863">
        <ele>45.8</ele>
        <time>2020-09-05T11:36:23Z</time>
      </trkpt>
      <trkpt lat="37.14746" lon="-8.85865">
        <ele>46.28</ele>
        <time>2020-09-05T11:36:24Z</time>
      </trkpt>
      <trkpt lat="37.14742" lon="-8.85867">
        <ele>46.28</ele>
        <time>2020-09-05T11:36:25Z</time>
      </trkpt>
      <trkpt lat="37.14737" lon="-8.85868">
        <ele>46.28</ele>
        <time>2020-09-05T11:36:26Z</time>
      </trkpt>
      <trkpt lat="37.14733" lon="-8.85869">
        <ele>46.28</ele>
        <time>2020-09-05T11:36:27Z</time>
      </trkpt>
      <trkpt lat="37.14729" lon="-8.8587">
        <ele>46.76</ele>
        <time>2020-09-05T11:36:28Z</time>
      </trkpt>
      <trkpt lat="37.14725" lon="-8.85872">
        <ele>46.76</ele>
        <time>2020-09-05T11:36:29Z</time>
      </trkpt>
      <trkpt lat="37.14721" lon="-8.85874">
        <ele>46.76</ele>
        <time>2020-09-05T11:36:30Z</time>
      </trkpt>
      <trkpt lat="37.14718" lon="-8.85877">
        <ele>46.76</ele>
        <time>2020-09-05T11:36:31Z</time>
      </trkpt>
      <trkpt lat="37.14714" lon="-8.8588">
        <ele>47.24</ele>
        <time>2020-09-05T11:36:32Z</time>
      </trkpt>
      <trkpt lat="37.14711" lon="-8.85884">
        <ele>47.24</ele>
        <time>2020-09-05T11:36:33Z</time>
      </trkpt>
      <trkpt lat="37.14709" lon="-8.85887">
        <ele>47.24</ele>
        <time>2020-09-05T11:36:34Z</time>
      </trkpt>
      <trkpt lat="37.14692" lon="-8.85919">
        <ele>48.68</ele>
        <time>2020-09-05T11:36:42Z</time>
      </trkpt>
      <trkpt lat="37.14674" lon="-8.8594">
        <ele>51.09</ele>
        <time>2020-09-05T11:36:49Z</time>
      </trkpt>
      <trkpt lat="37.14643" lon="-8.85962">
        <ele>52.05</ele>
        <time>2020-09-05T11:36:59Z</time>
      </trkpt>
      <trkpt lat="37.14607" lon="-8.85979">
        <ele>50.61</ele>
        <time>2020-09-05T11:37:08Z</time>
      </trkpt>
      <trkpt lat="37.14572" lon="-8.86001">
        <ele>50.61</ele>
        <time>2020-09-05T11:37:17Z</time>
      </trkpt>
      <trkpt lat="37.14531" lon="-8.86021">
        <ele>50.13</ele>
        <time>2020-09-05T11:37:26Z</time>
      </trkpt>
      <trkpt lat="37.14491" lon="-8.86036">
        <ele>48.2</ele>
        <time>2020-09-05T11:37:33Z</time>
      </trkpt>
      <trkpt lat="37.1446" lon="-8.86048">
        <ele>49.65</ele>
        <time>2020-09-05T11:37:39Z</time>
      </trkpt>
      <trkpt lat="37.1442" lon="-8.86061">
        <ele>49.65</ele>
        <time>2020-09-05T11:37:48Z</time>
      </trkpt>
      <trkpt lat="37.14379" lon="-8.86084">
        <ele>50.13</ele>
        <time>2020-09-05T11:37:58Z</time>
      </trkpt>
      <trkpt lat="37.14347" lon="-8.86097">
        <ele>51.57</ele>
        <time>2020-09-05T11:38:06Z</time>
      </trkpt>
      <trkpt lat="37.14311" lon="-8.86114">
        <ele>54.45</ele>
        <time>2020-09-05T11:38:17Z</time>
      </trkpt>
      <trkpt lat="37.14282" lon="-8.86136">
        <ele>56.37</ele>
        <time>2020-09-05T11:38:27Z</time>
      </trkpt>
      <trkpt lat="37.1426" lon="-8.86164">
        <ele>56.37</ele>
        <time>2020-09-05T11:38:35Z</time>
      </trkpt>
      <trkpt lat="37.14257" lon="-8.86168">
        <ele>54.93</ele>
        <time>2020-09-05T11:38:36Z</time>
      </trkpt>
      <trkpt lat="37.14253" lon="-8.86171">
        <ele>54.93</ele>
        <time>2020-09-05T11:38:37Z</time>
      </trkpt>
      <trkpt lat="37.14248" lon="-8.86172">
        <ele>54.93</ele>
        <time>2020-09-05T11:38:38Z</time>
      </trkpt>
      <trkpt lat="37.14242" lon="-8.8617">
        <ele>54.45</ele>
        <time>2020-09-05T11:38:39Z</time>
      </trkpt>
      <trkpt lat="37.14238" lon="-8.86165">
        <ele>53.97</ele>
        <time>2020-09-05T11:38:40Z</time>
      </trkpt>
      <trkpt lat="37.14234" lon="-8.86158">
        <ele>53.49</ele>
        <time>2020-09-05T11:38:41Z</time>
      </trkpt>
      <trkpt lat="37.14232" lon="-8.86151">
        <ele>53.49</ele>
        <time>2020-09-05T11:38:42Z</time>
      </trkpt>
      <trkpt lat="37.14231" lon="-8.86143">
        <ele>53.01</ele>
        <time>2020-09-05T11:38:43Z</time>
      </trkpt>
      <trkpt lat="37.14228" lon="-8.86136">
        <ele>53.01</ele>
        <time>2020-09-05T11:38:44Z</time>
      </trkpt>
      <trkpt lat="37.14223" lon="-8.86131">
        <ele>52.53</ele>
        <time>2020-09-05T11:38:45Z</time>
      </trkpt>
      <trkpt lat="37.14217" lon="-8.86129">
        <ele>52.53</ele>
        <time>2020-09-05T11:38:46Z</time>
      </trkpt>
      <trkpt lat="37.14212" lon="-8.8613">
        <ele>52.53</ele>
        <time>2020-09-05T11:38:47Z</time>
      </trkpt>
      <trkpt lat="37.14208" lon="-8.86133">
        <ele>52.53</ele>
        <time>2020-09-05T11:38:48Z</time>
      </trkpt>
      <trkpt lat="37.14204" lon="-8.86137">
        <ele>52.53</ele>
        <time>2020-09-05T11:38:49Z</time>
      </trkpt>
      <trkpt lat="37.14202" lon="-8.8614">
        <ele>52.53</ele>
        <time>2020-09-05T11:38:50Z</time>
      </trkpt>
      <trkpt lat="37.14187" lon="-8.86155">
        <ele>55.41</ele>
        <time>2020-09-05T11:38:56Z</time>
      </trkpt>
      <trkpt lat="37.1417" lon="-8.86156">
        <ele>55.89</ele>
        <time>2020-09-05T11:39:01Z</time>
      </trkpt>
      <trkpt lat="37.14166" lon="-8.86156">
        <ele>55.89</ele>
        <time>2020-09-05T11:39:02Z</time>
      </trkpt>
      <trkpt lat="37.14162" lon="-8.86155">
        <ele>55.89</ele>
        <time>2020-09-05T11:39:03Z</time>
      </trkpt>
      <trkpt lat="37.14148" lon="-8.86152">
        <ele>54.45</ele>
        <time>2020-09-05T11:39:06Z</time>
      </trkpt>
      <trkpt lat="37.14111" lon="-8.86141">
        <ele>52.53</ele>
        <time>2020-09-05T11:39:13Z</time>
      </trkpt>
      <trkpt lat="37.14099" lon="-8.86137">
        <ele>51.09</ele>
        <time>2020-09-05T11:39:15Z</time>
      </trkpt>
      <trkpt lat="37.14093" lon="-8.86136">
        <ele>51.09</ele>
        <time>2020-09-05T11:39:16Z</time>
      </trkpt>
      <trkpt lat="37.14087" lon="-8.86138">
        <ele>51.09</ele>
        <time>2020-09-05T11:39:17Z</time>
      </trkpt>
      <trkpt lat="37.14082" lon="-8.86143">
        <ele>50.61</ele>
        <time>2020-09-05T11:39:18Z</time>
      </trkpt>
      <trkpt lat="37.14078" lon="-8.86149">
        <ele>50.61</ele>
        <time>2020-09-05T11:39:19Z</time>
      </trkpt>
      <trkpt lat="37.14076" lon="-8.86153">
        <ele>50.61</ele>
        <time>2020-09-05T11:39:20Z</time>
      </trkpt>
      <trkpt lat="37.14076" lon="-8.86158">
        <ele>50.61</ele>
        <time>2020-09-05T11:39:21Z</time>
      </trkpt>
      <trkpt lat="37.14075" lon="-8.86163">
        <ele>50.61</ele>
        <time>2020-09-05T11:39:22Z</time>
      </trkpt>
      <trkpt lat="37.14075" lon="-8.86167">
        <ele>50.61</ele>
        <time>2020-09-05T11:39:23Z</time>
      </trkpt>
      <trkpt lat="37.14074" lon="-8.86185">
        <ele>52.05</ele>
        <time>2020-09-05T11:39:27Z</time>
      </trkpt>
      <trkpt lat="37.14068" lon="-8.86211">
        <ele>53.01</ele>
        <time>2020-09-05T11:39:34Z</time>
      </trkpt>
      <trkpt lat="37.14067" lon="-8.86223">
        <ele>53.97</ele>
        <time>2020-09-05T11:39:40Z</time>
      </trkpt>
      <trkpt lat="37.14068" lon="-8.86224">
        <ele>53.97</ele>
        <time>2020-09-05T11:39:47Z</time>
      </trkpt>
      <trkpt lat="37.14068" lon="-8.86223">
        <ele>50.61</ele>
        <time>2020-09-05T11:39:53Z</time>
      </trkpt>
      <trkpt lat="37.14068" lon="-8.86222">
        <ele>54.93</ele>
        <time>2020-09-05T11:39:54Z</time>
      </trkpt>
      <trkpt lat="37.14068" lon="-8.86222">
        <ele>51.09</ele>
        <time>2020-09-05T11:39:58Z</time>
      </trkpt>
      <trkpt lat="37.14067" lon="-8.86228">
        <ele>54.45</ele>
        <time>2020-09-05T12:23:16Z</time>
      </trkpt>
      <trkpt lat="37.14067" lon="-8.86228">
        <ele>54.45</ele>
        <time>2020-09-05T12:23:44Z</time>
      </trkpt>
      <trkpt lat="37.14066" lon="-8.86226">
        <ele>55.41</ele>
        <time>2020-09-05T12:24:01Z</time>
      </trkpt>
      <trkpt lat="37.14065" lon="-8.86225">
        <ele>53.97</ele>
        <time>2020-09-05T12:24:10Z</time>
      </trkpt>
      <trkpt lat="37.14065" lon="-8.86225">
        <ele>55.41</ele>
        <time>2020-09-05T12:24:12Z</time>
      </trkpt>
      <trkpt lat="37.14065" lon="-8.86225">
        <ele>55.41</ele>
        <time>2020-09-05T12:24:13Z</time>
      </trkpt>
      <trkpt lat="37.14064" lon="-8.86225">
        <ele>55.41</ele>
        <time>2020-09-05T12:24:27Z</time>
      </trkpt>
      <trkpt lat="37.14064" lon="-8.86226">
        <ele>55.41</ele>
        <time>2020-09-05T12:24:39Z</time>
      </trkpt>
      <trkpt lat="37.14064" lon="-8.86226">
        <ele>55.41</ele>
        <time>2020-09-05T12:24:53Z</time>
      </trkpt>
      <trkpt lat="37.14064" lon="-8.86226">
        <ele>55.41</ele>
        <time>2020-09-05T12:25:07Z</time>
      </trkpt>
      <trkpt lat="37.14063" lon="-8.86226">
        <ele>55.41</ele>
        <time>2020-09-05T12:25:23Z</time>
      </trkpt>
      <trkpt lat="37.14063" lon="-8.86226">
        <ele>55.41</ele>
        <time>2020-09-05T12:25:24Z</time>
      </trkpt>
      <trkpt lat="37.14065" lon="-8.86221">
        <ele>55.41</ele>
        <time>2020-09-05T12:25:34Z</time>
      </trkpt>
      <trkpt lat="37.14065" lon="-8.86216">
        <ele>55.41</ele>
        <time>2020-09-05T12:25:37Z</time>
      </trkpt>
      <trkpt lat="37.14065" lon="-8.86213">
        <ele>55.41</ele>
        <time>2020-09-05T12:25:38Z</time>
      </trkpt>
      <trkpt lat="37.14066" lon="-8.8621">
        <ele>55.41</ele>
        <time>2020-09-05T12:25:39Z</time>
      </trkpt>
      <trkpt lat="37.14067" lon="-8.86208">
        <ele>55.41</ele>
        <time>2020-09-05T12:25:40Z</time>
      </trkpt>
      <trkpt lat="37.14068" lon="-8.86206">
        <ele>55.41</ele>
        <time>2020-09-05T12:25:41Z</time>
      </trkpt>
      <trkpt lat="37.14069" lon="-8.86203">
        <ele>54.45</ele>
        <time>2020-09-05T12:25:42Z</time>
      </trkpt>
      <trkpt lat="37.1407" lon="-8.862">
        <ele>54.45</ele>
        <time>2020-09-05T12:25:43Z</time>
      </trkpt>
      <trkpt lat="37.1407" lon="-8.86196">
        <ele>54.45</ele>
        <time>2020-09-05T12:25:44Z</time>
      </trkpt>
      <trkpt lat="37.14075" lon="-8.86156">
        <ele>53.49</ele>
        <time>2020-09-05T12:25:53Z</time>
      </trkpt>
      <trkpt lat="37.14068" lon="-8.86132">
        <ele>51.57</ele>
        <time>2020-09-05T12:25:59Z</time>
      </trkpt>
      <trkpt lat="37.14066" lon="-8.86131">
        <ele>51.09</ele>
        <time>2020-09-05T12:26:00Z</time>
      </trkpt>
      <trkpt lat="37.14062" lon="-8.8613">
        <ele>51.09</ele>
        <time>2020-09-05T12:26:01Z</time>
      </trkpt>
      <trkpt lat="37.14058" lon="-8.86128">
        <ele>51.09</ele>
        <time>2020-09-05T12:26:02Z</time>
      </trkpt>
      <trkpt lat="37.14053" lon="-8.86126">
        <ele>51.09</ele>
        <time>2020-09-05T12:26:03Z</time>
      </trkpt>
      <trkpt lat="37.14051" lon="-8.86125">
        <ele>51.09</ele>
        <time>2020-09-05T12:26:04Z</time>
      </trkpt>
      <trkpt lat="37.14047" lon="-8.86124">
        <ele>50.61</ele>
        <time>2020-09-05T12:26:05Z</time>
      </trkpt>
      <trkpt lat="37.14044" lon="-8.86124">
        <ele>50.61</ele>
        <time>2020-09-05T12:26:06Z</time>
      </trkpt>
      <trkpt lat="37.14025" lon="-8.8612">
        <ele>50.61</ele>
        <time>2020-09-05T12:26:14Z</time>
      </trkpt>
      <trkpt lat="37.14011" lon="-8.86118">
        <ele>52.53</ele>
        <time>2020-09-05T12:26:20Z</time>
      </trkpt>
      <trkpt lat="37.1399" lon="-8.86117">
        <ele>52.53</ele>
        <time>2020-09-05T12:26:28Z</time>
      </trkpt>
      <trkpt lat="37.1396" lon="-8.8612">
        <ele>53.49</ele>
        <time>2020-09-05T12:26:38Z</time>
      </trkpt>
      <trkpt lat="37.13928" lon="-8.86125">
        <ele>54.45</ele>
        <time>2020-09-05T12:26:49Z</time>
      </trkpt>
      <trkpt lat="37.13902" lon="-8.86126">
        <ele>55.41</ele>
        <time>2020-09-05T12:26:58Z</time>
      </trkpt>
      <trkpt lat="37.13869" lon="-8.86117">
        <ele>55.89</ele>
        <time>2020-09-05T12:27:08Z</time>
      </trkpt>
      <trkpt lat="37.13836" lon="-8.86105">
        <ele>55.89</ele>
        <time>2020-09-05T12:27:17Z</time>
      </trkpt>
      <trkpt lat="37.13798" lon="-8.86091">
        <ele>55.89</ele>
        <time>2020-09-05T12:27:27Z</time>
      </trkpt>
      <trkpt lat="37.13758" lon="-8.8608">
        <ele>55.89</ele>
        <time>2020-09-05T12:27:37Z</time>
      </trkpt>
      <trkpt lat="37.13727" lon="-8.86077">
        <ele>55.89</ele>
        <time>2020-09-05T12:27:45Z</time>
      </trkpt>
      <trkpt lat="37.13696" lon="-8.86077">
        <ele>54.93</ele>
        <time>2020-09-05T12:27:53Z</time>
      </trkpt>
      <trkpt lat="37.13666" lon="-8.86082">
        <ele>54.93</ele>
        <time>2020-09-05T12:28:01Z</time>
      </trkpt>
      <trkpt lat="37.13622" lon="-8.86092">
        <ele>56.37</ele>
        <time>2020-09-05T12:28:13Z</time>
      </trkpt>
      <trkpt lat="37.13581" lon="-8.86098">
        <ele>57.34</ele>
        <time>2020-09-05T12:28:24Z</time>
      </trkpt>
      <trkpt lat="37.13541" lon="-8.86091">
        <ele>57.82</ele>
        <time>2020-09-05T12:28:35Z</time>
      </trkpt>
      <trkpt lat="37.13503" lon="-8.86074">
        <ele>57.82</ele>
        <time>2020-09-05T12:28:46Z</time>
      </trkpt>
      <trkpt lat="37.1348" lon="-8.86061">
        <ele>58.78</ele>
        <time>2020-09-05T12:28:53Z</time>
      </trkpt>
      <trkpt lat="37.13449" lon="-8.86044">
        <ele>59.74</ele>
        <time>2020-09-05T12:29:03Z</time>
      </trkpt>
      <trkpt lat="37.13417" lon="-8.86025">
        <ele>60.22</ele>
        <time>2020-09-05T12:29:13Z</time>
      </trkpt>
      <trkpt lat="37.13378" lon="-8.86011">
        <ele>60.22</ele>
        <time>2020-09-05T12:29:23Z</time>
      </trkpt>
      <trkpt lat="37.13332" lon="-8.86004">
        <ele>60.22</ele>
        <time>2020-09-05T12:29:34Z</time>
      </trkpt>
      <trkpt lat="37.13283" lon="-8.86002">
        <ele>60.22</ele>
        <time>2020-09-05T12:29:46Z</time>
      </trkpt>
      <trkpt lat="37.13233" lon="-8.86004">
        <ele>60.22</ele>
        <time>2020-09-05T12:29:58Z</time>
      </trkpt>
      <trkpt lat="37.13196" lon="-8.86004">
        <ele>60.22</ele>
        <time>2020-09-05T12:30:07Z</time>
      </trkpt>
      <trkpt lat="37.13151" lon="-8.86003">
        <ele>61.66</ele>
        <time>2020-09-05T12:30:19Z</time>
      </trkpt>
      <trkpt lat="37.13116" lon="-8.86002">
        <ele>62.62</ele>
        <time>2020-09-05T12:30:29Z</time>
      </trkpt>
      <trkpt lat="37.13068" lon="-8.86003">
        <ele>63.1</ele>
        <time>2020-09-05T12:30:42Z</time>
      </trkpt>
      <trkpt lat="37.13025" lon="-8.86002">
        <ele>63.58</ele>
        <time>2020-09-05T12:30:53Z</time>
      </trkpt>
      <trkpt lat="37.12975" lon="-8.86003">
        <ele>62.14</ele>
        <time>2020-09-05T12:31:06Z</time>
      </trkpt>
      <trkpt lat="37.12934" lon="-8.86005">
        <ele>62.14</ele>
        <time>2020-09-05T12:31:17Z</time>
      </trkpt>
      <trkpt lat="37.12892" lon="-8.86011">
        <ele>62.14</ele>
        <time>2020-09-05T12:31:29Z</time>
      </trkpt>
      <trkpt lat="37.12854" lon="-8.86019">
        <ele>64.07</ele>
        <time>2020-09-05T12:31:40Z</time>
      </trkpt>
      <trkpt lat="37.12814" lon="-8.86025">
        <ele>65.51</ele>
        <time>2020-09-05T12:31:51Z</time>
      </trkpt>
      <trkpt lat="37.12763" lon="-8.86025">
        <ele>65.99</ele>
        <time>2020-09-05T12:32:05Z</time>
      </trkpt>
      <trkpt lat="37.12729" lon="-8.86015">
        <ele>67.91</ele>
        <time>2020-09-05T12:32:16Z</time>
      </trkpt>
      <trkpt lat="37.12696" lon="-8.86">
        <ele>69.35</ele>
        <time>2020-09-05T12:32:27Z</time>
      </trkpt>
      <trkpt lat="37.12663" lon="-8.85979">
        <ele>70.31</ele>
        <time>2020-09-05T12:32:39Z</time>
      </trkpt>
      <trkpt lat="37.12628" lon="-8.85952">
        <ele>72.24</ele>
        <time>2020-09-05T12:32:52Z</time>
      </trkpt>
      <trkpt lat="37.12584" lon="-8.85919">
        <ele>74.64</ele>
        <time>2020-09-05T12:33:08Z</time>
      </trkpt>
      <trkpt lat="37.12558" lon="-8.859">
        <ele>77.52</ele>
        <time>2020-09-05T12:33:18Z</time>
      </trkpt>
      <trkpt lat="37.12533" lon="-8.85878">
        <ele>80.89</ele>
        <time>2020-09-05T12:33:28Z</time>
      </trkpt>
      <trkpt lat="37.12512" lon="-8.85847">
        <ele>83.29</ele>
        <time>2020-09-05T12:33:38Z</time>
      </trkpt>
      <trkpt lat="37.12494" lon="-8.85805">
        <ele>84.25</ele>
        <time>2020-09-05T12:33:49Z</time>
      </trkpt>
      <trkpt lat="37.12476" lon="-8.85748">
        <ele>86.18</ele>
        <time>2020-09-05T12:34:02Z</time>
      </trkpt>
      <trkpt lat="37.12459" lon="-8.85689">
        <ele>89.06</ele>
        <time>2020-09-05T12:34:16Z</time>
      </trkpt>
      <trkpt lat="37.12449" lon="-8.85653">
        <ele>91.46</ele>
        <time>2020-09-05T12:34:25Z</time>
      </trkpt>
      <trkpt lat="37.12447" lon="-8.85648">
        <ele>92.42</ele>
        <time>2020-09-05T12:34:29Z</time>
      </trkpt>
      <trkpt lat="37.12447" lon="-8.85648">
        <ele>92.42</ele>
        <time>2020-09-05T12:34:46Z</time>
      </trkpt>
      <trkpt lat="37.12448" lon="-8.85647">
        <ele>92.42</ele>
        <time>2020-09-05T12:35:14Z</time>
      </trkpt>
      <trkpt lat="37.12445" lon="-8.85639">
        <ele>91.46</ele>
        <time>2020-09-05T12:35:22Z</time>
      </trkpt>
      <trkpt lat="37.12442" lon="-8.85627">
        <ele>92.42</ele>
        <time>2020-09-05T12:35:26Z</time>
      </trkpt>
      <trkpt lat="37.12431" lon="-8.85593">
        <ele>95.79</ele>
        <time>2020-09-05T12:35:36Z</time>
      </trkpt>
      <trkpt lat="37.12421" lon="-8.85556">
        <ele>97.71</ele>
        <time>2020-09-05T12:35:46Z</time>
      </trkpt>
      <trkpt lat="37.12409" lon="-8.85516">
        <ele>99.63</ele>
        <time>2020-09-05T12:35:57Z</time>
      </trkpt>
      <trkpt lat="37.12394" lon="-8.85468">
        <ele>102.04</ele>
        <time>2020-09-05T12:36:10Z</time>
      </trkpt>
      <trkpt lat="37.1238" lon="-8.85419">
        <ele>105.88</ele>
        <time>2020-09-05T12:36:23Z</time>
      </trkpt>
      <trkpt lat="37.12365" lon="-8.85368">
        <ele>108.77</ele>
        <time>2020-09-05T12:36:36Z</time>
      </trkpt>
      <trkpt lat="37.12353" lon="-8.85325">
        <ele>111.17</ele>
        <time>2020-09-05T12:36:47Z</time>
      </trkpt>
      <trkpt lat="37.12341" lon="-8.85283">
        <ele>114.53</ele>
        <time>2020-09-05T12:36:58Z</time>
      </trkpt>
      <trkpt lat="37.12329" lon="-8.85239">
        <ele>116.94</ele>
        <time>2020-09-05T12:37:09Z</time>
      </trkpt>
      <trkpt lat="37.12315" lon="-8.85192">
        <ele>119.82</ele>
        <time>2020-09-05T12:37:21Z</time>
      </trkpt>
      <trkpt lat="37.12304" lon="-8.8515">
        <ele>122.71</ele>
        <time>2020-09-05T12:37:31Z</time>
      </trkpt>
      <trkpt lat="37.12287" lon="-8.85096">
        <ele>125.11</ele>
        <time>2020-09-05T12:37:44Z</time>
      </trkpt>
      <trkpt lat="37.1227" lon="-8.85039">
        <ele>127.03</ele>
        <time>2020-09-05T12:37:57Z</time>
      </trkpt>
      <trkpt lat="37.1226" lon="-8.84996">
        <ele>128.47</ele>
        <time>2020-09-05T12:38:06Z</time>
      </trkpt>
      <trkpt lat="37.1225" lon="-8.84964">
        <ele>128.95</ele>
        <time>2020-09-05T12:38:13Z</time>
      </trkpt>
      <trkpt lat="37.12232" lon="-8.8492">
        <ele>129.92</ele>
        <time>2020-09-05T12:38:22Z</time>
      </trkpt>
      <trkpt lat="37.12208" lon="-8.8488">
        <ele>130.88</ele>
        <time>2020-09-05T12:38:31Z</time>
      </trkpt>
      <trkpt lat="37.12191" lon="-8.84855">
        <ele>130.88</ele>
        <time>2020-09-05T12:38:37Z</time>
      </trkpt>
      <trkpt lat="37.12159" lon="-8.84821">
        <ele>131.36</ele>
        <time>2020-09-05T12:38:46Z</time>
      </trkpt>
      <trkpt lat="37.12126" lon="-8.84792">
        <ele>131.84</ele>
        <time>2020-09-05T12:38:55Z</time>
      </trkpt>
      <trkpt lat="37.12122" lon="-8.84788">
        <ele>131.84</ele>
        <time>2020-09-05T12:38:56Z</time>
      </trkpt>
      <trkpt lat="37.12077" lon="-8.8476">
        <ele>131.84</ele>
        <time>2020-09-05T12:39:07Z</time>
      </trkpt>
      <trkpt lat="37.12033" lon="-8.84741">
        <ele>131.84</ele>
        <time>2020-09-05T12:39:17Z</time>
      </trkpt>
      <trkpt lat="37.1199" lon="-8.84726">
        <ele>131.84</ele>
        <time>2020-09-05T12:39:27Z</time>
      </trkpt>
      <trkpt lat="37.11957" lon="-8.84715">
        <ele>131.84</ele>
        <time>2020-09-05T12:39:35Z</time>
      </trkpt>
      <trkpt lat="37.11918" lon="-8.84703">
        <ele>132.8</ele>
        <time>2020-09-05T12:39:44Z</time>
      </trkpt>
      <trkpt lat="37.11892" lon="-8.84696">
        <ele>132.8</ele>
        <time>2020-09-05T12:39:50Z</time>
      </trkpt>
      <trkpt lat="37.11883" lon="-8.84694">
        <ele>133.28</ele>
        <time>2020-09-05T12:39:52Z</time>
      </trkpt>
      <trkpt lat="37.11879" lon="-8.84693">
        <ele>133.28</ele>
        <time>2020-09-05T12:39:53Z</time>
      </trkpt>
      <trkpt lat="37.11829" lon="-8.8467">
        <ele>133.28</ele>
        <time>2020-09-05T12:40:05Z</time>
      </trkpt>
      <trkpt lat="37.11825" lon="-8.84668">
        <ele>133.28</ele>
        <time>2020-09-05T12:40:06Z</time>
      </trkpt>
      <trkpt lat="37.11821" lon="-8.84667">
        <ele>133.28</ele>
        <time>2020-09-05T12:40:07Z</time>
      </trkpt>
      <trkpt lat="37.11782" lon="-8.84652">
        <ele>133.28</ele>
        <time>2020-09-05T12:40:16Z</time>
      </trkpt>
      <trkpt lat="37.11733" lon="-8.84632">
        <ele>134.24</ele>
        <time>2020-09-05T12:40:28Z</time>
      </trkpt>
      <trkpt lat="37.11686" lon="-8.8461">
        <ele>134.24</ele>
        <time>2020-09-05T12:40:40Z</time>
      </trkpt>
      <trkpt lat="37.11645" lon="-8.8459">
        <ele>134.72</ele>
        <time>2020-09-05T12:40:51Z</time>
      </trkpt>
      <trkpt lat="37.11605" lon="-8.84569">
        <ele>135.2</ele>
        <time>2020-09-05T12:41:02Z</time>
      </trkpt>
      <trkpt lat="37.11604" lon="-8.84568">
        <ele>135.2</ele>
        <time>2020-09-05T12:41:07Z</time>
      </trkpt>
      <trkpt lat="37.11604" lon="-8.84569">
        <ele>135.68</ele>
        <time>2020-09-05T12:41:31Z</time>
      </trkpt>
      <trkpt lat="37.11604" lon="-8.84569">
        <ele>136.16</ele>
        <time>2020-09-05T12:41:57Z</time>
      </trkpt>
      <trkpt lat="37.11604" lon="-8.84571">
        <ele>136.16</ele>
        <time>2020-09-05T12:42:18Z</time>
      </trkpt>
      <trkpt lat="37.11604" lon="-8.84569">
        <ele>136.16</ele>
        <time>2020-09-05T12:42:36Z</time>
      </trkpt>
      <trkpt lat="37.11606" lon="-8.84569">
        <ele>136.16</ele>
        <time>2020-09-05T12:43:04Z</time>
      </trkpt>
      <trkpt lat="37.11605" lon="-8.84568">
        <ele>136.16</ele>
        <time>2020-09-05T12:43:26Z</time>
      </trkpt>
      <trkpt lat="37.11591" lon="-8.84559">
        <ele>136.16</ele>
        <time>2020-09-05T12:43:33Z</time>
      </trkpt>
      <trkpt lat="37.11559" lon="-8.84539">
        <ele>136.64</ele>
        <time>2020-09-05T12:43:43Z</time>
      </trkpt>
      <trkpt lat="37.11528" lon="-8.84518">
        <ele>137.13</ele>
        <time>2020-09-05T12:43:53Z</time>
      </trkpt>
      <trkpt lat="37.11482" lon="-8.84489">
        <ele>138.09</ele>
        <time>2020-09-05T12:44:06Z</time>
      </trkpt>
      <trkpt lat="37.11441" lon="-8.8446">
        <ele>138.57</ele>
        <time>2020-09-05T12:44:18Z</time>
      </trkpt>
      <trkpt lat="37.11417" lon="-8.84444">
        <ele>139.53</ele>
        <time>2020-09-05T12:44:25Z</time>
      </trkpt>
      <trkpt lat="37.11381" lon="-8.84419">
        <ele>140.01</ele>
        <time>2020-09-05T12:44:35Z</time>
      </trkpt>
      <trkpt lat="37.1135" lon="-8.84397">
        <ele>140.01</ele>
        <time>2020-09-05T12:44:44Z</time>
      </trkpt>
      <trkpt lat="37.11329" lon="-8.84381">
        <ele>140.49</ele>
        <time>2020-09-05T12:44:52Z</time>
      </trkpt>
      <trkpt lat="37.11325" lon="-8.84374">
        <ele>140.49</ele>
        <time>2020-09-05T12:44:55Z</time>
      </trkpt>
      <trkpt lat="37.11325" lon="-8.84371">
        <ele>140.97</ele>
        <time>2020-09-05T12:44:56Z</time>
      </trkpt>
      <trkpt lat="37.11326" lon="-8.84368">
        <ele>140.97</ele>
        <time>2020-09-05T12:44:57Z</time>
      </trkpt>
      <trkpt lat="37.11328" lon="-8.84367">
        <ele>140.97</ele>
        <time>2020-09-05T12:44:58Z</time>
      </trkpt>
      <trkpt lat="37.1133" lon="-8.84366">
        <ele>140.97</ele>
        <time>2020-09-05T12:44:59Z</time>
      </trkpt>
      <trkpt lat="37.11333" lon="-8.84366">
        <ele>140.97</ele>
        <time>2020-09-05T12:45:00Z</time>
      </trkpt>
      <trkpt lat="37.11337" lon="-8.84365">
        <ele>140.97</ele>
        <time>2020-09-05T12:45:03Z</time>
      </trkpt>
      <trkpt lat="37.11339" lon="-8.84365">
        <ele>140.97</ele>
        <time>2020-09-05T12:45:04Z</time>
      </trkpt>
      <trkpt lat="37.11341" lon="-8.84364">
        <ele>141.45</ele>
        <time>2020-09-05T12:45:05Z</time>
      </trkpt>
      <trkpt lat="37.11342" lon="-8.84364">
        <ele>140.97</ele>
        <time>2020-09-05T12:45:06Z</time>
      </trkpt>
      <trkpt lat="37.11344" lon="-8.84364">
        <ele>140.97</ele>
        <time>2020-09-05T12:45:07Z</time>
      </trkpt>
      <trkpt lat="37.11346" lon="-8.84364">
        <ele>140.97</ele>
        <time>2020-09-05T12:45:08Z</time>
      </trkpt>
      <trkpt lat="37.11352" lon="-8.84364">
        <ele>140.97</ele>
        <time>2020-09-05T12:45:12Z</time>
      </trkpt>
      <trkpt lat="37.11353" lon="-8.84363">
        <ele>140.97</ele>
        <time>2020-09-05T12:45:13Z</time>
      </trkpt>
      <trkpt lat="37.11354" lon="-8.84364">
        <ele>140.97</ele>
        <time>2020-09-05T12:45:14Z</time>
      </trkpt>
      <trkpt lat="37.11354" lon="-8.84366">
        <ele>140.97</ele>
        <time>2020-09-05T12:45:16Z</time>
      </trkpt>
      <trkpt lat="37.11353" lon="-8.84367">
        <ele>140.97</ele>
        <time>2020-09-05T12:45:17Z</time>
      </trkpt>
      <trkpt lat="37.11351" lon="-8.84367">
        <ele>140.97</ele>
        <time>2020-09-05T12:45:18Z</time>
      </trkpt>
      <trkpt lat="37.11349" lon="-8.84367">
        <ele>140.97</ele>
        <time>2020-09-05T12:45:19Z</time>
      </trkpt>
      <trkpt lat="37.11347" lon="-8.84366">
        <ele>140.97</ele>
        <time>2020-09-05T12:45:20Z</time>
      </trkpt>
      <trkpt lat="37.11345" lon="-8.84366">
        <ele>140.97</ele>
        <time>2020-09-05T12:45:21Z</time>
      </trkpt>
      <trkpt lat="37.11314" lon="-8.84365">
        <ele>140.97</ele>
        <time>2020-09-05T12:45:29Z</time>
      </trkpt>
      <trkpt lat="37.1131" lon="-8.84363">
        <ele>140.97</ele>
        <time>2020-09-05T12:45:30Z</time>
      </trkpt>
      <trkpt lat="37.11306" lon="-8.84361">
        <ele>140.97</ele>
        <time>2020-09-05T12:45:31Z</time>
      </trkpt>
      <trkpt lat="37.1128" lon="-8.84345">
        <ele>141.45</ele>
        <time>2020-09-05T12:45:38Z</time>
      </trkpt>
      <trkpt lat="37.11277" lon="-8.84343">
        <ele>141.45</ele>
        <time>2020-09-05T12:45:39Z</time>
      </trkpt>
      <trkpt lat="37.11273" lon="-8.8434">
        <ele>141.45</ele>
        <time>2020-09-05T12:45:40Z</time>
      </trkpt>
      <trkpt lat="37.11269" lon="-8.84337">
        <ele>141.45</ele>
        <time>2020-09-05T12:45:41Z</time>
      </trkpt>
      <trkpt lat="37.11266" lon="-8.84335">
        <ele>141.45</ele>
        <time>2020-09-05T12:45:42Z</time>
      </trkpt>
      <trkpt lat="37.11237" lon="-8.84316">
        <ele>141.45</ele>
        <time>2020-09-05T12:45:50Z</time>
      </trkpt>
      <trkpt lat="37.11222" lon="-8.84306">
        <ele>141.45</ele>
        <time>2020-09-05T12:45:54Z</time>
      </trkpt>
      <trkpt lat="37.11179" lon="-8.84278">
        <ele>141.93</ele>
        <time>2020-09-05T12:46:06Z</time>
      </trkpt>
      <trkpt lat="37.11164" lon="-8.84259">
        <ele>141.93</ele>
        <time>2020-09-05T12:46:12Z</time>
      </trkpt>
      <trkpt lat="37.11165" lon="-8.84254">
        <ele>141.93</ele>
        <time>2020-09-05T12:46:13Z</time>
      </trkpt>
      <trkpt lat="37.11166" lon="-8.84251">
        <ele>141.93</ele>
        <time>2020-09-05T12:46:14Z</time>
      </trkpt>
      <trkpt lat="37.11167" lon="-8.84246">
        <ele>142.41</ele>
        <time>2020-09-05T12:46:15Z</time>
      </trkpt>
      <trkpt lat="37.11169" lon="-8.84242">
        <ele>142.41</ele>
        <time>2020-09-05T12:46:16Z</time>
      </trkpt>
      <trkpt lat="37.11174" lon="-8.84234">
        <ele>142.41</ele>
        <time>2020-09-05T12:46:18Z</time>
      </trkpt>
      <trkpt lat="37.11187" lon="-8.84213">
        <ele>142.41</ele>
        <time>2020-09-05T12:46:23Z</time>
      </trkpt>
      <trkpt lat="37.11191" lon="-8.84209">
        <ele>142.41</ele>
        <time>2020-09-05T12:46:24Z</time>
      </trkpt>
      <trkpt lat="37.11195" lon="-8.84205">
        <ele>140.97</ele>
        <time>2020-09-05T12:46:25Z</time>
      </trkpt>
      <trkpt lat="37.112" lon="-8.84203">
        <ele>140.49</ele>
        <time>2020-09-05T12:46:26Z</time>
      </trkpt>
      <trkpt lat="37.11205" lon="-8.842">
        <ele>140.49</ele>
        <time>2020-09-05T12:46:27Z</time>
      </trkpt>
      <trkpt lat="37.1121" lon="-8.84198">
        <ele>140.49</ele>
        <time>2020-09-05T12:46:28Z</time>
      </trkpt>
      <trkpt lat="37.11215" lon="-8.84197">
        <ele>140.49</ele>
        <time>2020-09-05T12:46:29Z</time>
      </trkpt>
      <trkpt lat="37.1122" lon="-8.84195">
        <ele>140.49</ele>
        <time>2020-09-05T12:46:30Z</time>
      </trkpt>
      <trkpt lat="37.1126" lon="-8.84185">
        <ele>140.49</ele>
        <time>2020-09-05T12:46:38Z</time>
      </trkpt>
      <trkpt lat="37.11317" lon="-8.84173">
        <ele>140.49</ele>
        <time>2020-09-05T12:46:49Z</time>
      </trkpt>
      <trkpt lat="37.11371" lon="-8.84161">
        <ele>140.01</ele>
        <time>2020-09-05T12:47:00Z</time>
      </trkpt>
      <trkpt lat="37.11412" lon="-8.84143">
        <ele>140.01</ele>
        <time>2020-09-05T12:47:09Z</time>
      </trkpt>
      <trkpt lat="37.11451" lon="-8.84115">
        <ele>140.01</ele>
        <time>2020-09-05T12:47:18Z</time>
      </trkpt>
      <trkpt lat="37.11455" lon="-8.84111">
        <ele>140.01</ele>
        <time>2020-09-05T12:47:19Z</time>
      </trkpt>
      <trkpt lat="37.11458" lon="-8.84107">
        <ele>140.01</ele>
        <time>2020-09-05T12:47:20Z</time>
      </trkpt>
      <trkpt lat="37.1148" lon="-8.84072">
        <ele>140.01</ele>
        <time>2020-09-05T12:47:27Z</time>
      </trkpt>
      <trkpt lat="37.11496" lon="-8.84042">
        <ele>141.45</ele>
        <time>2020-09-05T12:47:34Z</time>
      </trkpt>
      <trkpt lat="37.11517" lon="-8.84001">
        <ele>141.93</ele>
        <time>2020-09-05T12:47:43Z</time>
      </trkpt>
      <trkpt lat="37.1152" lon="-8.83991">
        <ele>141.93</ele>
        <time>2020-09-05T12:47:45Z</time>
      </trkpt>
      <trkpt lat="37.11528" lon="-8.83963">
        <ele>141.93</ele>
        <time>2020-09-05T12:47:50Z</time>
      </trkpt>
      <trkpt lat="37.1153" lon="-8.83957">
        <ele>141.93</ele>
        <time>2020-09-05T12:47:51Z</time>
      </trkpt>
      <trkpt lat="37.11533" lon="-8.83953">
        <ele>141.93</ele>
        <time>2020-09-05T12:47:52Z</time>
      </trkpt>
      <trkpt lat="37.11542" lon="-8.8394">
        <ele>141.93</ele>
        <time>2020-09-05T12:47:55Z</time>
      </trkpt>
      <trkpt lat="37.11545" lon="-8.83937">
        <ele>141.93</ele>
        <time>2020-09-05T12:47:56Z</time>
      </trkpt>
      <trkpt lat="37.11578" lon="-8.83907">
        <ele>141.93</ele>
        <time>2020-09-05T12:48:05Z</time>
      </trkpt>
      <trkpt lat="37.11582" lon="-8.83903">
        <ele>141.93</ele>
        <time>2020-09-05T12:48:06Z</time>
      </trkpt>
      <trkpt lat="37.11585" lon="-8.83899">
        <ele>141.93</ele>
        <time>2020-09-05T12:48:07Z</time>
      </trkpt>
      <trkpt lat="37.11587" lon="-8.83894">
        <ele>141.93</ele>
        <time>2020-09-05T12:48:08Z</time>
      </trkpt>
      <trkpt lat="37.1159" lon="-8.8389">
        <ele>141.93</ele>
        <time>2020-09-05T12:48:09Z</time>
      </trkpt>
      <trkpt lat="37.11596" lon="-8.83875">
        <ele>141.93</ele>
        <time>2020-09-05T12:48:12Z</time>
      </trkpt>
      <trkpt lat="37.11606" lon="-8.83851">
        <ele>141.93</ele>
        <time>2020-09-05T12:48:17Z</time>
      </trkpt>
      <trkpt lat="37.11609" lon="-8.83848">
        <ele>141.93</ele>
        <time>2020-09-05T12:48:18Z</time>
      </trkpt>
      <trkpt lat="37.11614" lon="-8.83846">
        <ele>141.93</ele>
        <time>2020-09-05T12:48:19Z</time>
      </trkpt>
      <trkpt lat="37.11618" lon="-8.83846">
        <ele>141.93</ele>
        <time>2020-09-05T12:48:20Z</time>
      </trkpt>
      <trkpt lat="37.11624" lon="-8.83847">
        <ele>141.93</ele>
        <time>2020-09-05T12:48:21Z</time>
      </trkpt>
      <trkpt lat="37.11628" lon="-8.83848">
        <ele>141.93</ele>
        <time>2020-09-05T12:48:22Z</time>
      </trkpt>
      <trkpt lat="37.11633" lon="-8.83851">
        <ele>141.93</ele>
        <time>2020-09-05T12:48:23Z</time>
      </trkpt>
      <trkpt lat="37.11638" lon="-8.83854">
        <ele>141.93</ele>
        <time>2020-09-05T12:48:24Z</time>
      </trkpt>
      <trkpt lat="37.11642" lon="-8.83857">
        <ele>140.97</ele>
        <time>2020-09-05T12:48:25Z</time>
      </trkpt>
      <trkpt lat="37.11647" lon="-8.8386">
        <ele>140.97</ele>
        <time>2020-09-05T12:48:26Z</time>
      </trkpt>
      <trkpt lat="37.11652" lon="-8.83862">
        <ele>140.01</ele>
        <time>2020-09-05T12:48:27Z</time>
      </trkpt>
      <trkpt lat="37.11693" lon="-8.83876">
        <ele>138.09</ele>
        <time>2020-09-05T12:48:34Z</time>
      </trkpt>
      <trkpt lat="37.117" lon="-8.8388">
        <ele>138.09</ele>
        <time>2020-09-05T12:48:35Z</time>
      </trkpt>
      <trkpt lat="37.11706" lon="-8.83884">
        <ele>137.61</ele>
        <time>2020-09-05T12:48:36Z</time>
      </trkpt>
      <trkpt lat="37.11711" lon="-8.83889">
        <ele>137.61</ele>
        <time>2020-09-05T12:48:37Z</time>
      </trkpt>
      <trkpt lat="37.11716" lon="-8.83895">
        <ele>137.61</ele>
        <time>2020-09-05T12:48:38Z</time>
      </trkpt>
      <trkpt lat="37.1172" lon="-8.83902">
        <ele>137.61</ele>
        <time>2020-09-05T12:48:39Z</time>
      </trkpt>
      <trkpt lat="37.11724" lon="-8.83909">
        <ele>136.64</ele>
        <time>2020-09-05T12:48:40Z</time>
      </trkpt>
      <trkpt lat="37.11735" lon="-8.83924">
        <ele>135.2</ele>
        <time>2020-09-05T12:48:42Z</time>
      </trkpt>
      <trkpt lat="37.11742" lon="-8.8393">
        <ele>134.24</ele>
        <time>2020-09-05T12:48:43Z</time>
      </trkpt>
      <trkpt lat="37.1175" lon="-8.83935">
        <ele>133.76</ele>
        <time>2020-09-05T12:48:44Z</time>
      </trkpt>
      <trkpt lat="37.11757" lon="-8.83938">
        <ele>133.76</ele>
        <time>2020-09-05T12:48:45Z</time>
      </trkpt>
      <trkpt lat="37.11766" lon="-8.83939">
        <ele>133.28</ele>
        <time>2020-09-05T12:48:46Z</time>
      </trkpt>
      <trkpt lat="37.11774" lon="-8.8394">
        <ele>133.28</ele>
        <time>2020-09-05T12:48:47Z</time>
      </trkpt>
      <trkpt lat="37.11783" lon="-8.83939">
        <ele>132.8</ele>
        <time>2020-09-05T12:48:48Z</time>
      </trkpt>
      <trkpt lat="37.11835" lon="-8.83926">
        <ele>131.36</ele>
        <time>2020-09-05T12:48:54Z</time>
      </trkpt>
      <trkpt lat="37.11843" lon="-8.83922">
        <ele>131.36</ele>
        <time>2020-09-05T12:48:55Z</time>
      </trkpt>
      <trkpt lat="37.1185" lon="-8.83917">
        <ele>131.36</ele>
        <time>2020-09-05T12:48:56Z</time>
      </trkpt>
      <trkpt lat="37.11856" lon="-8.83911">
        <ele>130.88</ele>
        <time>2020-09-05T12:48:57Z</time>
      </trkpt>
      <trkpt lat="37.11862" lon="-8.83904">
        <ele>130.88</ele>
        <time>2020-09-05T12:48:58Z</time>
      </trkpt>
      <trkpt lat="37.11903" lon="-8.83857">
        <ele>130.88</ele>
        <time>2020-09-05T12:49:06Z</time>
      </trkpt>
      <trkpt lat="37.11932" lon="-8.83817">
        <ele>128.47</ele>
        <time>2020-09-05T12:49:12Z</time>
      </trkpt>
      <trkpt lat="37.11942" lon="-8.83804">
        <ele>127.51</ele>
        <time>2020-09-05T12:49:14Z</time>
      </trkpt>
      <trkpt lat="37.1198" lon="-8.83763">
        <ele>127.51</ele>
        <time>2020-09-05T12:49:22Z</time>
      </trkpt>
      <trkpt lat="37.11992" lon="-8.83747">
        <ele>128.95</ele>
        <time>2020-09-05T12:49:26Z</time>
      </trkpt>
      <trkpt lat="37.12007" lon="-8.83725">
        <ele>130.4</ele>
        <time>2020-09-05T12:49:32Z</time>
      </trkpt>
      <trkpt lat="37.12014" lon="-8.8371">
        <ele>130.88</ele>
        <time>2020-09-05T12:49:35Z</time>
      </trkpt>
      <trkpt lat="37.12017" lon="-8.83705">
        <ele>130.88</ele>
        <time>2020-09-05T12:49:36Z</time>
      </trkpt>
      <trkpt lat="37.12021" lon="-8.837">
        <ele>129.43</ele>
        <time>2020-09-05T12:49:37Z</time>
      </trkpt>
      <trkpt lat="37.12025" lon="-8.83696">
        <ele>129.43</ele>
        <time>2020-09-05T12:49:38Z</time>
      </trkpt>
      <trkpt lat="37.12029" lon="-8.83692">
        <ele>128.47</ele>
        <time>2020-09-05T12:49:39Z</time>
      </trkpt>
      <trkpt lat="37.12038" lon="-8.83686">
        <ele>128.47</ele>
        <time>2020-09-05T12:49:41Z</time>
      </trkpt>
      <trkpt lat="37.12043" lon="-8.83684">
        <ele>128.47</ele>
        <time>2020-09-05T12:49:42Z</time>
      </trkpt>
      <trkpt lat="37.12058" lon="-8.83681">
        <ele>128.47</ele>
        <time>2020-09-05T12:49:45Z</time>
      </trkpt>
      <trkpt lat="37.12062" lon="-8.83682">
        <ele>128.47</ele>
        <time>2020-09-05T12:49:46Z</time>
      </trkpt>
      <trkpt lat="37.12067" lon="-8.83683">
        <ele>129.43</ele>
        <time>2020-09-05T12:49:47Z</time>
      </trkpt>
      <trkpt lat="37.12105" lon="-8.83692">
        <ele>130.4</ele>
        <time>2020-09-05T12:49:56Z</time>
      </trkpt>
      <trkpt lat="37.12121" lon="-8.83693">
        <ele>128.95</ele>
        <time>2020-09-05T12:49:59Z</time>
      </trkpt>
      <trkpt lat="37.12127" lon="-8.83692">
        <ele>128.95</ele>
        <time>2020-09-05T12:50:00Z</time>
      </trkpt>
      <trkpt lat="37.12132" lon="-8.8369">
        <ele>127.99</ele>
        <time>2020-09-05T12:50:01Z</time>
      </trkpt>
      <trkpt lat="37.12138" lon="-8.83688">
        <ele>127.99</ele>
        <time>2020-09-05T12:50:02Z</time>
      </trkpt>
      <trkpt lat="37.12144" lon="-8.83685">
        <ele>127.99</ele>
        <time>2020-09-05T12:50:03Z</time>
      </trkpt>
      <trkpt lat="37.12183" lon="-8.83665">
        <ele>127.51</ele>
        <time>2020-09-05T12:50:11Z</time>
      </trkpt>
      <trkpt lat="37.12215" lon="-8.83654">
        <ele>126.55</ele>
        <time>2020-09-05T12:50:17Z</time>
      </trkpt>
      <trkpt lat="37.1222" lon="-8.83651">
        <ele>126.55</ele>
        <time>2020-09-05T12:50:18Z</time>
      </trkpt>
      <trkpt lat="37.12225" lon="-8.83648">
        <ele>126.55</ele>
        <time>2020-09-05T12:50:19Z</time>
      </trkpt>
      <trkpt lat="37.1223" lon="-8.83644">
        <ele>126.55</ele>
        <time>2020-09-05T12:50:20Z</time>
      </trkpt>
      <trkpt lat="37.12233" lon="-8.83641">
        <ele>126.55</ele>
        <time>2020-09-05T12:50:21Z</time>
      </trkpt>
      <trkpt lat="37.12249" lon="-8.83628">
        <ele>126.55</ele>
        <time>2020-09-05T12:50:25Z</time>
      </trkpt>
      <trkpt lat="37.12253" lon="-8.83625">
        <ele>127.99</ele>
        <time>2020-09-05T12:50:26Z</time>
      </trkpt>
      <trkpt lat="37.12257" lon="-8.83623">
        <ele>127.99</ele>
        <time>2020-09-05T12:50:27Z</time>
      </trkpt>
      <trkpt lat="37.12261" lon="-8.83622">
        <ele>127.99</ele>
        <time>2020-09-05T12:50:28Z</time>
      </trkpt>
      <trkpt lat="37.12266" lon="-8.83621">
        <ele>127.51</ele>
        <time>2020-09-05T12:50:29Z</time>
      </trkpt>
      <trkpt lat="37.12276" lon="-8.8362">
        <ele>127.99</ele>
        <time>2020-09-05T12:50:31Z</time>
      </trkpt>
      <trkpt lat="37.12281" lon="-8.83621">
        <ele>127.99</ele>
        <time>2020-09-05T12:50:32Z</time>
      </trkpt>
      <trkpt lat="37.12318" lon="-8.83626">
        <ele>127.99</ele>
        <time>2020-09-05T12:50:39Z</time>
      </trkpt>
      <trkpt lat="37.12352" lon="-8.8362">
        <ele>128.95</ele>
        <time>2020-09-05T12:50:47Z</time>
      </trkpt>
      <trkpt lat="37.12401" lon="-8.83611">
        <ele>129.92</ele>
        <time>2020-09-05T12:50:58Z</time>
      </trkpt>
      <trkpt lat="37.12432" lon="-8.83614">
        <ele>130.88</ele>
        <time>2020-09-05T12:51:05Z</time>
      </trkpt>
      <trkpt lat="37.12474" lon="-8.83634">
        <ele>130.88</ele>
        <time>2020-09-05T12:51:14Z</time>
      </trkpt>
      <trkpt lat="37.12496" lon="-8.83645">
        <ele>130.88</ele>
        <time>2020-09-05T12:51:19Z</time>
      </trkpt>
      <trkpt lat="37.125" lon="-8.83646">
        <ele>130.88</ele>
        <time>2020-09-05T12:51:20Z</time>
      </trkpt>
      <trkpt lat="37.12509" lon="-8.83646">
        <ele>130.88</ele>
        <time>2020-09-05T12:51:22Z</time>
      </trkpt>
      <trkpt lat="37.12522" lon="-8.83645">
        <ele>131.36</ele>
        <time>2020-09-05T12:51:25Z</time>
      </trkpt>
      <trkpt lat="37.12552" lon="-8.8363">
        <ele>133.28</ele>
        <time>2020-09-05T12:51:33Z</time>
      </trkpt>
      <trkpt lat="37.12582" lon="-8.83611">
        <ele>136.16</ele>
        <time>2020-09-05T12:51:43Z</time>
      </trkpt>
      <trkpt lat="37.12602" lon="-8.83603">
        <ele>138.57</ele>
        <time>2020-09-05T12:51:50Z</time>
      </trkpt>
      <trkpt lat="37.12608" lon="-8.83601">
        <ele>138.57</ele>
        <time>2020-09-05T12:51:53Z</time>
      </trkpt>
      <trkpt lat="37.1261" lon="-8.83602">
        <ele>139.05</ele>
        <time>2020-09-05T12:51:54Z</time>
      </trkpt>
      <trkpt lat="37.12612" lon="-8.83603">
        <ele>139.05</ele>
        <time>2020-09-05T12:51:55Z</time>
      </trkpt>
      <trkpt lat="37.12629" lon="-8.83608">
        <ele>141.45</ele>
        <time>2020-09-05T12:52:02Z</time>
      </trkpt>
      <trkpt lat="37.1265" lon="-8.83614">
        <ele>142.89</ele>
        <time>2020-09-05T12:52:10Z</time>
      </trkpt>
      <trkpt lat="37.12674" lon="-8.83616">
        <ele>142.89</ele>
        <time>2020-09-05T12:52:18Z</time>
      </trkpt>
      <trkpt lat="37.12688" lon="-8.83601">
        <ele>141.93</ele>
        <time>2020-09-05T12:52:24Z</time>
      </trkpt>
      <trkpt lat="37.1269" lon="-8.83595">
        <ele>140.97</ele>
        <time>2020-09-05T12:52:25Z</time>
      </trkpt>
      <trkpt lat="37.12691" lon="-8.83589">
        <ele>140.49</ele>
        <time>2020-09-05T12:52:26Z</time>
      </trkpt>
      <trkpt lat="37.12691" lon="-8.83582">
        <ele>140.49</ele>
        <time>2020-09-05T12:52:27Z</time>
      </trkpt>
      <trkpt lat="37.12691" lon="-8.83576">
        <ele>140.01</ele>
        <time>2020-09-05T12:52:28Z</time>
      </trkpt>
      <trkpt lat="37.12697" lon="-8.83518">
        <ele>137.61</ele>
        <time>2020-09-05T12:52:36Z</time>
      </trkpt>
      <trkpt lat="37.12706" lon="-8.8348">
        <ele>139.05</ele>
        <time>2020-09-05T12:52:43Z</time>
      </trkpt>
      <trkpt lat="37.12716" lon="-8.83458">
        <ele>137.61</ele>
        <time>2020-09-05T12:52:47Z</time>
      </trkpt>
      <trkpt lat="37.1272" lon="-8.83452">
        <ele>136.64</ele>
        <time>2020-09-05T12:52:48Z</time>
      </trkpt>
      <trkpt lat="37.1273" lon="-8.83439">
        <ele>136.16</ele>
        <time>2020-09-05T12:52:50Z</time>
      </trkpt>
      <trkpt lat="37.12774" lon="-8.83393">
        <ele>134.72</ele>
        <time>2020-09-05T12:52:58Z</time>
      </trkpt>
      <trkpt lat="37.12805" lon="-8.83372">
        <ele>134.72</ele>
        <time>2020-09-05T12:53:04Z</time>
      </trkpt>
      <trkpt lat="37.1282" lon="-8.83362">
        <ele>136.16</ele>
        <time>2020-09-05T12:53:08Z</time>
      </trkpt>
      <trkpt lat="37.12854" lon="-8.83333">
        <ele>138.57</ele>
        <time>2020-09-05T12:53:19Z</time>
      </trkpt>
      <trkpt lat="37.12889" lon="-8.83294">
        <ele>137.13</ele>
        <time>2020-09-05T12:53:29Z</time>
      </trkpt>
      <trkpt lat="37.12922" lon="-8.83264">
        <ele>135.2</ele>
        <time>2020-09-05T12:53:36Z</time>
      </trkpt>
      <trkpt lat="37.12941" lon="-8.83248">
        <ele>135.2</ele>
        <time>2020-09-05T12:53:40Z</time>
      </trkpt>
      <trkpt lat="37.12946" lon="-8.83245">
        <ele>135.2</ele>
        <time>2020-09-05T12:53:41Z</time>
      </trkpt>
      <trkpt lat="37.12979" lon="-8.83229">
        <ele>135.2</ele>
        <time>2020-09-05T12:53:49Z</time>
      </trkpt>
      <trkpt lat="37.13007" lon="-8.83209">
        <ele>137.13</ele>
        <time>2020-09-05T12:53:57Z</time>
      </trkpt>
      <trkpt lat="37.13035" lon="-8.83174">
        <ele>139.05</ele>
        <time>2020-09-05T12:54:07Z</time>
      </trkpt>
      <trkpt lat="37.13077" lon="-8.8314">
        <ele>140.01</ele>
        <time>2020-09-05T12:54:19Z</time>
      </trkpt>
      <trkpt lat="37.13089" lon="-8.83136">
        <ele>140.49</ele>
        <time>2020-09-05T12:54:22Z</time>
      </trkpt>
      <trkpt lat="37.13093" lon="-8.83135">
        <ele>140.49</ele>
        <time>2020-09-05T12:54:23Z</time>
      </trkpt>
      <trkpt lat="37.13119" lon="-8.83136">
        <ele>140.97</ele>
        <time>2020-09-05T12:54:29Z</time>
      </trkpt>
      <trkpt lat="37.13124" lon="-8.83135">
        <ele>141.45</ele>
        <time>2020-09-05T12:54:30Z</time>
      </trkpt>
      <trkpt lat="37.13128" lon="-8.83134">
        <ele>141.45</ele>
        <time>2020-09-05T12:54:31Z</time>
      </trkpt>
      <trkpt lat="37.13133" lon="-8.83133">
        <ele>141.45</ele>
        <time>2020-09-05T12:54:32Z</time>
      </trkpt>
      <trkpt lat="37.13137" lon="-8.83131">
        <ele>141.45</ele>
        <time>2020-09-05T12:54:33Z</time>
      </trkpt>
      <trkpt lat="37.1314" lon="-8.83128">
        <ele>141.45</ele>
        <time>2020-09-05T12:54:34Z</time>
      </trkpt>
      <trkpt lat="37.13143" lon="-8.83124">
        <ele>141.45</ele>
        <time>2020-09-05T12:54:35Z</time>
      </trkpt>
      <trkpt lat="37.13146" lon="-8.8312">
        <ele>141.45</ele>
        <time>2020-09-05T12:54:36Z</time>
      </trkpt>
      <trkpt lat="37.13148" lon="-8.83115">
        <ele>141.45</ele>
        <time>2020-09-05T12:54:37Z</time>
      </trkpt>
      <trkpt lat="37.13151" lon="-8.8311">
        <ele>141.45</ele>
        <time>2020-09-05T12:54:38Z</time>
      </trkpt>
      <trkpt lat="37.13152" lon="-8.83104">
        <ele>141.45</ele>
        <time>2020-09-05T12:54:39Z</time>
      </trkpt>
      <trkpt lat="37.13153" lon="-8.83099">
        <ele>141.45</ele>
        <time>2020-09-05T12:54:40Z</time>
      </trkpt>
      <trkpt lat="37.13169" lon="-8.83037">
        <ele>141.45</ele>
        <time>2020-09-05T12:54:51Z</time>
      </trkpt>
      <trkpt lat="37.13177" lon="-8.82989">
        <ele>141.45</ele>
        <time>2020-09-05T12:55:00Z</time>
      </trkpt>
      <trkpt lat="37.13185" lon="-8.82953">
        <ele>144.34</ele>
        <time>2020-09-05T12:55:08Z</time>
      </trkpt>
      <trkpt lat="37.1319" lon="-8.82921">
        <ele>147.22</ele>
        <time>2020-09-05T12:55:16Z</time>
      </trkpt>
      <trkpt lat="37.13179" lon="-8.82892">
        <ele>150.1</ele>
        <time>2020-09-05T12:55:24Z</time>
      </trkpt>
      <trkpt lat="37.13168" lon="-8.82859">
        <ele>148.66</ele>
        <time>2020-09-05T12:55:32Z</time>
      </trkpt>
      <trkpt lat="37.13167" lon="-8.82853">
        <ele>148.66</ele>
        <time>2020-09-05T12:55:33Z</time>
      </trkpt>
      <trkpt lat="37.13166" lon="-8.82839">
        <ele>147.22</ele>
        <time>2020-09-05T12:55:35Z</time>
      </trkpt>
      <trkpt lat="37.13164" lon="-8.82832">
        <ele>146.74</ele>
        <time>2020-09-05T12:55:36Z</time>
      </trkpt>
      <trkpt lat="37.13161" lon="-8.82826">
        <ele>146.74</ele>
        <time>2020-09-05T12:55:37Z</time>
      </trkpt>
      <trkpt lat="37.13158" lon="-8.82821">
        <ele>146.74</ele>
        <time>2020-09-05T12:55:38Z</time>
      </trkpt>
      <trkpt lat="37.13155" lon="-8.82818">
        <ele>146.74</ele>
        <time>2020-09-05T12:55:39Z</time>
      </trkpt>
      <trkpt lat="37.13151" lon="-8.82815">
        <ele>146.74</ele>
        <time>2020-09-05T12:55:40Z</time>
      </trkpt>
      <trkpt lat="37.13147" lon="-8.82813">
        <ele>146.74</ele>
        <time>2020-09-05T12:55:41Z</time>
      </trkpt>
      <trkpt lat="37.13142" lon="-8.82811">
        <ele>146.74</ele>
        <time>2020-09-05T12:55:42Z</time>
      </trkpt>
      <trkpt lat="37.13137" lon="-8.8281">
        <ele>146.26</ele>
        <time>2020-09-05T12:55:43Z</time>
      </trkpt>
      <trkpt lat="37.13131" lon="-8.82809">
        <ele>145.3</ele>
        <time>2020-09-05T12:55:44Z</time>
      </trkpt>
      <trkpt lat="37.13125" lon="-8.82808">
        <ele>145.3</ele>
        <time>2020-09-05T12:55:45Z</time>
      </trkpt>
      <trkpt lat="37.13089" lon="-8.82797">
        <ele>143.85</ele>
        <time>2020-09-05T12:55:51Z</time>
      </trkpt>
      <trkpt lat="37.13084" lon="-8.82794">
        <ele>143.85</ele>
        <time>2020-09-05T12:55:52Z</time>
      </trkpt>
      <trkpt lat="37.1308" lon="-8.82791">
        <ele>143.85</ele>
        <time>2020-09-05T12:55:53Z</time>
      </trkpt>
      <trkpt lat="37.13047" lon="-8.8276">
        <ele>142.89</ele>
        <time>2020-09-05T12:56:01Z</time>
      </trkpt>
      <trkpt lat="37.13016" lon="-8.82723">
        <ele>142.41</ele>
        <time>2020-09-05T12:56:09Z</time>
      </trkpt>
      <trkpt lat="37.1301" lon="-8.82714">
        <ele>142.41</ele>
        <time>2020-09-05T12:56:11Z</time>
      </trkpt>
      <trkpt lat="37.13009" lon="-8.82709">
        <ele>142.41</ele>
        <time>2020-09-05T12:56:12Z</time>
      </trkpt>
      <trkpt lat="37.13007" lon="-8.82704">
        <ele>142.41</ele>
        <time>2020-09-05T12:56:13Z</time>
      </trkpt>
      <trkpt lat="37.13007" lon="-8.82698">
        <ele>142.41</ele>
        <time>2020-09-05T12:56:14Z</time>
      </trkpt>
      <trkpt lat="37.13008" lon="-8.82692">
        <ele>142.41</ele>
        <time>2020-09-05T12:56:15Z</time>
      </trkpt>
      <trkpt lat="37.13009" lon="-8.82687">
        <ele>142.41</ele>
        <time>2020-09-05T12:56:16Z</time>
      </trkpt>
      <trkpt lat="37.1301" lon="-8.82681">
        <ele>142.89</ele>
        <time>2020-09-05T12:56:17Z</time>
      </trkpt>
      <trkpt lat="37.13012" lon="-8.82677">
        <ele>143.85</ele>
        <time>2020-09-05T12:56:18Z</time>
      </trkpt>
      <trkpt lat="37.13015" lon="-8.82672">
        <ele>143.85</ele>
        <time>2020-09-05T12:56:19Z</time>
      </trkpt>
      <trkpt lat="37.13042" lon="-8.8263">
        <ele>147.22</ele>
        <time>2020-09-05T12:56:29Z</time>
      </trkpt>
      <trkpt lat="37.13061" lon="-8.82602">
        <ele>148.66</ele>
        <time>2020-09-05T12:56:37Z</time>
      </trkpt>
      <trkpt lat="37.13074" lon="-8.82581">
        <ele>147.7</ele>
        <time>2020-09-05T12:56:42Z</time>
      </trkpt>
      <trkpt lat="37.13082" lon="-8.82571">
        <ele>146.74</ele>
        <time>2020-09-05T12:56:44Z</time>
      </trkpt>
      <trkpt lat="37.13109" lon="-8.82538">
        <ele>146.74</ele>
        <time>2020-09-05T12:56:52Z</time>
      </trkpt>
      <trkpt lat="37.13136" lon="-8.82504">
        <ele>146.74</ele>
        <time>2020-09-05T12:57:00Z</time>
      </trkpt>
      <trkpt lat="37.1314" lon="-8.825">
        <ele>146.74</ele>
        <time>2020-09-05T12:57:01Z</time>
      </trkpt>
      <trkpt lat="37.13163" lon="-8.82487">
        <ele>146.74</ele>
        <time>2020-09-05T12:57:06Z</time>
      </trkpt>
      <trkpt lat="37.13172" lon="-8.82485">
        <ele>146.74</ele>
        <time>2020-09-05T12:57:08Z</time>
      </trkpt>
      <trkpt lat="37.13177" lon="-8.82484">
        <ele>146.74</ele>
        <time>2020-09-05T12:57:09Z</time>
      </trkpt>
      <trkpt lat="37.13182" lon="-8.82484">
        <ele>146.74</ele>
        <time>2020-09-05T12:57:10Z</time>
      </trkpt>
      <trkpt lat="37.13212" lon="-8.82488">
        <ele>146.74</ele>
        <time>2020-09-05T12:57:16Z</time>
      </trkpt>
      <trkpt lat="37.13217" lon="-8.8249">
        <ele>146.74</ele>
        <time>2020-09-05T12:57:17Z</time>
      </trkpt>
      <trkpt lat="37.13221" lon="-8.82493">
        <ele>146.74</ele>
        <time>2020-09-05T12:57:18Z</time>
      </trkpt>
      <trkpt lat="37.13256" lon="-8.82523">
        <ele>146.74</ele>
        <time>2020-09-05T12:57:26Z</time>
      </trkpt>
      <trkpt lat="37.13286" lon="-8.82565">
        <ele>146.26</ele>
        <time>2020-09-05T12:57:34Z</time>
      </trkpt>
      <trkpt lat="37.13293" lon="-8.82574">
        <ele>147.22</ele>
        <time>2020-09-05T12:57:36Z</time>
      </trkpt>
      <trkpt lat="37.13302" lon="-8.82583">
        <ele>147.22</ele>
        <time>2020-09-05T12:57:38Z</time>
      </trkpt>
      <trkpt lat="37.13307" lon="-8.82586">
        <ele>147.22</ele>
        <time>2020-09-05T12:57:39Z</time>
      </trkpt>
      <trkpt lat="37.13313" lon="-8.8259">
        <ele>145.78</ele>
        <time>2020-09-05T12:57:40Z</time>
      </trkpt>
      <trkpt lat="37.1332" lon="-8.82592">
        <ele>145.3</ele>
        <time>2020-09-05T12:57:41Z</time>
      </trkpt>
      <trkpt lat="37.13327" lon="-8.82593">
        <ele>144.82</ele>
        <time>2020-09-05T12:57:42Z</time>
      </trkpt>
      <trkpt lat="37.13335" lon="-8.82594">
        <ele>144.34</ele>
        <time>2020-09-05T12:57:43Z</time>
      </trkpt>
      <trkpt lat="37.13369" lon="-8.82602">
        <ele>140.97</ele>
        <time>2020-09-05T12:57:47Z</time>
      </trkpt>
      <trkpt lat="37.13419" lon="-8.82621">
        <ele>137.61</ele>
        <time>2020-09-05T12:57:52Z</time>
      </trkpt>
      <trkpt lat="37.13436" lon="-8.82632">
        <ele>137.61</ele>
        <time>2020-09-05T12:57:54Z</time>
      </trkpt>
      <trkpt lat="37.13443" lon="-8.82638">
        <ele>137.61</ele>
        <time>2020-09-05T12:57:55Z</time>
      </trkpt>
      <trkpt lat="37.1345" lon="-8.82644">
        <ele>137.61</ele>
        <time>2020-09-05T12:57:56Z</time>
      </trkpt>
      <trkpt lat="37.13455" lon="-8.82651">
        <ele>139.53</ele>
        <time>2020-09-05T12:57:57Z</time>
      </trkpt>
      <trkpt lat="37.13459" lon="-8.82657">
        <ele>140.01</ele>
        <time>2020-09-05T12:57:58Z</time>
      </trkpt>
      <trkpt lat="37.13462" lon="-8.82663">
        <ele>140.49</ele>
        <time>2020-09-05T12:57:59Z</time>
      </trkpt>
      <trkpt lat="37.13465" lon="-8.82668">
        <ele>140.97</ele>
        <time>2020-09-05T12:58:00Z</time>
      </trkpt>
      <trkpt lat="37.1349" lon="-8.82706">
        <ele>144.34</ele>
        <time>2020-09-05T12:58:08Z</time>
      </trkpt>
      <trkpt lat="37.13503" lon="-8.82716">
        <ele>145.78</ele>
        <time>2020-09-05T12:58:11Z</time>
      </trkpt>
      <trkpt lat="37.13507" lon="-8.82718">
        <ele>145.78</ele>
        <time>2020-09-05T12:58:12Z</time>
      </trkpt>
      <trkpt lat="37.13512" lon="-8.8272">
        <ele>146.74</ele>
        <time>2020-09-05T12:58:13Z</time>
      </trkpt>
      <trkpt lat="37.13516" lon="-8.82721">
        <ele>146.74</ele>
        <time>2020-09-05T12:58:14Z</time>
      </trkpt>
      <trkpt lat="37.13521" lon="-8.82722">
        <ele>147.7</ele>
        <time>2020-09-05T12:58:15Z</time>
      </trkpt>
      <trkpt lat="37.13525" lon="-8.82722">
        <ele>147.7</ele>
        <time>2020-09-05T12:58:16Z</time>
      </trkpt>
      <trkpt lat="37.1353" lon="-8.82721">
        <ele>148.18</ele>
        <time>2020-09-05T12:58:17Z</time>
      </trkpt>
      <trkpt lat="37.13534" lon="-8.8272">
        <ele>148.18</ele>
        <time>2020-09-05T12:58:18Z</time>
      </trkpt>
      <trkpt lat="37.13538" lon="-8.82718">
        <ele>148.18</ele>
        <time>2020-09-05T12:58:19Z</time>
      </trkpt>
      <trkpt lat="37.13562" lon="-8.82706">
        <ele>146.74</ele>
        <time>2020-09-05T12:58:24Z</time>
      </trkpt>
      <trkpt lat="37.136" lon="-8.82675">
        <ele>144.82</ele>
        <time>2020-09-05T12:58:32Z</time>
      </trkpt>
      <trkpt lat="37.13643" lon="-8.82643">
        <ele>142.41</ele>
        <time>2020-09-05T12:58:39Z</time>
      </trkpt>
      <trkpt lat="37.13648" lon="-8.82637">
        <ele>142.41</ele>
        <time>2020-09-05T12:58:40Z</time>
      </trkpt>
      <trkpt lat="37.13652" lon="-8.82629">
        <ele>141.45</ele>
        <time>2020-09-05T12:58:41Z</time>
      </trkpt>
      <trkpt lat="37.13654" lon="-8.8262">
        <ele>141.45</ele>
        <time>2020-09-05T12:58:42Z</time>
      </trkpt>
      <trkpt lat="37.13655" lon="-8.8261">
        <ele>140.97</ele>
        <time>2020-09-05T12:58:43Z</time>
      </trkpt>
      <trkpt lat="37.13656" lon="-8.82601">
        <ele>140.97</ele>
        <time>2020-09-05T12:58:44Z</time>
      </trkpt>
      <trkpt lat="37.13657" lon="-8.82592">
        <ele>140.49</ele>
        <time>2020-09-05T12:58:45Z</time>
      </trkpt>
      <trkpt lat="37.13661" lon="-8.82576">
        <ele>140.49</ele>
        <time>2020-09-05T12:58:47Z</time>
      </trkpt>
      <trkpt lat="37.13663" lon="-8.82569">
        <ele>140.49</ele>
        <time>2020-09-05T12:58:48Z</time>
      </trkpt>
      <trkpt lat="37.13674" lon="-8.82536">
        <ele>142.89</ele>
        <time>2020-09-05T12:58:54Z</time>
      </trkpt>
      <trkpt lat="37.13677" lon="-8.82532">
        <ele>142.89</ele>
        <time>2020-09-05T12:58:55Z</time>
      </trkpt>
      <trkpt lat="37.13696" lon="-8.82505">
        <ele>145.78</ele>
        <time>2020-09-05T12:59:02Z</time>
      </trkpt>
      <trkpt lat="37.13697" lon="-8.82503">
        <ele>145.78</ele>
        <time>2020-09-05T12:59:03Z</time>
      </trkpt>
      <trkpt lat="37.13711" lon="-8.82481">
        <ele>147.22</ele>
        <time>2020-09-05T12:59:11Z</time>
      </trkpt>
      <trkpt lat="37.13718" lon="-8.82467">
        <ele>148.66</ele>
        <time>2020-09-05T12:59:18Z</time>
      </trkpt>
      <trkpt lat="37.13718" lon="-8.82467">
        <ele>149.14</ele>
        <time>2020-09-05T12:59:29Z</time>
      </trkpt>
      <trkpt lat="37.13718" lon="-8.82467">
        <ele>147.7</ele>
        <time>2020-09-05T12:59:31Z</time>
      </trkpt>
      <trkpt lat="37.13718" lon="-8.82467">
        <ele>148.66</ele>
        <time>2020-09-05T12:59:34Z</time>
      </trkpt>
      <trkpt lat="37.13718" lon="-8.82467">
        <ele>146.74</ele>
        <time>2020-09-05T12:59:39Z</time>
      </trkpt>
      <trkpt lat="37.13718" lon="-8.82468">
        <ele>149.14</ele>
        <time>2020-09-05T12:59:41Z</time>
      </trkpt>
      <trkpt lat="37.13721" lon="-8.82458">
        <ele>147.7</ele>
        <time>2020-09-05T12:59:46Z</time>
      </trkpt>
      <trkpt lat="37.13724" lon="-8.8245">
        <ele>146.74</ele>
        <time>2020-09-05T12:59:48Z</time>
      </trkpt>
      <trkpt lat="37.13725" lon="-8.82444">
        <ele>146.26</ele>
        <time>2020-09-05T12:59:49Z</time>
      </trkpt>
      <trkpt lat="37.13729" lon="-8.82401">
        <ele>142.41</ele>
        <time>2020-09-05T12:59:54Z</time>
      </trkpt>
      <trkpt lat="37.13732" lon="-8.82381">
        <ele>141.93</ele>
        <time>2020-09-05T12:59:56Z</time>
      </trkpt>
      <trkpt lat="37.13737" lon="-8.82352">
        <ele>140.97</ele>
        <time>2020-09-05T12:59:59Z</time>
      </trkpt>
      <trkpt lat="37.1374" lon="-8.82343">
        <ele>140.97</ele>
        <time>2020-09-05T13:00:00Z</time>
      </trkpt>
      <trkpt lat="37.13757" lon="-8.8231">
        <ele>137.61</ele>
        <time>2020-09-05T13:00:04Z</time>
      </trkpt>
      <trkpt lat="37.13795" lon="-8.82243">
        <ele>135.2</ele>
        <time>2020-09-05T13:00:12Z</time>
      </trkpt>
      <trkpt lat="37.1381" lon="-8.82217">
        <ele>136.64</ele>
        <time>2020-09-05T13:00:17Z</time>
      </trkpt>
      <trkpt lat="37.13812" lon="-8.82212">
        <ele>136.64</ele>
        <time>2020-09-05T13:00:18Z</time>
      </trkpt>
      <trkpt lat="37.13814" lon="-8.82207">
        <ele>136.64</ele>
        <time>2020-09-05T13:00:19Z</time>
      </trkpt>
      <trkpt lat="37.13816" lon="-8.82201">
        <ele>136.64</ele>
        <time>2020-09-05T13:00:20Z</time>
      </trkpt>
      <trkpt lat="37.13816" lon="-8.82194">
        <ele>136.64</ele>
        <time>2020-09-05T13:00:21Z</time>
      </trkpt>
      <trkpt lat="37.13815" lon="-8.82189">
        <ele>136.64</ele>
        <time>2020-09-05T13:00:22Z</time>
      </trkpt>
      <trkpt lat="37.13814" lon="-8.82183">
        <ele>136.64</ele>
        <time>2020-09-05T13:00:23Z</time>
      </trkpt>
      <trkpt lat="37.13805" lon="-8.82144">
        <ele>140.01</ele>
        <time>2020-09-05T13:00:31Z</time>
      </trkpt>
      <trkpt lat="37.13806" lon="-8.82133">
        <ele>141.45</ele>
        <time>2020-09-05T13:00:34Z</time>
      </trkpt>
      <trkpt lat="37.13818" lon="-8.82104">
        <ele>143.85</ele>
        <time>2020-09-05T13:00:41Z</time>
      </trkpt>
      <trkpt lat="37.13825" lon="-8.8208">
        <ele>144.82</ele>
        <time>2020-09-05T13:00:46Z</time>
      </trkpt>
      <trkpt lat="37.13827" lon="-8.82076">
        <ele>144.82</ele>
        <time>2020-09-05T13:00:47Z</time>
      </trkpt>
      <trkpt lat="37.13829" lon="-8.82071">
        <ele>144.82</ele>
        <time>2020-09-05T13:00:48Z</time>
      </trkpt>
      <trkpt lat="37.13848" lon="-8.82037">
        <ele>144.82</ele>
        <time>2020-09-05T13:00:56Z</time>
      </trkpt>
      <trkpt lat="37.13866" lon="-8.82">
        <ele>144.82</ele>
        <time>2020-09-05T13:01:04Z</time>
      </trkpt>
      <trkpt lat="37.13869" lon="-8.81996">
        <ele>144.82</ele>
        <time>2020-09-05T13:01:05Z</time>
      </trkpt>
      <trkpt lat="37.13872" lon="-8.81992">
        <ele>144.82</ele>
        <time>2020-09-05T13:01:06Z</time>
      </trkpt>
      <trkpt lat="37.13875" lon="-8.81989">
        <ele>144.82</ele>
        <time>2020-09-05T13:01:07Z</time>
      </trkpt>
      <trkpt lat="37.13879" lon="-8.81985">
        <ele>144.82</ele>
        <time>2020-09-05T13:01:08Z</time>
      </trkpt>
      <trkpt lat="37.13883" lon="-8.81983">
        <ele>144.82</ele>
        <time>2020-09-05T13:01:09Z</time>
      </trkpt>
      <trkpt lat="37.13891" lon="-8.81976">
        <ele>144.82</ele>
        <time>2020-09-05T13:01:11Z</time>
      </trkpt>
      <trkpt lat="37.13895" lon="-8.81972">
        <ele>144.82</ele>
        <time>2020-09-05T13:01:12Z</time>
      </trkpt>
      <trkpt lat="37.13898" lon="-8.81968">
        <ele>144.82</ele>
        <time>2020-09-05T13:01:13Z</time>
      </trkpt>
      <trkpt lat="37.13901" lon="-8.81964">
        <ele>144.82</ele>
        <time>2020-09-05T13:01:14Z</time>
      </trkpt>
      <trkpt lat="37.13904" lon="-8.81959">
        <ele>145.3</ele>
        <time>2020-09-05T13:01:15Z</time>
      </trkpt>
      <trkpt lat="37.13934" lon="-8.81922">
        <ele>146.26</ele>
        <time>2020-09-05T13:01:24Z</time>
      </trkpt>
      <trkpt lat="37.13942" lon="-8.81915">
        <ele>146.74</ele>
        <time>2020-09-05T13:01:26Z</time>
      </trkpt>
      <trkpt lat="37.13978" lon="-8.81898">
        <ele>148.18</ele>
        <time>2020-09-05T13:01:34Z</time>
      </trkpt>
      <trkpt lat="37.14013" lon="-8.81883">
        <ele>150.58</ele>
        <time>2020-09-05T13:01:43Z</time>
      </trkpt>
      <trkpt lat="37.14027" lon="-8.81868">
        <ele>152.51</ele>
        <time>2020-09-05T13:01:48Z</time>
      </trkpt>
      <trkpt lat="37.14039" lon="-8.81851">
        <ele>153.47</ele>
        <time>2020-09-05T13:01:55Z</time>
      </trkpt>
      <trkpt lat="37.1404" lon="-8.8185">
        <ele>153.47</ele>
        <time>2020-09-05T13:02:08Z</time>
      </trkpt>
      <trkpt lat="37.14039" lon="-8.8185">
        <ele>153.47</ele>
        <time>2020-09-05T13:02:29Z</time>
      </trkpt>
      <trkpt lat="37.14039" lon="-8.81851">
        <ele>153.47</ele>
        <time>2020-09-05T13:02:54Z</time>
      </trkpt>
      <trkpt lat="37.1404" lon="-8.81851">
        <ele>153.47</ele>
        <time>2020-09-05T13:03:18Z</time>
      </trkpt>
      <trkpt lat="37.1404" lon="-8.8185">
        <ele>153.47</ele>
        <time>2020-09-05T13:03:48Z</time>
      </trkpt>
      <trkpt lat="37.14039" lon="-8.8185">
        <ele>153.47</ele>
        <time>2020-09-05T13:04:17Z</time>
      </trkpt>
      <trkpt lat="37.14042" lon="-8.81848">
        <ele>153.47</ele>
        <time>2020-09-05T13:04:35Z</time>
      </trkpt>
      <trkpt lat="37.14044" lon="-8.81847">
        <ele>153.47</ele>
        <time>2020-09-05T13:04:36Z</time>
      </trkpt>
      <trkpt lat="37.14046" lon="-8.81845">
        <ele>153.47</ele>
        <time>2020-09-05T13:04:37Z</time>
      </trkpt>
      <trkpt lat="37.14049" lon="-8.81843">
        <ele>153.47</ele>
        <time>2020-09-05T13:04:38Z</time>
      </trkpt>
      <trkpt lat="37.14051" lon="-8.81841">
        <ele>153.47</ele>
        <time>2020-09-05T13:04:39Z</time>
      </trkpt>
      <trkpt lat="37.14074" lon="-8.81824">
        <ele>153.95</ele>
        <time>2020-09-05T13:04:46Z</time>
      </trkpt>
      <trkpt lat="37.14103" lon="-8.8182">
        <ele>154.43</ele>
        <time>2020-09-05T13:04:54Z</time>
      </trkpt>
      <trkpt lat="37.1414" lon="-8.81825">
        <ele>154.91</ele>
        <time>2020-09-05T13:05:04Z</time>
      </trkpt>
      <trkpt lat="37.14168" lon="-8.81824">
        <ele>154.91</ele>
        <time>2020-09-05T13:05:11Z</time>
      </trkpt>
      <trkpt lat="37.14199" lon="-8.81809">
        <ele>153.47</ele>
        <time>2020-09-05T13:05:19Z</time>
      </trkpt>
      <trkpt lat="37.14215" lon="-8.81796">
        <ele>151.54</ele>
        <time>2020-09-05T13:05:22Z</time>
      </trkpt>
      <trkpt lat="37.14237" lon="-8.81769">
        <ele>147.7</ele>
        <time>2020-09-05T13:05:26Z</time>
      </trkpt>
      <trkpt lat="37.14243" lon="-8.81762">
        <ele>147.22</ele>
        <time>2020-09-05T13:05:27Z</time>
      </trkpt>
      <trkpt lat="37.14249" lon="-8.81755">
        <ele>147.22</ele>
        <time>2020-09-05T13:05:28Z</time>
      </trkpt>
      <trkpt lat="37.14255" lon="-8.81749">
        <ele>147.22</ele>
        <time>2020-09-05T13:05:29Z</time>
      </trkpt>
      <trkpt lat="37.14262" lon="-8.81744">
        <ele>147.22</ele>
        <time>2020-09-05T13:05:30Z</time>
      </trkpt>
      <trkpt lat="37.14269" lon="-8.81742">
        <ele>147.22</ele>
        <time>2020-09-05T13:05:31Z</time>
      </trkpt>
      <trkpt lat="37.14275" lon="-8.81741">
        <ele>147.22</ele>
        <time>2020-09-05T13:05:32Z</time>
      </trkpt>
      <trkpt lat="37.14281" lon="-8.81741">
        <ele>147.22</ele>
        <time>2020-09-05T13:05:33Z</time>
      </trkpt>
      <trkpt lat="37.14287" lon="-8.81742">
        <ele>147.22</ele>
        <time>2020-09-05T13:05:34Z</time>
      </trkpt>
      <trkpt lat="37.14291" lon="-8.81743">
        <ele>147.22</ele>
        <time>2020-09-05T13:05:35Z</time>
      </trkpt>
      <trkpt lat="37.14296" lon="-8.81745">
        <ele>148.66</ele>
        <time>2020-09-05T13:05:36Z</time>
      </trkpt>
      <trkpt lat="37.14299" lon="-8.81747">
        <ele>149.14</ele>
        <time>2020-09-05T13:05:37Z</time>
      </trkpt>
      <trkpt lat="37.14323" lon="-8.8177">
        <ele>151.54</ele>
        <time>2020-09-05T13:05:45Z</time>
      </trkpt>
      <trkpt lat="37.14336" lon="-8.81785">
        <ele>152.99</ele>
        <time>2020-09-05T13:05:50Z</time>
      </trkpt>
      <trkpt lat="37.14363" lon="-8.8181">
        <ele>156.35</ele>
        <time>2020-09-05T13:06:00Z</time>
      </trkpt>
      <trkpt lat="37.14393" lon="-8.8182">
        <ele>157.79</ele>
        <time>2020-09-05T13:06:09Z</time>
      </trkpt>
      <trkpt lat="37.14435" lon="-8.81828">
        <ele>158.27</ele>
        <time>2020-09-05T13:06:19Z</time>
      </trkpt>
      <trkpt lat="37.14464" lon="-8.81849">
        <ele>158.27</ele>
        <time>2020-09-05T13:06:26Z</time>
      </trkpt>
      <trkpt lat="37.14467" lon="-8.81853">
        <ele>158.75</ele>
        <time>2020-09-05T13:06:27Z</time>
      </trkpt>
      <trkpt lat="37.14492" lon="-8.81896">
        <ele>161.16</ele>
        <time>2020-09-05T13:06:37Z</time>
      </trkpt>
      <trkpt lat="37.14502" lon="-8.81905">
        <ele>161.64</ele>
        <time>2020-09-05T13:06:40Z</time>
      </trkpt>
      <trkpt lat="37.14506" lon="-8.81907">
        <ele>161.64</ele>
        <time>2020-09-05T13:06:41Z</time>
      </trkpt>
      <trkpt lat="37.1451" lon="-8.81908">
        <ele>162.12</ele>
        <time>2020-09-05T13:06:42Z</time>
      </trkpt>
      <trkpt lat="37.14514" lon="-8.81909">
        <ele>162.12</ele>
        <time>2020-09-05T13:06:43Z</time>
      </trkpt>
      <trkpt lat="37.14518" lon="-8.81908">
        <ele>162.12</ele>
        <time>2020-09-05T13:06:44Z</time>
      </trkpt>
      <trkpt lat="37.14522" lon="-8.81908">
        <ele>162.12</ele>
        <time>2020-09-05T13:06:45Z</time>
      </trkpt>
      <trkpt lat="37.14527" lon="-8.81906">
        <ele>162.12</ele>
        <time>2020-09-05T13:06:46Z</time>
      </trkpt>
      <trkpt lat="37.14531" lon="-8.81904">
        <ele>162.6</ele>
        <time>2020-09-05T13:06:47Z</time>
      </trkpt>
      <trkpt lat="37.14535" lon="-8.81901">
        <ele>162.6</ele>
        <time>2020-09-05T13:06:48Z</time>
      </trkpt>
      <trkpt lat="37.14539" lon="-8.81898">
        <ele>162.6</ele>
        <time>2020-09-05T13:06:49Z</time>
      </trkpt>
      <trkpt lat="37.14581" lon="-8.81869">
        <ele>163.08</ele>
        <time>2020-09-05T13:07:00Z</time>
      </trkpt>
      <trkpt lat="37.14619" lon="-8.81846">
        <ele>163.08</ele>
        <time>2020-09-05T13:07:09Z</time>
      </trkpt>
      <trkpt lat="37.14634" lon="-8.81833">
        <ele>163.08</ele>
        <time>2020-09-05T13:07:13Z</time>
      </trkpt>
      <trkpt lat="37.14642" lon="-8.81826">
        <ele>163.08</ele>
        <time>2020-09-05T13:07:15Z</time>
      </trkpt>
      <trkpt lat="37.14669" lon="-8.81804">
        <ele>161.64</ele>
        <time>2020-09-05T13:07:22Z</time>
      </trkpt>
      <trkpt lat="37.14673" lon="-8.81799">
        <ele>161.64</ele>
        <time>2020-09-05T13:07:23Z</time>
      </trkpt>
      <trkpt lat="37.14677" lon="-8.81793">
        <ele>161.16</ele>
        <time>2020-09-05T13:07:24Z</time>
      </trkpt>
      <trkpt lat="37.1468" lon="-8.81785">
        <ele>160.2</ele>
        <time>2020-09-05T13:07:25Z</time>
      </trkpt>
      <trkpt lat="37.14682" lon="-8.81776">
        <ele>159.24</ele>
        <time>2020-09-05T13:07:26Z</time>
      </trkpt>
      <trkpt lat="37.14684" lon="-8.81765">
        <ele>158.27</ele>
        <time>2020-09-05T13:07:27Z</time>
      </trkpt>
      <trkpt lat="37.14683" lon="-8.81753">
        <ele>155.39</ele>
        <time>2020-09-05T13:07:28Z</time>
      </trkpt>
      <trkpt lat="37.14682" lon="-8.81741">
        <ele>154.43</ele>
        <time>2020-09-05T13:07:29Z</time>
      </trkpt>
      <trkpt lat="37.14681" lon="-8.81729">
        <ele>152.99</ele>
        <time>2020-09-05T13:07:30Z</time>
      </trkpt>
      <trkpt lat="37.14678" lon="-8.81715">
        <ele>152.99</ele>
        <time>2020-09-05T13:07:31Z</time>
      </trkpt>
      <trkpt lat="37.14676" lon="-8.81704">
        <ele>152.51</ele>
        <time>2020-09-05T13:07:32Z</time>
      </trkpt>
      <trkpt lat="37.14662" lon="-8.81629">
        <ele>152.03</ele>
        <time>2020-09-05T13:07:39Z</time>
      </trkpt>
      <trkpt lat="37.1465" lon="-8.8158">
        <ele>152.03</ele>
        <time>2020-09-05T13:07:45Z</time>
      </trkpt>
      <trkpt lat="37.1463" lon="-8.8152">
        <ele>152.03</ele>
        <time>2020-09-05T13:07:54Z</time>
      </trkpt>
      <trkpt lat="37.14611" lon="-8.81492">
        <ele>153.47</ele>
        <time>2020-09-05T13:08:00Z</time>
      </trkpt>
      <trkpt lat="37.14603" lon="-8.81479">
        <ele>154.43</ele>
        <time>2020-09-05T13:08:03Z</time>
      </trkpt>
      <trkpt lat="37.14597" lon="-8.81465">
        <ele>155.39</ele>
        <time>2020-09-05T13:08:06Z</time>
      </trkpt>
      <trkpt lat="37.14596" lon="-8.8146">
        <ele>155.39</ele>
        <time>2020-09-05T13:08:07Z</time>
      </trkpt>
      <trkpt lat="37.14592" lon="-8.81444">
        <ele>156.35</ele>
        <time>2020-09-05T13:08:10Z</time>
      </trkpt>
      <trkpt lat="37.14596" lon="-8.81407">
        <ele>157.79</ele>
        <time>2020-09-05T13:08:17Z</time>
      </trkpt>
      <trkpt lat="37.14606" lon="-8.81384">
        <ele>157.79</ele>
        <time>2020-09-05T13:08:22Z</time>
      </trkpt>
      <trkpt lat="37.14609" lon="-8.81379">
        <ele>158.27</ele>
        <time>2020-09-05T13:08:23Z</time>
      </trkpt>
      <trkpt lat="37.14615" lon="-8.81371">
        <ele>158.75</ele>
        <time>2020-09-05T13:08:25Z</time>
      </trkpt>
      <trkpt lat="37.14618" lon="-8.81368">
        <ele>158.75</ele>
        <time>2020-09-05T13:08:26Z</time>
      </trkpt>
      <trkpt lat="37.14628" lon="-8.81359">
        <ele>158.75</ele>
        <time>2020-09-05T13:08:29Z</time>
      </trkpt>
      <trkpt lat="37.14637" lon="-8.81348">
        <ele>158.75</ele>
        <time>2020-09-05T13:08:32Z</time>
      </trkpt>
      <trkpt lat="37.1464" lon="-8.81343">
        <ele>158.75</ele>
        <time>2020-09-05T13:08:33Z</time>
      </trkpt>
      <trkpt lat="37.14644" lon="-8.81337">
        <ele>157.31</ele>
        <time>2020-09-05T13:08:34Z</time>
      </trkpt>
      <trkpt lat="37.14663" lon="-8.81293">
        <ele>154.91</ele>
        <time>2020-09-05T13:08:40Z</time>
      </trkpt>
      <trkpt lat="37.14675" lon="-8.81266">
        <ele>156.83</ele>
        <time>2020-09-05T13:08:45Z</time>
      </trkpt>
      <trkpt lat="37.14685" lon="-8.8123">
        <ele>159.72</ele>
        <time>2020-09-05T13:08:53Z</time>
      </trkpt>
      <trkpt lat="37.14679" lon="-8.81207">
        <ele>160.2</ele>
        <time>2020-09-05T13:08:58Z</time>
      </trkpt>
      <trkpt lat="37.14678" lon="-8.81202">
        <ele>160.2</ele>
        <time>2020-09-05T13:08:59Z</time>
      </trkpt>
      <trkpt lat="37.14679" lon="-8.81197">
        <ele>160.2</ele>
        <time>2020-09-05T13:09:00Z</time>
      </trkpt>
      <trkpt lat="37.14679" lon="-8.81194">
        <ele>160.2</ele>
        <time>2020-09-05T13:09:01Z</time>
      </trkpt>
      <trkpt lat="37.14679" lon="-8.81191">
        <ele>160.2</ele>
        <time>2020-09-05T13:09:02Z</time>
      </trkpt>
      <trkpt lat="37.14679" lon="-8.81189">
        <ele>160.2</ele>
        <time>2020-09-05T13:09:03Z</time>
      </trkpt>
      <trkpt lat="37.14678" lon="-8.81187">
        <ele>160.2</ele>
        <time>2020-09-05T13:09:04Z</time>
      </trkpt>
      <trkpt lat="37.14677" lon="-8.81185">
        <ele>159.72</ele>
        <time>2020-09-05T13:09:05Z</time>
      </trkpt>
      <trkpt lat="37.14675" lon="-8.81184">
        <ele>160.2</ele>
        <time>2020-09-05T13:09:06Z</time>
      </trkpt>
      <trkpt lat="37.14673" lon="-8.81182">
        <ele>160.2</ele>
        <time>2020-09-05T13:09:07Z</time>
      </trkpt>
      <trkpt lat="37.1467" lon="-8.81181">
        <ele>159.72</ele>
        <time>2020-09-05T13:09:08Z</time>
      </trkpt>
      <trkpt lat="37.14667" lon="-8.8118">
        <ele>159.72</ele>
        <time>2020-09-05T13:09:09Z</time>
      </trkpt>
      <trkpt lat="37.14664" lon="-8.8118">
        <ele>159.72</ele>
        <time>2020-09-05T13:09:10Z</time>
      </trkpt>
      <trkpt lat="37.1466" lon="-8.8118">
        <ele>159.72</ele>
        <time>2020-09-05T13:09:11Z</time>
      </trkpt>
      <trkpt lat="37.14642" lon="-8.8118">
        <ele>158.27</ele>
        <time>2020-09-05T13:09:15Z</time>
      </trkpt>
      <trkpt lat="37.14637" lon="-8.81181">
        <ele>158.27</ele>
        <time>2020-09-05T13:09:16Z</time>
      </trkpt>
      <trkpt lat="37.14613" lon="-8.81181">
        <ele>158.27</ele>
        <time>2020-09-05T13:09:22Z</time>
      </trkpt>
      <trkpt lat="37.14614" lon="-8.81177">
        <ele>158.27</ele>
        <time>2020-09-05T13:09:28Z</time>
      </trkpt>
      <trkpt lat="37.14614" lon="-8.81175">
        <ele>158.27</ele>
        <time>2020-09-05T13:09:29Z</time>
      </trkpt>
      <trkpt lat="37.14613" lon="-8.81172">
        <ele>158.27</ele>
        <time>2020-09-05T13:09:30Z</time>
      </trkpt>
      <trkpt lat="37.14611" lon="-8.81169">
        <ele>157.79</ele>
        <time>2020-09-05T13:09:31Z</time>
      </trkpt>
      <trkpt lat="37.14609" lon="-8.81166">
        <ele>157.31</ele>
        <time>2020-09-05T13:09:32Z</time>
      </trkpt>
      <trkpt lat="37.14596" lon="-8.81148">
        <ele>153.95</ele>
        <time>2020-09-05T13:09:37Z</time>
      </trkpt>
      <trkpt lat="37.14592" lon="-8.81141">
        <ele>152.51</ele>
        <time>2020-09-05T13:09:39Z</time>
      </trkpt>
      <trkpt lat="37.14592" lon="-8.81136">
        <ele>151.54</ele>
        <time>2020-09-05T13:09:40Z</time>
      </trkpt>
      <trkpt lat="37.14593" lon="-8.81131">
        <ele>150.58</ele>
        <time>2020-09-05T13:09:41Z</time>
      </trkpt>
      <trkpt lat="37.14594" lon="-8.81126">
        <ele>150.1</ele>
        <time>2020-09-05T13:09:42Z</time>
      </trkpt>
      <trkpt lat="37.14596" lon="-8.81121">
        <ele>149.14</ele>
        <time>2020-09-05T13:09:43Z</time>
      </trkpt>
      <trkpt lat="37.14599" lon="-8.81116">
        <ele>148.66</ele>
        <time>2020-09-05T13:09:44Z</time>
      </trkpt>
      <trkpt lat="37.14607" lon="-8.81095">
        <ele>145.3</ele>
        <time>2020-09-05T13:09:48Z</time>
      </trkpt>
      <trkpt lat="37.1461" lon="-8.81085">
        <ele>143.37</ele>
        <time>2020-09-05T13:09:50Z</time>
      </trkpt>
      <trkpt lat="37.1461" lon="-8.81079">
        <ele>142.41</ele>
        <time>2020-09-05T13:09:51Z</time>
      </trkpt>
      <trkpt lat="37.1461" lon="-8.81072">
        <ele>141.45</ele>
        <time>2020-09-05T13:09:52Z</time>
      </trkpt>
      <trkpt lat="37.14609" lon="-8.81065">
        <ele>140.49</ele>
        <time>2020-09-05T13:09:53Z</time>
      </trkpt>
      <trkpt lat="37.14607" lon="-8.81059">
        <ele>140.01</ele>
        <time>2020-09-05T13:09:54Z</time>
      </trkpt>
      <trkpt lat="37.14604" lon="-8.81053">
        <ele>140.01</ele>
        <time>2020-09-05T13:09:55Z</time>
      </trkpt>
      <trkpt lat="37.146" lon="-8.81049">
        <ele>140.01</ele>
        <time>2020-09-05T13:09:56Z</time>
      </trkpt>
      <trkpt lat="37.14596" lon="-8.81044">
        <ele>140.49</ele>
        <time>2020-09-05T13:09:57Z</time>
      </trkpt>
      <trkpt lat="37.14572" lon="-8.81012">
        <ele>139.53</ele>
        <time>2020-09-05T13:10:04Z</time>
      </trkpt>
      <trkpt lat="37.14561" lon="-8.81">
        <ele>139.53</ele>
        <time>2020-09-05T13:10:07Z</time>
      </trkpt>
      <trkpt lat="37.14553" lon="-8.80993">
        <ele>139.53</ele>
        <time>2020-09-05T13:10:09Z</time>
      </trkpt>
      <trkpt lat="37.14549" lon="-8.80991">
        <ele>139.53</ele>
        <time>2020-09-05T13:10:10Z</time>
      </trkpt>
      <trkpt lat="37.14544" lon="-8.8099">
        <ele>139.53</ele>
        <time>2020-09-05T13:10:11Z</time>
      </trkpt>
      <trkpt lat="37.14514" lon="-8.80981">
        <ele>137.61</ele>
        <time>2020-09-05T13:10:19Z</time>
      </trkpt>
      <trkpt lat="37.14498" lon="-8.80976">
        <ele>133.76</ele>
        <time>2020-09-05T13:10:23Z</time>
      </trkpt>
      <trkpt lat="37.14494" lon="-8.80974">
        <ele>132.8</ele>
        <time>2020-09-05T13:10:24Z</time>
      </trkpt>
      <trkpt lat="37.14481" lon="-8.80965">
        <ele>129.43</ele>
        <time>2020-09-05T13:10:28Z</time>
      </trkpt>
      <trkpt lat="37.14471" lon="-8.80956">
        <ele>126.07</ele>
        <time>2020-09-05T13:10:31Z</time>
      </trkpt>
      <trkpt lat="37.14459" lon="-8.80947">
        <ele>122.22</ele>
        <time>2020-09-05T13:10:34Z</time>
      </trkpt>
      <trkpt lat="37.14455" lon="-8.80945">
        <ele>121.26</ele>
        <time>2020-09-05T13:10:35Z</time>
      </trkpt>
      <trkpt lat="37.14449" lon="-8.80945">
        <ele>119.82</ele>
        <time>2020-09-05T13:10:36Z</time>
      </trkpt>
      <trkpt lat="37.14444" lon="-8.80947">
        <ele>119.34</ele>
        <time>2020-09-05T13:10:37Z</time>
      </trkpt>
      <trkpt lat="37.14439" lon="-8.80949">
        <ele>118.86</ele>
        <time>2020-09-05T13:10:38Z</time>
      </trkpt>
      <trkpt lat="37.14434" lon="-8.80953">
        <ele>118.86</ele>
        <time>2020-09-05T13:10:39Z</time>
      </trkpt>
      <trkpt lat="37.14429" lon="-8.80957">
        <ele>118.86</ele>
        <time>2020-09-05T13:10:40Z</time>
      </trkpt>
      <trkpt lat="37.14425" lon="-8.80963">
        <ele>118.86</ele>
        <time>2020-09-05T13:10:41Z</time>
      </trkpt>
      <trkpt lat="37.14422" lon="-8.80969">
        <ele>117.9</ele>
        <time>2020-09-05T13:10:42Z</time>
      </trkpt>
      <trkpt lat="37.14418" lon="-8.80975">
        <ele>117.42</ele>
        <time>2020-09-05T13:10:43Z</time>
      </trkpt>
      <trkpt lat="37.14405" lon="-8.80995">
        <ele>115.98</ele>
        <time>2020-09-05T13:10:46Z</time>
      </trkpt>
      <trkpt lat="37.14397" lon="-8.81006">
        <ele>114.53</ele>
        <time>2020-09-05T13:10:48Z</time>
      </trkpt>
      <trkpt lat="37.14389" lon="-8.81017">
        <ele>113.57</ele>
        <time>2020-09-05T13:10:51Z</time>
      </trkpt>
      <trkpt lat="37.14386" lon="-8.81017">
        <ele>113.09</ele>
        <time>2020-09-05T13:10:52Z</time>
      </trkpt>
      <trkpt lat="37.14383" lon="-8.81015">
        <ele>112.61</ele>
        <time>2020-09-05T13:10:53Z</time>
      </trkpt>
      <trkpt lat="37.14381" lon="-8.81011">
        <ele>111.65</ele>
        <time>2020-09-05T13:10:54Z</time>
      </trkpt>
      <trkpt lat="37.14381" lon="-8.81006">
        <ele>111.17</ele>
        <time>2020-09-05T13:10:55Z</time>
      </trkpt>
      <trkpt lat="37.14382" lon="-8.81002">
        <ele>111.17</ele>
        <time>2020-09-05T13:10:56Z</time>
      </trkpt>
      <trkpt lat="37.14385" lon="-8.80997">
        <ele>111.17</ele>
        <time>2020-09-05T13:10:57Z</time>
      </trkpt>
      <trkpt lat="37.14388" lon="-8.80992">
        <ele>111.17</ele>
        <time>2020-09-05T13:10:58Z</time>
      </trkpt>
      <trkpt lat="37.1439" lon="-8.80987">
        <ele>110.21</ele>
        <time>2020-09-05T13:10:59Z</time>
      </trkpt>
      <trkpt lat="37.14391" lon="-8.80982">
        <ele>110.21</ele>
        <time>2020-09-05T13:11:00Z</time>
      </trkpt>
      <trkpt lat="37.14391" lon="-8.80976">
        <ele>110.21</ele>
        <time>2020-09-05T13:11:01Z</time>
      </trkpt>
      <trkpt lat="37.1439" lon="-8.80971">
        <ele>109.73</ele>
        <time>2020-09-05T13:11:02Z</time>
      </trkpt>
      <trkpt lat="37.14387" lon="-8.80966">
        <ele>109.73</ele>
        <time>2020-09-05T13:11:03Z</time>
      </trkpt>
      <trkpt lat="37.14384" lon="-8.80962">
        <ele>109.25</ele>
        <time>2020-09-05T13:11:04Z</time>
      </trkpt>
      <trkpt lat="37.1438" lon="-8.80958">
        <ele>109.25</ele>
        <time>2020-09-05T13:11:05Z</time>
      </trkpt>
      <trkpt lat="37.14376" lon="-8.80955">
        <ele>109.25</ele>
        <time>2020-09-05T13:11:06Z</time>
      </trkpt>
      <trkpt lat="37.14346" lon="-8.80938">
        <ele>105.88</ele>
        <time>2020-09-05T13:11:11Z</time>
      </trkpt>
      <trkpt lat="37.14309" lon="-8.80917">
        <ele>102.52</ele>
        <time>2020-09-05T13:11:16Z</time>
      </trkpt>
      <trkpt lat="37.14258" lon="-8.80888">
        <ele>100.6</ele>
        <time>2020-09-05T13:11:23Z</time>
      </trkpt>
      <trkpt lat="37.14235" lon="-8.80878">
        <ele>98.67</ele>
        <time>2020-09-05T13:11:27Z</time>
      </trkpt>
      <trkpt lat="37.14212" lon="-8.80872">
        <ele>95.31</ele>
        <time>2020-09-05T13:11:31Z</time>
      </trkpt>
      <trkpt lat="37.14206" lon="-8.80871">
        <ele>94.35</ele>
        <time>2020-09-05T13:11:32Z</time>
      </trkpt>
      <trkpt lat="37.14201" lon="-8.80872">
        <ele>93.39</ele>
        <time>2020-09-05T13:11:33Z</time>
      </trkpt>
      <trkpt lat="37.1419" lon="-8.80874">
        <ele>92.42</ele>
        <time>2020-09-05T13:11:35Z</time>
      </trkpt>
      <trkpt lat="37.14185" lon="-8.80873">
        <ele>91.94</ele>
        <time>2020-09-05T13:11:36Z</time>
      </trkpt>
      <trkpt lat="37.14178" lon="-8.80871">
        <ele>90.98</ele>
        <time>2020-09-05T13:11:37Z</time>
      </trkpt>
      <trkpt lat="37.14163" lon="-8.80866">
        <ele>89.54</ele>
        <time>2020-09-05T13:11:39Z</time>
      </trkpt>
      <trkpt lat="37.14157" lon="-8.80866">
        <ele>89.54</ele>
        <time>2020-09-05T13:11:40Z</time>
      </trkpt>
      <trkpt lat="37.14151" lon="-8.80866">
        <ele>90.5</ele>
        <time>2020-09-05T13:11:41Z</time>
      </trkpt>
      <trkpt lat="37.14143" lon="-8.80867">
        <ele>91.46</ele>
        <time>2020-09-05T13:11:43Z</time>
      </trkpt>
      <trkpt lat="37.14131" lon="-8.80869">
        <ele>92.42</ele>
        <time>2020-09-05T13:11:48Z</time>
      </trkpt>
      <trkpt lat="37.14107" lon="-8.80866">
        <ele>94.83</ele>
        <time>2020-09-05T13:11:56Z</time>
      </trkpt>
      <trkpt lat="37.14088" lon="-8.80856">
        <ele>98.19</ele>
        <time>2020-09-05T13:12:03Z</time>
      </trkpt>
      <trkpt lat="37.14067" lon="-8.80845">
        <ele>99.63</ele>
        <time>2020-09-05T13:12:10Z</time>
      </trkpt>
      <trkpt lat="37.14038" lon="-8.80833">
        <ele>98.19</ele>
        <time>2020-09-05T13:12:18Z</time>
      </trkpt>
      <trkpt lat="37.14028" lon="-8.80827">
        <ele>97.71</ele>
        <time>2020-09-05T13:12:20Z</time>
      </trkpt>
      <trkpt lat="37.13997" lon="-8.80804">
        <ele>94.35</ele>
        <time>2020-09-05T13:12:26Z</time>
      </trkpt>
      <trkpt lat="37.13992" lon="-8.808">
        <ele>94.35</ele>
        <time>2020-09-05T13:12:27Z</time>
      </trkpt>
      <trkpt lat="37.13981" lon="-8.8079">
        <ele>94.35</ele>
        <time>2020-09-05T13:12:29Z</time>
      </trkpt>
      <trkpt lat="37.13964" lon="-8.80769">
        <ele>93.87</ele>
        <time>2020-09-05T13:12:33Z</time>
      </trkpt>
      <trkpt lat="37.13961" lon="-8.80763">
        <ele>93.87</ele>
        <time>2020-09-05T13:12:34Z</time>
      </trkpt>
      <trkpt lat="37.13959" lon="-8.80756">
        <ele>93.87</ele>
        <time>2020-09-05T13:12:35Z</time>
      </trkpt>
      <trkpt lat="37.13948" lon="-8.80721">
        <ele>92.9</ele>
        <time>2020-09-05T13:12:40Z</time>
      </trkpt>
      <trkpt lat="37.13945" lon="-8.80715">
        <ele>92.9</ele>
        <time>2020-09-05T13:12:41Z</time>
      </trkpt>
      <trkpt lat="37.13935" lon="-8.80688">
        <ele>93.87</ele>
        <time>2020-09-05T13:12:47Z</time>
      </trkpt>
      <trkpt lat="37.13921" lon="-8.80662">
        <ele>96.27</ele>
        <time>2020-09-05T13:12:55Z</time>
      </trkpt>
      <trkpt lat="37.13911" lon="-8.80631">
        <ele>96.27</ele>
        <time>2020-09-05T13:13:03Z</time>
      </trkpt>
      <trkpt lat="37.13902" lon="-8.80583">
        <ele>97.71</ele>
        <time>2020-09-05T13:13:13Z</time>
      </trkpt>
      <trkpt lat="37.13897" lon="-8.80553">
        <ele>99.15</ele>
        <time>2020-09-05T13:13:21Z</time>
      </trkpt>
      <trkpt lat="37.13898" lon="-8.80549">
        <ele>99.15</ele>
        <time>2020-09-05T13:13:22Z</time>
      </trkpt>
      <trkpt lat="37.139" lon="-8.80545">
        <ele>99.15</ele>
        <time>2020-09-05T13:13:23Z</time>
      </trkpt>
      <trkpt lat="37.13902" lon="-8.80542">
        <ele>99.15</ele>
        <time>2020-09-05T13:13:24Z</time>
      </trkpt>
      <trkpt lat="37.13911" lon="-8.8053">
        <ele>99.15</ele>
        <time>2020-09-05T13:13:27Z</time>
      </trkpt>
      <trkpt lat="37.13934" lon="-8.80508">
        <ele>99.15</ele>
        <time>2020-09-05T13:13:35Z</time>
      </trkpt>
      <trkpt lat="37.13953" lon="-8.80492">
        <ele>100.6</ele>
        <time>2020-09-05T13:13:42Z</time>
      </trkpt>
      <trkpt lat="37.13975" lon="-8.80462">
        <ele>103</ele>
        <time>2020-09-05T13:13:52Z</time>
      </trkpt>
      <trkpt lat="37.14001" lon="-8.80431">
        <ele>103.48</ele>
        <time>2020-09-05T13:14:01Z</time>
      </trkpt>
      <trkpt lat="37.14021" lon="-8.80395">
        <ele>103.96</ele>
        <time>2020-09-05T13:14:10Z</time>
      </trkpt>
      <trkpt lat="37.14044" lon="-8.80375">
        <ele>105.88</ele>
        <time>2020-09-05T13:14:18Z</time>
      </trkpt>
      <trkpt lat="37.14077" lon="-8.80347">
        <ele>108.29</ele>
        <time>2020-09-05T13:14:29Z</time>
      </trkpt>
      <trkpt lat="37.14099" lon="-8.80325">
        <ele>111.65</ele>
        <time>2020-09-05T13:14:37Z</time>
      </trkpt>
      <trkpt lat="37.14114" lon="-8.80298">
        <ele>112.13</ele>
        <time>2020-09-05T13:14:44Z</time>
      </trkpt>
      <trkpt lat="37.14121" lon="-8.80288">
        <ele>111.17</ele>
        <time>2020-09-05T13:14:46Z</time>
      </trkpt>
      <trkpt lat="37.14146" lon="-8.80257">
        <ele>108.29</ele>
        <time>2020-09-05T13:14:51Z</time>
      </trkpt>
      <trkpt lat="37.14173" lon="-8.80227">
        <ele>107.81</ele>
        <time>2020-09-05T13:14:57Z</time>
      </trkpt>
      <trkpt lat="37.1419" lon="-8.80212">
        <ele>109.25</ele>
        <time>2020-09-05T13:15:02Z</time>
      </trkpt>
      <trkpt lat="37.14218" lon="-8.80183">
        <ele>111.17</ele>
        <time>2020-09-05T13:15:11Z</time>
      </trkpt>
      <trkpt lat="37.14255" lon="-8.8014">
        <ele>114.05</ele>
        <time>2020-09-05T13:15:24Z</time>
      </trkpt>
      <trkpt lat="37.14279" lon="-8.80103">
        <ele>116.46</ele>
        <time>2020-09-05T13:15:34Z</time>
      </trkpt>
      <trkpt lat="37.14298" lon="-8.8007">
        <ele>119.82</ele>
        <time>2020-09-05T13:15:43Z</time>
      </trkpt>
      <trkpt lat="37.14322" lon="-8.80032">
        <ele>123.19</ele>
        <time>2020-09-05T13:15:54Z</time>
      </trkpt>
      <trkpt lat="37.14352" lon="-8.80002">
        <ele>126.07</ele>
        <time>2020-09-05T13:16:05Z</time>
      </trkpt>
      <trkpt lat="37.14384" lon="-8.79974">
        <ele>129.43</ele>
        <time>2020-09-05T13:16:16Z</time>
      </trkpt>
      <trkpt lat="37.14413" lon="-8.79942">
        <ele>132.8</ele>
        <time>2020-09-05T13:16:27Z</time>
      </trkpt>
      <trkpt lat="37.14436" lon="-8.79909">
        <ele>135.68</ele>
        <time>2020-09-05T13:16:37Z</time>
      </trkpt>
      <trkpt lat="37.1446" lon="-8.79869">
        <ele>138.09</ele>
        <time>2020-09-05T13:16:48Z</time>
      </trkpt>
      <trkpt lat="37.14466" lon="-8.79839">
        <ele>139.53</ele>
        <time>2020-09-05T13:16:55Z</time>
      </trkpt>
      <trkpt lat="37.14461" lon="-8.79807">
        <ele>142.41</ele>
        <time>2020-09-05T13:17:03Z</time>
      </trkpt>
      <trkpt lat="37.1445" lon="-8.7977">
        <ele>145.3</ele>
        <time>2020-09-05T13:17:13Z</time>
      </trkpt>
      <trkpt lat="37.14449" lon="-8.79742">
        <ele>148.18</ele>
        <time>2020-09-05T13:17:21Z</time>
      </trkpt>
      <trkpt lat="37.14458" lon="-8.79715">
        <ele>151.54</ele>
        <time>2020-09-05T13:17:29Z</time>
      </trkpt>
      <trkpt lat="37.14463" lon="-8.79705">
        <ele>152.99</ele>
        <time>2020-09-05T13:17:32Z</time>
      </trkpt>
      <trkpt lat="37.14473" lon="-8.79679">
        <ele>156.35</ele>
        <time>2020-09-05T13:17:40Z</time>
      </trkpt>
      <trkpt lat="37.14486" lon="-8.7965">
        <ele>159.72</ele>
        <time>2020-09-05T13:17:49Z</time>
      </trkpt>
      <trkpt lat="37.14499" lon="-8.79611">
        <ele>162.6</ele>
        <time>2020-09-05T13:18:01Z</time>
      </trkpt>
      <trkpt lat="37.1451" lon="-8.79569">
        <ele>162.6</ele>
        <time>2020-09-05T13:18:12Z</time>
      </trkpt>
      <trkpt lat="37.1451" lon="-8.79532">
        <ele>165</ele>
        <time>2020-09-05T13:18:22Z</time>
      </trkpt>
      <trkpt lat="37.14507" lon="-8.79506">
        <ele>167.89</ele>
        <time>2020-09-05T13:18:29Z</time>
      </trkpt>
      <trkpt lat="37.14504" lon="-8.79488">
        <ele>169.81</ele>
        <time>2020-09-05T13:18:34Z</time>
      </trkpt>
      <trkpt lat="37.14502" lon="-8.79456">
        <ele>173.17</ele>
        <time>2020-09-05T13:18:43Z</time>
      </trkpt>
      <trkpt lat="37.145" lon="-8.79411">
        <ele>176.54</ele>
        <time>2020-09-05T13:18:55Z</time>
      </trkpt>
      <trkpt lat="37.14505" lon="-8.79364">
        <ele>179.42</ele>
        <time>2020-09-05T13:19:07Z</time>
      </trkpt>
      <trkpt lat="37.14516" lon="-8.79327">
        <ele>180.87</ele>
        <time>2020-09-05T13:19:16Z</time>
      </trkpt>
      <trkpt lat="37.1453" lon="-8.79282">
        <ele>181.35</ele>
        <time>2020-09-05T13:19:27Z</time>
      </trkpt>
      <trkpt lat="37.14543" lon="-8.79238">
        <ele>182.31</ele>
        <time>2020-09-05T13:19:37Z</time>
      </trkpt>
      <trkpt lat="37.14561" lon="-8.79214">
        <ele>182.79</ele>
        <time>2020-09-05T13:19:44Z</time>
      </trkpt>
      <trkpt lat="37.14588" lon="-8.79193">
        <ele>183.75</ele>
        <time>2020-09-05T13:19:52Z</time>
      </trkpt>
      <trkpt lat="37.14614" lon="-8.79174">
        <ele>184.23</ele>
        <time>2020-09-05T13:20:00Z</time>
      </trkpt>
      <trkpt lat="37.14644" lon="-8.79152">
        <ele>184.23</ele>
        <time>2020-09-05T13:20:09Z</time>
      </trkpt>
      <trkpt lat="37.14681" lon="-8.79133">
        <ele>184.71</ele>
        <time>2020-09-05T13:20:19Z</time>
      </trkpt>
      <trkpt lat="37.14714" lon="-8.79124">
        <ele>184.71</ele>
        <time>2020-09-05T13:20:27Z</time>
      </trkpt>
      <trkpt lat="37.14722" lon="-8.79122">
        <ele>184.71</ele>
        <time>2020-09-05T13:20:29Z</time>
      </trkpt>
      <trkpt lat="37.14763" lon="-8.79115">
        <ele>184.71</ele>
        <time>2020-09-05T13:20:39Z</time>
      </trkpt>
      <trkpt lat="37.14792" lon="-8.79108">
        <ele>183.75</ele>
        <time>2020-09-05T13:20:47Z</time>
      </trkpt>
      <trkpt lat="37.14814" lon="-8.791">
        <ele>183.75</ele>
        <time>2020-09-05T13:20:54Z</time>
      </trkpt>
      <trkpt lat="37.14814" lon="-8.79097">
        <ele>183.75</ele>
        <time>2020-09-05T13:20:55Z</time>
      </trkpt>
      <trkpt lat="37.14814" lon="-8.79094">
        <ele>183.75</ele>
        <time>2020-09-05T13:20:56Z</time>
      </trkpt>
      <trkpt lat="37.14813" lon="-8.7909">
        <ele>183.75</ele>
        <time>2020-09-05T13:20:57Z</time>
      </trkpt>
      <trkpt lat="37.14811" lon="-8.79087">
        <ele>183.75</ele>
        <time>2020-09-05T13:20:58Z</time>
      </trkpt>
      <trkpt lat="37.14809" lon="-8.79085">
        <ele>183.75</ele>
        <time>2020-09-05T13:20:59Z</time>
      </trkpt>
      <trkpt lat="37.14807" lon="-8.79083">
        <ele>183.75</ele>
        <time>2020-09-05T13:21:00Z</time>
      </trkpt>
      <trkpt lat="37.14793" lon="-8.79063">
        <ele>181.83</ele>
        <time>2020-09-05T13:21:08Z</time>
      </trkpt>
      <trkpt lat="37.14778" lon="-8.79041">
        <ele>178.94</ele>
        <time>2020-09-05T13:21:14Z</time>
      </trkpt>
      <trkpt lat="37.14776" lon="-8.79037">
        <ele>178.94</ele>
        <time>2020-09-05T13:21:15Z</time>
      </trkpt>
      <trkpt lat="37.14769" lon="-8.79027">
        <ele>176.06</ele>
        <time>2020-09-05T13:21:17Z</time>
      </trkpt>
      <trkpt lat="37.14765" lon="-8.79021">
        <ele>175.1</ele>
        <time>2020-09-05T13:21:18Z</time>
      </trkpt>
      <trkpt lat="37.14732" lon="-8.78973">
        <ele>173.17</ele>
        <time>2020-09-05T13:21:26Z</time>
      </trkpt>
      <trkpt lat="37.14719" lon="-8.78953">
        <ele>169.33</ele>
        <time>2020-09-05T13:21:30Z</time>
      </trkpt>
      <trkpt lat="37.14707" lon="-8.78933">
        <ele>165.96</ele>
        <time>2020-09-05T13:21:34Z</time>
      </trkpt>
      <trkpt lat="37.14697" lon="-8.78918">
        <ele>163.08</ele>
        <time>2020-09-05T13:21:37Z</time>
      </trkpt>
      <trkpt lat="37.14693" lon="-8.78911">
        <ele>162.12</ele>
        <time>2020-09-05T13:21:38Z</time>
      </trkpt>
      <trkpt lat="37.14689" lon="-8.78905">
        <ele>162.12</ele>
        <time>2020-09-05T13:21:39Z</time>
      </trkpt>
      <trkpt lat="37.14682" lon="-8.78894">
        <ele>164.52</ele>
        <time>2020-09-05T13:21:42Z</time>
      </trkpt>
      <trkpt lat="37.14667" lon="-8.78869">
        <ele>163.08</ele>
        <time>2020-09-05T13:21:50Z</time>
      </trkpt>
      <trkpt lat="37.14661" lon="-8.78858">
        <ele>159.24</ele>
        <time>2020-09-05T13:21:53Z</time>
      </trkpt>
      <trkpt lat="37.14657" lon="-8.78852">
        <ele>157.79</ele>
        <time>2020-09-05T13:21:54Z</time>
      </trkpt>
      <trkpt lat="37.14653" lon="-8.78847">
        <ele>157.79</ele>
        <time>2020-09-05T13:21:55Z</time>
      </trkpt>
      <trkpt lat="37.14644" lon="-8.78833">
        <ele>160.68</ele>
        <time>2020-09-05T13:21:58Z</time>
      </trkpt>
      <trkpt lat="37.14642" lon="-8.7883">
        <ele>160.68</ele>
        <time>2020-09-05T13:21:59Z</time>
      </trkpt>
      <trkpt lat="37.14625" lon="-8.78802">
        <ele>164.04</ele>
        <time>2020-09-05T13:22:08Z</time>
      </trkpt>
      <trkpt lat="37.14606" lon="-8.78773">
        <ele>166.45</ele>
        <time>2020-09-05T13:22:17Z</time>
      </trkpt>
      <trkpt lat="37.14587" lon="-8.78742">
        <ele>167.89</ele>
        <time>2020-09-05T13:22:27Z</time>
      </trkpt>
      <trkpt lat="37.14568" lon="-8.7871">
        <ele>167.89</ele>
        <time>2020-09-05T13:22:36Z</time>
      </trkpt>
      <trkpt lat="37.14562" lon="-8.78697">
        <ele>165.96</ele>
        <time>2020-09-05T13:22:39Z</time>
      </trkpt>
      <trkpt lat="37.14543" lon="-8.78665">
        <ele>164.52</ele>
        <time>2020-09-05T13:22:46Z</time>
      </trkpt>
      <trkpt lat="37.1453" lon="-8.78647">
        <ele>163.08</ele>
        <time>2020-09-05T13:22:50Z</time>
      </trkpt>
      <trkpt lat="37.14527" lon="-8.78642">
        <ele>162.6</ele>
        <time>2020-09-05T13:22:51Z</time>
      </trkpt>
      <trkpt lat="37.145" lon="-8.786">
        <ele>159.24</ele>
        <time>2020-09-05T13:22:58Z</time>
      </trkpt>
      <trkpt lat="37.14491" lon="-8.78587">
        <ele>158.75</ele>
        <time>2020-09-05T13:23:00Z</time>
      </trkpt>
      <trkpt lat="37.14462" lon="-8.78541">
        <ele>155.87</ele>
        <time>2020-09-05T13:23:07Z</time>
      </trkpt>
      <trkpt lat="37.14452" lon="-8.78526">
        <ele>154.91</ele>
        <time>2020-09-05T13:23:11Z</time>
      </trkpt>
      <trkpt lat="37.14449" lon="-8.78524">
        <ele>154.91</ele>
        <time>2020-09-05T13:23:12Z</time>
      </trkpt>
      <trkpt lat="37.14446" lon="-8.78525">
        <ele>154.43</ele>
        <time>2020-09-05T13:23:13Z</time>
      </trkpt>
      <trkpt lat="37.14444" lon="-8.78527">
        <ele>154.43</ele>
        <time>2020-09-05T13:23:14Z</time>
      </trkpt>
      <trkpt lat="37.14442" lon="-8.7853">
        <ele>154.43</ele>
        <time>2020-09-05T13:23:15Z</time>
      </trkpt>
      <trkpt lat="37.1444" lon="-8.78533">
        <ele>153.95</ele>
        <time>2020-09-05T13:23:16Z</time>
      </trkpt>
      <trkpt lat="37.14419" lon="-8.7856">
        <ele>150.58</ele>
        <time>2020-09-05T13:23:23Z</time>
      </trkpt>
      <trkpt lat="37.14414" lon="-8.78564">
        <ele>149.62</ele>
        <time>2020-09-05T13:23:24Z</time>
      </trkpt>
      <trkpt lat="37.1441" lon="-8.7857">
        <ele>149.14</ele>
        <time>2020-09-05T13:23:25Z</time>
      </trkpt>
      <trkpt lat="37.14393" lon="-8.7859">
        <ele>148.18</ele>
        <time>2020-09-05T13:23:29Z</time>
      </trkpt>
      <trkpt lat="37.1439" lon="-8.78593">
        <ele>148.18</ele>
        <time>2020-09-05T13:23:30Z</time>
      </trkpt>
      <trkpt lat="37.14387" lon="-8.78593">
        <ele>149.62</ele>
        <time>2020-09-05T13:23:31Z</time>
      </trkpt>
      <trkpt lat="37.14385" lon="-8.78592">
        <ele>149.14</ele>
        <time>2020-09-05T13:23:32Z</time>
      </trkpt>
      <trkpt lat="37.14383" lon="-8.78591">
        <ele>149.62</ele>
        <time>2020-09-05T13:23:33Z</time>
      </trkpt>
      <trkpt lat="37.14382" lon="-8.78588">
        <ele>149.62</ele>
        <time>2020-09-05T13:23:34Z</time>
      </trkpt>
      <trkpt lat="37.1438" lon="-8.78585">
        <ele>149.14</ele>
        <time>2020-09-05T13:23:35Z</time>
      </trkpt>
      <trkpt lat="37.14376" lon="-8.78578">
        <ele>149.14</ele>
        <time>2020-09-05T13:23:37Z</time>
      </trkpt>
      <trkpt lat="37.14373" lon="-8.78574">
        <ele>149.14</ele>
        <time>2020-09-05T13:23:38Z</time>
      </trkpt>
      <trkpt lat="37.14367" lon="-8.78566">
        <ele>147.7</ele>
        <time>2020-09-05T13:23:40Z</time>
      </trkpt>
      <trkpt lat="37.14338" lon="-8.78537">
        <ele>144.34</ele>
        <time>2020-09-05T13:23:48Z</time>
      </trkpt>
      <trkpt lat="37.14334" lon="-8.78533">
        <ele>144.34</ele>
        <time>2020-09-05T13:23:49Z</time>
      </trkpt>
      <trkpt lat="37.1431" lon="-8.78513">
        <ele>140.97</ele>
        <time>2020-09-05T13:23:55Z</time>
      </trkpt>
      <trkpt lat="37.143" lon="-8.78503">
        <ele>140.01</ele>
        <time>2020-09-05T13:23:58Z</time>
      </trkpt>
      <trkpt lat="37.14296" lon="-8.78501">
        <ele>139.05</ele>
        <time>2020-09-05T13:23:59Z</time>
      </trkpt>
      <trkpt lat="37.14291" lon="-8.78498">
        <ele>138.57</ele>
        <time>2020-09-05T13:24:00Z</time>
      </trkpt>
      <trkpt lat="37.14287" lon="-8.78495">
        <ele>138.09</ele>
        <time>2020-09-05T13:24:01Z</time>
      </trkpt>
      <trkpt lat="37.14283" lon="-8.78493">
        <ele>138.09</ele>
        <time>2020-09-05T13:24:02Z</time>
      </trkpt>
      <trkpt lat="37.14261" lon="-8.78481">
        <ele>135.2</ele>
        <time>2020-09-05T13:24:07Z</time>
      </trkpt>
      <trkpt lat="37.14252" lon="-8.78478">
        <ele>133.76</ele>
        <time>2020-09-05T13:24:09Z</time>
      </trkpt>
      <trkpt lat="37.14249" lon="-8.78475">
        <ele>133.28</ele>
        <time>2020-09-05T13:24:10Z</time>
      </trkpt>
      <trkpt lat="37.14245" lon="-8.78472">
        <ele>132.32</ele>
        <time>2020-09-05T13:24:11Z</time>
      </trkpt>
      <trkpt lat="37.14242" lon="-8.78468">
        <ele>132.32</ele>
        <time>2020-09-05T13:24:12Z</time>
      </trkpt>
      <trkpt lat="37.1424" lon="-8.78463">
        <ele>131.36</ele>
        <time>2020-09-05T13:24:13Z</time>
      </trkpt>
      <trkpt lat="37.14237" lon="-8.78458">
        <ele>130.88</ele>
        <time>2020-09-05T13:24:14Z</time>
      </trkpt>
      <trkpt lat="37.14235" lon="-8.78453">
        <ele>129.92</ele>
        <time>2020-09-05T13:24:15Z</time>
      </trkpt>
      <trkpt lat="37.14234" lon="-8.78448">
        <ele>129.43</ele>
        <time>2020-09-05T13:24:16Z</time>
      </trkpt>
      <trkpt lat="37.14232" lon="-8.78443">
        <ele>128.95</ele>
        <time>2020-09-05T13:24:17Z</time>
      </trkpt>
      <trkpt lat="37.14228" lon="-8.78427">
        <ele>126.55</ele>
        <time>2020-09-05T13:24:20Z</time>
      </trkpt>
      <trkpt lat="37.14226" lon="-8.78421">
        <ele>126.07</ele>
        <time>2020-09-05T13:24:21Z</time>
      </trkpt>
      <trkpt lat="37.14222" lon="-8.78416">
        <ele>125.59</ele>
        <time>2020-09-05T13:24:22Z</time>
      </trkpt>
      <trkpt lat="37.14217" lon="-8.78411">
        <ele>125.11</ele>
        <time>2020-09-05T13:24:23Z</time>
      </trkpt>
      <trkpt lat="37.14212" lon="-8.78406">
        <ele>125.11</ele>
        <time>2020-09-05T13:24:24Z</time>
      </trkpt>
      <trkpt lat="37.14206" lon="-8.78402">
        <ele>123.67</ele>
        <time>2020-09-05T13:24:25Z</time>
      </trkpt>
      <trkpt lat="37.14165" lon="-8.78365">
        <ele>120.78</ele>
        <time>2020-09-05T13:24:32Z</time>
      </trkpt>
      <trkpt lat="37.14135" lon="-8.78333">
        <ele>119.34</ele>
        <time>2020-09-05T13:24:37Z</time>
      </trkpt>
      <trkpt lat="37.1413" lon="-8.78326">
        <ele>118.86</ele>
        <time>2020-09-05T13:24:38Z</time>
      </trkpt>
      <trkpt lat="37.14126" lon="-8.78319">
        <ele>118.86</ele>
        <time>2020-09-05T13:24:39Z</time>
      </trkpt>
      <trkpt lat="37.14108" lon="-8.78281">
        <ele>119.34</ele>
        <time>2020-09-05T13:24:45Z</time>
      </trkpt>
      <trkpt lat="37.14091" lon="-8.78257">
        <ele>120.3</ele>
        <time>2020-09-05T13:24:52Z</time>
      </trkpt>
      <trkpt lat="37.14067" lon="-8.78224">
        <ele>121.74</ele>
        <time>2020-09-05T13:25:01Z</time>
      </trkpt>
      <trkpt lat="37.14064" lon="-8.78213">
        <ele>121.74</ele>
        <time>2020-09-05T13:25:03Z</time>
      </trkpt>
      <trkpt lat="37.14063" lon="-8.78208">
        <ele>121.74</ele>
        <time>2020-09-05T13:25:04Z</time>
      </trkpt>
      <trkpt lat="37.14061" lon="-8.78194">
        <ele>120.3</ele>
        <time>2020-09-05T13:25:06Z</time>
      </trkpt>
      <trkpt lat="37.14049" lon="-8.78142">
        <ele>116.46</ele>
        <time>2020-09-05T13:25:13Z</time>
      </trkpt>
      <trkpt lat="37.14042" lon="-8.78095">
        <ele>113.57</ele>
        <time>2020-09-05T13:25:18Z</time>
      </trkpt>
      <trkpt lat="37.14035" lon="-8.78066">
        <ele>112.13</ele>
        <time>2020-09-05T13:25:21Z</time>
      </trkpt>
      <trkpt lat="37.14032" lon="-8.78058">
        <ele>112.13</ele>
        <time>2020-09-05T13:25:22Z</time>
      </trkpt>
      <trkpt lat="37.14027" lon="-8.78049">
        <ele>111.17</ele>
        <time>2020-09-05T13:25:23Z</time>
      </trkpt>
      <trkpt lat="37.14023" lon="-8.7804">
        <ele>111.17</ele>
        <time>2020-09-05T13:25:24Z</time>
      </trkpt>
      <trkpt lat="37.14017" lon="-8.78032">
        <ele>110.69</ele>
        <time>2020-09-05T13:25:25Z</time>
      </trkpt>
      <trkpt lat="37.14012" lon="-8.78025">
        <ele>110.69</ele>
        <time>2020-09-05T13:25:26Z</time>
      </trkpt>
      <trkpt lat="37.14006" lon="-8.78018">
        <ele>110.21</ele>
        <time>2020-09-05T13:25:27Z</time>
      </trkpt>
      <trkpt lat="37.13969" lon="-8.77981">
        <ele>106.84</ele>
        <time>2020-09-05T13:25:33Z</time>
      </trkpt>
      <trkpt lat="37.13961" lon="-8.77977">
        <ele>105.4</ele>
        <time>2020-09-05T13:25:34Z</time>
      </trkpt>
      <trkpt lat="37.13936" lon="-8.77969">
        <ele>102.04</ele>
        <time>2020-09-05T13:25:37Z</time>
      </trkpt>
      <trkpt lat="37.13909" lon="-8.77961">
        <ele>98.67</ele>
        <time>2020-09-05T13:25:40Z</time>
      </trkpt>
      <trkpt lat="37.13878" lon="-8.77952">
        <ele>94.83</ele>
        <time>2020-09-05T13:25:44Z</time>
      </trkpt>
      <trkpt lat="37.13848" lon="-8.7794">
        <ele>91.46</ele>
        <time>2020-09-05T13:25:48Z</time>
      </trkpt>
      <trkpt lat="37.13837" lon="-8.77932">
        <ele>90.02</ele>
        <time>2020-09-05T13:25:50Z</time>
      </trkpt>
      <trkpt lat="37.13834" lon="-8.77927">
        <ele>89.54</ele>
        <time>2020-09-05T13:25:51Z</time>
      </trkpt>
      <trkpt lat="37.13833" lon="-8.77921">
        <ele>89.54</ele>
        <time>2020-09-05T13:25:52Z</time>
      </trkpt>
      <trkpt lat="37.13834" lon="-8.77914">
        <ele>89.06</ele>
        <time>2020-09-05T13:25:53Z</time>
      </trkpt>
      <trkpt lat="37.13836" lon="-8.77909">
        <ele>89.06</ele>
        <time>2020-09-05T13:25:54Z</time>
      </trkpt>
      <trkpt lat="37.13839" lon="-8.77903">
        <ele>88.58</ele>
        <time>2020-09-05T13:25:55Z</time>
      </trkpt>
      <trkpt lat="37.13842" lon="-8.77898">
        <ele>88.58</ele>
        <time>2020-09-05T13:25:56Z</time>
      </trkpt>
      <trkpt lat="37.13852" lon="-8.77881">
        <ele>88.58</ele>
        <time>2020-09-05T13:25:59Z</time>
      </trkpt>
      <trkpt lat="37.13853" lon="-8.77875">
        <ele>88.1</ele>
        <time>2020-09-05T13:26:00Z</time>
      </trkpt>
      <trkpt lat="37.13854" lon="-8.77867">
        <ele>87.14</ele>
        <time>2020-09-05T13:26:01Z</time>
      </trkpt>
      <trkpt lat="37.13853" lon="-8.77836">
        <ele>86.18</ele>
        <time>2020-09-05T13:26:05Z</time>
      </trkpt>
      <trkpt lat="37.13853" lon="-8.7783">
        <ele>85.21</ele>
        <time>2020-09-05T13:26:06Z</time>
      </trkpt>
      <trkpt lat="37.13853" lon="-8.77824">
        <ele>85.21</ele>
        <time>2020-09-05T13:26:07Z</time>
      </trkpt>
      <trkpt lat="37.13854" lon="-8.77817">
        <ele>84.25</ele>
        <time>2020-09-05T13:26:08Z</time>
      </trkpt>
      <trkpt lat="37.13856" lon="-8.77811">
        <ele>84.25</ele>
        <time>2020-09-05T13:26:09Z</time>
      </trkpt>
      <trkpt lat="37.13857" lon="-8.77805">
        <ele>83.77</ele>
        <time>2020-09-05T13:26:10Z</time>
      </trkpt>
      <trkpt lat="37.13857" lon="-8.77797">
        <ele>83.77</ele>
        <time>2020-09-05T13:26:11Z</time>
      </trkpt>
      <trkpt lat="37.13856" lon="-8.77792">
        <ele>83.29</ele>
        <time>2020-09-05T13:26:12Z</time>
      </trkpt>
      <trkpt lat="37.13855" lon="-8.77787">
        <ele>83.29</ele>
        <time>2020-09-05T13:26:13Z</time>
      </trkpt>
      <trkpt lat="37.13853" lon="-8.77783">
        <ele>83.29</ele>
        <time>2020-09-05T13:26:14Z</time>
      </trkpt>
      <trkpt lat="37.13846" lon="-8.77765">
        <ele>82.33</ele>
        <time>2020-09-05T13:26:19Z</time>
      </trkpt>
      <trkpt lat="37.13841" lon="-8.77752">
        <ele>81.37</ele>
        <time>2020-09-05T13:26:22Z</time>
      </trkpt>
      <trkpt lat="37.13829" lon="-8.77715">
        <ele>78.97</ele>
        <time>2020-09-05T13:26:28Z</time>
      </trkpt>
      <trkpt lat="37.13825" lon="-8.77693">
        <ele>78.48</ele>
        <time>2020-09-05T13:26:33Z</time>
      </trkpt>
      <trkpt lat="37.13826" lon="-8.77684">
        <ele>78.48</ele>
        <time>2020-09-05T13:26:35Z</time>
      </trkpt>
      <trkpt lat="37.13829" lon="-8.7768">
        <ele>78</ele>
        <time>2020-09-05T13:26:36Z</time>
      </trkpt>
      <trkpt lat="37.13832" lon="-8.77675">
        <ele>78</ele>
        <time>2020-09-05T13:26:37Z</time>
      </trkpt>
      <trkpt lat="37.13867" lon="-8.77631">
        <ele>76.56</ele>
        <time>2020-09-05T13:26:47Z</time>
      </trkpt>
      <trkpt lat="37.13902" lon="-8.7759">
        <ele>76.56</ele>
        <time>2020-09-05T13:26:56Z</time>
      </trkpt>
      <trkpt lat="37.13935" lon="-8.7755">
        <ele>75.12</ele>
        <time>2020-09-05T13:27:05Z</time>
      </trkpt>
      <trkpt lat="37.13938" lon="-8.77549">
        <ele>75.12</ele>
        <time>2020-09-05T13:27:06Z</time>
      </trkpt>
      <trkpt lat="37.13942" lon="-8.77549">
        <ele>75.12</ele>
        <time>2020-09-05T13:27:07Z</time>
      </trkpt>
      <trkpt lat="37.13945" lon="-8.77551">
        <ele>75.12</ele>
        <time>2020-09-05T13:27:08Z</time>
      </trkpt>
      <trkpt lat="37.13949" lon="-8.77554">
        <ele>75.12</ele>
        <time>2020-09-05T13:27:09Z</time>
      </trkpt>
      <trkpt lat="37.13951" lon="-8.77556">
        <ele>75.12</ele>
        <time>2020-09-05T13:27:10Z</time>
      </trkpt>
      <trkpt lat="37.13963" lon="-8.77566">
        <ele>76.56</ele>
        <time>2020-09-05T13:27:14Z</time>
      </trkpt>
      <trkpt lat="37.13977" lon="-8.77571">
        <ele>77.52</ele>
        <time>2020-09-05T13:27:21Z</time>
      </trkpt>
      <trkpt lat="37.13979" lon="-8.7757">
        <ele>77.52</ele>
        <time>2020-09-05T13:27:27Z</time>
      </trkpt>
      <trkpt lat="37.13979" lon="-8.7757">
        <ele>77.52</ele>
        <time>2020-09-05T13:27:37Z</time>
      </trkpt>
      <trkpt lat="37.1398" lon="-8.77571">
        <ele>77.52</ele>
        <time>2020-09-05T13:27:50Z</time>
      </trkpt>
      <trkpt lat="37.1398" lon="-8.7757">
        <ele>77.52</ele>
        <time>2020-09-05T13:28:04Z</time>
      </trkpt>
      <trkpt lat="37.13979" lon="-8.7757">
        <ele>77.04</ele>
        <time>2020-09-05T13:28:16Z</time>
      </trkpt>
      <trkpt lat="37.1398" lon="-8.7757">
        <ele>77.04</ele>
        <time>2020-09-05T13:28:28Z</time>
      </trkpt>
      <trkpt lat="37.1398" lon="-8.77571">
        <ele>77.52</ele>
        <time>2020-09-05T13:28:43Z</time>
      </trkpt>
      <trkpt lat="37.13979" lon="-8.77572">
        <ele>77.52</ele>
        <time>2020-09-05T13:29:00Z</time>
      </trkpt>
      <trkpt lat="37.13978" lon="-8.77571">
        <ele>77.52</ele>
        <time>2020-09-05T13:29:15Z</time>
      </trkpt>
      <trkpt lat="37.13978" lon="-8.7757">
        <ele>77.52</ele>
        <time>2020-09-05T13:29:32Z</time>
      </trkpt>
      <trkpt lat="37.13978" lon="-8.7757">
        <ele>77.52</ele>
        <time>2020-09-05T13:29:48Z</time>
      </trkpt>
      <trkpt lat="37.13979" lon="-8.7757">
        <ele>77.52</ele>
        <time>2020-09-05T13:30:03Z</time>
      </trkpt>
      <trkpt lat="37.1398" lon="-8.7757">
        <ele>77.04</ele>
        <time>2020-09-05T13:30:21Z</time>
      </trkpt>
      <trkpt lat="37.13979" lon="-8.77569">
        <ele>77.04</ele>
        <time>2020-09-05T13:30:35Z</time>
      </trkpt>
      <trkpt lat="37.13978" lon="-8.77569">
        <ele>77.04</ele>
        <time>2020-09-05T13:30:53Z</time>
      </trkpt>
      <trkpt lat="37.13978" lon="-8.77569">
        <ele>77.04</ele>
        <time>2020-09-05T13:31:10Z</time>
      </trkpt>
      <trkpt lat="37.13978" lon="-8.77569">
        <ele>77.04</ele>
        <time>2020-09-05T13:31:25Z</time>
      </trkpt>
      <trkpt lat="37.13978" lon="-8.7757">
        <ele>76.56</ele>
        <time>2020-09-05T13:31:41Z</time>
      </trkpt>
      <trkpt lat="37.13979" lon="-8.7757">
        <ele>76.56</ele>
        <time>2020-09-05T13:31:53Z</time>
      </trkpt>
      <trkpt lat="37.13979" lon="-8.7757">
        <ele>76.56</ele>
        <time>2020-09-05T13:32:09Z</time>
      </trkpt>
      <trkpt lat="37.13979" lon="-8.7757">
        <ele>76.56</ele>
        <time>2020-09-05T13:32:27Z</time>
      </trkpt>
      <trkpt lat="37.13979" lon="-8.7757">
        <ele>76.56</ele>
        <time>2020-09-05T13:32:42Z</time>
      </trkpt>
      <trkpt lat="37.13979" lon="-8.7757">
        <ele>76.56</ele>
        <time>2020-09-05T13:32:58Z</time>
      </trkpt>
      <trkpt lat="37.13978" lon="-8.77569">
        <ele>76.08</ele>
        <time>2020-09-05T13:33:18Z</time>
      </trkpt>
      <trkpt lat="37.13977" lon="-8.77569">
        <ele>76.08</ele>
        <time>2020-09-05T13:33:34Z</time>
      </trkpt>
      <trkpt lat="37.13977" lon="-8.7757">
        <ele>76.08</ele>
        <time>2020-09-05T13:33:49Z</time>
      </trkpt>
      <trkpt lat="37.13977" lon="-8.77568">
        <ele>76.08</ele>
        <time>2020-09-05T13:34:11Z</time>
      </trkpt>
      <trkpt lat="37.13977" lon="-8.77568">
        <ele>75.6</ele>
        <time>2020-09-05T13:34:26Z</time>
      </trkpt>
      <trkpt lat="37.13977" lon="-8.77568">
        <ele>75.6</ele>
        <time>2020-09-05T13:34:41Z</time>
      </trkpt>
      <trkpt lat="37.13978" lon="-8.77569">
        <ele>75.6</ele>
        <time>2020-09-05T13:35:01Z</time>
      </trkpt>
      <trkpt lat="37.13978" lon="-8.77569">
        <ele>75.6</ele>
        <time>2020-09-05T13:35:22Z</time>
      </trkpt>
      <trkpt lat="37.13978" lon="-8.77569">
        <ele>75.12</ele>
        <time>2020-09-05T13:35:45Z</time>
      </trkpt>
      <trkpt lat="37.13979" lon="-8.7757">
        <ele>75.12</ele>
        <time>2020-09-05T13:35:58Z</time>
      </trkpt>
      <trkpt lat="37.13978" lon="-8.77571">
        <ele>75.12</ele>
        <time>2020-09-05T13:36:19Z</time>
      </trkpt>
      <trkpt lat="37.13979" lon="-8.77571">
        <ele>75.12</ele>
        <time>2020-09-05T13:36:40Z</time>
      </trkpt>
      <trkpt lat="37.1398" lon="-8.77571">
        <ele>75.12</ele>
        <time>2020-09-05T13:37:03Z</time>
      </trkpt>
      <trkpt lat="37.13979" lon="-8.77571">
        <ele>74.64</ele>
        <time>2020-09-05T13:37:23Z</time>
      </trkpt>
      <trkpt lat="37.13979" lon="-8.7757">
        <ele>74.64</ele>
        <time>2020-09-05T13:37:34Z</time>
      </trkpt>
      <trkpt lat="37.1398" lon="-8.77571">
        <ele>74.64</ele>
        <time>2020-09-05T13:37:50Z</time>
      </trkpt>
      <trkpt lat="37.1398" lon="-8.77573">
        <ele>74.64</ele>
        <time>2020-09-05T13:38:13Z</time>
      </trkpt>
      <trkpt lat="37.13978" lon="-8.77571">
        <ele>74.64</ele>
        <time>2020-09-05T13:38:45Z</time>
      </trkpt>
      <trkpt lat="37.13978" lon="-8.77571">
        <ele>74.64</ele>
        <time>2020-09-05T13:39:00Z</time>
      </trkpt>
      <trkpt lat="37.13979" lon="-8.77572">
        <ele>74.64</ele>
        <time>2020-09-05T13:39:14Z</time>
      </trkpt>
      <trkpt lat="37.13979" lon="-8.77571">
        <ele>74.16</ele>
        <time>2020-09-05T13:39:32Z</time>
      </trkpt>
      <trkpt lat="37.13979" lon="-8.7757">
        <ele>74.16</ele>
        <time>2020-09-05T13:39:49Z</time>
      </trkpt>
      <trkpt lat="37.1398" lon="-8.77571">
        <ele>74.16</ele>
        <time>2020-09-05T13:40:09Z</time>
      </trkpt>
      <trkpt lat="37.1398" lon="-8.77571">
        <ele>74.16</ele>
        <time>2020-09-05T13:40:21Z</time>
      </trkpt>
      <trkpt lat="37.13979" lon="-8.77571">
        <ele>74.16</ele>
        <time>2020-09-05T13:40:42Z</time>
      </trkpt>
      <trkpt lat="37.13977" lon="-8.77571">
        <ele>74.16</ele>
        <time>2020-09-05T13:40:58Z</time>
      </trkpt>
      <trkpt lat="37.13976" lon="-8.77571">
        <ele>74.64</ele>
        <time>2020-09-05T13:41:02Z</time>
      </trkpt>
      <trkpt lat="37.13975" lon="-8.77572">
        <ele>74.64</ele>
        <time>2020-09-05T13:41:06Z</time>
      </trkpt>
      <trkpt lat="37.13973" lon="-8.77572">
        <ele>74.64</ele>
        <time>2020-09-05T13:41:07Z</time>
      </trkpt>
      <trkpt lat="37.1397" lon="-8.77572">
        <ele>74.64</ele>
        <time>2020-09-05T13:41:09Z</time>
      </trkpt>
      <trkpt lat="37.13967" lon="-8.77573">
        <ele>74.64</ele>
        <time>2020-09-05T13:41:10Z</time>
      </trkpt>
      <trkpt lat="37.13964" lon="-8.77572">
        <ele>74.64</ele>
        <time>2020-09-05T13:41:11Z</time>
      </trkpt>
      <trkpt lat="37.13962" lon="-8.77571">
        <ele>74.64</ele>
        <time>2020-09-05T13:41:12Z</time>
      </trkpt>
      <trkpt lat="37.13959" lon="-8.77569">
        <ele>74.64</ele>
        <time>2020-09-05T13:41:13Z</time>
      </trkpt>
      <trkpt lat="37.13951" lon="-8.7756">
        <ele>73.2</ele>
        <time>2020-09-05T13:41:16Z</time>
      </trkpt>
      <trkpt lat="37.13938" lon="-8.77543">
        <ele>72.24</ele>
        <time>2020-09-05T13:41:22Z</time>
      </trkpt>
      <trkpt lat="37.13933" lon="-8.77514">
        <ele>71.27</ele>
        <time>2020-09-05T13:41:28Z</time>
      </trkpt>
      <trkpt lat="37.1393" lon="-8.77451">
        <ele>68.87</ele>
        <time>2020-09-05T13:41:37Z</time>
      </trkpt>
      <trkpt lat="37.13924" lon="-8.77368">
        <ele>65.99</ele>
        <time>2020-09-05T13:41:47Z</time>
      </trkpt>
      <trkpt lat="37.13917" lon="-8.77278">
        <ele>64.07</ele>
        <time>2020-09-05T13:41:58Z</time>
      </trkpt>
      <trkpt lat="37.13914" lon="-8.77273">
        <ele>64.07</ele>
        <time>2020-09-05T13:41:59Z</time>
      </trkpt>
      <trkpt lat="37.13911" lon="-8.7727">
        <ele>64.07</ele>
        <time>2020-09-05T13:42:00Z</time>
      </trkpt>
      <trkpt lat="37.13897" lon="-8.77268">
        <ele>64.07</ele>
        <time>2020-09-05T13:42:03Z</time>
      </trkpt>
      <trkpt lat="37.13876" lon="-8.77271">
        <ele>63.58</ele>
        <time>2020-09-05T13:42:08Z</time>
      </trkpt>
      <trkpt lat="37.13853" lon="-8.77264">
        <ele>63.58</ele>
        <time>2020-09-05T13:42:14Z</time>
      </trkpt>
      <trkpt lat="37.13846" lon="-8.77258">
        <ele>63.58</ele>
        <time>2020-09-05T13:42:16Z</time>
      </trkpt>
      <trkpt lat="37.13839" lon="-8.77251">
        <ele>63.58</ele>
        <time>2020-09-05T13:42:18Z</time>
      </trkpt>
      <trkpt lat="37.1381" lon="-8.77218">
        <ele>63.58</ele>
        <time>2020-09-05T13:42:28Z</time>
      </trkpt>
      <trkpt lat="37.13792" lon="-8.77204">
        <ele>65.03</ele>
        <time>2020-09-05T13:42:35Z</time>
      </trkpt>
      <trkpt lat="37.13772" lon="-8.77189">
        <ele>65.51</ele>
        <time>2020-09-05T13:42:43Z</time>
      </trkpt>
      <trkpt lat="37.13748" lon="-8.77166">
        <ele>65.51</ele>
        <time>2020-09-05T13:42:51Z</time>
      </trkpt>
      <trkpt lat="37.1373" lon="-8.77147">
        <ele>64.07</ele>
        <time>2020-09-05T13:42:57Z</time>
      </trkpt>
      <trkpt lat="37.13729" lon="-8.77142">
        <ele>64.07</ele>
        <time>2020-09-05T13:42:58Z</time>
      </trkpt>
      <trkpt lat="37.13727" lon="-8.77137">
        <ele>64.07</ele>
        <time>2020-09-05T13:42:59Z</time>
      </trkpt>
      <trkpt lat="37.13727" lon="-8.77131">
        <ele>63.58</ele>
        <time>2020-09-05T13:43:00Z</time>
      </trkpt>
      <trkpt lat="37.13727" lon="-8.77124">
        <ele>63.1</ele>
        <time>2020-09-05T13:43:01Z</time>
      </trkpt>
      <trkpt lat="37.13729" lon="-8.77118">
        <ele>62.62</ele>
        <time>2020-09-05T13:43:02Z</time>
      </trkpt>
      <trkpt lat="37.13732" lon="-8.77112">
        <ele>61.66</ele>
        <time>2020-09-05T13:43:03Z</time>
      </trkpt>
      <trkpt lat="37.13736" lon="-8.77106">
        <ele>61.66</ele>
        <time>2020-09-05T13:43:04Z</time>
      </trkpt>
      <trkpt lat="37.1374" lon="-8.77101">
        <ele>61.66</ele>
        <time>2020-09-05T13:43:05Z</time>
      </trkpt>
      <trkpt lat="37.13745" lon="-8.77096">
        <ele>61.18</ele>
        <time>2020-09-05T13:43:06Z</time>
      </trkpt>
      <trkpt lat="37.13749" lon="-8.7709">
        <ele>61.66</ele>
        <time>2020-09-05T13:43:07Z</time>
      </trkpt>
      <trkpt lat="37.13753" lon="-8.77084">
        <ele>60.7</ele>
        <time>2020-09-05T13:43:08Z</time>
      </trkpt>
      <trkpt lat="37.13756" lon="-8.77076">
        <ele>60.7</ele>
        <time>2020-09-05T13:43:09Z</time>
      </trkpt>
      <trkpt lat="37.13758" lon="-8.77068">
        <ele>60.22</ele>
        <time>2020-09-05T13:43:10Z</time>
      </trkpt>
      <trkpt lat="37.13759" lon="-8.77061">
        <ele>60.22</ele>
        <time>2020-09-05T13:43:11Z</time>
      </trkpt>
      <trkpt lat="37.13758" lon="-8.77052">
        <ele>59.74</ele>
        <time>2020-09-05T13:43:12Z</time>
      </trkpt>
      <trkpt lat="37.13757" lon="-8.77045">
        <ele>59.74</ele>
        <time>2020-09-05T13:43:13Z</time>
      </trkpt>
      <trkpt lat="37.13755" lon="-8.77038">
        <ele>59.74</ele>
        <time>2020-09-05T13:43:14Z</time>
      </trkpt>
      <trkpt lat="37.13744" lon="-8.7698">
        <ele>58.78</ele>
        <time>2020-09-05T13:43:22Z</time>
      </trkpt>
      <trkpt lat="37.13736" lon="-8.76953">
        <ele>58.78</ele>
        <time>2020-09-05T13:43:26Z</time>
      </trkpt>
      <trkpt lat="37.13726" lon="-8.76936">
        <ele>58.78</ele>
        <time>2020-09-05T13:43:29Z</time>
      </trkpt>
      <trkpt lat="37.13685" lon="-8.76889">
        <ele>57.34</ele>
        <time>2020-09-05T13:43:39Z</time>
      </trkpt>
      <trkpt lat="37.13642" lon="-8.76844">
        <ele>57.82</ele>
        <time>2020-09-05T13:43:49Z</time>
      </trkpt>
      <trkpt lat="37.1361" lon="-8.76815">
        <ele>57.34</ele>
        <time>2020-09-05T13:43:56Z</time>
      </trkpt>
      <trkpt lat="37.13606" lon="-8.7681">
        <ele>57.34</ele>
        <time>2020-09-05T13:43:57Z</time>
      </trkpt>
      <trkpt lat="37.13603" lon="-8.76805">
        <ele>57.34</ele>
        <time>2020-09-05T13:43:58Z</time>
      </trkpt>
      <trkpt lat="37.13599" lon="-8.76793">
        <ele>57.34</ele>
        <time>2020-09-05T13:44:00Z</time>
      </trkpt>
      <trkpt lat="37.13598" lon="-8.76786">
        <ele>57.34</ele>
        <time>2020-09-05T13:44:01Z</time>
      </trkpt>
      <trkpt lat="37.13589" lon="-8.76733">
        <ele>56.37</ele>
        <time>2020-09-05T13:44:09Z</time>
      </trkpt>
      <trkpt lat="37.13571" lon="-8.76691">
        <ele>55.89</ele>
        <time>2020-09-05T13:44:16Z</time>
      </trkpt>
      <trkpt lat="37.13541" lon="-8.76653">
        <ele>55.41</ele>
        <time>2020-09-05T13:44:24Z</time>
      </trkpt>
      <trkpt lat="37.13493" lon="-8.76615">
        <ele>55.41</ele>
        <time>2020-09-05T13:44:35Z</time>
      </trkpt>
      <trkpt lat="37.13469" lon="-8.76603">
        <ele>54.93</ele>
        <time>2020-09-05T13:44:40Z</time>
      </trkpt>
      <trkpt lat="37.13464" lon="-8.76603">
        <ele>54.93</ele>
        <time>2020-09-05T13:44:41Z</time>
      </trkpt>
      <trkpt lat="37.13458" lon="-8.76604">
        <ele>54.93</ele>
        <time>2020-09-05T13:44:42Z</time>
      </trkpt>
      <trkpt lat="37.13402" lon="-8.76613">
        <ele>54.93</ele>
        <time>2020-09-05T13:44:53Z</time>
      </trkpt>
      <trkpt lat="37.13383" lon="-8.76612">
        <ele>54.93</ele>
        <time>2020-09-05T13:44:57Z</time>
      </trkpt>
      <trkpt lat="37.13378" lon="-8.76611">
        <ele>54.93</ele>
        <time>2020-09-05T13:44:58Z</time>
      </trkpt>
      <trkpt lat="37.13373" lon="-8.76608">
        <ele>54.93</ele>
        <time>2020-09-05T13:44:59Z</time>
      </trkpt>
      <trkpt lat="37.1337" lon="-8.76606">
        <ele>54.93</ele>
        <time>2020-09-05T13:45:00Z</time>
      </trkpt>
      <trkpt lat="37.13366" lon="-8.76603">
        <ele>54.93</ele>
        <time>2020-09-05T13:45:01Z</time>
      </trkpt>
      <trkpt lat="37.13363" lon="-8.76599">
        <ele>54.93</ele>
        <time>2020-09-05T13:45:02Z</time>
      </trkpt>
      <trkpt lat="37.13359" lon="-8.76595">
        <ele>54.93</ele>
        <time>2020-09-05T13:45:03Z</time>
      </trkpt>
      <trkpt lat="37.13356" lon="-8.7659">
        <ele>54.93</ele>
        <time>2020-09-05T13:45:04Z</time>
      </trkpt>
      <trkpt lat="37.13353" lon="-8.76585">
        <ele>54.93</ele>
        <time>2020-09-05T13:45:05Z</time>
      </trkpt>
      <trkpt lat="37.13351" lon="-8.7658">
        <ele>54.93</ele>
        <time>2020-09-05T13:45:06Z</time>
      </trkpt>
      <trkpt lat="37.13348" lon="-8.76573">
        <ele>54.93</ele>
        <time>2020-09-05T13:45:07Z</time>
      </trkpt>
      <trkpt lat="37.13333" lon="-8.76531">
        <ele>53.49</ele>
        <time>2020-09-05T13:45:14Z</time>
      </trkpt>
      <trkpt lat="37.1333" lon="-8.76525">
        <ele>53.49</ele>
        <time>2020-09-05T13:45:15Z</time>
      </trkpt>
      <trkpt lat="37.13319" lon="-8.76511">
        <ele>53.49</ele>
        <time>2020-09-05T13:45:18Z</time>
      </trkpt>
      <trkpt lat="37.13315" lon="-8.76507">
        <ele>53.49</ele>
        <time>2020-09-05T13:45:19Z</time>
      </trkpt>
      <trkpt lat="37.1331" lon="-8.76505">
        <ele>53.49</ele>
        <time>2020-09-05T13:45:20Z</time>
      </trkpt>
      <trkpt lat="37.13305" lon="-8.76502">
        <ele>53.01</ele>
        <time>2020-09-05T13:45:21Z</time>
      </trkpt>
      <trkpt lat="37.133" lon="-8.76501">
        <ele>53.01</ele>
        <time>2020-09-05T13:45:22Z</time>
      </trkpt>
      <trkpt lat="37.13294" lon="-8.765">
        <ele>53.01</ele>
        <time>2020-09-05T13:45:23Z</time>
      </trkpt>
      <trkpt lat="37.13263" lon="-8.76493">
        <ele>53.01</ele>
        <time>2020-09-05T13:45:29Z</time>
      </trkpt>
      <trkpt lat="37.13259" lon="-8.76489">
        <ele>53.01</ele>
        <time>2020-09-05T13:45:30Z</time>
      </trkpt>
      <trkpt lat="37.13256" lon="-8.76484">
        <ele>53.01</ele>
        <time>2020-09-05T13:45:31Z</time>
      </trkpt>
      <trkpt lat="37.13254" lon="-8.76479">
        <ele>53.01</ele>
        <time>2020-09-05T13:45:32Z</time>
      </trkpt>
      <trkpt lat="37.13252" lon="-8.76473">
        <ele>53.01</ele>
        <time>2020-09-05T13:45:33Z</time>
      </trkpt>
      <trkpt lat="37.13251" lon="-8.76468">
        <ele>52.53</ele>
        <time>2020-09-05T13:45:34Z</time>
      </trkpt>
      <trkpt lat="37.13236" lon="-8.76431">
        <ele>52.05</ele>
        <time>2020-09-05T13:45:42Z</time>
      </trkpt>
      <trkpt lat="37.13221" lon="-8.764">
        <ele>52.05</ele>
        <time>2020-09-05T13:45:48Z</time>
      </trkpt>
      <trkpt lat="37.13218" lon="-8.76396">
        <ele>52.05</ele>
        <time>2020-09-05T13:45:49Z</time>
      </trkpt>
      <trkpt lat="37.1318" lon="-8.76347">
        <ele>51.57</ele>
        <time>2020-09-05T13:46:00Z</time>
      </trkpt>
      <trkpt lat="37.13166" lon="-8.76329">
        <ele>51.57</ele>
        <time>2020-09-05T13:46:04Z</time>
      </trkpt>
      <trkpt lat="37.13162" lon="-8.76325">
        <ele>51.57</ele>
        <time>2020-09-05T13:46:05Z</time>
      </trkpt>
      <trkpt lat="37.13157" lon="-8.76324">
        <ele>51.57</ele>
        <time>2020-09-05T13:46:06Z</time>
      </trkpt>
      <trkpt lat="37.13152" lon="-8.76323">
        <ele>51.57</ele>
        <time>2020-09-05T13:46:07Z</time>
      </trkpt>
      <trkpt lat="37.13147" lon="-8.76322">
        <ele>51.57</ele>
        <time>2020-09-05T13:46:08Z</time>
      </trkpt>
      <trkpt lat="37.13142" lon="-8.7632">
        <ele>51.57</ele>
        <time>2020-09-05T13:46:09Z</time>
      </trkpt>
      <trkpt lat="37.13138" lon="-8.76316">
        <ele>51.57</ele>
        <time>2020-09-05T13:46:10Z</time>
      </trkpt>
      <trkpt lat="37.13133" lon="-8.76314">
        <ele>51.57</ele>
        <time>2020-09-05T13:46:11Z</time>
      </trkpt>
      <trkpt lat="37.13128" lon="-8.76313">
        <ele>51.09</ele>
        <time>2020-09-05T13:46:12Z</time>
      </trkpt>
      <trkpt lat="37.13123" lon="-8.76314">
        <ele>51.09</ele>
        <time>2020-09-05T13:46:13Z</time>
      </trkpt>
      <trkpt lat="37.13118" lon="-8.76315">
        <ele>51.09</ele>
        <time>2020-09-05T13:46:14Z</time>
      </trkpt>
      <trkpt lat="37.13113" lon="-8.76318">
        <ele>51.09</ele>
        <time>2020-09-05T13:46:15Z</time>
      </trkpt>
      <trkpt lat="37.13108" lon="-8.7632">
        <ele>51.09</ele>
        <time>2020-09-05T13:46:16Z</time>
      </trkpt>
      <trkpt lat="37.13094" lon="-8.76328">
        <ele>51.09</ele>
        <time>2020-09-05T13:46:19Z</time>
      </trkpt>
      <trkpt lat="37.13089" lon="-8.7633">
        <ele>51.09</ele>
        <time>2020-09-05T13:46:20Z</time>
      </trkpt>
      <trkpt lat="37.13063" lon="-8.76335">
        <ele>51.09</ele>
        <time>2020-09-05T13:46:25Z</time>
      </trkpt>
      <trkpt lat="37.13058" lon="-8.76334">
        <ele>51.09</ele>
        <time>2020-09-05T13:46:26Z</time>
      </trkpt>
      <trkpt lat="37.13053" lon="-8.76332">
        <ele>51.09</ele>
        <time>2020-09-05T13:46:27Z</time>
      </trkpt>
      <trkpt lat="37.13048" lon="-8.76331">
        <ele>51.09</ele>
        <time>2020-09-05T13:46:28Z</time>
      </trkpt>
      <trkpt lat="37.13043" lon="-8.7633">
        <ele>51.09</ele>
        <time>2020-09-05T13:46:29Z</time>
      </trkpt>
      <trkpt lat="37.13038" lon="-8.76329">
        <ele>51.09</ele>
        <time>2020-09-05T13:46:30Z</time>
      </trkpt>
      <trkpt lat="37.13027" lon="-8.76329">
        <ele>50.61</ele>
        <time>2020-09-05T13:46:32Z</time>
      </trkpt>
      <trkpt lat="37.13022" lon="-8.7633">
        <ele>50.61</ele>
        <time>2020-09-05T13:46:33Z</time>
      </trkpt>
      <trkpt lat="37.13018" lon="-8.76332">
        <ele>50.61</ele>
        <time>2020-09-05T13:46:34Z</time>
      </trkpt>
      <trkpt lat="37.12994" lon="-8.76341">
        <ele>50.61</ele>
        <time>2020-09-05T13:46:39Z</time>
      </trkpt>
      <trkpt lat="37.1295" lon="-8.76342">
        <ele>50.61</ele>
        <time>2020-09-05T13:46:48Z</time>
      </trkpt>
      <trkpt lat="37.12909" lon="-8.76338">
        <ele>49.65</ele>
        <time>2020-09-05T13:46:57Z</time>
      </trkpt>
      <trkpt lat="37.12865" lon="-8.76329">
        <ele>49.16</ele>
        <time>2020-09-05T13:47:06Z</time>
      </trkpt>
      <trkpt lat="37.12835" lon="-8.76319">
        <ele>49.16</ele>
        <time>2020-09-05T13:47:13Z</time>
      </trkpt>
      <trkpt lat="37.1283" lon="-8.76317">
        <ele>49.16</ele>
        <time>2020-09-05T13:47:14Z</time>
      </trkpt>
      <trkpt lat="37.12826" lon="-8.76316">
        <ele>49.16</ele>
        <time>2020-09-05T13:47:15Z</time>
      </trkpt>
      <trkpt lat="37.1282" lon="-8.76315">
        <ele>49.16</ele>
        <time>2020-09-05T13:47:16Z</time>
      </trkpt>
      <trkpt lat="37.12774" lon="-8.76314">
        <ele>48.2</ele>
        <time>2020-09-05T13:47:25Z</time>
      </trkpt>
      <trkpt lat="37.12764" lon="-8.76316">
        <ele>47.72</ele>
        <time>2020-09-05T13:47:27Z</time>
      </trkpt>
      <trkpt lat="37.12759" lon="-8.76317">
        <ele>47.72</ele>
        <time>2020-09-05T13:47:28Z</time>
      </trkpt>
      <trkpt lat="37.12754" lon="-8.76318">
        <ele>47.72</ele>
        <time>2020-09-05T13:47:29Z</time>
      </trkpt>
      <trkpt lat="37.12749" lon="-8.76317">
        <ele>47.72</ele>
        <time>2020-09-05T13:47:30Z</time>
      </trkpt>
      <trkpt lat="37.12744" lon="-8.76316">
        <ele>47.72</ele>
        <time>2020-09-05T13:47:31Z</time>
      </trkpt>
      <trkpt lat="37.12739" lon="-8.76314">
        <ele>47.72</ele>
        <time>2020-09-05T13:47:32Z</time>
      </trkpt>
      <trkpt lat="37.12719" lon="-8.7631">
        <ele>47.72</ele>
        <time>2020-09-05T13:47:36Z</time>
      </trkpt>
      <trkpt lat="37.12715" lon="-8.7631">
        <ele>47.72</ele>
        <time>2020-09-05T13:47:37Z</time>
      </trkpt>
      <trkpt lat="37.12709" lon="-8.7631">
        <ele>47.24</ele>
        <time>2020-09-05T13:47:38Z</time>
      </trkpt>
      <trkpt lat="37.12704" lon="-8.76311">
        <ele>47.24</ele>
        <time>2020-09-05T13:47:39Z</time>
      </trkpt>
      <trkpt lat="37.12699" lon="-8.76311">
        <ele>47.24</ele>
        <time>2020-09-05T13:47:40Z</time>
      </trkpt>
      <trkpt lat="37.12694" lon="-8.76312">
        <ele>47.24</ele>
        <time>2020-09-05T13:47:41Z</time>
      </trkpt>
      <trkpt lat="37.12684" lon="-8.76314">
        <ele>47.24</ele>
        <time>2020-09-05T13:47:43Z</time>
      </trkpt>
      <trkpt lat="37.12679" lon="-8.76313">
        <ele>47.24</ele>
        <time>2020-09-05T13:47:44Z</time>
      </trkpt>
      <trkpt lat="37.12674" lon="-8.76312">
        <ele>47.24</ele>
        <time>2020-09-05T13:47:45Z</time>
      </trkpt>
      <trkpt lat="37.12645" lon="-8.76302">
        <ele>47.24</ele>
        <time>2020-09-05T13:47:51Z</time>
      </trkpt>
      <trkpt lat="37.1264" lon="-8.76302">
        <ele>47.24</ele>
        <time>2020-09-05T13:47:52Z</time>
      </trkpt>
      <trkpt lat="37.12635" lon="-8.76302">
        <ele>47.24</ele>
        <time>2020-09-05T13:47:53Z</time>
      </trkpt>
      <trkpt lat="37.1263" lon="-8.76302">
        <ele>47.24</ele>
        <time>2020-09-05T13:47:54Z</time>
      </trkpt>
      <trkpt lat="37.12625" lon="-8.76303">
        <ele>47.24</ele>
        <time>2020-09-05T13:47:55Z</time>
      </trkpt>
      <trkpt lat="37.12587" lon="-8.76313">
        <ele>46.76</ele>
        <time>2020-09-05T13:48:03Z</time>
      </trkpt>
      <trkpt lat="37.12583" lon="-8.76315">
        <ele>46.76</ele>
        <time>2020-09-05T13:48:04Z</time>
      </trkpt>
      <trkpt lat="37.12579" lon="-8.76318">
        <ele>46.76</ele>
        <time>2020-09-05T13:48:05Z</time>
      </trkpt>
      <trkpt lat="37.12575" lon="-8.76322">
        <ele>46.76</ele>
        <time>2020-09-05T13:48:06Z</time>
      </trkpt>
      <trkpt lat="37.12571" lon="-8.76325">
        <ele>46.76</ele>
        <time>2020-09-05T13:48:07Z</time>
      </trkpt>
      <trkpt lat="37.12567" lon="-8.76328">
        <ele>46.76</ele>
        <time>2020-09-05T13:48:08Z</time>
      </trkpt>
      <trkpt lat="37.12563" lon="-8.7633">
        <ele>46.76</ele>
        <time>2020-09-05T13:48:09Z</time>
      </trkpt>
      <trkpt lat="37.12559" lon="-8.7633">
        <ele>48.2</ele>
        <time>2020-09-05T13:48:10Z</time>
      </trkpt>
      <trkpt lat="37.12555" lon="-8.7633">
        <ele>48.2</ele>
        <time>2020-09-05T13:48:11Z</time>
      </trkpt>
      <trkpt lat="37.12551" lon="-8.76329">
        <ele>47.72</ele>
        <time>2020-09-05T13:48:12Z</time>
      </trkpt>
      <trkpt lat="37.12533" lon="-8.76324">
        <ele>47.72</ele>
        <time>2020-09-05T13:48:16Z</time>
      </trkpt>
      <trkpt lat="37.12524" lon="-8.7632">
        <ele>47.72</ele>
        <time>2020-09-05T13:48:18Z</time>
      </trkpt>
      <trkpt lat="37.12496" lon="-8.7631">
        <ele>48.68</ele>
        <time>2020-09-05T13:48:25Z</time>
      </trkpt>
      <trkpt lat="37.12476" lon="-8.76291">
        <ele>48.2</ele>
        <time>2020-09-05T13:48:31Z</time>
      </trkpt>
      <trkpt lat="37.12447" lon="-8.76252">
        <ele>45.8</ele>
        <time>2020-09-05T13:48:38Z</time>
      </trkpt>
      <trkpt lat="37.12425" lon="-8.76222">
        <ele>45.8</ele>
        <time>2020-09-05T13:48:44Z</time>
      </trkpt>
      <trkpt lat="37.12395" lon="-8.76186">
        <ele>45.8</ele>
        <time>2020-09-05T13:48:53Z</time>
      </trkpt>
      <trkpt lat="37.12359" lon="-8.76138">
        <ele>44.84</ele>
        <time>2020-09-05T13:49:04Z</time>
      </trkpt>
      <trkpt lat="37.12327" lon="-8.76103">
        <ele>44.84</ele>
        <time>2020-09-05T13:49:13Z</time>
      </trkpt>
      <trkpt lat="37.12321" lon="-8.76095">
        <ele>44.84</ele>
        <time>2020-09-05T13:49:15Z</time>
      </trkpt>
      <trkpt lat="37.12319" lon="-8.7609">
        <ele>44.84</ele>
        <time>2020-09-05T13:49:16Z</time>
      </trkpt>
      <trkpt lat="37.12318" lon="-8.76085">
        <ele>44.84</ele>
        <time>2020-09-05T13:49:17Z</time>
      </trkpt>
      <trkpt lat="37.12318" lon="-8.7608">
        <ele>44.84</ele>
        <time>2020-09-05T13:49:18Z</time>
      </trkpt>
      <trkpt lat="37.12319" lon="-8.76075">
        <ele>44.84</ele>
        <time>2020-09-05T13:49:19Z</time>
      </trkpt>
      <trkpt lat="37.12319" lon="-8.7607">
        <ele>44.84</ele>
        <time>2020-09-05T13:49:20Z</time>
      </trkpt>
      <trkpt lat="37.1232" lon="-8.76064">
        <ele>44.84</ele>
        <time>2020-09-05T13:49:21Z</time>
      </trkpt>
      <trkpt lat="37.12319" lon="-8.76058">
        <ele>44.84</ele>
        <time>2020-09-05T13:49:22Z</time>
      </trkpt>
      <trkpt lat="37.12319" lon="-8.76052">
        <ele>44.84</ele>
        <time>2020-09-05T13:49:23Z</time>
      </trkpt>
      <trkpt lat="37.12317" lon="-8.76045">
        <ele>43.88</ele>
        <time>2020-09-05T13:49:24Z</time>
      </trkpt>
      <trkpt lat="37.12315" lon="-8.7604">
        <ele>43.88</ele>
        <time>2020-09-05T13:49:25Z</time>
      </trkpt>
      <trkpt lat="37.12312" lon="-8.76035">
        <ele>43.88</ele>
        <time>2020-09-05T13:49:26Z</time>
      </trkpt>
      <trkpt lat="37.12308" lon="-8.7603">
        <ele>43.88</ele>
        <time>2020-09-05T13:49:27Z</time>
      </trkpt>
      <trkpt lat="37.12305" lon="-8.76026">
        <ele>43.88</ele>
        <time>2020-09-05T13:49:28Z</time>
      </trkpt>
      <trkpt lat="37.12301" lon="-8.76022">
        <ele>43.88</ele>
        <time>2020-09-05T13:49:29Z</time>
      </trkpt>
      <trkpt lat="37.12297" lon="-8.76019">
        <ele>43.88</ele>
        <time>2020-09-05T13:49:30Z</time>
      </trkpt>
      <trkpt lat="37.12292" lon="-8.76015">
        <ele>43.88</ele>
        <time>2020-09-05T13:49:31Z</time>
      </trkpt>
      <trkpt lat="37.12269" lon="-8.76001">
        <ele>43.4</ele>
        <time>2020-09-05T13:49:36Z</time>
      </trkpt>
      <trkpt lat="37.12264" lon="-8.75999">
        <ele>43.4</ele>
        <time>2020-09-05T13:49:37Z</time>
      </trkpt>
      <trkpt lat="37.12258" lon="-8.75999">
        <ele>43.4</ele>
        <time>2020-09-05T13:49:38Z</time>
      </trkpt>
      <trkpt lat="37.12253" lon="-8.76">
        <ele>43.4</ele>
        <time>2020-09-05T13:49:39Z</time>
      </trkpt>
      <trkpt lat="37.12248" lon="-8.76002">
        <ele>43.4</ele>
        <time>2020-09-05T13:49:40Z</time>
      </trkpt>
      <trkpt lat="37.12244" lon="-8.76006">
        <ele>43.4</ele>
        <time>2020-09-05T13:49:41Z</time>
      </trkpt>
      <trkpt lat="37.1224" lon="-8.76009">
        <ele>43.4</ele>
        <time>2020-09-05T13:49:42Z</time>
      </trkpt>
      <trkpt lat="37.12235" lon="-8.76013">
        <ele>43.4</ele>
        <time>2020-09-05T13:49:43Z</time>
      </trkpt>
      <trkpt lat="37.12231" lon="-8.76017">
        <ele>43.4</ele>
        <time>2020-09-05T13:49:44Z</time>
      </trkpt>
      <trkpt lat="37.12226" lon="-8.7602">
        <ele>43.4</ele>
        <time>2020-09-05T13:49:45Z</time>
      </trkpt>
      <trkpt lat="37.12184" lon="-8.76039">
        <ele>42.92</ele>
        <time>2020-09-05T13:49:54Z</time>
      </trkpt>
      <trkpt lat="37.12148" lon="-8.76062">
        <ele>41.95</ele>
        <time>2020-09-05T13:50:02Z</time>
      </trkpt>
      <trkpt lat="37.12142" lon="-8.76064">
        <ele>41.47</ele>
        <time>2020-09-05T13:50:03Z</time>
      </trkpt>
      <trkpt lat="37.12138" lon="-8.76066">
        <ele>41.47</ele>
        <time>2020-09-05T13:50:04Z</time>
      </trkpt>
      <trkpt lat="37.12133" lon="-8.76067">
        <ele>41.47</ele>
        <time>2020-09-05T13:50:05Z</time>
      </trkpt>
      <trkpt lat="37.12092" lon="-8.76074">
        <ele>41.47</ele>
        <time>2020-09-05T13:50:14Z</time>
      </trkpt>
      <trkpt lat="37.12062" lon="-8.76096">
        <ele>41.47</ele>
        <time>2020-09-05T13:50:21Z</time>
      </trkpt>
      <trkpt lat="37.12027" lon="-8.76117">
        <ele>41.47</ele>
        <time>2020-09-05T13:50:29Z</time>
      </trkpt>
      <trkpt lat="37.12001" lon="-8.76125">
        <ele>41.47</ele>
        <time>2020-09-05T13:50:35Z</time>
      </trkpt>
      <trkpt lat="37.11997" lon="-8.76125">
        <ele>41.47</ele>
        <time>2020-09-05T13:50:36Z</time>
      </trkpt>
      <trkpt lat="37.11993" lon="-8.76125">
        <ele>41.47</ele>
        <time>2020-09-05T13:50:37Z</time>
      </trkpt>
      <trkpt lat="37.11944" lon="-8.76121">
        <ele>40.99</ele>
        <time>2020-09-05T13:50:48Z</time>
      </trkpt>
      <trkpt lat="37.11928" lon="-8.76118">
        <ele>40.99</ele>
        <time>2020-09-05T13:50:53Z</time>
      </trkpt>
      <trkpt lat="37.11914" lon="-8.76102">
        <ele>40.03</ele>
        <time>2020-09-05T13:50:58Z</time>
      </trkpt>
      <trkpt lat="37.11906" lon="-8.76079">
        <ele>39.55</ele>
        <time>2020-09-05T13:51:03Z</time>
      </trkpt>
      <trkpt lat="37.11899" lon="-8.76064">
        <ele>39.55</ele>
        <time>2020-09-05T13:51:07Z</time>
      </trkpt>
      <trkpt lat="37.11878" lon="-8.76045">
        <ele>40.99</ele>
        <time>2020-09-05T13:51:14Z</time>
      </trkpt>
      <trkpt lat="37.11832" lon="-8.76022">
        <ele>40.99</ele>
        <time>2020-09-05T13:51:26Z</time>
      </trkpt>
      <trkpt lat="37.11787" lon="-8.76002">
        <ele>40.51</ele>
        <time>2020-09-05T13:51:38Z</time>
      </trkpt>
      <trkpt lat="37.11782" lon="-8.75999">
        <ele>41.47</ele>
        <time>2020-09-05T13:51:40Z</time>
      </trkpt>
      <trkpt lat="37.11779" lon="-8.75982">
        <ele>42.44</ele>
        <time>2020-09-05T13:51:45Z</time>
      </trkpt>
      <trkpt lat="37.11778" lon="-8.7596">
        <ele>43.88</ele>
        <time>2020-09-05T13:51:51Z</time>
      </trkpt>
      <trkpt lat="37.11769" lon="-8.75931">
        <ele>45.32</ele>
        <time>2020-09-05T13:51:59Z</time>
      </trkpt>
      <trkpt lat="37.11765" lon="-8.75911">
        <ele>46.76</ele>
        <time>2020-09-05T13:52:05Z</time>
      </trkpt>
      <trkpt lat="37.11765" lon="-8.75908">
        <ele>46.76</ele>
        <time>2020-09-05T13:52:06Z</time>
      </trkpt>
      <trkpt lat="37.11768" lon="-8.75904">
        <ele>47.24</ele>
        <time>2020-09-05T13:52:08Z</time>
      </trkpt>
      <trkpt lat="37.11767" lon="-8.75888">
        <ele>48.2</ele>
        <time>2020-09-05T13:52:13Z</time>
      </trkpt>
      <trkpt lat="37.11765" lon="-8.75864">
        <ele>49.16</ele>
        <time>2020-09-05T13:52:20Z</time>
      </trkpt>
      <trkpt lat="37.11756" lon="-8.75843">
        <ele>51.09</ele>
        <time>2020-09-05T13:52:27Z</time>
      </trkpt>
      <trkpt lat="37.11737" lon="-8.75829">
        <ele>53.01</ele>
        <time>2020-09-05T13:52:35Z</time>
      </trkpt>
      <trkpt lat="37.11736" lon="-8.75828">
        <ele>53.49</ele>
        <time>2020-09-05T13:52:36Z</time>
      </trkpt>
      <trkpt lat="37.11736" lon="-8.75825">
        <ele>53.49</ele>
        <time>2020-09-05T13:52:37Z</time>
      </trkpt>
      <trkpt lat="37.11737" lon="-8.75823">
        <ele>53.97</ele>
        <time>2020-09-05T13:52:38Z</time>
      </trkpt>
      <trkpt lat="37.11743" lon="-8.75803">
        <ele>55.89</ele>
        <time>2020-09-05T13:52:45Z</time>
      </trkpt>
      <trkpt lat="37.11745" lon="-8.75779">
        <ele>57.82</ele>
        <time>2020-09-05T13:52:53Z</time>
      </trkpt>
      <trkpt lat="37.11734" lon="-8.75769">
        <ele>60.22</ele>
        <time>2020-09-05T13:52:59Z</time>
      </trkpt>
      <trkpt lat="37.11712" lon="-8.75756">
        <ele>63.58</ele>
        <time>2020-09-05T13:53:09Z</time>
      </trkpt>
      <trkpt lat="37.11693" lon="-8.75742">
        <ele>66.47</ele>
        <time>2020-09-05T13:53:18Z</time>
      </trkpt>
      <trkpt lat="37.11666" lon="-8.75725">
        <ele>69.35</ele>
        <time>2020-09-05T13:53:30Z</time>
      </trkpt>
      <trkpt lat="37.11649" lon="-8.75714">
        <ele>69.83</ele>
        <time>2020-09-05T13:53:38Z</time>
      </trkpt>
      <trkpt lat="37.11631" lon="-8.757">
        <ele>71.27</ele>
        <time>2020-09-05T13:53:47Z</time>
      </trkpt>
      <trkpt lat="37.11603" lon="-8.75681">
        <ele>72.24</ele>
        <time>2020-09-05T13:53:59Z</time>
      </trkpt>
      <trkpt lat="37.11586" lon="-8.75668">
        <ele>72.72</ele>
        <time>2020-09-05T13:54:06Z</time>
      </trkpt>
      <trkpt lat="37.11564" lon="-8.75653">
        <ele>71.27</ele>
        <time>2020-09-05T13:54:12Z</time>
      </trkpt>
      <trkpt lat="37.11535" lon="-8.75631">
        <ele>68.87</ele>
        <time>2020-09-05T13:54:19Z</time>
      </trkpt>
      <trkpt lat="37.11513" lon="-8.75614">
        <ele>65.51</ele>
        <time>2020-09-05T13:54:24Z</time>
      </trkpt>
      <trkpt lat="37.11465" lon="-8.75581">
        <ele>61.66</ele>
        <time>2020-09-05T13:54:31Z</time>
      </trkpt>
      <trkpt lat="37.11422" lon="-8.7555">
        <ele>58.3</ele>
        <time>2020-09-05T13:54:37Z</time>
      </trkpt>
      <trkpt lat="37.11403" lon="-8.75537">
        <ele>57.34</ele>
        <time>2020-09-05T13:54:41Z</time>
      </trkpt>
      <trkpt lat="37.11399" lon="-8.75527">
        <ele>57.34</ele>
        <time>2020-09-05T13:54:43Z</time>
      </trkpt>
      <trkpt lat="37.114" lon="-8.75523">
        <ele>56.86</ele>
        <time>2020-09-05T13:54:44Z</time>
      </trkpt>
      <trkpt lat="37.11401" lon="-8.7552">
        <ele>56.86</ele>
        <time>2020-09-05T13:54:45Z</time>
      </trkpt>
      <trkpt lat="37.11402" lon="-8.75516">
        <ele>56.86</ele>
        <time>2020-09-05T13:54:46Z</time>
      </trkpt>
      <trkpt lat="37.11404" lon="-8.75513">
        <ele>56.86</ele>
        <time>2020-09-05T13:54:47Z</time>
      </trkpt>
      <trkpt lat="37.11407" lon="-8.7551">
        <ele>56.86</ele>
        <time>2020-09-05T13:54:48Z</time>
      </trkpt>
      <trkpt lat="37.11428" lon="-8.75477">
        <ele>58.78</ele>
        <time>2020-09-05T13:54:57Z</time>
      </trkpt>
      <trkpt lat="37.11442" lon="-8.75456">
        <ele>58.78</ele>
        <time>2020-09-05T13:55:03Z</time>
      </trkpt>
      <trkpt lat="37.1146" lon="-8.75413">
        <ele>60.7</ele>
        <time>2020-09-05T13:55:13Z</time>
      </trkpt>
      <trkpt lat="37.11478" lon="-8.75372">
        <ele>62.14</ele>
        <time>2020-09-05T13:55:23Z</time>
      </trkpt>
      <trkpt lat="37.115" lon="-8.75326">
        <ele>64.07</ele>
        <time>2020-09-05T13:55:34Z</time>
      </trkpt>
      <trkpt lat="37.11522" lon="-8.75295">
        <ele>62.62</ele>
        <time>2020-09-05T13:55:42Z</time>
      </trkpt>
      <trkpt lat="37.11528" lon="-8.75285">
        <ele>61.66</ele>
        <time>2020-09-05T13:55:44Z</time>
      </trkpt>
      <trkpt lat="37.11531" lon="-8.75279">
        <ele>61.18</ele>
        <time>2020-09-05T13:55:45Z</time>
      </trkpt>
      <trkpt lat="37.11534" lon="-8.75273">
        <ele>61.18</ele>
        <time>2020-09-05T13:55:46Z</time>
      </trkpt>
      <trkpt lat="37.11554" lon="-8.75215">
        <ele>59.26</ele>
        <time>2020-09-05T13:55:54Z</time>
      </trkpt>
      <trkpt lat="37.11559" lon="-8.752">
        <ele>57.82</ele>
        <time>2020-09-05T13:55:56Z</time>
      </trkpt>
      <trkpt lat="37.11562" lon="-8.75192">
        <ele>57.82</ele>
        <time>2020-09-05T13:55:57Z</time>
      </trkpt>
      <trkpt lat="37.11571" lon="-8.75155">
        <ele>57.34</ele>
        <time>2020-09-05T13:56:02Z</time>
      </trkpt>
      <trkpt lat="37.11577" lon="-8.75143">
        <ele>57.34</ele>
        <time>2020-09-05T13:56:04Z</time>
      </trkpt>
      <trkpt lat="37.11578" lon="-8.75136">
        <ele>57.34</ele>
        <time>2020-09-05T13:56:05Z</time>
      </trkpt>
      <trkpt lat="37.11578" lon="-8.7513">
        <ele>57.34</ele>
        <time>2020-09-05T13:56:06Z</time>
      </trkpt>
      <trkpt lat="37.11577" lon="-8.75124">
        <ele>57.34</ele>
        <time>2020-09-05T13:56:07Z</time>
      </trkpt>
      <trkpt lat="37.11574" lon="-8.75118">
        <ele>57.34</ele>
        <time>2020-09-05T13:56:08Z</time>
      </trkpt>
      <trkpt lat="37.11571" lon="-8.75113">
        <ele>56.86</ele>
        <time>2020-09-05T13:56:09Z</time>
      </trkpt>
      <trkpt lat="37.11567" lon="-8.75109">
        <ele>56.86</ele>
        <time>2020-09-05T13:56:10Z</time>
      </trkpt>
      <trkpt lat="37.11563" lon="-8.75106">
        <ele>56.37</ele>
        <time>2020-09-05T13:56:11Z</time>
      </trkpt>
      <trkpt lat="37.11559" lon="-8.75103">
        <ele>55.41</ele>
        <time>2020-09-05T13:56:12Z</time>
      </trkpt>
      <trkpt lat="37.11555" lon="-8.75102">
        <ele>55.41</ele>
        <time>2020-09-05T13:56:13Z</time>
      </trkpt>
      <trkpt lat="37.11551" lon="-8.751">
        <ele>55.41</ele>
        <time>2020-09-05T13:56:14Z</time>
      </trkpt>
      <trkpt lat="37.11547" lon="-8.75099">
        <ele>54.93</ele>
        <time>2020-09-05T13:56:15Z</time>
      </trkpt>
      <trkpt lat="37.11543" lon="-8.75097">
        <ele>54.93</ele>
        <time>2020-09-05T13:56:16Z</time>
      </trkpt>
      <trkpt lat="37.1154" lon="-8.75094">
        <ele>54.45</ele>
        <time>2020-09-05T13:56:17Z</time>
      </trkpt>
      <trkpt lat="37.11538" lon="-8.7509">
        <ele>54.45</ele>
        <time>2020-09-05T13:56:18Z</time>
      </trkpt>
      <trkpt lat="37.11537" lon="-8.75085">
        <ele>54.45</ele>
        <time>2020-09-05T13:56:19Z</time>
      </trkpt>
      <trkpt lat="37.11537" lon="-8.75081">
        <ele>54.45</ele>
        <time>2020-09-05T13:56:20Z</time>
      </trkpt>
      <trkpt lat="37.11537" lon="-8.75077">
        <ele>54.45</ele>
        <time>2020-09-05T13:56:21Z</time>
      </trkpt>
      <trkpt lat="37.11537" lon="-8.75073">
        <ele>54.45</ele>
        <time>2020-09-05T13:56:22Z</time>
      </trkpt>
      <trkpt lat="37.11544" lon="-8.75054">
        <ele>54.45</ele>
        <time>2020-09-05T13:56:28Z</time>
      </trkpt>
      <trkpt lat="37.1156" lon="-8.75036">
        <ele>54.45</ele>
        <time>2020-09-05T13:56:35Z</time>
      </trkpt>
      <trkpt lat="37.11566" lon="-8.75029">
        <ele>56.37</ele>
        <time>2020-09-05T13:56:38Z</time>
      </trkpt>
      <trkpt lat="37.11577" lon="-8.75011">
        <ele>57.34</ele>
        <time>2020-09-05T13:56:44Z</time>
      </trkpt>
      <trkpt lat="37.11593" lon="-8.74985">
        <ele>58.78</ele>
        <time>2020-09-05T13:56:53Z</time>
      </trkpt>
      <trkpt lat="37.11601" lon="-8.74959">
        <ele>59.74</ele>
        <time>2020-09-05T13:57:01Z</time>
      </trkpt>
      <trkpt lat="37.11616" lon="-8.74929">
        <ele>62.14</ele>
        <time>2020-09-05T13:57:10Z</time>
      </trkpt>
      <trkpt lat="37.11636" lon="-8.74895">
        <ele>64.55</ele>
        <time>2020-09-05T13:57:21Z</time>
      </trkpt>
      <trkpt lat="37.11648" lon="-8.74862">
        <ele>66.47</ele>
        <time>2020-09-05T13:57:30Z</time>
      </trkpt>
      <trkpt lat="37.11662" lon="-8.74821">
        <ele>68.39</ele>
        <time>2020-09-05T13:57:41Z</time>
      </trkpt>
      <trkpt lat="37.11683" lon="-8.74794">
        <ele>68.87</ele>
        <time>2020-09-05T13:57:50Z</time>
      </trkpt>
      <trkpt lat="37.11701" lon="-8.74766">
        <ele>70.31</ele>
        <time>2020-09-05T13:57:58Z</time>
      </trkpt>
      <trkpt lat="37.11718" lon="-8.74731">
        <ele>70.31</ele>
        <time>2020-09-05T13:58:07Z</time>
      </trkpt>
      <trkpt lat="37.11737" lon="-8.74696">
        <ele>70.79</ele>
        <time>2020-09-05T13:58:15Z</time>
      </trkpt>
      <trkpt lat="37.11765" lon="-8.74647">
        <ele>72.24</ele>
        <time>2020-09-05T13:58:26Z</time>
      </trkpt>
      <trkpt lat="37.11784" lon="-8.74604">
        <ele>73.68</ele>
        <time>2020-09-05T13:58:36Z</time>
      </trkpt>
      <trkpt lat="37.11808" lon="-8.74548">
        <ele>76.56</ele>
        <time>2020-09-05T13:58:49Z</time>
      </trkpt>
      <trkpt lat="37.11829" lon="-8.745">
        <ele>77.04</ele>
        <time>2020-09-05T13:58:59Z</time>
      </trkpt>
      <trkpt lat="37.11849" lon="-8.74442">
        <ele>77.04</ele>
        <time>2020-09-05T13:59:10Z</time>
      </trkpt>
      <trkpt lat="37.11872" lon="-8.74372">
        <ele>76.56</ele>
        <time>2020-09-05T13:59:22Z</time>
      </trkpt>
      <trkpt lat="37.11898" lon="-8.74302">
        <ele>77.04</ele>
        <time>2020-09-05T13:59:35Z</time>
      </trkpt>
      <trkpt lat="37.11923" lon="-8.74238">
        <ele>78.48</ele>
        <time>2020-09-05T13:59:47Z</time>
      </trkpt>
      <trkpt lat="37.11946" lon="-8.74173">
        <ele>79.45</ele>
        <time>2020-09-05T13:59:59Z</time>
      </trkpt>
      <trkpt lat="37.11964" lon="-8.74117">
        <ele>80.41</ele>
        <time>2020-09-05T14:00:09Z</time>
      </trkpt>
      <trkpt lat="37.11989" lon="-8.74043">
        <ele>81.37</ele>
        <time>2020-09-05T14:00:22Z</time>
      </trkpt>
      <trkpt lat="37.12017" lon="-8.73973">
        <ele>81.85</ele>
        <time>2020-09-05T14:00:35Z</time>
      </trkpt>
      <trkpt lat="37.12041" lon="-8.73922">
        <ele>82.33</ele>
        <time>2020-09-05T14:00:45Z</time>
      </trkpt>
      <trkpt lat="37.12055" lon="-8.73871">
        <ele>82.33</ele>
        <time>2020-09-05T14:00:54Z</time>
      </trkpt>
      <trkpt lat="37.12076" lon="-8.73815">
        <ele>81.37</ele>
        <time>2020-09-05T14:01:04Z</time>
      </trkpt>
      <trkpt lat="37.12111" lon="-8.7376">
        <ele>81.37</ele>
        <time>2020-09-05T14:01:15Z</time>
      </trkpt>
      <trkpt lat="37.12146" lon="-8.73702">
        <ele>81.37</ele>
        <time>2020-09-05T14:01:27Z</time>
      </trkpt>
      <trkpt lat="37.1219" lon="-8.73643">
        <ele>80.41</ele>
        <time>2020-09-05T14:01:39Z</time>
      </trkpt>
      <trkpt lat="37.12225" lon="-8.73602">
        <ele>79.93</ele>
        <time>2020-09-05T14:01:48Z</time>
      </trkpt>
      <trkpt lat="37.12273" lon="-8.73549">
        <ele>78.97</ele>
        <time>2020-09-05T14:02:00Z</time>
      </trkpt>
      <trkpt lat="37.12307" lon="-8.73508">
        <ele>78.97</ele>
        <time>2020-09-05T14:02:10Z</time>
      </trkpt>
      <trkpt lat="37.12331" lon="-8.73476">
        <ele>80.41</ele>
        <time>2020-09-05T14:02:18Z</time>
      </trkpt>
      <trkpt lat="37.1236" lon="-8.73433">
        <ele>81.37</ele>
        <time>2020-09-05T14:02:29Z</time>
      </trkpt>
      <trkpt lat="37.12388" lon="-8.73391">
        <ele>82.33</ele>
        <time>2020-09-05T14:02:39Z</time>
      </trkpt>
      <trkpt lat="37.12399" lon="-8.73375">
        <ele>82.33</ele>
        <time>2020-09-05T14:02:43Z</time>
      </trkpt>
      <trkpt lat="37.12432" lon="-8.73324">
        <ele>83.29</ele>
        <time>2020-09-05T14:02:55Z</time>
      </trkpt>
      <trkpt lat="37.12436" lon="-8.7332">
        <ele>83.29</ele>
        <time>2020-09-05T14:02:56Z</time>
      </trkpt>
      <trkpt lat="37.12439" lon="-8.73317">
        <ele>83.29</ele>
        <time>2020-09-05T14:02:57Z</time>
      </trkpt>
      <trkpt lat="37.12478" lon="-8.73294">
        <ele>84.25</ele>
        <time>2020-09-05T14:03:06Z</time>
      </trkpt>
      <trkpt lat="37.12516" lon="-8.73274">
        <ele>84.25</ele>
        <time>2020-09-05T14:03:15Z</time>
      </trkpt>
      <trkpt lat="37.12548" lon="-8.73268">
        <ele>84.25</ele>
        <time>2020-09-05T14:03:22Z</time>
      </trkpt>
      <trkpt lat="37.12604" lon="-8.73261">
        <ele>82.33</ele>
        <time>2020-09-05T14:03:31Z</time>
      </trkpt>
      <trkpt lat="37.12664" lon="-8.73254">
        <ele>81.37</ele>
        <time>2020-09-05T14:03:41Z</time>
      </trkpt>
      <trkpt lat="37.12714" lon="-8.73248">
        <ele>82.81</ele>
        <time>2020-09-05T14:03:51Z</time>
      </trkpt>
      <trkpt lat="37.12757" lon="-8.73243">
        <ele>84.25</ele>
        <time>2020-09-05T14:04:01Z</time>
      </trkpt>
      <trkpt lat="37.12782" lon="-8.73239">
        <ele>84.25</ele>
        <time>2020-09-05T14:04:08Z</time>
      </trkpt>
      <trkpt lat="37.12784" lon="-8.73235">
        <ele>84.25</ele>
        <time>2020-09-05T14:04:09Z</time>
      </trkpt>
      <trkpt lat="37.12785" lon="-8.73231">
        <ele>84.25</ele>
        <time>2020-09-05T14:04:10Z</time>
      </trkpt>
      <trkpt lat="37.12785" lon="-8.73225">
        <ele>84.25</ele>
        <time>2020-09-05T14:04:11Z</time>
      </trkpt>
      <trkpt lat="37.1278" lon="-8.73178">
        <ele>84.25</ele>
        <time>2020-09-05T14:04:19Z</time>
      </trkpt>
      <trkpt lat="37.12779" lon="-8.73148">
        <ele>82.81</ele>
        <time>2020-09-05T14:04:24Z</time>
      </trkpt>
      <trkpt lat="37.12777" lon="-8.73086">
        <ele>80.89</ele>
        <time>2020-09-05T14:04:32Z</time>
      </trkpt>
      <trkpt lat="37.12774" lon="-8.72978">
        <ele>80.89</ele>
        <time>2020-09-05T14:04:46Z</time>
      </trkpt>
      <trkpt lat="37.12767" lon="-8.72884">
        <ele>80.89</ele>
        <time>2020-09-05T14:04:59Z</time>
      </trkpt>
      <trkpt lat="37.12754" lon="-8.72848">
        <ele>80.41</ele>
        <time>2020-09-05T14:05:05Z</time>
      </trkpt>
      <trkpt lat="37.1275" lon="-8.72843">
        <ele>79.45</ele>
        <time>2020-09-05T14:05:06Z</time>
      </trkpt>
      <trkpt lat="37.12711" lon="-8.72795">
        <ele>79.45</ele>
        <time>2020-09-05T14:05:16Z</time>
      </trkpt>
      <trkpt lat="37.12668" lon="-8.72744">
        <ele>78</ele>
        <time>2020-09-05T14:05:26Z</time>
      </trkpt>
      <trkpt lat="37.12653" lon="-8.72715">
        <ele>76.56</ele>
        <time>2020-09-05T14:05:30Z</time>
      </trkpt>
      <trkpt lat="37.1265" lon="-8.72707">
        <ele>76.08</ele>
        <time>2020-09-05T14:05:31Z</time>
      </trkpt>
      <trkpt lat="37.12639" lon="-8.72653">
        <ele>73.2</ele>
        <time>2020-09-05T14:05:37Z</time>
      </trkpt>
      <trkpt lat="37.12622" lon="-8.72573">
        <ele>69.35</ele>
        <time>2020-09-05T14:05:45Z</time>
      </trkpt>
      <trkpt lat="37.1262" lon="-8.72562">
        <ele>69.35</ele>
        <time>2020-09-05T14:05:46Z</time>
      </trkpt>
      <trkpt lat="37.12605" lon="-8.72488">
        <ele>66.47</ele>
        <time>2020-09-05T14:05:53Z</time>
      </trkpt>
      <trkpt lat="37.12592" lon="-8.72408">
        <ele>63.1</ele>
        <time>2020-09-05T14:06:00Z</time>
      </trkpt>
      <trkpt lat="37.12591" lon="-8.72372">
        <ele>61.66</ele>
        <time>2020-09-05T14:06:03Z</time>
      </trkpt>
      <trkpt lat="37.12593" lon="-8.72361">
        <ele>61.66</ele>
        <time>2020-09-05T14:06:04Z</time>
      </trkpt>
      <trkpt lat="37.12595" lon="-8.7235">
        <ele>61.66</ele>
        <time>2020-09-05T14:06:05Z</time>
      </trkpt>
      <trkpt lat="37.12599" lon="-8.72341">
        <ele>61.66</ele>
        <time>2020-09-05T14:06:06Z</time>
      </trkpt>
      <trkpt lat="37.12604" lon="-8.72333">
        <ele>61.66</ele>
        <time>2020-09-05T14:06:07Z</time>
      </trkpt>
      <trkpt lat="37.1261" lon="-8.72325">
        <ele>61.66</ele>
        <time>2020-09-05T14:06:08Z</time>
      </trkpt>
      <trkpt lat="37.12615" lon="-8.72319">
        <ele>61.66</ele>
        <time>2020-09-05T14:06:09Z</time>
      </trkpt>
      <trkpt lat="37.12621" lon="-8.72313">
        <ele>61.66</ele>
        <time>2020-09-05T14:06:10Z</time>
      </trkpt>
      <trkpt lat="37.12641" lon="-8.72291">
        <ele>63.1</ele>
        <time>2020-09-05T14:06:14Z</time>
      </trkpt>
      <trkpt lat="37.12652" lon="-8.72273">
        <ele>63.1</ele>
        <time>2020-09-05T14:06:17Z</time>
      </trkpt>
      <trkpt lat="37.12655" lon="-8.72266">
        <ele>63.1</ele>
        <time>2020-09-05T14:06:18Z</time>
      </trkpt>
      <trkpt lat="37.12657" lon="-8.72259">
        <ele>63.1</ele>
        <time>2020-09-05T14:06:19Z</time>
      </trkpt>
      <trkpt lat="37.12658" lon="-8.72253">
        <ele>63.1</ele>
        <time>2020-09-05T14:06:20Z</time>
      </trkpt>
      <trkpt lat="37.12659" lon="-8.72246">
        <ele>63.1</ele>
        <time>2020-09-05T14:06:21Z</time>
      </trkpt>
      <trkpt lat="37.12659" lon="-8.72239">
        <ele>63.1</ele>
        <time>2020-09-05T14:06:22Z</time>
      </trkpt>
      <trkpt lat="37.12659" lon="-8.72232">
        <ele>63.1</ele>
        <time>2020-09-05T14:06:23Z</time>
      </trkpt>
      <trkpt lat="37.12655" lon="-8.72143">
        <ele>61.18</ele>
        <time>2020-09-05T14:06:36Z</time>
      </trkpt>
      <trkpt lat="37.12653" lon="-8.72083">
        <ele>59.74</ele>
        <time>2020-09-05T14:06:44Z</time>
      </trkpt>
      <trkpt lat="37.12648" lon="-8.71989">
        <ele>58.3</ele>
        <time>2020-09-05T14:06:56Z</time>
      </trkpt>
      <trkpt lat="37.12643" lon="-8.71884">
        <ele>54.93</ele>
        <time>2020-09-05T14:07:09Z</time>
      </trkpt>
      <trkpt lat="37.12639" lon="-8.71789">
        <ele>53.49</ele>
        <time>2020-09-05T14:07:21Z</time>
      </trkpt>
      <trkpt lat="37.12634" lon="-8.71679">
        <ele>51.57</ele>
        <time>2020-09-05T14:07:35Z</time>
      </trkpt>
      <trkpt lat="37.12629" lon="-8.71592">
        <ele>50.61</ele>
        <time>2020-09-05T14:07:47Z</time>
      </trkpt>
      <trkpt lat="37.12623" lon="-8.71538">
        <ele>51.09</ele>
        <time>2020-09-05T14:07:55Z</time>
      </trkpt>
      <trkpt lat="37.12603" lon="-8.71477">
        <ele>49.65</ele>
        <time>2020-09-05T14:08:04Z</time>
      </trkpt>
      <trkpt lat="37.12602" lon="-8.7147">
        <ele>49.65</ele>
        <time>2020-09-05T14:08:05Z</time>
      </trkpt>
      <trkpt lat="37.12601" lon="-8.71463">
        <ele>49.16</ele>
        <time>2020-09-05T14:08:06Z</time>
      </trkpt>
      <trkpt lat="37.12602" lon="-8.71405">
        <ele>48.68</ele>
        <time>2020-09-05T14:08:15Z</time>
      </trkpt>
      <trkpt lat="37.12604" lon="-8.71349">
        <ele>50.13</ele>
        <time>2020-09-05T14:08:24Z</time>
      </trkpt>
      <trkpt lat="37.12608" lon="-8.7126">
        <ele>52.05</ele>
        <time>2020-09-05T14:08:39Z</time>
      </trkpt>
      <trkpt lat="37.1261" lon="-8.71184">
        <ele>53.01</ele>
        <time>2020-09-05T14:08:52Z</time>
      </trkpt>
      <trkpt lat="37.12598" lon="-8.71125">
        <ele>54.45</ele>
        <time>2020-09-05T14:09:02Z</time>
      </trkpt>
      <trkpt lat="37.12578" lon="-8.71058">
        <ele>55.89</ele>
        <time>2020-09-05T14:09:14Z</time>
      </trkpt>
      <trkpt lat="37.12576" lon="-8.71053">
        <ele>55.89</ele>
        <time>2020-09-05T14:09:15Z</time>
      </trkpt>
      <trkpt lat="37.12545" lon="-8.71017">
        <ele>56.37</ele>
        <time>2020-09-05T14:09:24Z</time>
      </trkpt>
      <trkpt lat="37.12507" lon="-8.70977">
        <ele>57.34</ele>
        <time>2020-09-05T14:09:34Z</time>
      </trkpt>
      <trkpt lat="37.12469" lon="-8.70948">
        <ele>56.86</ele>
        <time>2020-09-05T14:09:43Z</time>
      </trkpt>
      <trkpt lat="37.12414" lon="-8.70916">
        <ele>57.34</ele>
        <time>2020-09-05T14:09:55Z</time>
      </trkpt>
      <trkpt lat="37.12358" lon="-8.70889">
        <ele>57.82</ele>
        <time>2020-09-05T14:10:07Z</time>
      </trkpt>
      <trkpt lat="37.12334" lon="-8.70878">
        <ele>59.74</ele>
        <time>2020-09-05T14:10:13Z</time>
      </trkpt>
      <trkpt lat="37.12331" lon="-8.70875">
        <ele>59.74</ele>
        <time>2020-09-05T14:10:14Z</time>
      </trkpt>
      <trkpt lat="37.12325" lon="-8.70867">
        <ele>60.7</ele>
        <time>2020-09-05T14:10:16Z</time>
      </trkpt>
      <trkpt lat="37.12322" lon="-8.70862">
        <ele>60.22</ele>
        <time>2020-09-05T14:10:17Z</time>
      </trkpt>
      <trkpt lat="37.1232" lon="-8.70857">
        <ele>60.7</ele>
        <time>2020-09-05T14:10:18Z</time>
      </trkpt>
      <trkpt lat="37.12318" lon="-8.70852">
        <ele>61.18</ele>
        <time>2020-09-05T14:10:19Z</time>
      </trkpt>
      <trkpt lat="37.12317" lon="-8.70847">
        <ele>61.18</ele>
        <time>2020-09-05T14:10:20Z</time>
      </trkpt>
      <trkpt lat="37.12316" lon="-8.70842">
        <ele>61.18</ele>
        <time>2020-09-05T14:10:21Z</time>
      </trkpt>
      <trkpt lat="37.12306" lon="-8.70787">
        <ele>61.66</ele>
        <time>2020-09-05T14:10:31Z</time>
      </trkpt>
      <trkpt lat="37.12298" lon="-8.70736">
        <ele>61.66</ele>
        <time>2020-09-05T14:10:39Z</time>
      </trkpt>
      <trkpt lat="37.12296" lon="-8.7073">
        <ele>61.66</ele>
        <time>2020-09-05T14:10:40Z</time>
      </trkpt>
      <trkpt lat="37.12281" lon="-8.707">
        <ele>60.22</ele>
        <time>2020-09-05T14:10:45Z</time>
      </trkpt>
      <trkpt lat="37.12261" lon="-8.70653">
        <ele>58.78</ele>
        <time>2020-09-05T14:10:52Z</time>
      </trkpt>
      <trkpt lat="37.1226" lon="-8.70645">
        <ele>58.78</ele>
        <time>2020-09-05T14:10:53Z</time>
      </trkpt>
      <trkpt lat="37.12259" lon="-8.70638">
        <ele>58.78</ele>
        <time>2020-09-05T14:10:54Z</time>
      </trkpt>
      <trkpt lat="37.12258" lon="-8.7063">
        <ele>58.78</ele>
        <time>2020-09-05T14:10:55Z</time>
      </trkpt>
      <trkpt lat="37.12258" lon="-8.70623">
        <ele>58.78</ele>
        <time>2020-09-05T14:10:56Z</time>
      </trkpt>
      <trkpt lat="37.12259" lon="-8.70616">
        <ele>58.78</ele>
        <time>2020-09-05T14:10:57Z</time>
      </trkpt>
      <trkpt lat="37.1226" lon="-8.70608">
        <ele>58.78</ele>
        <time>2020-09-05T14:10:58Z</time>
      </trkpt>
      <trkpt lat="37.12276" lon="-8.70538">
        <ele>58.3</ele>
        <time>2020-09-05T14:11:08Z</time>
      </trkpt>
      <trkpt lat="37.123" lon="-8.70471">
        <ele>57.82</ele>
        <time>2020-09-05T14:11:18Z</time>
      </trkpt>
      <trkpt lat="37.12325" lon="-8.70405">
        <ele>57.34</ele>
        <time>2020-09-05T14:11:28Z</time>
      </trkpt>
      <trkpt lat="37.12356" lon="-8.70323">
        <ele>56.37</ele>
        <time>2020-09-05T14:11:41Z</time>
      </trkpt>
      <trkpt lat="37.12386" lon="-8.70244">
        <ele>53.97</ele>
        <time>2020-09-05T14:11:52Z</time>
      </trkpt>
      <trkpt lat="37.12419" lon="-8.70162">
        <ele>51.09</ele>
        <time>2020-09-05T14:12:02Z</time>
      </trkpt>
      <trkpt lat="37.1245" lon="-8.70092">
        <ele>47.72</ele>
        <time>2020-09-05T14:12:10Z</time>
      </trkpt>
      <trkpt lat="37.12459" lon="-8.70074">
        <ele>47.24</ele>
        <time>2020-09-05T14:12:12Z</time>
      </trkpt>
      <trkpt lat="37.12488" lon="-8.70009">
        <ele>43.88</ele>
        <time>2020-09-05T14:12:19Z</time>
      </trkpt>
      <trkpt lat="37.12492" lon="-8.7">
        <ele>43.88</ele>
        <time>2020-09-05T14:12:20Z</time>
      </trkpt>
      <trkpt lat="37.12531" lon="-8.69914">
        <ele>40.51</ele>
        <time>2020-09-05T14:12:29Z</time>
      </trkpt>
      <trkpt lat="37.12571" lon="-8.69827">
        <ele>37.63</ele>
        <time>2020-09-05T14:12:38Z</time>
      </trkpt>
      <trkpt lat="37.1259" lon="-8.69777">
        <ele>35.71</ele>
        <time>2020-09-05T14:12:43Z</time>
      </trkpt>
      <trkpt lat="37.12592" lon="-8.69766">
        <ele>34.74</ele>
        <time>2020-09-05T14:12:44Z</time>
      </trkpt>
      <trkpt lat="37.12594" lon="-8.69754">
        <ele>34.74</ele>
        <time>2020-09-05T14:12:45Z</time>
      </trkpt>
      <trkpt lat="37.12597" lon="-8.69718">
        <ele>33.3</ele>
        <time>2020-09-05T14:12:48Z</time>
      </trkpt>
      <trkpt lat="37.12601" lon="-8.69657">
        <ele>29.94</ele>
        <time>2020-09-05T14:12:53Z</time>
      </trkpt>
      <trkpt lat="37.12604" lon="-8.69609">
        <ele>27.53</ele>
        <time>2020-09-05T14:12:57Z</time>
      </trkpt>
      <trkpt lat="37.12612" lon="-8.69559">
        <ele>24.65</ele>
        <time>2020-09-05T14:13:02Z</time>
      </trkpt>
      <trkpt lat="37.12613" lon="-8.69552">
        <ele>24.65</ele>
        <time>2020-09-05T14:13:03Z</time>
      </trkpt>
      <trkpt lat="37.12614" lon="-8.69545">
        <ele>24.17</ele>
        <time>2020-09-05T14:13:04Z</time>
      </trkpt>
      <trkpt lat="37.12614" lon="-8.69539">
        <ele>24.17</ele>
        <time>2020-09-05T14:13:05Z</time>
      </trkpt>
      <trkpt lat="37.12614" lon="-8.69533">
        <ele>23.69</ele>
        <time>2020-09-05T14:13:06Z</time>
      </trkpt>
      <trkpt lat="37.12614" lon="-8.6953">
        <ele>23.69</ele>
        <time>2020-09-05T14:13:07Z</time>
      </trkpt>
      <trkpt lat="37.12614" lon="-8.69526">
        <ele>23.21</ele>
        <time>2020-09-05T14:13:08Z</time>
      </trkpt>
      <trkpt lat="37.12615" lon="-8.69522">
        <ele>23.21</ele>
        <time>2020-09-05T14:13:09Z</time>
      </trkpt>
      <trkpt lat="37.12617" lon="-8.69518">
        <ele>23.21</ele>
        <time>2020-09-05T14:13:10Z</time>
      </trkpt>
      <trkpt lat="37.1262" lon="-8.69514">
        <ele>23.21</ele>
        <time>2020-09-05T14:13:11Z</time>
      </trkpt>
      <trkpt lat="37.12624" lon="-8.69511">
        <ele>23.21</ele>
        <time>2020-09-05T14:13:12Z</time>
      </trkpt>
      <trkpt lat="37.12628" lon="-8.6951">
        <ele>23.21</ele>
        <time>2020-09-05T14:13:13Z</time>
      </trkpt>
      <trkpt lat="37.12633" lon="-8.69508">
        <ele>23.21</ele>
        <time>2020-09-05T14:13:14Z</time>
      </trkpt>
      <trkpt lat="37.12676" lon="-8.69497">
        <ele>22.25</ele>
        <time>2020-09-05T14:13:22Z</time>
      </trkpt>
      <trkpt lat="37.1274" lon="-8.69481">
        <ele>21.29</ele>
        <time>2020-09-05T14:13:34Z</time>
      </trkpt>
      <trkpt lat="37.12744" lon="-8.69479">
        <ele>20.81</ele>
        <time>2020-09-05T14:13:35Z</time>
      </trkpt>
      <trkpt lat="37.12749" lon="-8.69476">
        <ele>20.81</ele>
        <time>2020-09-05T14:13:36Z</time>
      </trkpt>
      <trkpt lat="37.12753" lon="-8.69471">
        <ele>20.32</ele>
        <time>2020-09-05T14:13:37Z</time>
      </trkpt>
      <trkpt lat="37.12756" lon="-8.69464">
        <ele>20.32</ele>
        <time>2020-09-05T14:13:38Z</time>
      </trkpt>
      <trkpt lat="37.12756" lon="-8.69456">
        <ele>19.36</ele>
        <time>2020-09-05T14:13:39Z</time>
      </trkpt>
      <trkpt lat="37.12755" lon="-8.6945">
        <ele>18.88</ele>
        <time>2020-09-05T14:13:40Z</time>
      </trkpt>
      <trkpt lat="37.12752" lon="-8.69444">
        <ele>18.88</ele>
        <time>2020-09-05T14:13:41Z</time>
      </trkpt>
      <trkpt lat="37.12749" lon="-8.69438">
        <ele>18.88</ele>
        <time>2020-09-05T14:13:42Z</time>
      </trkpt>
      <trkpt lat="37.12745" lon="-8.69433">
        <ele>19.36</ele>
        <time>2020-09-05T14:13:43Z</time>
      </trkpt>
      <trkpt lat="37.12706" lon="-8.69379">
        <ele>19.36</ele>
        <time>2020-09-05T14:13:54Z</time>
      </trkpt>
      <trkpt lat="37.12693" lon="-8.69362">
        <ele>19.36</ele>
        <time>2020-09-05T14:13:58Z</time>
      </trkpt>
      <trkpt lat="37.12691" lon="-8.69357">
        <ele>19.36</ele>
        <time>2020-09-05T14:13:59Z</time>
      </trkpt>
      <trkpt lat="37.12689" lon="-8.6935">
        <ele>19.36</ele>
        <time>2020-09-05T14:14:00Z</time>
      </trkpt>
      <trkpt lat="37.12689" lon="-8.69342">
        <ele>19.36</ele>
        <time>2020-09-05T14:14:01Z</time>
      </trkpt>
      <trkpt lat="37.1269" lon="-8.69335">
        <ele>17.92</ele>
        <time>2020-09-05T14:14:02Z</time>
      </trkpt>
      <trkpt lat="37.12692" lon="-8.69328">
        <ele>17.44</ele>
        <time>2020-09-05T14:14:03Z</time>
      </trkpt>
      <trkpt lat="37.12696" lon="-8.69322">
        <ele>17.44</ele>
        <time>2020-09-05T14:14:04Z</time>
      </trkpt>
      <trkpt lat="37.127" lon="-8.69316">
        <ele>17.44</ele>
        <time>2020-09-05T14:14:05Z</time>
      </trkpt>
      <trkpt lat="37.12736" lon="-8.6926">
        <ele>16.96</ele>
        <time>2020-09-05T14:14:15Z</time>
      </trkpt>
      <trkpt lat="37.1278" lon="-8.69185">
        <ele>16.96</ele>
        <time>2020-09-05T14:14:28Z</time>
      </trkpt>
      <trkpt lat="37.12799" lon="-8.69147">
        <ele>16.96</ele>
        <time>2020-09-05T14:14:35Z</time>
      </trkpt>
      <trkpt lat="37.12802" lon="-8.69143">
        <ele>16.96</ele>
        <time>2020-09-05T14:14:36Z</time>
      </trkpt>
      <trkpt lat="37.12806" lon="-8.6914">
        <ele>16.96</ele>
        <time>2020-09-05T14:14:37Z</time>
      </trkpt>
      <trkpt lat="37.12811" lon="-8.6914">
        <ele>16.96</ele>
        <time>2020-09-05T14:14:38Z</time>
      </trkpt>
      <trkpt lat="37.12816" lon="-8.69141">
        <ele>16.96</ele>
        <time>2020-09-05T14:14:39Z</time>
      </trkpt>
      <trkpt lat="37.1282" lon="-8.69143">
        <ele>16.96</ele>
        <time>2020-09-05T14:14:40Z</time>
      </trkpt>
      <trkpt lat="37.12824" lon="-8.69147">
        <ele>16.96</ele>
        <time>2020-09-05T14:14:41Z</time>
      </trkpt>
      <trkpt lat="37.12863" lon="-8.6918">
        <ele>16.48</ele>
        <time>2020-09-05T14:14:49Z</time>
      </trkpt>
      <trkpt lat="37.12903" lon="-8.69208">
        <ele>16.48</ele>
        <time>2020-09-05T14:14:57Z</time>
      </trkpt>
      <trkpt lat="37.12908" lon="-8.6921">
        <ele>16.48</ele>
        <time>2020-09-05T14:14:58Z</time>
      </trkpt>
      <trkpt lat="37.12914" lon="-8.6921">
        <ele>16.48</ele>
        <time>2020-09-05T14:14:59Z</time>
      </trkpt>
      <trkpt lat="37.1292" lon="-8.69209">
        <ele>16.48</ele>
        <time>2020-09-05T14:15:00Z</time>
      </trkpt>
      <trkpt lat="37.12925" lon="-8.69207">
        <ele>16.48</ele>
        <time>2020-09-05T14:15:01Z</time>
      </trkpt>
      <trkpt lat="37.1293" lon="-8.69205">
        <ele>16.48</ele>
        <time>2020-09-05T14:15:02Z</time>
      </trkpt>
      <trkpt lat="37.13006" lon="-8.69168">
        <ele>16.48</ele>
        <time>2020-09-05T14:15:16Z</time>
      </trkpt>
      <trkpt lat="37.13059" lon="-8.6915">
        <ele>16.48</ele>
        <time>2020-09-05T14:15:26Z</time>
      </trkpt>
      <trkpt lat="37.13113" lon="-8.69141">
        <ele>16.48</ele>
        <time>2020-09-05T14:15:36Z</time>
      </trkpt>
      <trkpt lat="37.13118" lon="-8.69139">
        <ele>16.48</ele>
        <time>2020-09-05T14:15:37Z</time>
      </trkpt>
      <trkpt lat="37.13123" lon="-8.69137">
        <ele>16.48</ele>
        <time>2020-09-05T14:15:38Z</time>
      </trkpt>
      <trkpt lat="37.13128" lon="-8.69134">
        <ele>16.48</ele>
        <time>2020-09-05T14:15:39Z</time>
      </trkpt>
      <trkpt lat="37.13133" lon="-8.6913">
        <ele>16.48</ele>
        <time>2020-09-05T14:15:40Z</time>
      </trkpt>
      <trkpt lat="37.13137" lon="-8.69126">
        <ele>16.48</ele>
        <time>2020-09-05T14:15:41Z</time>
      </trkpt>
      <trkpt lat="37.1318" lon="-8.69087">
        <ele>16.48</ele>
        <time>2020-09-05T14:15:51Z</time>
      </trkpt>
      <trkpt lat="37.13224" lon="-8.69042">
        <ele>17.44</ele>
        <time>2020-09-05T14:16:02Z</time>
      </trkpt>
      <trkpt lat="37.13252" lon="-8.69014">
        <ele>17.44</ele>
        <time>2020-09-05T14:16:09Z</time>
      </trkpt>
      <trkpt lat="37.13292" lon="-8.6898">
        <ele>17.44</ele>
        <time>2020-09-05T14:16:19Z</time>
      </trkpt>
      <trkpt lat="37.13297" lon="-8.68978">
        <ele>17.44</ele>
        <time>2020-09-05T14:16:20Z</time>
      </trkpt>
      <trkpt lat="37.13301" lon="-8.68977">
        <ele>17.92</ele>
        <time>2020-09-05T14:16:21Z</time>
      </trkpt>
      <trkpt lat="37.13306" lon="-8.68978">
        <ele>17.92</ele>
        <time>2020-09-05T14:16:22Z</time>
      </trkpt>
      <trkpt lat="37.13311" lon="-8.6898">
        <ele>17.92</ele>
        <time>2020-09-05T14:16:23Z</time>
      </trkpt>
      <trkpt lat="37.13315" lon="-8.68983">
        <ele>17.92</ele>
        <time>2020-09-05T14:16:24Z</time>
      </trkpt>
      <trkpt lat="37.13319" lon="-8.68986">
        <ele>17.92</ele>
        <time>2020-09-05T14:16:25Z</time>
      </trkpt>
      <trkpt lat="37.13322" lon="-8.6899">
        <ele>17.92</ele>
        <time>2020-09-05T14:16:26Z</time>
      </trkpt>
      <trkpt lat="37.13356" lon="-8.69023">
        <ele>18.4</ele>
        <time>2020-09-05T14:16:36Z</time>
      </trkpt>
      <trkpt lat="37.1336" lon="-8.69023">
        <ele>19.36</ele>
        <time>2020-09-05T14:16:37Z</time>
      </trkpt>
      <trkpt lat="37.13364" lon="-8.69021">
        <ele>19.36</ele>
        <time>2020-09-05T14:16:38Z</time>
      </trkpt>
      <trkpt lat="37.13367" lon="-8.69019">
        <ele>19.36</ele>
        <time>2020-09-05T14:16:39Z</time>
      </trkpt>
      <trkpt lat="37.1337" lon="-8.69016">
        <ele>19.36</ele>
        <time>2020-09-05T14:16:40Z</time>
      </trkpt>
      <trkpt lat="37.13401" lon="-8.68992">
        <ele>20.32</ele>
        <time>2020-09-05T14:16:49Z</time>
      </trkpt>
      <trkpt lat="37.13424" lon="-8.68966">
        <ele>20.81</ele>
        <time>2020-09-05T14:16:57Z</time>
      </trkpt>
      <trkpt lat="37.13456" lon="-8.68928">
        <ele>21.29</ele>
        <time>2020-09-05T14:17:08Z</time>
      </trkpt>
      <trkpt lat="37.13492" lon="-8.68892">
        <ele>22.25</ele>
        <time>2020-09-05T14:17:20Z</time>
      </trkpt>
      <trkpt lat="37.13524" lon="-8.68873">
        <ele>23.21</ele>
        <time>2020-09-05T14:17:30Z</time>
      </trkpt>
      <trkpt lat="37.13563" lon="-8.68856">
        <ele>23.21</ele>
        <time>2020-09-05T14:17:39Z</time>
      </trkpt>
      <trkpt lat="37.13578" lon="-8.6885">
        <ele>21.77</ele>
        <time>2020-09-05T14:17:42Z</time>
      </trkpt>
      <trkpt lat="37.13614" lon="-8.68836">
        <ele>22.73</ele>
        <time>2020-09-05T14:17:51Z</time>
      </trkpt>
      <trkpt lat="37.13643" lon="-8.68825">
        <ele>22.25</ele>
        <time>2020-09-05T14:17:59Z</time>
      </trkpt>
      <trkpt lat="37.13648" lon="-8.68825">
        <ele>22.25</ele>
        <time>2020-09-05T14:18:00Z</time>
      </trkpt>
      <trkpt lat="37.13652" lon="-8.68824">
        <ele>21.77</ele>
        <time>2020-09-05T14:18:01Z</time>
      </trkpt>
      <trkpt lat="37.13657" lon="-8.68824">
        <ele>21.77</ele>
        <time>2020-09-05T14:18:02Z</time>
      </trkpt>
      <trkpt lat="37.13661" lon="-8.68824">
        <ele>21.77</ele>
        <time>2020-09-05T14:18:03Z</time>
      </trkpt>
      <trkpt lat="37.13672" lon="-8.68825">
        <ele>23.21</ele>
        <time>2020-09-05T14:18:06Z</time>
      </trkpt>
      <trkpt lat="37.13686" lon="-8.68835">
        <ele>24.17</ele>
        <time>2020-09-05T14:18:11Z</time>
      </trkpt>
      <trkpt lat="37.13696" lon="-8.68853">
        <ele>26.57</ele>
        <time>2020-09-05T14:18:16Z</time>
      </trkpt>
      <trkpt lat="37.1371" lon="-8.68893">
        <ele>29.46</ele>
        <time>2020-09-05T14:18:26Z</time>
      </trkpt>
      <trkpt lat="37.1373" lon="-8.68933">
        <ele>30.9</ele>
        <time>2020-09-05T14:18:36Z</time>
      </trkpt>
      <trkpt lat="37.13739" lon="-8.68941">
        <ele>32.34</ele>
        <time>2020-09-05T14:18:39Z</time>
      </trkpt>
      <trkpt lat="37.1376" lon="-8.68959">
        <ele>35.23</ele>
        <time>2020-09-05T14:18:46Z</time>
      </trkpt>
      <trkpt lat="37.13773" lon="-8.68975">
        <ele>37.63</ele>
        <time>2020-09-05T14:18:51Z</time>
      </trkpt>
      <trkpt lat="37.13784" lon="-8.69005">
        <ele>40.03</ele>
        <time>2020-09-05T14:18:59Z</time>
      </trkpt>
      <trkpt lat="37.13786" lon="-8.69043">
        <ele>41.95</ele>
        <time>2020-09-05T14:19:08Z</time>
      </trkpt>
      <trkpt lat="37.13783" lon="-8.69092">
        <ele>42.44</ele>
        <time>2020-09-05T14:19:19Z</time>
      </trkpt>
      <trkpt lat="37.13774" lon="-8.69111">
        <ele>42.44</ele>
        <time>2020-09-05T14:19:24Z</time>
      </trkpt>
      <trkpt lat="37.13767" lon="-8.69111">
        <ele>40.99</ele>
        <time>2020-09-05T14:19:26Z</time>
      </trkpt>
      <trkpt lat="37.13763" lon="-8.69109">
        <ele>40.99</ele>
        <time>2020-09-05T14:19:27Z</time>
      </trkpt>
      <trkpt lat="37.13759" lon="-8.69107">
        <ele>40.99</ele>
        <time>2020-09-05T14:19:28Z</time>
      </trkpt>
      <trkpt lat="37.13739" lon="-8.6909">
        <ele>40.51</ele>
        <time>2020-09-05T14:19:35Z</time>
      </trkpt>
      <trkpt lat="37.13738" lon="-8.69089">
        <ele>40.51</ele>
        <time>2020-09-05T14:19:39Z</time>
      </trkpt>
      <trkpt lat="37.13738" lon="-8.69088">
        <ele>38.11</ele>
        <time>2020-09-05T14:19:44Z</time>
      </trkpt>
      <trkpt lat="37.13738" lon="-8.69088">
        <ele>41.95</ele>
        <time>2020-09-05T14:19:45Z</time>
      </trkpt>
      <trkpt lat="37.13738" lon="-8.69088">
        <ele>39.55</ele>
        <time>2020-09-05T14:19:46Z</time>
      </trkpt>
      <trkpt lat="37.13739" lon="-8.69087">
        <ele>39.55</ele>
        <time>2020-09-05T14:20:02Z</time>
      </trkpt>
      <trkpt lat="37.13738" lon="-8.69088">
        <ele>39.07</ele>
        <time>2020-09-05T14:20:15Z</time>
      </trkpt>
      <trkpt lat="37.13738" lon="-8.69088">
        <ele>35.71</ele>
        <time>2020-09-05T14:20:22Z</time>
      </trkpt>
    </trkseg>
  </trk>
</gpx>